<?xml version="1.0" encoding="UTF-8" standalone="no" ?>
<gpx xmlns="http://www.topografix.com/GPX/1/1" xmlns:xsi="http://www.w3.org/2001/XMLSchema-instance" xsi:schemaLocation="http://www.topografix.com/GPX/1/1 http://www.topografix.com/GPX/1/1/gpx.xsd" version="1.1" creator="VisuGPX - https://www.visugpx.com">
  <metadata>
    <name>VTT - Teillon /Castellane</name>
    <desc><![CDATA[VTT - Castellane / Luens / bergerie du Teillon / clot d\' Agnon / Destourbes / ND du Roc - Relevé terrain : 40 km - den 1 975 m

CR ASCVTT:
[url]http://www.ascvtt.com/wordpress/2010/10/11/castellane-rocn-roll/[/url]]]></desc>
  </metadata>
  <trk>
    <name><![CDATA[2010-10-10T06:39:22Z]]></name>
    <trkseg>
      <trkpt lat="43.84602" lon="6.51493">
        <ele>717.2810059</ele>
        <time>2010-10-10T06:39:23Z</time>
      </trkpt>
      <trkpt lat="43.84607" lon="6.51474">
        <ele>714.3967285</ele>
        <time>2010-10-10T06:39:28Z</time>
      </trkpt>
      <trkpt lat="43.84613" lon="6.51477">
        <ele>717.2810059</ele>
        <time>2010-10-10T06:39:31Z</time>
      </trkpt>
      <trkpt lat="43.84624" lon="6.51483">
        <ele>724.4907227</ele>
        <time>2010-10-10T06:39:37Z</time>
      </trkpt>
      <trkpt lat="43.84634" lon="6.51486">
        <ele>729.777832</ele>
        <time>2010-10-10T06:39:40Z</time>
      </trkpt>
      <trkpt lat="43.8464" lon="6.51509">
        <ele>730.2585449</ele>
        <time>2010-10-10T06:39:45Z</time>
      </trkpt>
      <trkpt lat="43.84636" lon="6.51528">
        <ele>730.2585449</ele>
        <time>2010-10-10T06:39:49Z</time>
      </trkpt>
      <trkpt lat="43.84633" lon="6.51552">
        <ele>729.2971191</ele>
        <time>2010-10-10T06:39:55Z</time>
      </trkpt>
      <trkpt lat="43.84624" lon="6.51574">
        <ele>734.5847168</ele>
        <time>2010-10-10T06:40:01Z</time>
      </trkpt>
      <trkpt lat="43.84617" lon="6.51602">
        <ele>737.9492188</ele>
        <time>2010-10-10T06:40:09Z</time>
      </trkpt>
      <trkpt lat="43.84605" lon="6.51626">
        <ele>741.7944336</ele>
        <time>2010-10-10T06:40:16Z</time>
      </trkpt>
      <trkpt lat="43.84593" lon="6.51642">
        <ele>747.081543</ele>
        <time>2010-10-10T06:40:22Z</time>
      </trkpt>
      <trkpt lat="43.84583" lon="6.51654">
        <ele>748.0432129</ele>
        <time>2010-10-10T06:40:27Z</time>
      </trkpt>
      <trkpt lat="43.84563" lon="6.51661">
        <ele>734.5847168</ele>
        <time>2010-10-10T06:40:34Z</time>
      </trkpt>
      <trkpt lat="43.84546" lon="6.51658">
        <ele>730.2585449</ele>
        <time>2010-10-10T06:40:39Z</time>
      </trkpt>
      <trkpt lat="43.84525" lon="6.51652">
        <ele>729.777832</ele>
        <time>2010-10-10T06:40:44Z</time>
      </trkpt>
      <trkpt lat="43.8451" lon="6.51675">
        <ele>725.9326172</ele>
        <time>2010-10-10T06:40:49Z</time>
      </trkpt>
      <trkpt lat="43.84509" lon="6.51702">
        <ele>733.623291</ele>
        <time>2010-10-10T06:40:54Z</time>
      </trkpt>
      <trkpt lat="43.84505" lon="6.51736">
        <ele>733.1425781</ele>
        <time>2010-10-10T06:41:00Z</time>
      </trkpt>
      <trkpt lat="43.84502" lon="6.51743">
        <ele>736.0266113</ele>
        <time>2010-10-10T06:41:02Z</time>
      </trkpt>
      <trkpt lat="43.84495" lon="6.5177">
        <ele>732.1813965</ele>
        <time>2010-10-10T06:41:06Z</time>
      </trkpt>
      <trkpt lat="43.84487" lon="6.51814">
        <ele>730.2585449</ele>
        <time>2010-10-10T06:41:13Z</time>
      </trkpt>
      <trkpt lat="43.84481" lon="6.51827">
        <ele>736.5073242</ele>
        <time>2010-10-10T06:41:16Z</time>
      </trkpt>
      <trkpt lat="43.84465" lon="6.51854">
        <ele>743.2363281</ele>
        <time>2010-10-10T06:41:21Z</time>
      </trkpt>
      <trkpt lat="43.84464" lon="6.51868">
        <ele>743.717041</ele>
        <time>2010-10-10T06:41:23Z</time>
      </trkpt>
      <trkpt lat="43.84454" lon="6.5192">
        <ele>744.6782227</ele>
        <time>2010-10-10T06:41:31Z</time>
      </trkpt>
      <trkpt lat="43.84443" lon="6.51955">
        <ele>744.6782227</ele>
        <time>2010-10-10T06:41:36Z</time>
      </trkpt>
      <trkpt lat="43.84432" lon="6.52007">
        <ele>735.5458984</ele>
        <time>2010-10-10T06:41:42Z</time>
      </trkpt>
      <trkpt lat="43.84423" lon="6.52044">
        <ele>740.3525391</ele>
        <time>2010-10-10T06:41:48Z</time>
      </trkpt>
      <trkpt lat="43.84421" lon="6.52048">
        <ele>744.1977539</ele>
        <time>2010-10-10T06:41:49Z</time>
      </trkpt>
      <trkpt lat="43.84418" lon="6.52072">
        <ele>744.1977539</ele>
        <time>2010-10-10T06:41:53Z</time>
      </trkpt>
      <trkpt lat="43.84407" lon="6.52097">
        <ele>740.8330078</ele>
        <time>2010-10-10T06:41:57Z</time>
      </trkpt>
      <trkpt lat="43.84402" lon="6.52107">
        <ele>740.3525391</ele>
        <time>2010-10-10T06:41:59Z</time>
      </trkpt>
      <trkpt lat="43.84389" lon="6.52146">
        <ele>738.9106445</ele>
        <time>2010-10-10T06:42:05Z</time>
      </trkpt>
      <trkpt lat="43.84374" lon="6.52164">
        <ele>742.2751465</ele>
        <time>2010-10-10T06:42:09Z</time>
      </trkpt>
      <trkpt lat="43.84354" lon="6.52215">
        <ele>735.5458984</ele>
        <time>2010-10-10T06:42:16Z</time>
      </trkpt>
      <trkpt lat="43.84349" lon="6.52237">
        <ele>733.623291</ele>
        <time>2010-10-10T06:42:19Z</time>
      </trkpt>
      <trkpt lat="43.84329" lon="6.52279">
        <ele>736.987793</ele>
        <time>2010-10-10T06:42:24Z</time>
      </trkpt>
      <trkpt lat="43.84302" lon="6.52332">
        <ele>733.623291</ele>
        <time>2010-10-10T06:42:30Z</time>
      </trkpt>
      <trkpt lat="43.84283" lon="6.52389">
        <ele>740.3525391</ele>
        <time>2010-10-10T06:42:38Z</time>
      </trkpt>
      <trkpt lat="43.84271" lon="6.52421">
        <ele>745.6396484</ele>
        <time>2010-10-10T06:42:43Z</time>
      </trkpt>
      <trkpt lat="43.84269" lon="6.52435">
        <ele>745.6396484</ele>
        <time>2010-10-10T06:42:45Z</time>
      </trkpt>
      <trkpt lat="43.84258" lon="6.52487">
        <ele>745.6396484</ele>
        <time>2010-10-10T06:42:52Z</time>
      </trkpt>
      <trkpt lat="43.84245" lon="6.52547">
        <ele>738.9106445</ele>
        <time>2010-10-10T06:42:59Z</time>
      </trkpt>
      <trkpt lat="43.8423" lon="6.52596">
        <ele>730.7392578</ele>
        <time>2010-10-10T06:43:05Z</time>
      </trkpt>
      <trkpt lat="43.84214" lon="6.52632">
        <ele>724.0100098</ele>
        <time>2010-10-10T06:43:09Z</time>
      </trkpt>
      <trkpt lat="43.84207" lon="6.52689">
        <ele>724.9714355</ele>
        <time>2010-10-10T06:43:16Z</time>
      </trkpt>
      <trkpt lat="43.84213" lon="6.52726">
        <ele>728.3359375</ele>
        <time>2010-10-10T06:43:21Z</time>
      </trkpt>
      <trkpt lat="43.84221" lon="6.52768">
        <ele>735.0654297</ele>
        <time>2010-10-10T06:43:27Z</time>
      </trkpt>
      <trkpt lat="43.84223" lon="6.52775">
        <ele>734.1040039</ele>
        <time>2010-10-10T06:43:28Z</time>
      </trkpt>
      <trkpt lat="43.84228" lon="6.52798">
        <ele>734.1040039</ele>
        <time>2010-10-10T06:43:32Z</time>
      </trkpt>
      <trkpt lat="43.84242" lon="6.5286">
        <ele>736.0266113</ele>
        <time>2010-10-10T06:43:42Z</time>
      </trkpt>
      <trkpt lat="43.84253" lon="6.52909">
        <ele>739.3911133</ele>
        <time>2010-10-10T06:43:50Z</time>
      </trkpt>
      <trkpt lat="43.84266" lon="6.52962">
        <ele>739.8718262</ele>
        <time>2010-10-10T06:43:58Z</time>
      </trkpt>
      <trkpt lat="43.84279" lon="6.53014">
        <ele>739.8718262</ele>
        <time>2010-10-10T06:44:06Z</time>
      </trkpt>
      <trkpt lat="43.84291" lon="6.53061">
        <ele>739.3911133</ele>
        <time>2010-10-10T06:44:13Z</time>
      </trkpt>
      <trkpt lat="43.84307" lon="6.5312">
        <ele>739.3911133</ele>
        <time>2010-10-10T06:44:22Z</time>
      </trkpt>
      <trkpt lat="43.84319" lon="6.53171">
        <ele>740.8330078</ele>
        <time>2010-10-10T06:44:30Z</time>
      </trkpt>
      <trkpt lat="43.84331" lon="6.53221">
        <ele>741.3137207</ele>
        <time>2010-10-10T06:44:38Z</time>
      </trkpt>
      <trkpt lat="43.84342" lon="6.53267">
        <ele>743.2363281</ele>
        <time>2010-10-10T06:44:46Z</time>
      </trkpt>
      <trkpt lat="43.84355" lon="6.53313">
        <ele>742.2751465</ele>
        <time>2010-10-10T06:44:54Z</time>
      </trkpt>
      <trkpt lat="43.84358" lon="6.53325">
        <ele>741.7944336</ele>
        <time>2010-10-10T06:44:56Z</time>
      </trkpt>
      <trkpt lat="43.84364" lon="6.53363">
        <ele>745.1589355</ele>
        <time>2010-10-10T06:45:03Z</time>
      </trkpt>
      <trkpt lat="43.84371" lon="6.53402">
        <ele>746.1203613</ele>
        <time>2010-10-10T06:45:10Z</time>
      </trkpt>
      <trkpt lat="43.84369" lon="6.5343">
        <ele>747.081543</ele>
        <time>2010-10-10T06:45:16Z</time>
      </trkpt>
      <trkpt lat="43.84358" lon="6.53451">
        <ele>748.0432129</ele>
        <time>2010-10-10T06:45:22Z</time>
      </trkpt>
      <trkpt lat="43.84345" lon="6.5347">
        <ele>748.0432129</ele>
        <time>2010-10-10T06:45:29Z</time>
      </trkpt>
      <trkpt lat="43.84334" lon="6.53483">
        <ele>752.3688965</ele>
        <time>2010-10-10T06:45:35Z</time>
      </trkpt>
      <trkpt lat="43.84321" lon="6.53499">
        <ele>754.291748</ele>
        <time>2010-10-10T06:45:42Z</time>
      </trkpt>
      <trkpt lat="43.84309" lon="6.53514">
        <ele>759.5788574</ele>
        <time>2010-10-10T06:45:49Z</time>
      </trkpt>
      <trkpt lat="43.84297" lon="6.53529">
        <ele>761.9821777</ele>
        <time>2010-10-10T06:45:56Z</time>
      </trkpt>
      <trkpt lat="43.8428" lon="6.53552">
        <ele>762.9433594</ele>
        <time>2010-10-10T06:46:05Z</time>
      </trkpt>
      <trkpt lat="43.84268" lon="6.5357">
        <ele>764.385498</ele>
        <time>2010-10-10T06:46:12Z</time>
      </trkpt>
      <trkpt lat="43.84255" lon="6.53598">
        <ele>762.9433594</ele>
        <time>2010-10-10T06:46:21Z</time>
      </trkpt>
      <trkpt lat="43.84246" lon="6.53627">
        <ele>764.385498</ele>
        <time>2010-10-10T06:46:30Z</time>
      </trkpt>
      <trkpt lat="43.84241" lon="6.53651">
        <ele>766.7888184</ele>
        <time>2010-10-10T06:46:38Z</time>
      </trkpt>
      <trkpt lat="43.84243" lon="6.53655">
        <ele>769.6728516</ele>
        <time>2010-10-10T06:46:40Z</time>
      </trkpt>
      <trkpt lat="43.84233" lon="6.53681">
        <ele>767.2695312</ele>
        <time>2010-10-10T06:46:47Z</time>
      </trkpt>
      <trkpt lat="43.84225" lon="6.53715">
        <ele>769.6728516</ele>
        <time>2010-10-10T06:46:57Z</time>
      </trkpt>
      <trkpt lat="43.84216" lon="6.53748">
        <ele>771.5952148</ele>
        <time>2010-10-10T06:47:07Z</time>
      </trkpt>
      <trkpt lat="43.84209" lon="6.53775">
        <ele>773.0373535</ele>
        <time>2010-10-10T06:47:15Z</time>
      </trkpt>
      <trkpt lat="43.84204" lon="6.5381">
        <ele>774.479248</ele>
        <time>2010-10-10T06:47:25Z</time>
      </trkpt>
      <trkpt lat="43.84204" lon="6.53841">
        <ele>771.1147461</ele>
        <time>2010-10-10T06:47:33Z</time>
      </trkpt>
      <trkpt lat="43.84207" lon="6.53874">
        <ele>768.7114258</ele>
        <time>2010-10-10T06:47:42Z</time>
      </trkpt>
      <trkpt lat="43.84209" lon="6.53899">
        <ele>769.1921387</ele>
        <time>2010-10-10T06:47:49Z</time>
      </trkpt>
      <trkpt lat="43.84211" lon="6.53923">
        <ele>771.5952148</ele>
        <time>2010-10-10T06:47:56Z</time>
      </trkpt>
      <trkpt lat="43.84219" lon="6.53944">
        <ele>771.1147461</ele>
        <time>2010-10-10T06:48:02Z</time>
      </trkpt>
      <trkpt lat="43.84233" lon="6.53955">
        <ele>772.0759277</ele>
        <time>2010-10-10T06:48:08Z</time>
      </trkpt>
      <trkpt lat="43.84245" lon="6.53949">
        <ele>774.479248</ele>
        <time>2010-10-10T06:48:13Z</time>
      </trkpt>
      <trkpt lat="43.84256" lon="6.53931">
        <ele>779.2856445</ele>
        <time>2010-10-10T06:48:20Z</time>
      </trkpt>
      <trkpt lat="43.84269" lon="6.53911">
        <ele>791.3022461</ele>
        <time>2010-10-10T06:48:29Z</time>
      </trkpt>
      <trkpt lat="43.84286" lon="6.53905">
        <ele>794.1862793</ele>
        <time>2010-10-10T06:48:37Z</time>
      </trkpt>
      <trkpt lat="43.84309" lon="6.53911">
        <ele>789.8603516</ele>
        <time>2010-10-10T06:48:46Z</time>
      </trkpt>
      <trkpt lat="43.84329" lon="6.53923">
        <ele>791.782959</ele>
        <time>2010-10-10T06:48:55Z</time>
      </trkpt>
      <trkpt lat="43.84348" lon="6.53936">
        <ele>791.3022461</ele>
        <time>2010-10-10T06:49:03Z</time>
      </trkpt>
      <trkpt lat="43.84363" lon="6.53954">
        <ele>792.2636719</ele>
        <time>2010-10-10T06:49:11Z</time>
      </trkpt>
      <trkpt lat="43.84371" lon="6.53974">
        <ele>791.782959</ele>
        <time>2010-10-10T06:49:17Z</time>
      </trkpt>
      <trkpt lat="43.84382" lon="6.53997">
        <ele>790.8215332</ele>
        <time>2010-10-10T06:49:25Z</time>
      </trkpt>
      <trkpt lat="43.84387" lon="6.54025">
        <ele>790.3410645</ele>
        <time>2010-10-10T06:49:33Z</time>
      </trkpt>
      <trkpt lat="43.84389" lon="6.54053">
        <ele>789.3796387</ele>
        <time>2010-10-10T06:49:41Z</time>
      </trkpt>
      <trkpt lat="43.8439" lon="6.54084">
        <ele>789.3796387</ele>
        <time>2010-10-10T06:49:50Z</time>
      </trkpt>
      <trkpt lat="43.84393" lon="6.54107">
        <ele>790.3410645</ele>
        <time>2010-10-10T06:49:57Z</time>
      </trkpt>
      <trkpt lat="43.84399" lon="6.54131">
        <ele>789.8603516</ele>
        <time>2010-10-10T06:50:04Z</time>
      </trkpt>
      <trkpt lat="43.84406" lon="6.54158">
        <ele>790.8215332</ele>
        <time>2010-10-10T06:50:12Z</time>
      </trkpt>
      <trkpt lat="43.8441" lon="6.54178">
        <ele>791.3022461</ele>
        <time>2010-10-10T06:50:19Z</time>
      </trkpt>
      <trkpt lat="43.84411" lon="6.54199">
        <ele>793.2248535</ele>
        <time>2010-10-10T06:50:26Z</time>
      </trkpt>
      <trkpt lat="43.84405" lon="6.54224">
        <ele>796.1091309</ele>
        <time>2010-10-10T06:50:35Z</time>
      </trkpt>
      <trkpt lat="43.84397" lon="6.54248">
        <ele>799.4736328</ele>
        <time>2010-10-10T06:50:44Z</time>
      </trkpt>
      <trkpt lat="43.8439" lon="6.54269">
        <ele>801.8769531</ele>
        <time>2010-10-10T06:50:52Z</time>
      </trkpt>
      <trkpt lat="43.84381" lon="6.5429">
        <ele>810.0478516</ele>
        <time>2010-10-10T06:51:01Z</time>
      </trkpt>
      <trkpt lat="43.84377" lon="6.54304">
        <ele>807.6447754</ele>
        <time>2010-10-10T06:51:06Z</time>
      </trkpt>
      <trkpt lat="43.84368" lon="6.54317">
        <ele>809.5673828</ele>
        <time>2010-10-10T06:51:12Z</time>
      </trkpt>
      <trkpt lat="43.84358" lon="6.54333">
        <ele>811.0092773</ele>
        <time>2010-10-10T06:51:19Z</time>
      </trkpt>
      <trkpt lat="43.84351" lon="6.54353">
        <ele>811.0092773</ele>
        <time>2010-10-10T06:51:26Z</time>
      </trkpt>
      <trkpt lat="43.8435" lon="6.5438">
        <ele>811.0092773</ele>
        <time>2010-10-10T06:51:34Z</time>
      </trkpt>
      <trkpt lat="43.84348" lon="6.54406">
        <ele>812.9321289</ele>
        <time>2010-10-10T06:51:42Z</time>
      </trkpt>
      <trkpt lat="43.84345" lon="6.54432">
        <ele>815.8161621</ele>
        <time>2010-10-10T06:51:51Z</time>
      </trkpt>
      <trkpt lat="43.84342" lon="6.54457">
        <ele>817.2580566</ele>
        <time>2010-10-10T06:51:59Z</time>
      </trkpt>
      <trkpt lat="43.84335" lon="6.5448">
        <ele>816.7773438</ele>
        <time>2010-10-10T06:52:07Z</time>
      </trkpt>
      <trkpt lat="43.84326" lon="6.54495">
        <ele>817.2580566</ele>
        <time>2010-10-10T06:52:14Z</time>
      </trkpt>
      <trkpt lat="43.84313" lon="6.5451">
        <ele>818.2192383</ele>
        <time>2010-10-10T06:52:22Z</time>
      </trkpt>
      <trkpt lat="43.84307" lon="6.54526">
        <ele>816.2966309</ele>
        <time>2010-10-10T06:52:28Z</time>
      </trkpt>
      <trkpt lat="43.84297" lon="6.54545">
        <ele>814.8547363</ele>
        <time>2010-10-10T06:52:35Z</time>
      </trkpt>
      <trkpt lat="43.8429" lon="6.54559">
        <ele>814.8547363</ele>
        <time>2010-10-10T06:52:40Z</time>
      </trkpt>
      <trkpt lat="43.84282" lon="6.54578">
        <ele>817.2580566</ele>
        <time>2010-10-10T06:52:47Z</time>
      </trkpt>
      <trkpt lat="43.84277" lon="6.54599">
        <ele>821.1032715</ele>
        <time>2010-10-10T06:52:55Z</time>
      </trkpt>
      <trkpt lat="43.84273" lon="6.54622">
        <ele>821.5837402</ele>
        <time>2010-10-10T06:53:02Z</time>
      </trkpt>
      <trkpt lat="43.84269" lon="6.54639">
        <ele>823.9870605</ele>
        <time>2010-10-10T06:53:08Z</time>
      </trkpt>
      <trkpt lat="43.84265" lon="6.54658">
        <ele>827.8322754</ele>
        <time>2010-10-10T06:53:15Z</time>
      </trkpt>
      <trkpt lat="43.8426" lon="6.54686">
        <ele>831.6777344</ele>
        <time>2010-10-10T06:53:24Z</time>
      </trkpt>
      <trkpt lat="43.84253" lon="6.54712">
        <ele>832.1584473</ele>
        <time>2010-10-10T06:53:32Z</time>
      </trkpt>
      <trkpt lat="43.84243" lon="6.54719">
        <ele>832.6391602</ele>
        <time>2010-10-10T06:53:37Z</time>
      </trkpt>
      <trkpt lat="43.84229" lon="6.54714">
        <ele>832.6391602</ele>
        <time>2010-10-10T06:53:43Z</time>
      </trkpt>
      <trkpt lat="43.84224" lon="6.54698">
        <ele>836.484375</ele>
        <time>2010-10-10T06:53:49Z</time>
      </trkpt>
      <trkpt lat="43.84218" lon="6.54681">
        <ele>837.9262695</ele>
        <time>2010-10-10T06:53:56Z</time>
      </trkpt>
      <trkpt lat="43.84208" lon="6.54668">
        <ele>839.3681641</ele>
        <time>2010-10-10T06:54:02Z</time>
      </trkpt>
      <trkpt lat="43.84197" lon="6.54657">
        <ele>840.3295898</ele>
        <time>2010-10-10T06:54:08Z</time>
      </trkpt>
      <trkpt lat="43.84187" lon="6.54642">
        <ele>843.6940918</ele>
        <time>2010-10-10T06:54:14Z</time>
      </trkpt>
      <trkpt lat="43.84178" lon="6.54628">
        <ele>848.0202637</ele>
        <time>2010-10-10T06:54:20Z</time>
      </trkpt>
      <trkpt lat="43.84171" lon="6.54605">
        <ele>854.7492676</ele>
        <time>2010-10-10T06:54:27Z</time>
      </trkpt>
      <trkpt lat="43.84171" lon="6.54602">
        <ele>855.7106934</ele>
        <time>2010-10-10T06:54:28Z</time>
      </trkpt>
      <trkpt lat="43.84173" lon="6.54576">
        <ele>855.2299805</ele>
        <time>2010-10-10T06:54:35Z</time>
      </trkpt>
      <trkpt lat="43.84169" lon="6.54562">
        <ele>855.2299805</ele>
        <time>2010-10-10T06:54:40Z</time>
      </trkpt>
      <trkpt lat="43.84158" lon="6.54553">
        <ele>852.3459473</ele>
        <time>2010-10-10T06:54:45Z</time>
      </trkpt>
      <trkpt lat="43.84144" lon="6.54547">
        <ele>849.9428711</ele>
        <time>2010-10-10T06:54:51Z</time>
      </trkpt>
      <trkpt lat="43.84133" lon="6.54544">
        <ele>849.9428711</ele>
        <time>2010-10-10T06:54:56Z</time>
      </trkpt>
      <trkpt lat="43.84114" lon="6.54539">
        <ele>848.0202637</ele>
        <time>2010-10-10T06:55:03Z</time>
      </trkpt>
      <trkpt lat="43.84095" lon="6.54535">
        <ele>841.7714844</ele>
        <time>2010-10-10T06:55:10Z</time>
      </trkpt>
      <trkpt lat="43.84076" lon="6.54525">
        <ele>838.4069824</ele>
        <time>2010-10-10T06:55:18Z</time>
      </trkpt>
      <trkpt lat="43.8406" lon="6.54513">
        <ele>836.484375</ele>
        <time>2010-10-10T06:55:25Z</time>
      </trkpt>
      <trkpt lat="43.84041" lon="6.54505">
        <ele>833.1196289</ele>
        <time>2010-10-10T06:55:33Z</time>
      </trkpt>
      <trkpt lat="43.84026" lon="6.54493">
        <ele>836.484375</ele>
        <time>2010-10-10T06:55:39Z</time>
      </trkpt>
      <trkpt lat="43.84006" lon="6.5448">
        <ele>846.0976562</ele>
        <time>2010-10-10T06:55:46Z</time>
      </trkpt>
      <trkpt lat="43.83987" lon="6.54475">
        <ele>849.9428711</ele>
        <time>2010-10-10T06:55:54Z</time>
      </trkpt>
      <trkpt lat="43.83969" lon="6.54475">
        <ele>854.2687988</ele>
        <time>2010-10-10T06:56:01Z</time>
      </trkpt>
      <trkpt lat="43.83952" lon="6.54481">
        <ele>854.7492676</ele>
        <time>2010-10-10T06:56:08Z</time>
      </trkpt>
      <trkpt lat="43.83935" lon="6.54491">
        <ele>859.0751953</ele>
        <time>2010-10-10T06:56:16Z</time>
      </trkpt>
      <trkpt lat="43.83918" lon="6.54505">
        <ele>862.4399414</ele>
        <time>2010-10-10T06:56:25Z</time>
      </trkpt>
      <trkpt lat="43.83903" lon="6.54518">
        <ele>865.3239746</ele>
        <time>2010-10-10T06:56:32Z</time>
      </trkpt>
      <trkpt lat="43.83886" lon="6.5453">
        <ele>865.8046875</ele>
        <time>2010-10-10T06:56:39Z</time>
      </trkpt>
      <trkpt lat="43.83869" lon="6.54543">
        <ele>864.3625488</ele>
        <time>2010-10-10T06:56:46Z</time>
      </trkpt>
      <trkpt lat="43.83854" lon="6.54551">
        <ele>865.3239746</ele>
        <time>2010-10-10T06:56:53Z</time>
      </trkpt>
      <trkpt lat="43.83834" lon="6.54562">
        <ele>866.7658691</ele>
        <time>2010-10-10T06:57:02Z</time>
      </trkpt>
      <trkpt lat="43.83815" lon="6.54578">
        <ele>869.6499023</ele>
        <time>2010-10-10T06:57:11Z</time>
      </trkpt>
      <trkpt lat="43.83797" lon="6.5459">
        <ele>873.0144043</ele>
        <time>2010-10-10T06:57:19Z</time>
      </trkpt>
      <trkpt lat="43.83781" lon="6.54602">
        <ele>876.3791504</ele>
        <time>2010-10-10T06:57:26Z</time>
      </trkpt>
      <trkpt lat="43.83762" lon="6.54615">
        <ele>876.3791504</ele>
        <time>2010-10-10T06:57:34Z</time>
      </trkpt>
      <trkpt lat="43.83744" lon="6.54626">
        <ele>874.4562988</ele>
        <time>2010-10-10T06:57:41Z</time>
      </trkpt>
      <trkpt lat="43.83724" lon="6.54627">
        <ele>875.8981934</ele>
        <time>2010-10-10T06:57:48Z</time>
      </trkpt>
      <trkpt lat="43.837" lon="6.54627">
        <ele>878.3017578</ele>
        <time>2010-10-10T06:57:57Z</time>
      </trkpt>
      <trkpt lat="43.83681" lon="6.5463">
        <ele>878.7824707</ele>
        <time>2010-10-10T06:58:04Z</time>
      </trkpt>
      <trkpt lat="43.83666" lon="6.54635">
        <ele>879.2629395</ele>
        <time>2010-10-10T06:58:10Z</time>
      </trkpt>
      <trkpt lat="43.83645" lon="6.54654">
        <ele>880.2243652</ele>
        <time>2010-10-10T06:58:19Z</time>
      </trkpt>
      <trkpt lat="43.83635" lon="6.54677">
        <ele>880.2243652</ele>
        <time>2010-10-10T06:58:26Z</time>
      </trkpt>
      <trkpt lat="43.83626" lon="6.54714">
        <ele>880.7050781</ele>
        <time>2010-10-10T06:58:36Z</time>
      </trkpt>
      <trkpt lat="43.83612" lon="6.54725">
        <ele>882.6276855</ele>
        <time>2010-10-10T06:58:41Z</time>
      </trkpt>
      <trkpt lat="43.83597" lon="6.54724">
        <ele>883.1081543</ele>
        <time>2010-10-10T06:58:46Z</time>
      </trkpt>
      <trkpt lat="43.83576" lon="6.54722">
        <ele>885.9921875</ele>
        <time>2010-10-10T06:58:53Z</time>
      </trkpt>
      <trkpt lat="43.83558" lon="6.54722">
        <ele>888.8762207</ele>
        <time>2010-10-10T06:59:00Z</time>
      </trkpt>
      <trkpt lat="43.83541" lon="6.54723">
        <ele>890.798584</ele>
        <time>2010-10-10T06:59:07Z</time>
      </trkpt>
      <trkpt lat="43.83521" lon="6.54735">
        <ele>892.2409668</ele>
        <time>2010-10-10T06:59:16Z</time>
      </trkpt>
      <trkpt lat="43.83504" lon="6.54752">
        <ele>892.7216797</ele>
        <time>2010-10-10T06:59:24Z</time>
      </trkpt>
      <trkpt lat="43.83489" lon="6.54773">
        <ele>892.7216797</ele>
        <time>2010-10-10T06:59:32Z</time>
      </trkpt>
      <trkpt lat="43.83477" lon="6.54796">
        <ele>893.2021484</ele>
        <time>2010-10-10T06:59:40Z</time>
      </trkpt>
      <trkpt lat="43.83466" lon="6.54819">
        <ele>895.1247559</ele>
        <time>2010-10-10T06:59:48Z</time>
      </trkpt>
      <trkpt lat="43.83455" lon="6.54844">
        <ele>900.8925781</ele>
        <time>2010-10-10T06:59:57Z</time>
      </trkpt>
      <trkpt lat="43.83444" lon="6.54868">
        <ele>903.2958984</ele>
        <time>2010-10-10T07:00:05Z</time>
      </trkpt>
      <trkpt lat="43.83435" lon="6.54883">
        <ele>900.8925781</ele>
        <time>2010-10-10T07:00:10Z</time>
      </trkpt>
      <trkpt lat="43.83422" lon="6.54894">
        <ele>898.4892578</ele>
        <time>2010-10-10T07:00:15Z</time>
      </trkpt>
      <trkpt lat="43.83405" lon="6.54896">
        <ele>898.9699707</ele>
        <time>2010-10-10T07:00:21Z</time>
      </trkpt>
      <trkpt lat="43.83386" lon="6.54901">
        <ele>901.8540039</ele>
        <time>2010-10-10T07:00:28Z</time>
      </trkpt>
      <trkpt lat="43.83368" lon="6.54911">
        <ele>901.8540039</ele>
        <time>2010-10-10T07:00:35Z</time>
      </trkpt>
      <trkpt lat="43.8335" lon="6.54927">
        <ele>901.373291</ele>
        <time>2010-10-10T07:00:43Z</time>
      </trkpt>
      <trkpt lat="43.83339" lon="6.54939">
        <ele>901.8540039</ele>
        <time>2010-10-10T07:00:49Z</time>
      </trkpt>
      <trkpt lat="43.83323" lon="6.54957">
        <ele>900.8925781</ele>
        <time>2010-10-10T07:00:57Z</time>
      </trkpt>
      <trkpt lat="43.8331" lon="6.54974">
        <ele>901.8540039</ele>
        <time>2010-10-10T07:01:04Z</time>
      </trkpt>
      <trkpt lat="43.83297" lon="6.54993">
        <ele>905.6992188</ele>
        <time>2010-10-10T07:01:12Z</time>
      </trkpt>
      <trkpt lat="43.83277" lon="6.5501">
        <ele>911.4672852</ele>
        <time>2010-10-10T07:01:21Z</time>
      </trkpt>
      <trkpt lat="43.8326" lon="6.55024">
        <ele>911.4672852</ele>
        <time>2010-10-10T07:01:29Z</time>
      </trkpt>
      <trkpt lat="43.83245" lon="6.55036">
        <ele>911.4672852</ele>
        <time>2010-10-10T07:01:36Z</time>
      </trkpt>
      <trkpt lat="43.8323" lon="6.55046">
        <ele>914.3510742</ele>
        <time>2010-10-10T07:01:43Z</time>
      </trkpt>
      <trkpt lat="43.83215" lon="6.55056">
        <ele>914.8317871</ele>
        <time>2010-10-10T07:01:49Z</time>
      </trkpt>
      <trkpt lat="43.83199" lon="6.55069">
        <ele>916.2736816</ele>
        <time>2010-10-10T07:01:56Z</time>
      </trkpt>
      <trkpt lat="43.83184" lon="6.55081">
        <ele>917.2351074</ele>
        <time>2010-10-10T07:02:03Z</time>
      </trkpt>
      <trkpt lat="43.83168" lon="6.55098">
        <ele>918.677002</ele>
        <time>2010-10-10T07:02:10Z</time>
      </trkpt>
      <trkpt lat="43.83154" lon="6.55116">
        <ele>921.560791</ele>
        <time>2010-10-10T07:02:17Z</time>
      </trkpt>
      <trkpt lat="43.83143" lon="6.55131">
        <ele>923.9641113</ele>
        <time>2010-10-10T07:02:23Z</time>
      </trkpt>
      <trkpt lat="43.83129" lon="6.55159">
        <ele>922.0415039</ele>
        <time>2010-10-10T07:02:31Z</time>
      </trkpt>
      <trkpt lat="43.8312" lon="6.55188">
        <ele>922.0415039</ele>
        <time>2010-10-10T07:02:38Z</time>
      </trkpt>
      <trkpt lat="43.83119" lon="6.55194">
        <ele>922.0415039</ele>
        <time>2010-10-10T07:02:39Z</time>
      </trkpt>
      <trkpt lat="43.83123" lon="6.55241">
        <ele>922.0415039</ele>
        <time>2010-10-10T07:02:47Z</time>
      </trkpt>
      <trkpt lat="43.83128" lon="6.55284">
        <ele>923.4836426</ele>
        <time>2010-10-10T07:02:55Z</time>
      </trkpt>
      <trkpt lat="43.83131" lon="6.55328">
        <ele>922.5222168</ele>
        <time>2010-10-10T07:03:02Z</time>
      </trkpt>
      <trkpt lat="43.83132" lon="6.5534">
        <ele>923.0029297</ele>
        <time>2010-10-10T07:03:04Z</time>
      </trkpt>
      <trkpt lat="43.83131" lon="6.55364">
        <ele>923.4836426</ele>
        <time>2010-10-10T07:03:08Z</time>
      </trkpt>
      <trkpt lat="43.83124" lon="6.5542">
        <ele>923.4836426</ele>
        <time>2010-10-10T07:03:18Z</time>
      </trkpt>
      <trkpt lat="43.83122" lon="6.55431">
        <ele>923.9641113</ele>
        <time>2010-10-10T07:03:20Z</time>
      </trkpt>
      <trkpt lat="43.83114" lon="6.55469">
        <ele>923.4836426</ele>
        <time>2010-10-10T07:03:27Z</time>
      </trkpt>
      <trkpt lat="43.83098" lon="6.55525">
        <ele>924.4450684</ele>
        <time>2010-10-10T07:03:38Z</time>
      </trkpt>
      <trkpt lat="43.83089" lon="6.55555">
        <ele>925.8869629</ele>
        <time>2010-10-10T07:03:45Z</time>
      </trkpt>
      <trkpt lat="43.8308" lon="6.55589">
        <ele>928.2902832</ele>
        <time>2010-10-10T07:03:53Z</time>
      </trkpt>
      <trkpt lat="43.83075" lon="6.55608">
        <ele>929.7321777</ele>
        <time>2010-10-10T07:03:58Z</time>
      </trkpt>
      <trkpt lat="43.83065" lon="6.55641">
        <ele>930.2128906</ele>
        <time>2010-10-10T07:04:06Z</time>
      </trkpt>
      <trkpt lat="43.83057" lon="6.55674">
        <ele>931.1743164</ele>
        <time>2010-10-10T07:04:13Z</time>
      </trkpt>
      <trkpt lat="43.83053" lon="6.55712">
        <ele>934.0581055</ele>
        <time>2010-10-10T07:04:21Z</time>
      </trkpt>
      <trkpt lat="43.83049" lon="6.55746">
        <ele>935.9807129</ele>
        <time>2010-10-10T07:04:28Z</time>
      </trkpt>
      <trkpt lat="43.83046" lon="6.55787">
        <ele>934.5388184</ele>
        <time>2010-10-10T07:04:35Z</time>
      </trkpt>
      <trkpt lat="43.83042" lon="6.55822">
        <ele>937.9033203</ele>
        <time>2010-10-10T07:04:41Z</time>
      </trkpt>
      <trkpt lat="43.83031" lon="6.55874">
        <ele>937.9033203</ele>
        <time>2010-10-10T07:04:49Z</time>
      </trkpt>
      <trkpt lat="43.83029" lon="6.55919">
        <ele>937.4226074</ele>
        <time>2010-10-10T07:04:55Z</time>
      </trkpt>
      <trkpt lat="43.83034" lon="6.55967">
        <ele>932.6162109</ele>
        <time>2010-10-10T07:05:01Z</time>
      </trkpt>
      <trkpt lat="43.83039" lon="6.56024">
        <ele>930.2128906</ele>
        <time>2010-10-10T07:05:08Z</time>
      </trkpt>
      <trkpt lat="43.83041" lon="6.56074">
        <ele>929.7321777</ele>
        <time>2010-10-10T07:05:14Z</time>
      </trkpt>
      <trkpt lat="43.83044" lon="6.56132">
        <ele>929.2514648</ele>
        <time>2010-10-10T07:05:21Z</time>
      </trkpt>
      <trkpt lat="43.83044" lon="6.56173">
        <ele>930.2128906</ele>
        <time>2010-10-10T07:05:27Z</time>
      </trkpt>
      <trkpt lat="43.8304" lon="6.56211">
        <ele>930.2128906</ele>
        <time>2010-10-10T07:05:35Z</time>
      </trkpt>
      <trkpt lat="43.83029" lon="6.56244">
        <ele>931.6547852</ele>
        <time>2010-10-10T07:05:44Z</time>
      </trkpt>
      <trkpt lat="43.83017" lon="6.56264">
        <ele>933.0966797</ele>
        <time>2010-10-10T07:05:51Z</time>
      </trkpt>
      <trkpt lat="43.83004" lon="6.56278">
        <ele>935.9807129</ele>
        <time>2010-10-10T07:05:57Z</time>
      </trkpt>
      <trkpt lat="43.82987" lon="6.56294">
        <ele>940.3068848</ele>
        <time>2010-10-10T07:06:05Z</time>
      </trkpt>
      <trkpt lat="43.82968" lon="6.56314">
        <ele>939.3452148</ele>
        <time>2010-10-10T07:06:14Z</time>
      </trkpt>
      <trkpt lat="43.82948" lon="6.56333">
        <ele>939.8259277</ele>
        <time>2010-10-10T07:06:23Z</time>
      </trkpt>
      <trkpt lat="43.82936" lon="6.56346">
        <ele>940.7873535</ele>
        <time>2010-10-10T07:06:29Z</time>
      </trkpt>
      <trkpt lat="43.82919" lon="6.5636">
        <ele>944.6325684</ele>
        <time>2010-10-10T07:06:37Z</time>
      </trkpt>
      <trkpt lat="43.82901" lon="6.56376">
        <ele>947.0358887</ele>
        <time>2010-10-10T07:06:45Z</time>
      </trkpt>
      <trkpt lat="43.82885" lon="6.56392">
        <ele>947.9973145</ele>
        <time>2010-10-10T07:06:53Z</time>
      </trkpt>
      <trkpt lat="43.82866" lon="6.56409">
        <ele>950.4006348</ele>
        <time>2010-10-10T07:07:02Z</time>
      </trkpt>
      <trkpt lat="43.82847" lon="6.56425">
        <ele>953.7651367</ele>
        <time>2010-10-10T07:07:11Z</time>
      </trkpt>
      <trkpt lat="43.82831" lon="6.56439">
        <ele>957.1298828</ele>
        <time>2010-10-10T07:07:19Z</time>
      </trkpt>
      <trkpt lat="43.82812" lon="6.56455">
        <ele>957.1298828</ele>
        <time>2010-10-10T07:07:27Z</time>
      </trkpt>
      <trkpt lat="43.82798" lon="6.56471">
        <ele>958.0913086</ele>
        <time>2010-10-10T07:07:34Z</time>
      </trkpt>
      <trkpt lat="43.82782" lon="6.56487">
        <ele>958.5717773</ele>
        <time>2010-10-10T07:07:41Z</time>
      </trkpt>
      <trkpt lat="43.82771" lon="6.56504">
        <ele>960.4943848</ele>
        <time>2010-10-10T07:07:47Z</time>
      </trkpt>
      <trkpt lat="43.82758" lon="6.56533">
        <ele>964.3395996</ele>
        <time>2010-10-10T07:07:57Z</time>
      </trkpt>
      <trkpt lat="43.82753" lon="6.56553">
        <ele>968.1848145</ele>
        <time>2010-10-10T07:08:03Z</time>
      </trkpt>
      <trkpt lat="43.82746" lon="6.56588">
        <ele>971.0688477</ele>
        <time>2010-10-10T07:08:13Z</time>
      </trkpt>
      <trkpt lat="43.82743" lon="6.5661">
        <ele>967.7041016</ele>
        <time>2010-10-10T07:08:19Z</time>
      </trkpt>
      <trkpt lat="43.8274" lon="6.56636">
        <ele>970.5881348</ele>
        <time>2010-10-10T07:08:27Z</time>
      </trkpt>
      <trkpt lat="43.82736" lon="6.56656">
        <ele>972.9916992</ele>
        <time>2010-10-10T07:08:34Z</time>
      </trkpt>
      <trkpt lat="43.82731" lon="6.56682">
        <ele>972.5109863</ele>
        <time>2010-10-10T07:08:42Z</time>
      </trkpt>
      <trkpt lat="43.82723" lon="6.5671">
        <ele>973.9528809</ele>
        <time>2010-10-10T07:08:51Z</time>
      </trkpt>
      <trkpt lat="43.8271" lon="6.56738">
        <ele>971.0688477</ele>
        <time>2010-10-10T07:09:01Z</time>
      </trkpt>
      <trkpt lat="43.82696" lon="6.56752">
        <ele>969.1462402</ele>
        <time>2010-10-10T07:09:10Z</time>
      </trkpt>
      <trkpt lat="43.82681" lon="6.56755">
        <ele>968.6655273</ele>
        <time>2010-10-10T07:09:17Z</time>
      </trkpt>
      <trkpt lat="43.82662" lon="6.56748">
        <ele>974.4335938</ele>
        <time>2010-10-10T07:09:25Z</time>
      </trkpt>
      <trkpt lat="43.82648" lon="6.56736">
        <ele>977.317627</ele>
        <time>2010-10-10T07:09:32Z</time>
      </trkpt>
      <trkpt lat="43.82636" lon="6.56719">
        <ele>977.7980957</ele>
        <time>2010-10-10T07:09:40Z</time>
      </trkpt>
      <trkpt lat="43.82626" lon="6.56698">
        <ele>979.7207031</ele>
        <time>2010-10-10T07:09:48Z</time>
      </trkpt>
      <trkpt lat="43.82619" lon="6.56681">
        <ele>979.7207031</ele>
        <time>2010-10-10T07:09:54Z</time>
      </trkpt>
      <trkpt lat="43.82611" lon="6.56663">
        <ele>980.6821289</ele>
        <time>2010-10-10T07:10:01Z</time>
      </trkpt>
      <trkpt lat="43.82603" lon="6.56643">
        <ele>983.565918</ele>
        <time>2010-10-10T07:10:08Z</time>
      </trkpt>
      <trkpt lat="43.8259" lon="6.56625">
        <ele>986.4499512</ele>
        <time>2010-10-10T07:10:16Z</time>
      </trkpt>
      <trkpt lat="43.82578" lon="6.56616">
        <ele>986.9304199</ele>
        <time>2010-10-10T07:10:22Z</time>
      </trkpt>
      <trkpt lat="43.82562" lon="6.56611">
        <ele>989.3339844</ele>
        <time>2010-10-10T07:10:30Z</time>
      </trkpt>
      <trkpt lat="43.82549" lon="6.56613">
        <ele>990.7758789</ele>
        <time>2010-10-10T07:10:37Z</time>
      </trkpt>
      <trkpt lat="43.82537" lon="6.56619">
        <ele>991.2565918</ele>
        <time>2010-10-10T07:10:43Z</time>
      </trkpt>
      <trkpt lat="43.82524" lon="6.56628">
        <ele>992.2180176</ele>
        <time>2010-10-10T07:10:49Z</time>
      </trkpt>
      <trkpt lat="43.82514" lon="6.56641">
        <ele>993.1791992</ele>
        <time>2010-10-10T07:10:55Z</time>
      </trkpt>
      <trkpt lat="43.82508" lon="6.56656">
        <ele>995.1018066</ele>
        <time>2010-10-10T07:11:01Z</time>
      </trkpt>
      <trkpt lat="43.82502" lon="6.5667">
        <ele>1000.3891602</ele>
        <time>2010-10-10T07:11:07Z</time>
      </trkpt>
      <trkpt lat="43.82494" lon="6.56686">
        <ele>1004.7150879</ele>
        <time>2010-10-10T07:11:13Z</time>
      </trkpt>
      <trkpt lat="43.82485" lon="6.56704">
        <ele>1007.1184082</ele>
        <time>2010-10-10T07:11:19Z</time>
      </trkpt>
      <trkpt lat="43.82479" lon="6.56722">
        <ele>1006.6376953</ele>
        <time>2010-10-10T07:11:25Z</time>
      </trkpt>
      <trkpt lat="43.82471" lon="6.56751">
        <ele>1010.0021973</ele>
        <time>2010-10-10T07:11:35Z</time>
      </trkpt>
      <trkpt lat="43.82467" lon="6.56781">
        <ele>1013.3669434</ele>
        <time>2010-10-10T07:11:44Z</time>
      </trkpt>
      <trkpt lat="43.82466" lon="6.56806">
        <ele>1011.9250488</ele>
        <time>2010-10-10T07:11:51Z</time>
      </trkpt>
      <trkpt lat="43.82463" lon="6.56825">
        <ele>1012.4055176</ele>
        <time>2010-10-10T07:11:57Z</time>
      </trkpt>
      <trkpt lat="43.8246" lon="6.5686">
        <ele>1013.8474121</ele>
        <time>2010-10-10T07:12:07Z</time>
      </trkpt>
      <trkpt lat="43.82459" lon="6.56882">
        <ele>1012.4055176</ele>
        <time>2010-10-10T07:12:13Z</time>
      </trkpt>
      <trkpt lat="43.82457" lon="6.56907">
        <ele>1011.4443359</ele>
        <time>2010-10-10T07:12:20Z</time>
      </trkpt>
      <trkpt lat="43.82455" lon="6.56934">
        <ele>1012.4055176</ele>
        <time>2010-10-10T07:12:28Z</time>
      </trkpt>
      <trkpt lat="43.82454" lon="6.56959">
        <ele>1012.8862305</ele>
        <time>2010-10-10T07:12:35Z</time>
      </trkpt>
      <trkpt lat="43.82452" lon="6.56984">
        <ele>1013.3669434</ele>
        <time>2010-10-10T07:12:42Z</time>
      </trkpt>
      <trkpt lat="43.8245" lon="6.57008">
        <ele>1014.8088379</ele>
        <time>2010-10-10T07:12:49Z</time>
      </trkpt>
      <trkpt lat="43.82448" lon="6.57035">
        <ele>1015.2895508</ele>
        <time>2010-10-10T07:12:57Z</time>
      </trkpt>
      <trkpt lat="43.82446" lon="6.57059">
        <ele>1015.2895508</ele>
        <time>2010-10-10T07:13:04Z</time>
      </trkpt>
      <trkpt lat="43.82442" lon="6.57083">
        <ele>1015.7702637</ele>
        <time>2010-10-10T07:13:11Z</time>
      </trkpt>
      <trkpt lat="43.82442" lon="6.57099">
        <ele>1019.1347656</ele>
        <time>2010-10-10T07:13:16Z</time>
      </trkpt>
      <trkpt lat="43.82437" lon="6.57126">
        <ele>1021.0576172</ele>
        <time>2010-10-10T07:13:24Z</time>
      </trkpt>
      <trkpt lat="43.82435" lon="6.57146">
        <ele>1022.9802246</ele>
        <time>2010-10-10T07:13:30Z</time>
      </trkpt>
      <trkpt lat="43.82432" lon="6.5717">
        <ele>1022.9802246</ele>
        <time>2010-10-10T07:13:37Z</time>
      </trkpt>
      <trkpt lat="43.82429" lon="6.57192">
        <ele>1025.3833008</ele>
        <time>2010-10-10T07:13:44Z</time>
      </trkpt>
      <trkpt lat="43.82424" lon="6.57218">
        <ele>1025.8640137</ele>
        <time>2010-10-10T07:13:51Z</time>
      </trkpt>
      <trkpt lat="43.82421" lon="6.57251">
        <ele>1025.3833008</ele>
        <time>2010-10-10T07:14:00Z</time>
      </trkpt>
      <trkpt lat="43.82416" lon="6.5728">
        <ele>1025.8640137</ele>
        <time>2010-10-10T07:14:08Z</time>
      </trkpt>
      <trkpt lat="43.82409" lon="6.57308">
        <ele>1026.3447266</ele>
        <time>2010-10-10T07:14:16Z</time>
      </trkpt>
      <trkpt lat="43.82403" lon="6.57334">
        <ele>1029.2285156</ele>
        <time>2010-10-10T07:14:24Z</time>
      </trkpt>
      <trkpt lat="43.82399" lon="6.57365">
        <ele>1031.1513672</ele>
        <time>2010-10-10T07:14:33Z</time>
      </trkpt>
      <trkpt lat="43.82395" lon="6.57397">
        <ele>1033.0737305</ele>
        <time>2010-10-10T07:14:42Z</time>
      </trkpt>
      <trkpt lat="43.82392" lon="6.57433">
        <ele>1032.1125488</ele>
        <time>2010-10-10T07:14:52Z</time>
      </trkpt>
      <trkpt lat="43.82389" lon="6.57461">
        <ele>1033.5544434</ele>
        <time>2010-10-10T07:15:00Z</time>
      </trkpt>
      <trkpt lat="43.82387" lon="6.57485">
        <ele>1034.996582</ele>
        <time>2010-10-10T07:15:07Z</time>
      </trkpt>
      <trkpt lat="43.8239" lon="6.57513">
        <ele>1036.4387207</ele>
        <time>2010-10-10T07:15:15Z</time>
      </trkpt>
      <trkpt lat="43.824" lon="6.57539">
        <ele>1035.9577637</ele>
        <time>2010-10-10T07:15:23Z</time>
      </trkpt>
      <trkpt lat="43.82412" lon="6.57559">
        <ele>1035.9577637</ele>
        <time>2010-10-10T07:15:30Z</time>
      </trkpt>
      <trkpt lat="43.82432" lon="6.57578">
        <ele>1037.3999023</ele>
        <time>2010-10-10T07:15:39Z</time>
      </trkpt>
      <trkpt lat="43.82452" lon="6.57597">
        <ele>1034.996582</ele>
        <time>2010-10-10T07:15:47Z</time>
      </trkpt>
      <trkpt lat="43.82474" lon="6.57616">
        <ele>1037.3999023</ele>
        <time>2010-10-10T07:15:57Z</time>
      </trkpt>
      <trkpt lat="43.82484" lon="6.57625">
        <ele>1037.8806152</ele>
        <time>2010-10-10T07:16:02Z</time>
      </trkpt>
      <trkpt lat="43.82496" lon="6.57639">
        <ele>1041.2451172</ele>
        <time>2010-10-10T07:16:08Z</time>
      </trkpt>
      <trkpt lat="43.82507" lon="6.57655">
        <ele>1045.5710449</ele>
        <time>2010-10-10T07:16:14Z</time>
      </trkpt>
      <trkpt lat="43.82516" lon="6.57677">
        <ele>1048.9355469</ele>
        <time>2010-10-10T07:16:21Z</time>
      </trkpt>
      <trkpt lat="43.82521" lon="6.57708">
        <ele>1050.8581543</ele>
        <time>2010-10-10T07:16:29Z</time>
      </trkpt>
      <trkpt lat="43.82518" lon="6.57735">
        <ele>1049.4162598</ele>
        <time>2010-10-10T07:16:35Z</time>
      </trkpt>
      <trkpt lat="43.82509" lon="6.57761">
        <ele>1048.454834</ele>
        <time>2010-10-10T07:16:41Z</time>
      </trkpt>
      <trkpt lat="43.82497" lon="6.57782">
        <ele>1046.5324707</ele>
        <time>2010-10-10T07:16:46Z</time>
      </trkpt>
      <trkpt lat="43.82469" lon="6.57819">
        <ele>1045.090332</ele>
        <time>2010-10-10T07:16:55Z</time>
      </trkpt>
      <trkpt lat="43.82461" lon="6.57834">
        <ele>1045.5710449</ele>
        <time>2010-10-10T07:16:58Z</time>
      </trkpt>
      <trkpt lat="43.82445" lon="6.57883">
        <ele>1043.1677246</ele>
        <time>2010-10-10T07:17:05Z</time>
      </trkpt>
      <trkpt lat="43.82428" lon="6.57948">
        <ele>1042.6872559</ele>
        <time>2010-10-10T07:17:13Z</time>
      </trkpt>
      <trkpt lat="43.82409" lon="6.58018">
        <ele>1045.5710449</ele>
        <time>2010-10-10T07:17:22Z</time>
      </trkpt>
      <trkpt lat="43.82389" lon="6.58092">
        <ele>1044.6096191</ele>
        <time>2010-10-10T07:17:31Z</time>
      </trkpt>
      <trkpt lat="43.82374" lon="6.5813">
        <ele>1044.1291504</ele>
        <time>2010-10-10T07:17:36Z</time>
      </trkpt>
      <trkpt lat="43.8235" lon="6.58153">
        <ele>1042.6872559</ele>
        <time>2010-10-10T07:17:41Z</time>
      </trkpt>
      <trkpt lat="43.82332" lon="6.58157">
        <ele>1042.206543</ele>
        <time>2010-10-10T07:17:44Z</time>
      </trkpt>
      <trkpt lat="43.82288" lon="6.58158">
        <ele>1041.7258301</ele>
        <time>2010-10-10T07:17:52Z</time>
      </trkpt>
      <trkpt lat="43.82274" lon="6.5816">
        <ele>1041.7258301</ele>
        <time>2010-10-10T07:17:55Z</time>
      </trkpt>
      <trkpt lat="43.82257" lon="6.58166">
        <ele>1042.206543</ele>
        <time>2010-10-10T07:17:59Z</time>
      </trkpt>
      <trkpt lat="43.82229" lon="6.58188">
        <ele>1042.6872559</ele>
        <time>2010-10-10T07:18:07Z</time>
      </trkpt>
      <trkpt lat="43.82221" lon="6.582">
        <ele>1040.2839355</ele>
        <time>2010-10-10T07:18:10Z</time>
      </trkpt>
      <trkpt lat="43.82201" lon="6.58239">
        <ele>1041.2451172</ele>
        <time>2010-10-10T07:18:18Z</time>
      </trkpt>
      <trkpt lat="43.82194" lon="6.58273">
        <ele>1043.6484375</ele>
        <time>2010-10-10T07:18:24Z</time>
      </trkpt>
      <trkpt lat="43.82194" lon="6.58304">
        <ele>1044.1291504</ele>
        <time>2010-10-10T07:18:29Z</time>
      </trkpt>
      <trkpt lat="43.822" lon="6.58348">
        <ele>1041.7258301</ele>
        <time>2010-10-10T07:18:36Z</time>
      </trkpt>
      <trkpt lat="43.82205" lon="6.58378">
        <ele>1040.7644043</ele>
        <time>2010-10-10T07:18:41Z</time>
      </trkpt>
      <trkpt lat="43.82201" lon="6.58428">
        <ele>1041.2451172</ele>
        <time>2010-10-10T07:18:49Z</time>
      </trkpt>
      <trkpt lat="43.8219" lon="6.58455">
        <ele>1043.1677246</ele>
        <time>2010-10-10T07:18:54Z</time>
      </trkpt>
      <trkpt lat="43.82186" lon="6.58478">
        <ele>1046.0517578</ele>
        <time>2010-10-10T07:18:58Z</time>
      </trkpt>
      <trkpt lat="43.8218" lon="6.58503">
        <ele>1047.4936523</ele>
        <time>2010-10-10T07:19:03Z</time>
      </trkpt>
      <trkpt lat="43.82174" lon="6.58513">
        <ele>1046.5324707</ele>
        <time>2010-10-10T07:19:05Z</time>
      </trkpt>
      <trkpt lat="43.82164" lon="6.58543">
        <ele>1045.5710449</ele>
        <time>2010-10-10T07:19:10Z</time>
      </trkpt>
      <trkpt lat="43.82157" lon="6.58555">
        <ele>1046.0517578</ele>
        <time>2010-10-10T07:19:14Z</time>
      </trkpt>
      <trkpt lat="43.82155" lon="6.58557">
        <ele>1045.090332</ele>
        <time>2010-10-10T07:19:18Z</time>
      </trkpt>
      <trkpt lat="43.82147" lon="6.58561">
        <ele>1045.5710449</ele>
        <time>2010-10-10T07:19:24Z</time>
      </trkpt>
      <trkpt lat="43.82142" lon="6.58563">
        <ele>1044.1291504</ele>
        <time>2010-10-10T07:19:28Z</time>
      </trkpt>
      <trkpt lat="43.82137" lon="6.5856">
        <ele>1041.2451172</ele>
        <time>2010-10-10T07:19:33Z</time>
      </trkpt>
      <trkpt lat="43.82135" lon="6.58555">
        <ele>1042.6872559</ele>
        <time>2010-10-10T07:19:38Z</time>
      </trkpt>
      <trkpt lat="43.82133" lon="6.58552">
        <ele>1043.6484375</ele>
        <time>2010-10-10T07:19:42Z</time>
      </trkpt>
      <trkpt lat="43.82126" lon="6.58546">
        <ele>1044.6096191</ele>
        <time>2010-10-10T07:19:49Z</time>
      </trkpt>
      <trkpt lat="43.82124" lon="6.58546">
        <ele>1045.090332</ele>
        <time>2010-10-10T07:19:51Z</time>
      </trkpt>
      <trkpt lat="43.82118" lon="6.58551">
        <ele>1046.5324707</ele>
        <time>2010-10-10T07:19:58Z</time>
      </trkpt>
      <trkpt lat="43.82118" lon="6.58551">
        <ele>1046.5324707</ele>
        <time>2010-10-10T07:20:13Z</time>
      </trkpt>
      <trkpt lat="43.82119" lon="6.58551">
        <ele>1046.5324707</ele>
        <time>2010-10-10T07:20:23Z</time>
      </trkpt>
      <trkpt lat="43.82119" lon="6.58552">
        <ele>1046.5324707</ele>
        <time>2010-10-10T07:20:35Z</time>
      </trkpt>
      <trkpt lat="43.82119" lon="6.58553">
        <ele>1045.5710449</ele>
        <time>2010-10-10T07:21:03Z</time>
      </trkpt>
      <trkpt lat="43.82119" lon="6.58552">
        <ele>1046.0517578</ele>
        <time>2010-10-10T07:21:18Z</time>
      </trkpt>
      <trkpt lat="43.82119" lon="6.58552">
        <ele>1046.5324707</ele>
        <time>2010-10-10T07:21:28Z</time>
      </trkpt>
      <trkpt lat="43.82119" lon="6.58552">
        <ele>1046.0517578</ele>
        <time>2010-10-10T07:21:39Z</time>
      </trkpt>
      <trkpt lat="43.82119" lon="6.58552">
        <ele>1045.5710449</ele>
        <time>2010-10-10T07:21:47Z</time>
      </trkpt>
      <trkpt lat="43.82119" lon="6.58552">
        <ele>1045.090332</ele>
        <time>2010-10-10T07:21:55Z</time>
      </trkpt>
      <trkpt lat="43.82119" lon="6.58551">
        <ele>1045.5710449</ele>
        <time>2010-10-10T07:22:09Z</time>
      </trkpt>
      <trkpt lat="43.82119" lon="6.58551">
        <ele>1045.090332</ele>
        <time>2010-10-10T07:22:21Z</time>
      </trkpt>
      <trkpt lat="43.82118" lon="6.5855">
        <ele>1046.5324707</ele>
        <time>2010-10-10T07:22:38Z</time>
      </trkpt>
      <trkpt lat="43.82118" lon="6.58551">
        <ele>1046.0517578</ele>
        <time>2010-10-10T07:22:55Z</time>
      </trkpt>
      <trkpt lat="43.82119" lon="6.58552">
        <ele>1045.5710449</ele>
        <time>2010-10-10T07:23:11Z</time>
      </trkpt>
      <trkpt lat="43.82121" lon="6.58552">
        <ele>1045.5710449</ele>
        <time>2010-10-10T07:23:34Z</time>
      </trkpt>
      <trkpt lat="43.82121" lon="6.58552">
        <ele>1046.0517578</ele>
        <time>2010-10-10T07:23:43Z</time>
      </trkpt>
      <trkpt lat="43.82122" lon="6.58552">
        <ele>1046.0517578</ele>
        <time>2010-10-10T07:23:54Z</time>
      </trkpt>
      <trkpt lat="43.82122" lon="6.58552">
        <ele>1045.5710449</ele>
        <time>2010-10-10T07:24:01Z</time>
      </trkpt>
      <trkpt lat="43.82122" lon="6.58552">
        <ele>1045.5710449</ele>
        <time>2010-10-10T07:24:06Z</time>
      </trkpt>
      <trkpt lat="43.82122" lon="6.58557">
        <ele>1046.0517578</ele>
        <time>2010-10-10T07:24:13Z</time>
      </trkpt>
      <trkpt lat="43.82122" lon="6.58558">
        <ele>1047.0129395</ele>
        <time>2010-10-10T07:24:22Z</time>
      </trkpt>
      <trkpt lat="43.82117" lon="6.58574">
        <ele>1047.0129395</ele>
        <time>2010-10-10T07:24:28Z</time>
      </trkpt>
      <trkpt lat="43.82112" lon="6.58589">
        <ele>1049.8969727</ele>
        <time>2010-10-10T07:24:35Z</time>
      </trkpt>
      <trkpt lat="43.82109" lon="6.58602">
        <ele>1051.3388672</ele>
        <time>2010-10-10T07:24:42Z</time>
      </trkpt>
      <trkpt lat="43.82107" lon="6.58616">
        <ele>1053.2617188</ele>
        <time>2010-10-10T07:24:49Z</time>
      </trkpt>
      <trkpt lat="43.82103" lon="6.5863">
        <ele>1055.6650391</ele>
        <time>2010-10-10T07:24:57Z</time>
      </trkpt>
      <trkpt lat="43.82101" lon="6.58647">
        <ele>1059.9907227</ele>
        <time>2010-10-10T07:25:06Z</time>
      </trkpt>
      <trkpt lat="43.82099" lon="6.58666">
        <ele>1061.4328613</ele>
        <time>2010-10-10T07:25:15Z</time>
      </trkpt>
      <trkpt lat="43.82098" lon="6.5868">
        <ele>1062.8747559</ele>
        <time>2010-10-10T07:25:22Z</time>
      </trkpt>
      <trkpt lat="43.82099" lon="6.58689">
        <ele>1064.3166504</ele>
        <time>2010-10-10T07:25:28Z</time>
      </trkpt>
      <trkpt lat="43.82097" lon="6.58696">
        <ele>1065.7587891</ele>
        <time>2010-10-10T07:25:32Z</time>
      </trkpt>
      <trkpt lat="43.82099" lon="6.58711">
        <ele>1064.7973633</ele>
        <time>2010-10-10T07:25:40Z</time>
      </trkpt>
      <trkpt lat="43.82103" lon="6.58716">
        <ele>1067.2006836</ele>
        <time>2010-10-10T07:25:44Z</time>
      </trkpt>
      <trkpt lat="43.82107" lon="6.58725">
        <ele>1069.1235352</ele>
        <time>2010-10-10T07:25:50Z</time>
      </trkpt>
      <trkpt lat="43.82111" lon="6.58738">
        <ele>1072.96875</ele>
        <time>2010-10-10T07:25:59Z</time>
      </trkpt>
      <trkpt lat="43.82114" lon="6.58748">
        <ele>1075.3718262</ele>
        <time>2010-10-10T07:26:05Z</time>
      </trkpt>
      <trkpt lat="43.82118" lon="6.5876">
        <ele>1076.333252</ele>
        <time>2010-10-10T07:26:11Z</time>
      </trkpt>
      <trkpt lat="43.82122" lon="6.58774">
        <ele>1079.6977539</ele>
        <time>2010-10-10T07:26:18Z</time>
      </trkpt>
      <trkpt lat="43.82127" lon="6.58786">
        <ele>1081.1398926</ele>
        <time>2010-10-10T07:26:25Z</time>
      </trkpt>
      <trkpt lat="43.82133" lon="6.58804">
        <ele>1081.6203613</ele>
        <time>2010-10-10T07:26:34Z</time>
      </trkpt>
      <trkpt lat="43.82137" lon="6.58816">
        <ele>1081.1398926</ele>
        <time>2010-10-10T07:26:40Z</time>
      </trkpt>
      <trkpt lat="43.82141" lon="6.58829">
        <ele>1082.5817871</ele>
        <time>2010-10-10T07:26:47Z</time>
      </trkpt>
      <trkpt lat="43.82143" lon="6.58843">
        <ele>1084.0239258</ele>
        <time>2010-10-10T07:26:54Z</time>
      </trkpt>
      <trkpt lat="43.8215" lon="6.58859">
        <ele>1084.5046387</ele>
        <time>2010-10-10T07:27:02Z</time>
      </trkpt>
      <trkpt lat="43.82153" lon="6.58874">
        <ele>1085.9465332</ele>
        <time>2010-10-10T07:27:09Z</time>
      </trkpt>
      <trkpt lat="43.82158" lon="6.58888">
        <ele>1086.9077148</ele>
        <time>2010-10-10T07:27:16Z</time>
      </trkpt>
      <trkpt lat="43.82159" lon="6.58892">
        <ele>1087.3884277</ele>
        <time>2010-10-10T07:27:18Z</time>
      </trkpt>
      <trkpt lat="43.82167" lon="6.58903">
        <ele>1088.8305664</ele>
        <time>2010-10-10T07:27:25Z</time>
      </trkpt>
      <trkpt lat="43.82178" lon="6.58908">
        <ele>1088.8305664</ele>
        <time>2010-10-10T07:27:31Z</time>
      </trkpt>
      <trkpt lat="43.82193" lon="6.58915">
        <ele>1088.3498535</ele>
        <time>2010-10-10T07:27:40Z</time>
      </trkpt>
      <trkpt lat="43.82203" lon="6.58925">
        <ele>1089.3110352</ele>
        <time>2010-10-10T07:27:48Z</time>
      </trkpt>
      <trkpt lat="43.82212" lon="6.5894">
        <ele>1091.2336426</ele>
        <time>2010-10-10T07:27:57Z</time>
      </trkpt>
      <trkpt lat="43.82221" lon="6.58954">
        <ele>1093.15625</ele>
        <time>2010-10-10T07:28:06Z</time>
      </trkpt>
      <trkpt lat="43.82229" lon="6.58967">
        <ele>1094.5981445</ele>
        <time>2010-10-10T07:28:14Z</time>
      </trkpt>
      <trkpt lat="43.82237" lon="6.5898">
        <ele>1097.0014648</ele>
        <time>2010-10-10T07:28:22Z</time>
      </trkpt>
      <trkpt lat="43.82246" lon="6.58994">
        <ele>1098.4433594</ele>
        <time>2010-10-10T07:28:31Z</time>
      </trkpt>
      <trkpt lat="43.82255" lon="6.59008">
        <ele>1100.8469238</ele>
        <time>2010-10-10T07:28:39Z</time>
      </trkpt>
      <trkpt lat="43.82263" lon="6.59024">
        <ele>1104.2116699</ele>
        <time>2010-10-10T07:28:48Z</time>
      </trkpt>
      <trkpt lat="43.82271" lon="6.59041">
        <ele>1106.6147461</ele>
        <time>2010-10-10T07:28:57Z</time>
      </trkpt>
      <trkpt lat="43.82276" lon="6.59054">
        <ele>1108.0568848</ele>
        <time>2010-10-10T07:29:03Z</time>
      </trkpt>
      <trkpt lat="43.82281" lon="6.59064">
        <ele>1108.0568848</ele>
        <time>2010-10-10T07:29:08Z</time>
      </trkpt>
      <trkpt lat="43.82291" lon="6.59083">
        <ele>1109.0180664</ele>
        <time>2010-10-10T07:29:17Z</time>
      </trkpt>
      <trkpt lat="43.82301" lon="6.59098">
        <ele>1109.4987793</ele>
        <time>2010-10-10T07:29:24Z</time>
      </trkpt>
      <trkpt lat="43.8231" lon="6.59105">
        <ele>1109.0180664</ele>
        <time>2010-10-10T07:29:29Z</time>
      </trkpt>
      <trkpt lat="43.82325" lon="6.5911">
        <ele>1110.9406738</ele>
        <time>2010-10-10T07:29:37Z</time>
      </trkpt>
      <trkpt lat="43.82338" lon="6.59111">
        <ele>1112.3825684</ele>
        <time>2010-10-10T07:29:46Z</time>
      </trkpt>
      <trkpt lat="43.82354" lon="6.59106">
        <ele>1114.7858887</ele>
        <time>2010-10-10T07:29:53Z</time>
      </trkpt>
      <trkpt lat="43.82364" lon="6.591">
        <ele>1116.7087402</ele>
        <time>2010-10-10T07:29:59Z</time>
      </trkpt>
      <trkpt lat="43.82373" lon="6.59093">
        <ele>1119.5927734</ele>
        <time>2010-10-10T07:30:06Z</time>
      </trkpt>
      <trkpt lat="43.8238" lon="6.59087">
        <ele>1121.5151367</ele>
        <time>2010-10-10T07:30:11Z</time>
      </trkpt>
      <trkpt lat="43.82389" lon="6.59078">
        <ele>1123.4379883</ele>
        <time>2010-10-10T07:30:17Z</time>
      </trkpt>
      <trkpt lat="43.82394" lon="6.59063">
        <ele>1128.7250977</ele>
        <time>2010-10-10T07:30:25Z</time>
      </trkpt>
      <trkpt lat="43.82399" lon="6.59047">
        <ele>1131.128418</ele>
        <time>2010-10-10T07:30:32Z</time>
      </trkpt>
      <trkpt lat="43.82407" lon="6.5903">
        <ele>1127.7636719</ele>
        <time>2010-10-10T07:30:40Z</time>
      </trkpt>
      <trkpt lat="43.82415" lon="6.59016">
        <ele>1119.5927734</ele>
        <time>2010-10-10T07:30:48Z</time>
      </trkpt>
      <trkpt lat="43.82415" lon="6.5901">
        <ele>1121.034668</ele>
        <time>2010-10-10T07:30:51Z</time>
      </trkpt>
      <trkpt lat="43.82416" lon="6.59001">
        <ele>1126.3217773</ele>
        <time>2010-10-10T07:30:58Z</time>
      </trkpt>
      <trkpt lat="43.82416" lon="6.58987">
        <ele>1127.2832031</ele>
        <time>2010-10-10T07:31:06Z</time>
      </trkpt>
      <trkpt lat="43.82416" lon="6.58972">
        <ele>1126.3217773</ele>
        <time>2010-10-10T07:31:15Z</time>
      </trkpt>
      <trkpt lat="43.82418" lon="6.58957">
        <ele>1126.8024902</ele>
        <time>2010-10-10T07:31:23Z</time>
      </trkpt>
      <trkpt lat="43.82424" lon="6.58938">
        <ele>1125.3603516</ele>
        <time>2010-10-10T07:31:32Z</time>
      </trkpt>
      <trkpt lat="43.82429" lon="6.58926">
        <ele>1127.2832031</ele>
        <time>2010-10-10T07:31:39Z</time>
      </trkpt>
      <trkpt lat="43.82437" lon="6.58911">
        <ele>1131.128418</ele>
        <time>2010-10-10T07:31:48Z</time>
      </trkpt>
      <trkpt lat="43.82443" lon="6.589">
        <ele>1133.0510254</ele>
        <time>2010-10-10T07:31:55Z</time>
      </trkpt>
      <trkpt lat="43.82445" lon="6.5889">
        <ele>1135.9350586</ele>
        <time>2010-10-10T07:32:02Z</time>
      </trkpt>
      <trkpt lat="43.82446" lon="6.58883">
        <ele>1136.8962402</ele>
        <time>2010-10-10T07:32:06Z</time>
      </trkpt>
      <trkpt lat="43.82451" lon="6.58867">
        <ele>1134.4931641</ele>
        <time>2010-10-10T07:32:14Z</time>
      </trkpt>
      <trkpt lat="43.82456" lon="6.58852">
        <ele>1135.4543457</ele>
        <time>2010-10-10T07:32:22Z</time>
      </trkpt>
      <trkpt lat="43.82459" lon="6.58835">
        <ele>1134.973877</ele>
        <time>2010-10-10T07:32:29Z</time>
      </trkpt>
      <trkpt lat="43.82457" lon="6.58817">
        <ele>1133.0510254</ele>
        <time>2010-10-10T07:32:37Z</time>
      </trkpt>
      <trkpt lat="43.82453" lon="6.58798">
        <ele>1136.4157715</ele>
        <time>2010-10-10T07:32:46Z</time>
      </trkpt>
      <trkpt lat="43.82455" lon="6.58779">
        <ele>1134.973877</ele>
        <time>2010-10-10T07:32:53Z</time>
      </trkpt>
      <trkpt lat="43.82463" lon="6.58769">
        <ele>1134.0124512</ele>
        <time>2010-10-10T07:32:59Z</time>
      </trkpt>
      <trkpt lat="43.8247" lon="6.58776">
        <ele>1136.8962402</ele>
        <time>2010-10-10T07:33:06Z</time>
      </trkpt>
      <trkpt lat="43.82471" lon="6.5878">
        <ele>1138.3383789</ele>
        <time>2010-10-10T07:33:08Z</time>
      </trkpt>
      <trkpt lat="43.82475" lon="6.58799">
        <ele>1143.6254883</ele>
        <time>2010-10-10T07:33:17Z</time>
      </trkpt>
      <trkpt lat="43.82481" lon="6.58814">
        <ele>1148.9128418</ele>
        <time>2010-10-10T07:33:26Z</time>
      </trkpt>
      <trkpt lat="43.82482" lon="6.58816">
        <ele>1151.3161621</ele>
        <time>2010-10-10T07:33:28Z</time>
      </trkpt>
      <trkpt lat="43.82488" lon="6.58835">
        <ele>1156.6032715</ele>
        <time>2010-10-10T07:33:37Z</time>
      </trkpt>
      <trkpt lat="43.82489" lon="6.58851">
        <ele>1163.3325195</ele>
        <time>2010-10-10T07:33:45Z</time>
      </trkpt>
      <trkpt lat="43.82494" lon="6.58866">
        <ele>1167.6584473</ele>
        <time>2010-10-10T07:33:53Z</time>
      </trkpt>
      <trkpt lat="43.82496" lon="6.5888">
        <ele>1172.4650879</ele>
        <time>2010-10-10T07:34:00Z</time>
      </trkpt>
      <trkpt lat="43.82502" lon="6.58898">
        <ele>1176.7910156</ele>
        <time>2010-10-10T07:34:09Z</time>
      </trkpt>
      <trkpt lat="43.82513" lon="6.5892">
        <ele>1171.984375</ele>
        <time>2010-10-10T07:34:19Z</time>
      </trkpt>
      <trkpt lat="43.8252" lon="6.58935">
        <ele>1171.984375</ele>
        <time>2010-10-10T07:34:27Z</time>
      </trkpt>
      <trkpt lat="43.82528" lon="6.58952">
        <ele>1174.3876953</ele>
        <time>2010-10-10T07:34:34Z</time>
      </trkpt>
      <trkpt lat="43.82533" lon="6.58965">
        <ele>1176.3103027</ele>
        <time>2010-10-10T07:34:41Z</time>
      </trkpt>
      <trkpt lat="43.8254" lon="6.5898">
        <ele>1178.2329102</ele>
        <time>2010-10-10T07:34:49Z</time>
      </trkpt>
      <trkpt lat="43.82543" lon="6.58993">
        <ele>1180.6364746</ele>
        <time>2010-10-10T07:34:55Z</time>
      </trkpt>
      <trkpt lat="43.82545" lon="6.59009">
        <ele>1180.6364746</ele>
        <time>2010-10-10T07:35:01Z</time>
      </trkpt>
      <trkpt lat="43.82547" lon="6.59016">
        <ele>1180.6364746</ele>
        <time>2010-10-10T07:35:03Z</time>
      </trkpt>
      <trkpt lat="43.82554" lon="6.59033">
        <ele>1179.6748047</ele>
        <time>2010-10-10T07:35:09Z</time>
      </trkpt>
      <trkpt lat="43.82568" lon="6.59058">
        <ele>1175.348877</ele>
        <time>2010-10-10T07:35:17Z</time>
      </trkpt>
      <trkpt lat="43.8258" lon="6.5908">
        <ele>1172.4650879</ele>
        <time>2010-10-10T07:35:24Z</time>
      </trkpt>
      <trkpt lat="43.82593" lon="6.59102">
        <ele>1171.984375</ele>
        <time>2010-10-10T07:35:31Z</time>
      </trkpt>
      <trkpt lat="43.82602" lon="6.5912">
        <ele>1171.984375</ele>
        <time>2010-10-10T07:35:37Z</time>
      </trkpt>
      <trkpt lat="43.82612" lon="6.59131">
        <ele>1171.5036621</ele>
        <time>2010-10-10T07:35:42Z</time>
      </trkpt>
      <trkpt lat="43.8263" lon="6.59146">
        <ele>1168.1391602</ele>
        <time>2010-10-10T07:35:48Z</time>
      </trkpt>
      <trkpt lat="43.82639" lon="6.59161">
        <ele>1171.5036621</ele>
        <time>2010-10-10T07:35:53Z</time>
      </trkpt>
      <trkpt lat="43.82639" lon="6.59172">
        <ele>1170.0617676</ele>
        <time>2010-10-10T07:35:57Z</time>
      </trkpt>
      <trkpt lat="43.8264" lon="6.59174">
        <ele>1169.1005859</ele>
        <time>2010-10-10T07:35:58Z</time>
      </trkpt>
      <trkpt lat="43.82639" lon="6.59188">
        <ele>1163.8129883</ele>
        <time>2010-10-10T07:36:04Z</time>
      </trkpt>
      <trkpt lat="43.82638" lon="6.59206">
        <ele>1162.8518066</ele>
        <time>2010-10-10T07:36:10Z</time>
      </trkpt>
      <trkpt lat="43.82642" lon="6.59223">
        <ele>1164.2939453</ele>
        <time>2010-10-10T07:36:16Z</time>
      </trkpt>
      <trkpt lat="43.82646" lon="6.59239">
        <ele>1166.2165527</ele>
        <time>2010-10-10T07:36:23Z</time>
      </trkpt>
      <trkpt lat="43.82645" lon="6.59255">
        <ele>1169.5812988</ele>
        <time>2010-10-10T07:36:30Z</time>
      </trkpt>
      <trkpt lat="43.82642" lon="6.59273">
        <ele>1171.5036621</ele>
        <time>2010-10-10T07:36:38Z</time>
      </trkpt>
      <trkpt lat="43.82642" lon="6.59294">
        <ele>1173.4265137</ele>
        <time>2010-10-10T07:36:47Z</time>
      </trkpt>
      <trkpt lat="43.82641" lon="6.59313">
        <ele>1174.8684082</ele>
        <time>2010-10-10T07:36:55Z</time>
      </trkpt>
      <trkpt lat="43.82642" lon="6.59329">
        <ele>1177.2717285</ele>
        <time>2010-10-10T07:37:02Z</time>
      </trkpt>
      <trkpt lat="43.82644" lon="6.59345">
        <ele>1180.6364746</ele>
        <time>2010-10-10T07:37:10Z</time>
      </trkpt>
      <trkpt lat="43.8265" lon="6.59365">
        <ele>1180.6364746</ele>
        <time>2010-10-10T07:37:19Z</time>
      </trkpt>
      <trkpt lat="43.82654" lon="6.59378">
        <ele>1180.6364746</ele>
        <time>2010-10-10T07:37:26Z</time>
      </trkpt>
      <trkpt lat="43.82661" lon="6.59393">
        <ele>1178.713623</ele>
        <time>2010-10-10T07:37:34Z</time>
      </trkpt>
      <trkpt lat="43.82668" lon="6.59409">
        <ele>1177.2717285</ele>
        <time>2010-10-10T07:37:42Z</time>
      </trkpt>
      <trkpt lat="43.82673" lon="6.59425">
        <ele>1182.0783691</ele>
        <time>2010-10-10T07:37:51Z</time>
      </trkpt>
      <trkpt lat="43.82678" lon="6.59439">
        <ele>1185.923584</ele>
        <time>2010-10-10T07:37:59Z</time>
      </trkpt>
      <trkpt lat="43.82681" lon="6.59451">
        <ele>1188.3269043</ele>
        <time>2010-10-10T07:38:05Z</time>
      </trkpt>
      <trkpt lat="43.82682" lon="6.5947">
        <ele>1190.7299805</ele>
        <time>2010-10-10T07:38:13Z</time>
      </trkpt>
      <trkpt lat="43.82683" lon="6.59489">
        <ele>1192.1721191</ele>
        <time>2010-10-10T07:38:20Z</time>
      </trkpt>
      <trkpt lat="43.8269" lon="6.59502">
        <ele>1191.2106934</ele>
        <time>2010-10-10T07:38:26Z</time>
      </trkpt>
      <trkpt lat="43.82694" lon="6.59505">
        <ele>1191.2106934</ele>
        <time>2010-10-10T07:38:28Z</time>
      </trkpt>
      <trkpt lat="43.82705" lon="6.59498">
        <ele>1192.1721191</ele>
        <time>2010-10-10T07:38:34Z</time>
      </trkpt>
      <trkpt lat="43.82706" lon="6.59483">
        <ele>1189.7687988</ele>
        <time>2010-10-10T07:38:40Z</time>
      </trkpt>
      <trkpt lat="43.82705" lon="6.5948">
        <ele>1189.7687988</ele>
        <time>2010-10-10T07:38:41Z</time>
      </trkpt>
      <trkpt lat="43.82705" lon="6.59456">
        <ele>1186.4042969</ele>
        <time>2010-10-10T07:38:49Z</time>
      </trkpt>
      <trkpt lat="43.82708" lon="6.5944">
        <ele>1187.3654785</ele>
        <time>2010-10-10T07:38:56Z</time>
      </trkpt>
      <trkpt lat="43.82714" lon="6.59423">
        <ele>1188.8076172</ele>
        <time>2010-10-10T07:39:04Z</time>
      </trkpt>
      <trkpt lat="43.82717" lon="6.59408">
        <ele>1192.652832</ele>
        <time>2010-10-10T07:39:11Z</time>
      </trkpt>
      <trkpt lat="43.82724" lon="6.59389">
        <ele>1193.1333008</ele>
        <time>2010-10-10T07:39:19Z</time>
      </trkpt>
      <trkpt lat="43.82731" lon="6.59374">
        <ele>1193.1333008</ele>
        <time>2010-10-10T07:39:25Z</time>
      </trkpt>
      <trkpt lat="43.82738" lon="6.59358">
        <ele>1196.0175781</ele>
        <time>2010-10-10T07:39:32Z</time>
      </trkpt>
      <trkpt lat="43.82746" lon="6.59339">
        <ele>1197.9401855</ele>
        <time>2010-10-10T07:39:40Z</time>
      </trkpt>
      <trkpt lat="43.82755" lon="6.59322">
        <ele>1201.7854004</ele>
        <time>2010-10-10T07:39:47Z</time>
      </trkpt>
      <trkpt lat="43.82763" lon="6.59307">
        <ele>1204.6691895</ele>
        <time>2010-10-10T07:39:55Z</time>
      </trkpt>
      <trkpt lat="43.82765" lon="6.59283">
        <ele>1212.3598633</ele>
        <time>2010-10-10T07:40:03Z</time>
      </trkpt>
      <trkpt lat="43.82767" lon="6.59257">
        <ele>1217.1665039</ele>
        <time>2010-10-10T07:40:10Z</time>
      </trkpt>
      <trkpt lat="43.82774" lon="6.59242">
        <ele>1214.7631836</ele>
        <time>2010-10-10T07:40:16Z</time>
      </trkpt>
      <trkpt lat="43.82773" lon="6.59225">
        <ele>1214.2824707</ele>
        <time>2010-10-10T07:40:21Z</time>
      </trkpt>
      <trkpt lat="43.8278" lon="6.59212">
        <ele>1209.4758301</ele>
        <time>2010-10-10T07:40:27Z</time>
      </trkpt>
      <trkpt lat="43.82792" lon="6.592">
        <ele>1198.9013672</ele>
        <time>2010-10-10T07:40:34Z</time>
      </trkpt>
      <trkpt lat="43.82797" lon="6.59189">
        <ele>1199.3820801</ele>
        <time>2010-10-10T07:40:40Z</time>
      </trkpt>
      <trkpt lat="43.82797" lon="6.59171">
        <ele>1204.6691895</ele>
        <time>2010-10-10T07:40:48Z</time>
      </trkpt>
      <trkpt lat="43.82793" lon="6.59159">
        <ele>1210.4370117</ele>
        <time>2010-10-10T07:40:54Z</time>
      </trkpt>
      <trkpt lat="43.82792" lon="6.59143">
        <ele>1211.8791504</ele>
        <time>2010-10-10T07:41:02Z</time>
      </trkpt>
      <trkpt lat="43.82799" lon="6.59121">
        <ele>1205.6306152</ele>
        <time>2010-10-10T07:41:10Z</time>
      </trkpt>
      <trkpt lat="43.82805" lon="6.59105">
        <ele>1203.2272949</ele>
        <time>2010-10-10T07:41:18Z</time>
      </trkpt>
      <trkpt lat="43.82809" lon="6.59089">
        <ele>1197.9401855</ele>
        <time>2010-10-10T07:41:25Z</time>
      </trkpt>
      <trkpt lat="43.828" lon="6.59067">
        <ele>1205.1499023</ele>
        <time>2010-10-10T07:41:34Z</time>
      </trkpt>
      <trkpt lat="43.82791" lon="6.59041">
        <ele>1214.2824707</ele>
        <time>2010-10-10T07:41:45Z</time>
      </trkpt>
      <trkpt lat="43.82783" lon="6.5903">
        <ele>1218.1276855</ele>
        <time>2010-10-10T07:41:51Z</time>
      </trkpt>
      <trkpt lat="43.82774" lon="6.59024">
        <ele>1220.5310059</ele>
        <time>2010-10-10T07:41:56Z</time>
      </trkpt>
      <trkpt lat="43.82769" lon="6.59016">
        <ele>1219.5698242</ele>
        <time>2010-10-10T07:42:01Z</time>
      </trkpt>
      <trkpt lat="43.82759" lon="6.59003">
        <ele>1222.9343262</ele>
        <time>2010-10-10T07:42:09Z</time>
      </trkpt>
      <trkpt lat="43.82757" lon="6.58983">
        <ele>1222.4536133</ele>
        <time>2010-10-10T07:42:18Z</time>
      </trkpt>
      <trkpt lat="43.82753" lon="6.58969">
        <ele>1226.779541</ele>
        <time>2010-10-10T07:42:26Z</time>
      </trkpt>
      <trkpt lat="43.82753" lon="6.58948">
        <ele>1223.4150391</ele>
        <time>2010-10-10T07:42:35Z</time>
      </trkpt>
      <trkpt lat="43.82752" lon="6.5893">
        <ele>1223.4150391</ele>
        <time>2010-10-10T07:42:43Z</time>
      </trkpt>
      <trkpt lat="43.82748" lon="6.58914">
        <ele>1223.4150391</ele>
        <time>2010-10-10T07:42:50Z</time>
      </trkpt>
      <trkpt lat="43.82742" lon="6.58895">
        <ele>1225.3374023</ele>
        <time>2010-10-10T07:42:58Z</time>
      </trkpt>
      <trkpt lat="43.82734" lon="6.58878">
        <ele>1225.8181152</ele>
        <time>2010-10-10T07:43:06Z</time>
      </trkpt>
      <trkpt lat="43.8273" lon="6.58863">
        <ele>1227.7407227</ele>
        <time>2010-10-10T07:43:13Z</time>
      </trkpt>
      <trkpt lat="43.82729" lon="6.58848">
        <ele>1228.7023926</ele>
        <time>2010-10-10T07:43:20Z</time>
      </trkpt>
      <trkpt lat="43.82729" lon="6.58838">
        <ele>1230.1442871</ele>
        <time>2010-10-10T07:43:25Z</time>
      </trkpt>
      <trkpt lat="43.82733" lon="6.58819">
        <ele>1230.625</ele>
        <time>2010-10-10T07:43:34Z</time>
      </trkpt>
      <trkpt lat="43.82737" lon="6.58805">
        <ele>1230.625</ele>
        <time>2010-10-10T07:43:41Z</time>
      </trkpt>
      <trkpt lat="43.82741" lon="6.58788">
        <ele>1233.0280762</ele>
        <time>2010-10-10T07:43:50Z</time>
      </trkpt>
      <trkpt lat="43.82748" lon="6.58768">
        <ele>1234.9509277</ele>
        <time>2010-10-10T07:44:01Z</time>
      </trkpt>
      <trkpt lat="43.82753" lon="6.58754">
        <ele>1234.9509277</ele>
        <time>2010-10-10T07:44:08Z</time>
      </trkpt>
      <trkpt lat="43.82761" lon="6.58743">
        <ele>1234.9509277</ele>
        <time>2010-10-10T07:44:15Z</time>
      </trkpt>
      <trkpt lat="43.8277" lon="6.58727">
        <ele>1232.0668945</ele>
        <time>2010-10-10T07:44:24Z</time>
      </trkpt>
      <trkpt lat="43.82775" lon="6.58717">
        <ele>1236.3928223</ele>
        <time>2010-10-10T07:44:31Z</time>
      </trkpt>
      <trkpt lat="43.8278" lon="6.58696">
        <ele>1243.6025391</ele>
        <time>2010-10-10T07:44:40Z</time>
      </trkpt>
      <trkpt lat="43.82783" lon="6.58682">
        <ele>1248.8898926</ele>
        <time>2010-10-10T07:44:47Z</time>
      </trkpt>
      <trkpt lat="43.82784" lon="6.58668">
        <ele>1254.6577148</ele>
        <time>2010-10-10T07:44:53Z</time>
      </trkpt>
      <trkpt lat="43.82781" lon="6.58649">
        <ele>1267.1550293</ele>
        <time>2010-10-10T07:45:00Z</time>
      </trkpt>
      <trkpt lat="43.82789" lon="6.58633">
        <ele>1266.6743164</ele>
        <time>2010-10-10T07:45:06Z</time>
      </trkpt>
      <trkpt lat="43.82795" lon="6.58615">
        <ele>1271.4807129</ele>
        <time>2010-10-10T07:45:13Z</time>
      </trkpt>
      <trkpt lat="43.82803" lon="6.58599">
        <ele>1273.8840332</ele>
        <time>2010-10-10T07:45:21Z</time>
      </trkpt>
      <trkpt lat="43.82818" lon="6.58585">
        <ele>1262.3483887</ele>
        <time>2010-10-10T07:45:27Z</time>
      </trkpt>
      <trkpt lat="43.82832" lon="6.58575">
        <ele>1255.6191406</ele>
        <time>2010-10-10T07:45:33Z</time>
      </trkpt>
      <trkpt lat="43.82846" lon="6.58564">
        <ele>1259.4643555</ele>
        <time>2010-10-10T07:45:41Z</time>
      </trkpt>
      <trkpt lat="43.8286" lon="6.58549">
        <ele>1262.8291016</ele>
        <time>2010-10-10T07:45:48Z</time>
      </trkpt>
      <trkpt lat="43.82868" lon="6.58537">
        <ele>1263.7902832</ele>
        <time>2010-10-10T07:45:54Z</time>
      </trkpt>
      <trkpt lat="43.82877" lon="6.58522">
        <ele>1264.751709</ele>
        <time>2010-10-10T07:46:01Z</time>
      </trkpt>
      <trkpt lat="43.82883" lon="6.58507">
        <ele>1268.1162109</ele>
        <time>2010-10-10T07:46:07Z</time>
      </trkpt>
      <trkpt lat="43.82889" lon="6.58488">
        <ele>1271.0002441</ele>
        <time>2010-10-10T07:46:14Z</time>
      </trkpt>
      <trkpt lat="43.82898" lon="6.58468">
        <ele>1275.3259277</ele>
        <time>2010-10-10T07:46:22Z</time>
      </trkpt>
      <trkpt lat="43.82908" lon="6.58453">
        <ele>1274.3647461</ele>
        <time>2010-10-10T07:46:29Z</time>
      </trkpt>
      <trkpt lat="43.82918" lon="6.58432">
        <ele>1277.7294922</ele>
        <time>2010-10-10T07:46:38Z</time>
      </trkpt>
      <trkpt lat="43.82928" lon="6.58412">
        <ele>1278.690918</ele>
        <time>2010-10-10T07:46:47Z</time>
      </trkpt>
      <trkpt lat="43.82929" lon="6.58395">
        <ele>1288.3039551</ele>
        <time>2010-10-10T07:46:53Z</time>
      </trkpt>
      <trkpt lat="43.82932" lon="6.58376">
        <ele>1291.668457</ele>
        <time>2010-10-10T07:47:02Z</time>
      </trkpt>
      <trkpt lat="43.82936" lon="6.58359">
        <ele>1289.7458496</ele>
        <time>2010-10-10T07:47:11Z</time>
      </trkpt>
      <trkpt lat="43.8294" lon="6.58346">
        <ele>1285.9006348</ele>
        <time>2010-10-10T07:47:19Z</time>
      </trkpt>
      <trkpt lat="43.82943" lon="6.58331">
        <ele>1287.8232422</ele>
        <time>2010-10-10T07:47:26Z</time>
      </trkpt>
      <trkpt lat="43.82953" lon="6.5832">
        <ele>1281.574707</ele>
        <time>2010-10-10T07:47:33Z</time>
      </trkpt>
      <trkpt lat="43.82957" lon="6.58304">
        <ele>1287.8232422</ele>
        <time>2010-10-10T07:47:41Z</time>
      </trkpt>
      <trkpt lat="43.82962" lon="6.58292">
        <ele>1289.2651367</ele>
        <time>2010-10-10T07:47:48Z</time>
      </trkpt>
      <trkpt lat="43.82966" lon="6.58279">
        <ele>1294.5524902</ele>
        <time>2010-10-10T07:47:57Z</time>
      </trkpt>
      <trkpt lat="43.82967" lon="6.58265">
        <ele>1298.878418</ele>
        <time>2010-10-10T07:48:04Z</time>
      </trkpt>
      <trkpt lat="43.82972" lon="6.58255">
        <ele>1293.1105957</ele>
        <time>2010-10-10T07:48:11Z</time>
      </trkpt>
      <trkpt lat="43.82976" lon="6.58241">
        <ele>1292.630127</ele>
        <time>2010-10-10T07:48:19Z</time>
      </trkpt>
      <trkpt lat="43.82975" lon="6.58238">
        <ele>1295.9946289</ele>
        <time>2010-10-10T07:48:21Z</time>
      </trkpt>
      <trkpt lat="43.82971" lon="6.58232">
        <ele>1304.1657715</ele>
        <time>2010-10-10T07:48:24Z</time>
      </trkpt>
      <trkpt lat="43.82972" lon="6.58222">
        <ele>1308.9724121</ele>
        <time>2010-10-10T07:48:30Z</time>
      </trkpt>
      <trkpt lat="43.82968" lon="6.58207">
        <ele>1322.4306641</ele>
        <time>2010-10-10T07:48:38Z</time>
      </trkpt>
      <trkpt lat="43.8296" lon="6.58194">
        <ele>1338.7731934</ele>
        <time>2010-10-10T07:48:43Z</time>
      </trkpt>
      <trkpt lat="43.82961" lon="6.58187">
        <ele>1339.2536621</ele>
        <time>2010-10-10T07:48:48Z</time>
      </trkpt>
      <trkpt lat="43.82959" lon="6.58175">
        <ele>1344.0605469</ele>
        <time>2010-10-10T07:48:54Z</time>
      </trkpt>
      <trkpt lat="43.82961" lon="6.58168">
        <ele>1344.5410156</ele>
        <time>2010-10-10T07:48:58Z</time>
      </trkpt>
      <trkpt lat="43.82968" lon="6.58158">
        <ele>1339.2536621</ele>
        <time>2010-10-10T07:49:04Z</time>
      </trkpt>
      <trkpt lat="43.82972" lon="6.58144">
        <ele>1337.3310547</ele>
        <time>2010-10-10T07:49:10Z</time>
      </trkpt>
      <trkpt lat="43.82978" lon="6.58125">
        <ele>1335.8891602</ele>
        <time>2010-10-10T07:49:19Z</time>
      </trkpt>
      <trkpt lat="43.82985" lon="6.58117">
        <ele>1332.5246582</ele>
        <time>2010-10-10T07:49:24Z</time>
      </trkpt>
      <trkpt lat="43.82995" lon="6.58119">
        <ele>1327.2375488</ele>
        <time>2010-10-10T07:49:30Z</time>
      </trkpt>
      <trkpt lat="43.83003" lon="6.58126">
        <ele>1323.3920898</ele>
        <time>2010-10-10T07:49:35Z</time>
      </trkpt>
      <trkpt lat="43.8302" lon="6.58144">
        <ele>1311.3757324</ele>
        <time>2010-10-10T07:49:44Z</time>
      </trkpt>
      <trkpt lat="43.83025" lon="6.58151">
        <ele>1310.4143066</ele>
        <time>2010-10-10T07:49:50Z</time>
      </trkpt>
      <trkpt lat="43.83032" lon="6.58148">
        <ele>1310.4143066</ele>
        <time>2010-10-10T07:50:01Z</time>
      </trkpt>
      <trkpt lat="43.83044" lon="6.58161">
        <ele>1296.9558105</ele>
        <time>2010-10-10T07:50:51Z</time>
      </trkpt>
      <trkpt lat="43.83047" lon="6.58162">
        <ele>1295.9946289</ele>
        <time>2010-10-10T07:50:57Z</time>
      </trkpt>
      <trkpt lat="43.83041" lon="6.58158">
        <ele>1296.4753418</ele>
        <time>2010-10-10T07:51:18Z</time>
      </trkpt>
      <trkpt lat="43.83047" lon="6.58163">
        <ele>1300.8010254</ele>
        <time>2010-10-10T07:51:24Z</time>
      </trkpt>
      <trkpt lat="43.83054" lon="6.58162">
        <ele>1307.5302734</ele>
        <time>2010-10-10T07:51:31Z</time>
      </trkpt>
      <trkpt lat="43.83063" lon="6.58167">
        <ele>1310.4143066</ele>
        <time>2010-10-10T07:51:37Z</time>
      </trkpt>
      <trkpt lat="43.83072" lon="6.58169">
        <ele>1311.8564453</ele>
        <time>2010-10-10T07:51:44Z</time>
      </trkpt>
      <trkpt lat="43.83078" lon="6.58167">
        <ele>1310.8950195</ele>
        <time>2010-10-10T07:51:49Z</time>
      </trkpt>
      <trkpt lat="43.83084" lon="6.58161">
        <ele>1317.6240234</ele>
        <time>2010-10-10T07:51:55Z</time>
      </trkpt>
      <trkpt lat="43.83085" lon="6.58159">
        <ele>1320.0273438</ele>
        <time>2010-10-10T07:51:56Z</time>
      </trkpt>
      <trkpt lat="43.8309" lon="6.58151">
        <ele>1330.6020508</ele>
        <time>2010-10-10T07:52:03Z</time>
      </trkpt>
      <trkpt lat="43.83089" lon="6.58141">
        <ele>1343.0991211</ele>
        <time>2010-10-10T07:52:09Z</time>
      </trkpt>
      <trkpt lat="43.83091" lon="6.58117">
        <ele>1358.4802246</ele>
        <time>2010-10-10T07:52:17Z</time>
      </trkpt>
      <trkpt lat="43.83096" lon="6.58101">
        <ele>1366.1706543</ele>
        <time>2010-10-10T07:52:25Z</time>
      </trkpt>
      <trkpt lat="43.83098" lon="6.58092">
        <ele>1377.2260742</ele>
        <time>2010-10-10T07:52:31Z</time>
      </trkpt>
      <trkpt lat="43.83097" lon="6.58073">
        <ele>1387.800293</ele>
        <time>2010-10-10T07:52:38Z</time>
      </trkpt>
      <trkpt lat="43.83097" lon="6.58055">
        <ele>1399.3361816</ele>
        <time>2010-10-10T07:52:45Z</time>
      </trkpt>
      <trkpt lat="43.83098" lon="6.58037">
        <ele>1407.9882812</ele>
        <time>2010-10-10T07:52:52Z</time>
      </trkpt>
      <trkpt lat="43.83097" lon="6.58023">
        <ele>1415.197998</ele>
        <time>2010-10-10T07:52:58Z</time>
      </trkpt>
      <trkpt lat="43.83099" lon="6.5801">
        <ele>1418.5625</ele>
        <time>2010-10-10T07:53:05Z</time>
      </trkpt>
      <trkpt lat="43.83098" lon="6.57996">
        <ele>1423.8498535</ele>
        <time>2010-10-10T07:53:10Z</time>
      </trkpt>
      <trkpt lat="43.83109" lon="6.57983">
        <ele>1417.1206055</ele>
        <time>2010-10-10T07:53:16Z</time>
      </trkpt>
      <trkpt lat="43.83113" lon="6.57981">
        <ele>1411.3527832</ele>
        <time>2010-10-10T07:53:17Z</time>
      </trkpt>
      <trkpt lat="43.83127" lon="6.5798">
        <ele>1393.5683594</ele>
        <time>2010-10-10T07:53:20Z</time>
      </trkpt>
      <trkpt lat="43.83143" lon="6.57985">
        <ele>1376.7453613</ele>
        <time>2010-10-10T07:53:26Z</time>
      </trkpt>
      <trkpt lat="43.83145" lon="6.57988">
        <ele>1375.3032227</ele>
        <time>2010-10-10T07:53:27Z</time>
      </trkpt>
      <trkpt lat="43.83152" lon="6.58007">
        <ele>1360.8835449</ele>
        <time>2010-10-10T07:53:35Z</time>
      </trkpt>
      <trkpt lat="43.83157" lon="6.58023">
        <ele>1348.8669434</ele>
        <time>2010-10-10T07:53:41Z</time>
      </trkpt>
      <trkpt lat="43.83164" lon="6.58046">
        <ele>1331.5632324</ele>
        <time>2010-10-10T07:53:49Z</time>
      </trkpt>
      <trkpt lat="43.83168" lon="6.58066">
        <ele>1324.8342285</ele>
        <time>2010-10-10T07:53:55Z</time>
      </trkpt>
      <trkpt lat="43.83173" lon="6.58082">
        <ele>1320.9887695</ele>
        <time>2010-10-10T07:54:01Z</time>
      </trkpt>
      <trkpt lat="43.83176" lon="6.58105">
        <ele>1318.1047363</ele>
        <time>2010-10-10T07:54:09Z</time>
      </trkpt>
      <trkpt lat="43.83175" lon="6.58124">
        <ele>1319.0661621</ele>
        <time>2010-10-10T07:54:16Z</time>
      </trkpt>
      <trkpt lat="43.83175" lon="6.58142">
        <ele>1315.2209473</ele>
        <time>2010-10-10T07:54:23Z</time>
      </trkpt>
      <trkpt lat="43.83172" lon="6.5816">
        <ele>1319.0661621</ele>
        <time>2010-10-10T07:54:30Z</time>
      </trkpt>
      <trkpt lat="43.83167" lon="6.58176">
        <ele>1323.3920898</ele>
        <time>2010-10-10T07:54:36Z</time>
      </trkpt>
      <trkpt lat="43.83168" lon="6.58192">
        <ele>1320.9887695</ele>
        <time>2010-10-10T07:54:42Z</time>
      </trkpt>
      <trkpt lat="43.83165" lon="6.58212">
        <ele>1320.5080566</ele>
        <time>2010-10-10T07:54:49Z</time>
      </trkpt>
      <trkpt lat="43.83157" lon="6.58227">
        <ele>1327.2375488</ele>
        <time>2010-10-10T07:54:55Z</time>
      </trkpt>
      <trkpt lat="43.83151" lon="6.58246">
        <ele>1333.005127</ele>
        <time>2010-10-10T07:55:02Z</time>
      </trkpt>
      <trkpt lat="43.8314" lon="6.58268">
        <ele>1348.3862305</ele>
        <time>2010-10-10T07:55:11Z</time>
      </trkpt>
      <trkpt lat="43.83137" lon="6.58281">
        <ele>1353.1928711</ele>
        <time>2010-10-10T07:55:16Z</time>
      </trkpt>
      <trkpt lat="43.83138" lon="6.58296">
        <ele>1356.5576172</ele>
        <time>2010-10-10T07:55:22Z</time>
      </trkpt>
      <trkpt lat="43.83139" lon="6.5831">
        <ele>1357.9997559</ele>
        <time>2010-10-10T07:55:28Z</time>
      </trkpt>
      <trkpt lat="43.83137" lon="6.58325">
        <ele>1365.2094727</ele>
        <time>2010-10-10T07:55:34Z</time>
      </trkpt>
      <trkpt lat="43.8314" lon="6.58336">
        <ele>1364.2480469</ele>
        <time>2010-10-10T07:55:40Z</time>
      </trkpt>
      <trkpt lat="43.83142" lon="6.58353">
        <ele>1369.0546875</ele>
        <time>2010-10-10T07:55:47Z</time>
      </trkpt>
      <trkpt lat="43.83145" lon="6.58372">
        <ele>1374.342041</ele>
        <time>2010-10-10T07:55:54Z</time>
      </trkpt>
      <trkpt lat="43.83149" lon="6.5839">
        <ele>1379.1484375</ele>
        <time>2010-10-10T07:56:01Z</time>
      </trkpt>
      <trkpt lat="43.83151" lon="6.58406">
        <ele>1385.8776855</ele>
        <time>2010-10-10T07:56:09Z</time>
      </trkpt>
      <trkpt lat="43.83152" lon="6.58419">
        <ele>1394.0490723</ele>
        <time>2010-10-10T07:56:16Z</time>
      </trkpt>
      <trkpt lat="43.83155" lon="6.58437">
        <ele>1399.8168945</ele>
        <time>2010-10-10T07:56:23Z</time>
      </trkpt>
      <trkpt lat="43.8316" lon="6.5846">
        <ele>1400.7780762</ele>
        <time>2010-10-10T07:56:32Z</time>
      </trkpt>
      <trkpt lat="43.83166" lon="6.58484">
        <ele>1395.9716797</ele>
        <time>2010-10-10T07:56:40Z</time>
      </trkpt>
      <trkpt lat="43.83175" lon="6.58512">
        <ele>1382.9936523</ele>
        <time>2010-10-10T07:56:49Z</time>
      </trkpt>
      <trkpt lat="43.83179" lon="6.58533">
        <ele>1377.2260742</ele>
        <time>2010-10-10T07:56:57Z</time>
      </trkpt>
      <trkpt lat="43.83181" lon="6.58552">
        <ele>1373.8613281</ele>
        <time>2010-10-10T07:57:04Z</time>
      </trkpt>
      <trkpt lat="43.83184" lon="6.58571">
        <ele>1369.5354004</ele>
        <time>2010-10-10T07:57:10Z</time>
      </trkpt>
      <trkpt lat="43.83187" lon="6.58597">
        <ele>1366.1706543</ele>
        <time>2010-10-10T07:57:19Z</time>
      </trkpt>
      <trkpt lat="43.83194" lon="6.58617">
        <ele>1357.9997559</ele>
        <time>2010-10-10T07:57:26Z</time>
      </trkpt>
      <trkpt lat="43.83202" lon="6.58639">
        <ele>1347.9057617</ele>
        <time>2010-10-10T07:57:33Z</time>
      </trkpt>
      <trkpt lat="43.83203" lon="6.58659">
        <ele>1345.5024414</ele>
        <time>2010-10-10T07:57:40Z</time>
      </trkpt>
      <trkpt lat="43.832" lon="6.58677">
        <ele>1353.673584</ele>
        <time>2010-10-10T07:57:49Z</time>
      </trkpt>
      <trkpt lat="43.83197" lon="6.58696">
        <ele>1360.402832</ele>
        <time>2010-10-10T07:57:57Z</time>
      </trkpt>
      <trkpt lat="43.83198" lon="6.58711">
        <ele>1362.3254395</ele>
        <time>2010-10-10T07:58:03Z</time>
      </trkpt>
      <trkpt lat="43.83197" lon="6.58724">
        <ele>1366.1706543</ele>
        <time>2010-10-10T07:58:10Z</time>
      </trkpt>
      <trkpt lat="43.83198" lon="6.58743">
        <ele>1371.4577637</ele>
        <time>2010-10-10T07:58:19Z</time>
      </trkpt>
      <trkpt lat="43.83197" lon="6.58759">
        <ele>1375.7839355</ele>
        <time>2010-10-10T07:58:26Z</time>
      </trkpt>
      <trkpt lat="43.83196" lon="6.58776">
        <ele>1378.1872559</ele>
        <time>2010-10-10T07:58:33Z</time>
      </trkpt>
      <trkpt lat="43.83196" lon="6.58792">
        <ele>1382.9936523</ele>
        <time>2010-10-10T07:58:40Z</time>
      </trkpt>
      <trkpt lat="43.83195" lon="6.58815">
        <ele>1390.6843262</ele>
        <time>2010-10-10T07:58:50Z</time>
      </trkpt>
      <trkpt lat="43.83196" lon="6.58836">
        <ele>1396.4523926</ele>
        <time>2010-10-10T07:58:59Z</time>
      </trkpt>
      <trkpt lat="43.83207" lon="6.58859">
        <ele>1385.8776855</ele>
        <time>2010-10-10T07:59:07Z</time>
      </trkpt>
      <trkpt lat="43.83211" lon="6.58882">
        <ele>1384.9165039</ele>
        <time>2010-10-10T07:59:15Z</time>
      </trkpt>
      <trkpt lat="43.83213" lon="6.58903">
        <ele>1386.3583984</ele>
        <time>2010-10-10T07:59:22Z</time>
      </trkpt>
      <trkpt lat="43.83217" lon="6.58926">
        <ele>1388.28125</ele>
        <time>2010-10-10T07:59:30Z</time>
      </trkpt>
      <trkpt lat="43.83222" lon="6.58946">
        <ele>1382.5131836</ele>
        <time>2010-10-10T07:59:37Z</time>
      </trkpt>
      <trkpt lat="43.83224" lon="6.58972">
        <ele>1380.5905762</ele>
        <time>2010-10-10T07:59:44Z</time>
      </trkpt>
      <trkpt lat="43.83228" lon="6.58999">
        <ele>1378.1872559</ele>
        <time>2010-10-10T07:59:52Z</time>
      </trkpt>
      <trkpt lat="43.83228" lon="6.59022">
        <ele>1378.1872559</ele>
        <time>2010-10-10T08:00:00Z</time>
      </trkpt>
      <trkpt lat="43.83225" lon="6.59044">
        <ele>1381.5517578</ele>
        <time>2010-10-10T08:00:08Z</time>
      </trkpt>
      <trkpt lat="43.83226" lon="6.59067">
        <ele>1382.0324707</ele>
        <time>2010-10-10T08:00:16Z</time>
      </trkpt>
      <trkpt lat="43.83231" lon="6.59093">
        <ele>1381.5517578</ele>
        <time>2010-10-10T08:00:25Z</time>
      </trkpt>
      <trkpt lat="43.83233" lon="6.59109">
        <ele>1384.9165039</ele>
        <time>2010-10-10T08:00:32Z</time>
      </trkpt>
      <trkpt lat="43.83236" lon="6.59128">
        <ele>1385.8776855</ele>
        <time>2010-10-10T08:00:39Z</time>
      </trkpt>
      <trkpt lat="43.83237" lon="6.59151">
        <ele>1387.3195801</ele>
        <time>2010-10-10T08:00:47Z</time>
      </trkpt>
      <trkpt lat="43.83231" lon="6.59174">
        <ele>1390.2038574</ele>
        <time>2010-10-10T08:00:56Z</time>
      </trkpt>
      <trkpt lat="43.83223" lon="6.59189">
        <ele>1392.1264648</ele>
        <time>2010-10-10T08:01:02Z</time>
      </trkpt>
      <trkpt lat="43.83214" lon="6.59208">
        <ele>1393.0876465</ele>
        <time>2010-10-10T08:01:09Z</time>
      </trkpt>
      <trkpt lat="43.83216" lon="6.59227">
        <ele>1393.0876465</ele>
        <time>2010-10-10T08:01:15Z</time>
      </trkpt>
      <trkpt lat="43.8323" lon="6.59251">
        <ele>1390.6843262</ele>
        <time>2010-10-10T08:01:25Z</time>
      </trkpt>
      <trkpt lat="43.83236" lon="6.59254">
        <ele>1389.2424316</ele>
        <time>2010-10-10T08:01:30Z</time>
      </trkpt>
      <trkpt lat="43.83236" lon="6.59253">
        <ele>1386.8388672</ele>
        <time>2010-10-10T08:01:39Z</time>
      </trkpt>
      <trkpt lat="43.83236" lon="6.59253">
        <ele>1386.8388672</ele>
        <time>2010-10-10T08:01:46Z</time>
      </trkpt>
      <trkpt lat="43.83243" lon="6.59271">
        <ele>1387.3195801</ele>
        <time>2010-10-10T08:01:52Z</time>
      </trkpt>
      <trkpt lat="43.83244" lon="6.59285">
        <ele>1388.28125</ele>
        <time>2010-10-10T08:01:57Z</time>
      </trkpt>
      <trkpt lat="43.83244" lon="6.59286">
        <ele>1388.28125</ele>
        <time>2010-10-10T08:02:02Z</time>
      </trkpt>
      <trkpt lat="43.83244" lon="6.59286">
        <ele>1386.8388672</ele>
        <time>2010-10-10T08:02:12Z</time>
      </trkpt>
      <trkpt lat="43.83242" lon="6.59285">
        <ele>1389.2424316</ele>
        <time>2010-10-10T08:02:21Z</time>
      </trkpt>
      <trkpt lat="43.83239" lon="6.59284">
        <ele>1395.0102539</ele>
        <time>2010-10-10T08:02:44Z</time>
      </trkpt>
      <trkpt lat="43.83239" lon="6.59284">
        <ele>1395.4909668</ele>
        <time>2010-10-10T08:02:53Z</time>
      </trkpt>
      <trkpt lat="43.83238" lon="6.59284">
        <ele>1395.9716797</ele>
        <time>2010-10-10T08:03:05Z</time>
      </trkpt>
      <trkpt lat="43.83238" lon="6.59284">
        <ele>1395.0102539</ele>
        <time>2010-10-10T08:03:23Z</time>
      </trkpt>
      <trkpt lat="43.83239" lon="6.59285">
        <ele>1393.5683594</ele>
        <time>2010-10-10T08:03:47Z</time>
      </trkpt>
      <trkpt lat="43.83243" lon="6.59287">
        <ele>1386.3583984</ele>
        <time>2010-10-10T08:04:19Z</time>
      </trkpt>
      <trkpt lat="43.83245" lon="6.59288">
        <ele>1383.9550781</ele>
        <time>2010-10-10T08:04:30Z</time>
      </trkpt>
      <trkpt lat="43.83247" lon="6.59293">
        <ele>1384.9165039</ele>
        <time>2010-10-10T08:04:36Z</time>
      </trkpt>
      <trkpt lat="43.83255" lon="6.59305">
        <ele>1385.3969727</ele>
        <time>2010-10-10T08:04:45Z</time>
      </trkpt>
      <trkpt lat="43.83262" lon="6.59311">
        <ele>1383.4743652</ele>
        <time>2010-10-10T08:04:52Z</time>
      </trkpt>
      <trkpt lat="43.83267" lon="6.59317">
        <ele>1385.8776855</ele>
        <time>2010-10-10T08:04:59Z</time>
      </trkpt>
      <trkpt lat="43.8327" lon="6.59321">
        <ele>1388.7619629</ele>
        <time>2010-10-10T08:05:06Z</time>
      </trkpt>
      <trkpt lat="43.83264" lon="6.59321">
        <ele>1400.2976074</ele>
        <time>2010-10-10T08:05:12Z</time>
      </trkpt>
      <trkpt lat="43.83265" lon="6.59324">
        <ele>1404.1430664</ele>
        <time>2010-10-10T08:05:18Z</time>
      </trkpt>
      <trkpt lat="43.83267" lon="6.59328">
        <ele>1403.6621094</ele>
        <time>2010-10-10T08:05:23Z</time>
      </trkpt>
      <trkpt lat="43.8327" lon="6.59333">
        <ele>1400.7780762</ele>
        <time>2010-10-10T08:05:27Z</time>
      </trkpt>
      <trkpt lat="43.83274" lon="6.59343">
        <ele>1401.2587891</ele>
        <time>2010-10-10T08:05:36Z</time>
      </trkpt>
      <trkpt lat="43.83277" lon="6.59351">
        <ele>1402.2199707</ele>
        <time>2010-10-10T08:05:44Z</time>
      </trkpt>
      <trkpt lat="43.83276" lon="6.59356">
        <ele>1407.0268555</ele>
        <time>2010-10-10T08:05:52Z</time>
      </trkpt>
      <trkpt lat="43.83278" lon="6.59359">
        <ele>1410.3913574</ele>
        <time>2010-10-10T08:05:59Z</time>
      </trkpt>
      <trkpt lat="43.8328" lon="6.59363">
        <ele>1413.2753906</ele>
        <time>2010-10-10T08:06:07Z</time>
      </trkpt>
      <trkpt lat="43.83283" lon="6.59369">
        <ele>1415.197998</ele>
        <time>2010-10-10T08:06:15Z</time>
      </trkpt>
      <trkpt lat="43.83285" lon="6.59372">
        <ele>1416.1591797</ele>
        <time>2010-10-10T08:06:21Z</time>
      </trkpt>
      <trkpt lat="43.83287" lon="6.59377">
        <ele>1416.6398926</ele>
        <time>2010-10-10T08:06:27Z</time>
      </trkpt>
      <trkpt lat="43.83287" lon="6.59382">
        <ele>1423.8498535</ele>
        <time>2010-10-10T08:06:37Z</time>
      </trkpt>
      <trkpt lat="43.83286" lon="6.59385">
        <ele>1426.7338867</ele>
        <time>2010-10-10T08:06:43Z</time>
      </trkpt>
      <trkpt lat="43.83288" lon="6.59389">
        <ele>1425.7724609</ele>
        <time>2010-10-10T08:06:50Z</time>
      </trkpt>
      <trkpt lat="43.83289" lon="6.59393">
        <ele>1423.8498535</ele>
        <time>2010-10-10T08:06:55Z</time>
      </trkpt>
      <trkpt lat="43.8329" lon="6.59398">
        <ele>1421.9272461</ele>
        <time>2010-10-10T08:07:02Z</time>
      </trkpt>
      <trkpt lat="43.83292" lon="6.59399">
        <ele>1420.0046387</ele>
        <time>2010-10-10T08:07:08Z</time>
      </trkpt>
      <trkpt lat="43.83291" lon="6.59401">
        <ele>1421.4465332</ele>
        <time>2010-10-10T08:07:14Z</time>
      </trkpt>
      <trkpt lat="43.83294" lon="6.59404">
        <ele>1420.4853516</ele>
        <time>2010-10-10T08:07:21Z</time>
      </trkpt>
      <trkpt lat="43.83294" lon="6.59408">
        <ele>1423.3693848</ele>
        <time>2010-10-10T08:07:27Z</time>
      </trkpt>
      <trkpt lat="43.83296" lon="6.59413">
        <ele>1424.8112793</ele>
        <time>2010-10-10T08:07:35Z</time>
      </trkpt>
      <trkpt lat="43.83298" lon="6.59418">
        <ele>1424.8112793</ele>
        <time>2010-10-10T08:07:43Z</time>
      </trkpt>
      <trkpt lat="43.83299" lon="6.59422">
        <ele>1426.2531738</ele>
        <time>2010-10-10T08:07:49Z</time>
      </trkpt>
      <trkpt lat="43.833" lon="6.59425">
        <ele>1427.6950684</ele>
        <time>2010-10-10T08:07:56Z</time>
      </trkpt>
      <trkpt lat="43.833" lon="6.59428">
        <ele>1427.6950684</ele>
        <time>2010-10-10T08:08:03Z</time>
      </trkpt>
      <trkpt lat="43.83301" lon="6.59432">
        <ele>1429.1369629</ele>
        <time>2010-10-10T08:08:10Z</time>
      </trkpt>
      <trkpt lat="43.83302" lon="6.59437">
        <ele>1429.1369629</ele>
        <time>2010-10-10T08:08:18Z</time>
      </trkpt>
      <trkpt lat="43.83304" lon="6.59443">
        <ele>1431.5402832</ele>
        <time>2010-10-10T08:08:27Z</time>
      </trkpt>
      <trkpt lat="43.83301" lon="6.59447">
        <ele>1436.347168</ele>
        <time>2010-10-10T08:08:35Z</time>
      </trkpt>
      <trkpt lat="43.83304" lon="6.59454">
        <ele>1435.8662109</ele>
        <time>2010-10-10T08:08:43Z</time>
      </trkpt>
      <trkpt lat="43.83305" lon="6.59458">
        <ele>1436.347168</ele>
        <time>2010-10-10T08:08:49Z</time>
      </trkpt>
      <trkpt lat="43.83307" lon="6.59458">
        <ele>1435.8662109</ele>
        <time>2010-10-10T08:08:56Z</time>
      </trkpt>
      <trkpt lat="43.83312" lon="6.59455">
        <ele>1436.347168</ele>
        <time>2010-10-10T08:09:06Z</time>
      </trkpt>
      <trkpt lat="43.83316" lon="6.59453">
        <ele>1437.3083496</ele>
        <time>2010-10-10T08:09:13Z</time>
      </trkpt>
      <trkpt lat="43.83319" lon="6.5945">
        <ele>1438.7504883</ele>
        <time>2010-10-10T08:09:21Z</time>
      </trkpt>
      <trkpt lat="43.83322" lon="6.59447">
        <ele>1439.7116699</ele>
        <time>2010-10-10T08:09:29Z</time>
      </trkpt>
      <trkpt lat="43.83325" lon="6.59447">
        <ele>1440.6728516</ele>
        <time>2010-10-10T08:09:36Z</time>
      </trkpt>
      <trkpt lat="43.83327" lon="6.59446">
        <ele>1442.1149902</ele>
        <time>2010-10-10T08:09:42Z</time>
      </trkpt>
      <trkpt lat="43.8333" lon="6.59444">
        <ele>1443.0761719</ele>
        <time>2010-10-10T08:09:50Z</time>
      </trkpt>
      <trkpt lat="43.83331" lon="6.59444">
        <ele>1443.0761719</ele>
        <time>2010-10-10T08:09:57Z</time>
      </trkpt>
      <trkpt lat="43.83333" lon="6.59441">
        <ele>1446.440918</ele>
        <time>2010-10-10T08:10:03Z</time>
      </trkpt>
      <trkpt lat="43.83334" lon="6.59435">
        <ele>1449.8054199</ele>
        <time>2010-10-10T08:10:11Z</time>
      </trkpt>
      <trkpt lat="43.83336" lon="6.59432">
        <ele>1452.2087402</ele>
        <time>2010-10-10T08:10:19Z</time>
      </trkpt>
      <trkpt lat="43.83338" lon="6.5943">
        <ele>1454.1315918</ele>
        <time>2010-10-10T08:10:27Z</time>
      </trkpt>
      <trkpt lat="43.83341" lon="6.59428">
        <ele>1455.0927734</ele>
        <time>2010-10-10T08:10:36Z</time>
      </trkpt>
      <trkpt lat="43.83343" lon="6.59426">
        <ele>1456.0539551</ele>
        <time>2010-10-10T08:10:43Z</time>
      </trkpt>
      <trkpt lat="43.83346" lon="6.59422">
        <ele>1457.0153809</ele>
        <time>2010-10-10T08:10:50Z</time>
      </trkpt>
      <trkpt lat="43.83347" lon="6.59423">
        <ele>1457.0153809</ele>
        <time>2010-10-10T08:10:57Z</time>
      </trkpt>
      <trkpt lat="43.83351" lon="6.5942">
        <ele>1457.9768066</ele>
        <time>2010-10-10T08:11:05Z</time>
      </trkpt>
      <trkpt lat="43.83355" lon="6.59416">
        <ele>1458.4572754</ele>
        <time>2010-10-10T08:11:14Z</time>
      </trkpt>
      <trkpt lat="43.83356" lon="6.59415">
        <ele>1458.9379883</ele>
        <time>2010-10-10T08:11:19Z</time>
      </trkpt>
      <trkpt lat="43.83359" lon="6.59412">
        <ele>1460.8605957</ele>
        <time>2010-10-10T08:11:26Z</time>
      </trkpt>
      <trkpt lat="43.83363" lon="6.5941">
        <ele>1462.7832031</ele>
        <time>2010-10-10T08:11:35Z</time>
      </trkpt>
      <trkpt lat="43.83366" lon="6.59412">
        <ele>1463.7443848</ele>
        <time>2010-10-10T08:11:42Z</time>
      </trkpt>
      <trkpt lat="43.8337" lon="6.59411">
        <ele>1465.6672363</ele>
        <time>2010-10-10T08:11:49Z</time>
      </trkpt>
      <trkpt lat="43.83373" lon="6.59411">
        <ele>1467.5895996</ele>
        <time>2010-10-10T08:11:57Z</time>
      </trkpt>
      <trkpt lat="43.83373" lon="6.59408">
        <ele>1467.5895996</ele>
        <time>2010-10-10T08:12:01Z</time>
      </trkpt>
      <trkpt lat="43.83374" lon="6.59405">
        <ele>1467.5895996</ele>
        <time>2010-10-10T08:12:06Z</time>
      </trkpt>
      <trkpt lat="43.83377" lon="6.59402">
        <ele>1469.0319824</ele>
        <time>2010-10-10T08:12:13Z</time>
      </trkpt>
      <trkpt lat="43.83379" lon="6.59401">
        <ele>1469.9931641</ele>
        <time>2010-10-10T08:12:21Z</time>
      </trkpt>
      <trkpt lat="43.83382" lon="6.59399">
        <ele>1471.9157715</ele>
        <time>2010-10-10T08:12:27Z</time>
      </trkpt>
      <trkpt lat="43.83386" lon="6.59394">
        <ele>1474.3190918</ele>
        <time>2010-10-10T08:12:36Z</time>
      </trkpt>
      <trkpt lat="43.83388" lon="6.59393">
        <ele>1474.7998047</ele>
        <time>2010-10-10T08:12:42Z</time>
      </trkpt>
      <trkpt lat="43.83388" lon="6.59393">
        <ele>1477.203125</ele>
        <time>2010-10-10T08:12:49Z</time>
      </trkpt>
      <trkpt lat="43.83389" lon="6.5939">
        <ele>1477.6835938</ele>
        <time>2010-10-10T08:13:00Z</time>
      </trkpt>
      <trkpt lat="43.83387" lon="6.59391">
        <ele>1480.567627</ele>
        <time>2010-10-10T08:13:09Z</time>
      </trkpt>
      <trkpt lat="43.83387" lon="6.59391">
        <ele>1480.567627</ele>
        <time>2010-10-10T08:13:22Z</time>
      </trkpt>
      <trkpt lat="43.83389" lon="6.59392">
        <ele>1479.1254883</ele>
        <time>2010-10-10T08:13:32Z</time>
      </trkpt>
      <trkpt lat="43.83389" lon="6.59393">
        <ele>1478.1643066</ele>
        <time>2010-10-10T08:13:43Z</time>
      </trkpt>
      <trkpt lat="43.83391" lon="6.59395">
        <ele>1474.3190918</ele>
        <time>2010-10-10T08:13:52Z</time>
      </trkpt>
      <trkpt lat="43.83391" lon="6.59394">
        <ele>1473.8383789</ele>
        <time>2010-10-10T08:14:00Z</time>
      </trkpt>
      <trkpt lat="43.83393" lon="6.59394">
        <ele>1472.3964844</ele>
        <time>2010-10-10T08:14:09Z</time>
      </trkpt>
      <trkpt lat="43.83393" lon="6.59395">
        <ele>1469.9931641</ele>
        <time>2010-10-10T08:14:20Z</time>
      </trkpt>
      <trkpt lat="43.83395" lon="6.59398">
        <ele>1466.628418</ele>
        <time>2010-10-10T08:14:27Z</time>
      </trkpt>
      <trkpt lat="43.83394" lon="6.59399">
        <ele>1464.7058105</ele>
        <time>2010-10-10T08:14:35Z</time>
      </trkpt>
      <trkpt lat="43.83389" lon="6.59395">
        <ele>1472.8771973</ele>
        <time>2010-10-10T08:14:45Z</time>
      </trkpt>
      <trkpt lat="43.83389" lon="6.59399">
        <ele>1476.7224121</ele>
        <time>2010-10-10T08:15:11Z</time>
      </trkpt>
      <trkpt lat="43.83392" lon="6.59405">
        <ele>1477.203125</ele>
        <time>2010-10-10T08:15:19Z</time>
      </trkpt>
      <trkpt lat="43.83393" lon="6.59411">
        <ele>1477.6835938</ele>
        <time>2010-10-10T08:15:26Z</time>
      </trkpt>
      <trkpt lat="43.83394" lon="6.59418">
        <ele>1479.6062012</ele>
        <time>2010-10-10T08:15:35Z</time>
      </trkpt>
      <trkpt lat="43.83396" lon="6.59424">
        <ele>1479.6062012</ele>
        <time>2010-10-10T08:15:42Z</time>
      </trkpt>
      <trkpt lat="43.83398" lon="6.59432">
        <ele>1480.0869141</ele>
        <time>2010-10-10T08:15:51Z</time>
      </trkpt>
      <trkpt lat="43.834" lon="6.59441">
        <ele>1481.5288086</ele>
        <time>2010-10-10T08:16:00Z</time>
      </trkpt>
      <trkpt lat="43.834" lon="6.5945">
        <ele>1483.451416</ele>
        <time>2010-10-10T08:16:08Z</time>
      </trkpt>
      <trkpt lat="43.83401" lon="6.59457">
        <ele>1484.8937988</ele>
        <time>2010-10-10T08:16:16Z</time>
      </trkpt>
      <trkpt lat="43.83399" lon="6.59464">
        <ele>1485.3742676</ele>
        <time>2010-10-10T08:16:25Z</time>
      </trkpt>
      <trkpt lat="43.83398" lon="6.59464">
        <ele>1484.4130859</ele>
        <time>2010-10-10T08:16:32Z</time>
      </trkpt>
      <trkpt lat="43.83398" lon="6.59464">
        <ele>1484.8937988</ele>
        <time>2010-10-10T08:16:37Z</time>
      </trkpt>
      <trkpt lat="43.83397" lon="6.59467">
        <ele>1484.8937988</ele>
        <time>2010-10-10T08:16:40Z</time>
      </trkpt>
      <trkpt lat="43.83394" lon="6.59474">
        <ele>1485.3742676</ele>
        <time>2010-10-10T08:16:45Z</time>
      </trkpt>
      <trkpt lat="43.83394" lon="6.59485">
        <ele>1485.3742676</ele>
        <time>2010-10-10T08:16:54Z</time>
      </trkpt>
      <trkpt lat="43.83395" lon="6.5949">
        <ele>1485.3742676</ele>
        <time>2010-10-10T08:17:00Z</time>
      </trkpt>
      <trkpt lat="43.83396" lon="6.59492">
        <ele>1485.8549805</ele>
        <time>2010-10-10T08:17:06Z</time>
      </trkpt>
      <trkpt lat="43.83397" lon="6.59491">
        <ele>1485.8549805</ele>
        <time>2010-10-10T08:17:09Z</time>
      </trkpt>
      <trkpt lat="43.83398" lon="6.59492">
        <ele>1487.296875</ele>
        <time>2010-10-10T08:17:14Z</time>
      </trkpt>
      <trkpt lat="43.83399" lon="6.59495">
        <ele>1488.2583008</ele>
        <time>2010-10-10T08:17:20Z</time>
      </trkpt>
      <trkpt lat="43.83398" lon="6.59495">
        <ele>1489.2194824</ele>
        <time>2010-10-10T08:17:27Z</time>
      </trkpt>
      <trkpt lat="43.83402" lon="6.59496">
        <ele>1491.1420898</ele>
        <time>2010-10-10T08:17:33Z</time>
      </trkpt>
      <trkpt lat="43.83404" lon="6.59496">
        <ele>1493.0646973</ele>
        <time>2010-10-10T08:17:39Z</time>
      </trkpt>
      <trkpt lat="43.83408" lon="6.59495">
        <ele>1494.5065918</ele>
        <time>2010-10-10T08:17:45Z</time>
      </trkpt>
      <trkpt lat="43.83408" lon="6.59496">
        <ele>1496.4294434</ele>
        <time>2010-10-10T08:17:51Z</time>
      </trkpt>
      <trkpt lat="43.83409" lon="6.59495">
        <ele>1498.3518066</ele>
        <time>2010-10-10T08:17:58Z</time>
      </trkpt>
      <trkpt lat="43.8341" lon="6.59493">
        <ele>1499.3132324</ele>
        <time>2010-10-10T08:18:05Z</time>
      </trkpt>
      <trkpt lat="43.83411" lon="6.59501">
        <ele>1497.8713379</ele>
        <time>2010-10-10T08:18:13Z</time>
      </trkpt>
      <trkpt lat="43.83413" lon="6.59506">
        <ele>1498.3518066</ele>
        <time>2010-10-10T08:18:19Z</time>
      </trkpt>
      <trkpt lat="43.83415" lon="6.59509">
        <ele>1498.3518066</ele>
        <time>2010-10-10T08:18:26Z</time>
      </trkpt>
      <trkpt lat="43.83418" lon="6.59513">
        <ele>1498.3518066</ele>
        <time>2010-10-10T08:18:35Z</time>
      </trkpt>
      <trkpt lat="43.83419" lon="6.59512">
        <ele>1499.3132324</ele>
        <time>2010-10-10T08:18:42Z</time>
      </trkpt>
      <trkpt lat="43.83421" lon="6.59511">
        <ele>1500.2749023</ele>
        <time>2010-10-10T08:18:47Z</time>
      </trkpt>
      <trkpt lat="43.83421" lon="6.59511">
        <ele>1502.1972656</ele>
        <time>2010-10-10T08:18:54Z</time>
      </trkpt>
      <trkpt lat="43.83422" lon="6.59508">
        <ele>1502.6779785</ele>
        <time>2010-10-10T08:19:00Z</time>
      </trkpt>
      <trkpt lat="43.83423" lon="6.59508">
        <ele>1503.6394043</ele>
        <time>2010-10-10T08:19:06Z</time>
      </trkpt>
      <trkpt lat="43.83424" lon="6.59505">
        <ele>1504.6005859</ele>
        <time>2010-10-10T08:19:11Z</time>
      </trkpt>
      <trkpt lat="43.83424" lon="6.59503">
        <ele>1504.6005859</ele>
        <time>2010-10-10T08:19:18Z</time>
      </trkpt>
      <trkpt lat="43.83427" lon="6.59508">
        <ele>1504.6005859</ele>
        <time>2010-10-10T08:19:26Z</time>
      </trkpt>
      <trkpt lat="43.83427" lon="6.59511">
        <ele>1504.6005859</ele>
        <time>2010-10-10T08:19:32Z</time>
      </trkpt>
      <trkpt lat="43.8343" lon="6.59513">
        <ele>1507.0039062</ele>
        <time>2010-10-10T08:19:39Z</time>
      </trkpt>
      <trkpt lat="43.83433" lon="6.59515">
        <ele>1509.8876953</ele>
        <time>2010-10-10T08:19:46Z</time>
      </trkpt>
      <trkpt lat="43.83434" lon="6.59519">
        <ele>1509.8876953</ele>
        <time>2010-10-10T08:19:52Z</time>
      </trkpt>
      <trkpt lat="43.83436" lon="6.59516">
        <ele>1512.2910156</ele>
        <time>2010-10-10T08:19:58Z</time>
      </trkpt>
      <trkpt lat="43.83436" lon="6.59516">
        <ele>1513.7329102</ele>
        <time>2010-10-10T08:20:05Z</time>
      </trkpt>
      <trkpt lat="43.83436" lon="6.59517">
        <ele>1514.6943359</ele>
        <time>2010-10-10T08:20:12Z</time>
      </trkpt>
      <trkpt lat="43.83436" lon="6.59517">
        <ele>1513.7329102</ele>
        <time>2010-10-10T08:20:17Z</time>
      </trkpt>
      <trkpt lat="43.83435" lon="6.59522">
        <ele>1512.2910156</ele>
        <time>2010-10-10T08:20:23Z</time>
      </trkpt>
      <trkpt lat="43.83438" lon="6.59523">
        <ele>1512.2910156</ele>
        <time>2010-10-10T08:20:29Z</time>
      </trkpt>
      <trkpt lat="43.83439" lon="6.59524">
        <ele>1513.7329102</ele>
        <time>2010-10-10T08:20:35Z</time>
      </trkpt>
      <trkpt lat="43.83441" lon="6.59524">
        <ele>1516.1364746</ele>
        <time>2010-10-10T08:20:43Z</time>
      </trkpt>
      <trkpt lat="43.83444" lon="6.59523">
        <ele>1517.5783691</ele>
        <time>2010-10-10T08:20:50Z</time>
      </trkpt>
      <trkpt lat="43.83445" lon="6.59521">
        <ele>1519.0205078</ele>
        <time>2010-10-10T08:20:56Z</time>
      </trkpt>
      <trkpt lat="43.83446" lon="6.59524">
        <ele>1518.059082</ele>
        <time>2010-10-10T08:21:03Z</time>
      </trkpt>
      <trkpt lat="43.83446" lon="6.59526">
        <ele>1518.059082</ele>
        <time>2010-10-10T08:21:10Z</time>
      </trkpt>
      <trkpt lat="43.83447" lon="6.59528">
        <ele>1517.5783691</ele>
        <time>2010-10-10T08:21:17Z</time>
      </trkpt>
      <trkpt lat="43.83451" lon="6.59531">
        <ele>1516.1364746</ele>
        <time>2010-10-10T08:21:25Z</time>
      </trkpt>
      <trkpt lat="43.83451" lon="6.59531">
        <ele>1515.1750488</ele>
        <time>2010-10-10T08:21:31Z</time>
      </trkpt>
      <trkpt lat="43.83451" lon="6.59531">
        <ele>1517.5783691</ele>
        <time>2010-10-10T08:21:38Z</time>
      </trkpt>
      <trkpt lat="43.83452" lon="6.59531">
        <ele>1520.4624023</ele>
        <time>2010-10-10T08:21:45Z</time>
      </trkpt>
      <trkpt lat="43.83453" lon="6.5953">
        <ele>1521.9042969</ele>
        <time>2010-10-10T08:21:50Z</time>
      </trkpt>
      <trkpt lat="43.83454" lon="6.59529">
        <ele>1524.3076172</ele>
        <time>2010-10-10T08:21:57Z</time>
      </trkpt>
      <trkpt lat="43.83454" lon="6.59527">
        <ele>1525.7495117</ele>
        <time>2010-10-10T08:22:03Z</time>
      </trkpt>
      <trkpt lat="43.83455" lon="6.59527">
        <ele>1526.7109375</ele>
        <time>2010-10-10T08:22:09Z</time>
      </trkpt>
      <trkpt lat="43.83455" lon="6.59525">
        <ele>1527.6721191</ele>
        <time>2010-10-10T08:22:17Z</time>
      </trkpt>
      <trkpt lat="43.83456" lon="6.59525">
        <ele>1528.6335449</ele>
        <time>2010-10-10T08:22:24Z</time>
      </trkpt>
      <trkpt lat="43.83458" lon="6.59527">
        <ele>1527.6721191</ele>
        <time>2010-10-10T08:22:31Z</time>
      </trkpt>
      <trkpt lat="43.83459" lon="6.59529">
        <ele>1528.152832</ele>
        <time>2010-10-10T08:22:39Z</time>
      </trkpt>
      <trkpt lat="43.83461" lon="6.59529">
        <ele>1528.6335449</ele>
        <time>2010-10-10T08:22:45Z</time>
      </trkpt>
      <trkpt lat="43.83463" lon="6.5953">
        <ele>1528.6335449</ele>
        <time>2010-10-10T08:22:52Z</time>
      </trkpt>
      <trkpt lat="43.83465" lon="6.59529">
        <ele>1529.5947266</ele>
        <time>2010-10-10T08:23:00Z</time>
      </trkpt>
      <trkpt lat="43.83465" lon="6.59528">
        <ele>1531.517334</ele>
        <time>2010-10-10T08:23:07Z</time>
      </trkpt>
      <trkpt lat="43.83465" lon="6.59529">
        <ele>1532.4790039</ele>
        <time>2010-10-10T08:23:12Z</time>
      </trkpt>
      <trkpt lat="43.83467" lon="6.59527">
        <ele>1533.4401855</ele>
        <time>2010-10-10T08:23:18Z</time>
      </trkpt>
      <trkpt lat="43.83467" lon="6.59525">
        <ele>1534.4016113</ele>
        <time>2010-10-10T08:23:23Z</time>
      </trkpt>
      <trkpt lat="43.83469" lon="6.59523">
        <ele>1536.8046875</ele>
        <time>2010-10-10T08:23:32Z</time>
      </trkpt>
      <trkpt lat="43.8347" lon="6.59522">
        <ele>1537.7661133</ele>
        <time>2010-10-10T08:23:39Z</time>
      </trkpt>
      <trkpt lat="43.83471" lon="6.5952">
        <ele>1539.6887207</ele>
        <time>2010-10-10T08:23:46Z</time>
      </trkpt>
      <trkpt lat="43.83472" lon="6.5952">
        <ele>1541.1306152</ele>
        <time>2010-10-10T08:23:52Z</time>
      </trkpt>
      <trkpt lat="43.83474" lon="6.59519">
        <ele>1542.092041</ele>
        <time>2010-10-10T08:23:58Z</time>
      </trkpt>
      <trkpt lat="43.83476" lon="6.59518">
        <ele>1543.5339355</ele>
        <time>2010-10-10T08:24:05Z</time>
      </trkpt>
      <trkpt lat="43.83478" lon="6.59519">
        <ele>1544.0146484</ele>
        <time>2010-10-10T08:24:12Z</time>
      </trkpt>
      <trkpt lat="43.8348" lon="6.5952">
        <ele>1544.9758301</ele>
        <time>2010-10-10T08:24:20Z</time>
      </trkpt>
      <trkpt lat="43.8348" lon="6.59522">
        <ele>1546.8984375</ele>
        <time>2010-10-10T08:24:26Z</time>
      </trkpt>
      <trkpt lat="43.83479" lon="6.59522">
        <ele>1549.302002</ele>
        <time>2010-10-10T08:24:32Z</time>
      </trkpt>
      <trkpt lat="43.8348" lon="6.59525">
        <ele>1550.7438965</ele>
        <time>2010-10-10T08:24:39Z</time>
      </trkpt>
      <trkpt lat="43.83482" lon="6.59527">
        <ele>1551.2246094</ele>
        <time>2010-10-10T08:24:46Z</time>
      </trkpt>
      <trkpt lat="43.83484" lon="6.59526">
        <ele>1552.185791</ele>
        <time>2010-10-10T08:24:54Z</time>
      </trkpt>
      <trkpt lat="43.83483" lon="6.59526">
        <ele>1556.5117188</ele>
        <time>2010-10-10T08:25:06Z</time>
      </trkpt>
      <trkpt lat="43.83484" lon="6.59523">
        <ele>1557.4731445</ele>
        <time>2010-10-10T08:25:12Z</time>
      </trkpt>
      <trkpt lat="43.83485" lon="6.59524">
        <ele>1555.5505371</ele>
        <time>2010-10-10T08:25:18Z</time>
      </trkpt>
      <trkpt lat="43.83487" lon="6.59526">
        <ele>1556.0310059</ele>
        <time>2010-10-10T08:25:25Z</time>
      </trkpt>
      <trkpt lat="43.83488" lon="6.59527">
        <ele>1555.0698242</ele>
        <time>2010-10-10T08:25:34Z</time>
      </trkpt>
      <trkpt lat="43.83489" lon="6.59527">
        <ele>1552.6665039</ele>
        <time>2010-10-10T08:25:43Z</time>
      </trkpt>
      <trkpt lat="43.8349" lon="6.59529">
        <ele>1552.185791</ele>
        <time>2010-10-10T08:25:52Z</time>
      </trkpt>
      <trkpt lat="43.83492" lon="6.59529">
        <ele>1553.1472168</ele>
        <time>2010-10-10T08:25:59Z</time>
      </trkpt>
      <trkpt lat="43.83493" lon="6.59532">
        <ele>1552.6665039</ele>
        <time>2010-10-10T08:26:05Z</time>
      </trkpt>
      <trkpt lat="43.83494" lon="6.59535">
        <ele>1553.6279297</ele>
        <time>2010-10-10T08:26:12Z</time>
      </trkpt>
      <trkpt lat="43.83494" lon="6.59534">
        <ele>1553.1472168</ele>
        <time>2010-10-10T08:26:23Z</time>
      </trkpt>
      <trkpt lat="43.83496" lon="6.59532">
        <ele>1550.2634277</ele>
        <time>2010-10-10T08:26:54Z</time>
      </trkpt>
      <trkpt lat="43.83496" lon="6.59533">
        <ele>1553.6279297</ele>
        <time>2010-10-10T08:27:17Z</time>
      </trkpt>
      <trkpt lat="43.83498" lon="6.59533">
        <ele>1556.9924316</ele>
        <time>2010-10-10T08:27:24Z</time>
      </trkpt>
      <trkpt lat="43.83498" lon="6.59533">
        <ele>1559.395752</ele>
        <time>2010-10-10T08:27:31Z</time>
      </trkpt>
      <trkpt lat="43.835" lon="6.59534">
        <ele>1559.8762207</ele>
        <time>2010-10-10T08:27:39Z</time>
      </trkpt>
      <trkpt lat="43.835" lon="6.59534">
        <ele>1560.8376465</ele>
        <time>2010-10-10T08:27:47Z</time>
      </trkpt>
      <trkpt lat="43.83502" lon="6.59532">
        <ele>1561.3183594</ele>
        <time>2010-10-10T08:27:55Z</time>
      </trkpt>
      <trkpt lat="43.83502" lon="6.5953">
        <ele>1562.7602539</ele>
        <time>2010-10-10T08:28:01Z</time>
      </trkpt>
      <trkpt lat="43.83505" lon="6.59529">
        <ele>1563.7214355</ele>
        <time>2010-10-10T08:28:08Z</time>
      </trkpt>
      <trkpt lat="43.83506" lon="6.59525">
        <ele>1565.1638184</ele>
        <time>2010-10-10T08:28:15Z</time>
      </trkpt>
      <trkpt lat="43.83507" lon="6.59522">
        <ele>1566.6057129</ele>
        <time>2010-10-10T08:28:23Z</time>
      </trkpt>
      <trkpt lat="43.83508" lon="6.59522">
        <ele>1567.5668945</ele>
        <time>2010-10-10T08:28:29Z</time>
      </trkpt>
      <trkpt lat="43.83509" lon="6.59521">
        <ele>1569.0090332</ele>
        <time>2010-10-10T08:28:36Z</time>
      </trkpt>
      <trkpt lat="43.8351" lon="6.59519">
        <ele>1571.4121094</ele>
        <time>2010-10-10T08:28:45Z</time>
      </trkpt>
      <trkpt lat="43.83511" lon="6.59518">
        <ele>1572.3735352</ele>
        <time>2010-10-10T08:28:52Z</time>
      </trkpt>
      <trkpt lat="43.83513" lon="6.59519">
        <ele>1572.3735352</ele>
        <time>2010-10-10T08:29:00Z</time>
      </trkpt>
      <trkpt lat="43.83515" lon="6.5952">
        <ele>1573.3349609</ele>
        <time>2010-10-10T08:29:06Z</time>
      </trkpt>
      <trkpt lat="43.83516" lon="6.59519">
        <ele>1573.8154297</ele>
        <time>2010-10-10T08:29:11Z</time>
      </trkpt>
      <trkpt lat="43.83517" lon="6.59516">
        <ele>1574.7768555</ele>
        <time>2010-10-10T08:29:18Z</time>
      </trkpt>
      <trkpt lat="43.83518" lon="6.59512">
        <ele>1575.2573242</ele>
        <time>2010-10-10T08:29:24Z</time>
      </trkpt>
      <trkpt lat="43.83519" lon="6.5951">
        <ele>1576.21875</ele>
        <time>2010-10-10T08:29:32Z</time>
      </trkpt>
      <trkpt lat="43.83522" lon="6.59509">
        <ele>1576.6994629</ele>
        <time>2010-10-10T08:29:39Z</time>
      </trkpt>
      <trkpt lat="43.83523" lon="6.59507">
        <ele>1577.1801758</ele>
        <time>2010-10-10T08:29:45Z</time>
      </trkpt>
      <trkpt lat="43.83524" lon="6.59507">
        <ele>1578.1413574</ele>
        <time>2010-10-10T08:29:51Z</time>
      </trkpt>
      <trkpt lat="43.83525" lon="6.59505">
        <ele>1579.583252</ele>
        <time>2010-10-10T08:29:58Z</time>
      </trkpt>
      <trkpt lat="43.83525" lon="6.59504">
        <ele>1580.5449219</ele>
        <time>2010-10-10T08:30:03Z</time>
      </trkpt>
      <trkpt lat="43.83527" lon="6.59504">
        <ele>1581.0256348</ele>
        <time>2010-10-10T08:30:09Z</time>
      </trkpt>
      <trkpt lat="43.83529" lon="6.59501">
        <ele>1581.5061035</ele>
        <time>2010-10-10T08:30:16Z</time>
      </trkpt>
      <trkpt lat="43.8353" lon="6.595">
        <ele>1582.947998</ele>
        <time>2010-10-10T08:30:22Z</time>
      </trkpt>
      <trkpt lat="43.83531" lon="6.59498">
        <ele>1584.3901367</ele>
        <time>2010-10-10T08:30:28Z</time>
      </trkpt>
      <trkpt lat="43.83532" lon="6.59498">
        <ele>1584.8708496</ele>
        <time>2010-10-10T08:30:34Z</time>
      </trkpt>
      <trkpt lat="43.83532" lon="6.59497">
        <ele>1585.3513184</ele>
        <time>2010-10-10T08:30:41Z</time>
      </trkpt>
      <trkpt lat="43.83533" lon="6.59497">
        <ele>1586.3127441</ele>
        <time>2010-10-10T08:30:48Z</time>
      </trkpt>
      <trkpt lat="43.83534" lon="6.59496">
        <ele>1587.7546387</ele>
        <time>2010-10-10T08:30:55Z</time>
      </trkpt>
      <trkpt lat="43.83537" lon="6.59495">
        <ele>1587.2739258</ele>
        <time>2010-10-10T08:31:02Z</time>
      </trkpt>
      <trkpt lat="43.83539" lon="6.59493">
        <ele>1587.7546387</ele>
        <time>2010-10-10T08:31:08Z</time>
      </trkpt>
      <trkpt lat="43.8354" lon="6.59492">
        <ele>1589.1965332</ele>
        <time>2010-10-10T08:31:15Z</time>
      </trkpt>
      <trkpt lat="43.8354" lon="6.59488">
        <ele>1590.157959</ele>
        <time>2010-10-10T08:31:22Z</time>
      </trkpt>
      <trkpt lat="43.8354" lon="6.59488">
        <ele>1590.157959</ele>
        <time>2010-10-10T08:31:28Z</time>
      </trkpt>
      <trkpt lat="43.83542" lon="6.59486">
        <ele>1591.1191406</ele>
        <time>2010-10-10T08:31:33Z</time>
      </trkpt>
      <trkpt lat="43.83543" lon="6.59485">
        <ele>1591.5998535</ele>
        <time>2010-10-10T08:31:39Z</time>
      </trkpt>
      <trkpt lat="43.83544" lon="6.59485">
        <ele>1591.5998535</ele>
        <time>2010-10-10T08:31:45Z</time>
      </trkpt>
      <trkpt lat="43.83544" lon="6.59485">
        <ele>1593.041748</ele>
        <time>2010-10-10T08:31:55Z</time>
      </trkpt>
      <trkpt lat="43.83546" lon="6.59488">
        <ele>1594.4836426</ele>
        <time>2010-10-10T08:32:02Z</time>
      </trkpt>
      <trkpt lat="43.83547" lon="6.59487">
        <ele>1595.4450684</ele>
        <time>2010-10-10T08:32:09Z</time>
      </trkpt>
      <trkpt lat="43.83548" lon="6.59489">
        <ele>1597.3679199</ele>
        <time>2010-10-10T08:32:16Z</time>
      </trkpt>
      <trkpt lat="43.8355" lon="6.5949">
        <ele>1597.8486328</ele>
        <time>2010-10-10T08:32:22Z</time>
      </trkpt>
      <trkpt lat="43.83552" lon="6.59492">
        <ele>1597.8486328</ele>
        <time>2010-10-10T08:32:29Z</time>
      </trkpt>
      <trkpt lat="43.83551" lon="6.59493">
        <ele>1596.887207</ele>
        <time>2010-10-10T08:32:34Z</time>
      </trkpt>
      <trkpt lat="43.83552" lon="6.59499">
        <ele>1596.887207</ele>
        <time>2010-10-10T08:32:42Z</time>
      </trkpt>
      <trkpt lat="43.83554" lon="6.59501">
        <ele>1599.7712402</ele>
        <time>2010-10-10T08:32:49Z</time>
      </trkpt>
      <trkpt lat="43.83555" lon="6.59505">
        <ele>1600.2519531</ele>
        <time>2010-10-10T08:32:57Z</time>
      </trkpt>
      <trkpt lat="43.83556" lon="6.59507">
        <ele>1602.1743164</ele>
        <time>2010-10-10T08:33:04Z</time>
      </trkpt>
      <trkpt lat="43.83558" lon="6.59506">
        <ele>1605.0583496</ele>
        <time>2010-10-10T08:33:12Z</time>
      </trkpt>
      <trkpt lat="43.83559" lon="6.59507">
        <ele>1605.5390625</ele>
        <time>2010-10-10T08:33:20Z</time>
      </trkpt>
      <trkpt lat="43.83561" lon="6.59508">
        <ele>1606.980957</ele>
        <time>2010-10-10T08:33:26Z</time>
      </trkpt>
      <trkpt lat="43.83563" lon="6.59509">
        <ele>1606.5002441</ele>
        <time>2010-10-10T08:33:31Z</time>
      </trkpt>
      <trkpt lat="43.83564" lon="6.59512">
        <ele>1606.980957</ele>
        <time>2010-10-10T08:33:38Z</time>
      </trkpt>
      <trkpt lat="43.83566" lon="6.59515">
        <ele>1607.4616699</ele>
        <time>2010-10-10T08:33:44Z</time>
      </trkpt>
      <trkpt lat="43.83567" lon="6.59517">
        <ele>1608.4228516</ele>
        <time>2010-10-10T08:33:51Z</time>
      </trkpt>
      <trkpt lat="43.83569" lon="6.59517">
        <ele>1609.3842773</ele>
        <time>2010-10-10T08:33:57Z</time>
      </trkpt>
      <trkpt lat="43.83569" lon="6.59516">
        <ele>1610.8261719</ele>
        <time>2010-10-10T08:34:03Z</time>
      </trkpt>
      <trkpt lat="43.83571" lon="6.59517">
        <ele>1612.7490234</ele>
        <time>2010-10-10T08:34:11Z</time>
      </trkpt>
      <trkpt lat="43.83572" lon="6.59518">
        <ele>1613.2297363</ele>
        <time>2010-10-10T08:34:17Z</time>
      </trkpt>
      <trkpt lat="43.83575" lon="6.59519">
        <ele>1614.190918</ele>
        <time>2010-10-10T08:34:25Z</time>
      </trkpt>
      <trkpt lat="43.83575" lon="6.59519">
        <ele>1615.6330566</ele>
        <time>2010-10-10T08:34:33Z</time>
      </trkpt>
      <trkpt lat="43.83576" lon="6.5952">
        <ele>1617.5554199</ele>
        <time>2010-10-10T08:34:47Z</time>
      </trkpt>
      <trkpt lat="43.83578" lon="6.59519">
        <ele>1618.0361328</ele>
        <time>2010-10-10T08:34:55Z</time>
      </trkpt>
      <trkpt lat="43.83579" lon="6.59517">
        <ele>1620.4394531</ele>
        <time>2010-10-10T08:35:03Z</time>
      </trkpt>
      <trkpt lat="43.83579" lon="6.59519">
        <ele>1621.8813477</ele>
        <time>2010-10-10T08:35:08Z</time>
      </trkpt>
      <trkpt lat="43.8358" lon="6.59518">
        <ele>1622.3620605</ele>
        <time>2010-10-10T08:35:16Z</time>
      </trkpt>
      <trkpt lat="43.83582" lon="6.59517">
        <ele>1622.3620605</ele>
        <time>2010-10-10T08:35:23Z</time>
      </trkpt>
      <trkpt lat="43.83583" lon="6.59518">
        <ele>1624.284668</ele>
        <time>2010-10-10T08:35:29Z</time>
      </trkpt>
      <trkpt lat="43.83583" lon="6.5952">
        <ele>1625.7265625</ele>
        <time>2010-10-10T08:35:35Z</time>
      </trkpt>
      <trkpt lat="43.83585" lon="6.59527">
        <ele>1625.2458496</ele>
        <time>2010-10-10T08:35:44Z</time>
      </trkpt>
      <trkpt lat="43.83587" lon="6.59531">
        <ele>1626.2072754</ele>
        <time>2010-10-10T08:35:51Z</time>
      </trkpt>
      <trkpt lat="43.83588" lon="6.59535">
        <ele>1627.1687012</ele>
        <time>2010-10-10T08:35:59Z</time>
      </trkpt>
      <trkpt lat="43.8359" lon="6.59537">
        <ele>1627.6491699</ele>
        <time>2010-10-10T08:36:05Z</time>
      </trkpt>
      <trkpt lat="43.83591" lon="6.59537">
        <ele>1629.0913086</ele>
        <time>2010-10-10T08:36:13Z</time>
      </trkpt>
      <trkpt lat="43.83593" lon="6.59541">
        <ele>1628.130127</ele>
        <time>2010-10-10T08:36:19Z</time>
      </trkpt>
      <trkpt lat="43.83592" lon="6.59541">
        <ele>1630.5334473</ele>
        <time>2010-10-10T08:36:26Z</time>
      </trkpt>
      <trkpt lat="43.83594" lon="6.59544">
        <ele>1630.5334473</ele>
        <time>2010-10-10T08:36:33Z</time>
      </trkpt>
      <trkpt lat="43.83594" lon="6.59545">
        <ele>1629.0913086</ele>
        <time>2010-10-10T08:36:44Z</time>
      </trkpt>
      <trkpt lat="43.83594" lon="6.59545">
        <ele>1631.4946289</ele>
        <time>2010-10-10T08:36:55Z</time>
      </trkpt>
      <trkpt lat="43.83596" lon="6.59542">
        <ele>1634.3786621</ele>
        <time>2010-10-10T08:37:02Z</time>
      </trkpt>
      <trkpt lat="43.83597" lon="6.59541">
        <ele>1635.8205566</ele>
        <time>2010-10-10T08:37:08Z</time>
      </trkpt>
      <trkpt lat="43.83598" lon="6.59543">
        <ele>1636.7817383</ele>
        <time>2010-10-10T08:37:15Z</time>
      </trkpt>
      <trkpt lat="43.836" lon="6.5954">
        <ele>1637.7431641</ele>
        <time>2010-10-10T08:37:22Z</time>
      </trkpt>
      <trkpt lat="43.836" lon="6.59539">
        <ele>1638.7045898</ele>
        <time>2010-10-10T08:37:28Z</time>
      </trkpt>
      <trkpt lat="43.83601" lon="6.59537">
        <ele>1639.1850586</ele>
        <time>2010-10-10T08:37:34Z</time>
      </trkpt>
      <trkpt lat="43.83602" lon="6.59535">
        <ele>1639.6657715</ele>
        <time>2010-10-10T08:37:41Z</time>
      </trkpt>
      <trkpt lat="43.83603" lon="6.59534">
        <ele>1640.6269531</ele>
        <time>2010-10-10T08:37:49Z</time>
      </trkpt>
      <trkpt lat="43.83604" lon="6.59533">
        <ele>1640.6269531</ele>
        <time>2010-10-10T08:37:54Z</time>
      </trkpt>
      <trkpt lat="43.83605" lon="6.59533">
        <ele>1640.1464844</ele>
        <time>2010-10-10T08:38:02Z</time>
      </trkpt>
      <trkpt lat="43.83605" lon="6.59532">
        <ele>1640.6269531</ele>
        <time>2010-10-10T08:38:08Z</time>
      </trkpt>
      <trkpt lat="43.83607" lon="6.59531">
        <ele>1641.107666</ele>
        <time>2010-10-10T08:38:15Z</time>
      </trkpt>
      <trkpt lat="43.83607" lon="6.59532">
        <ele>1642.0690918</ele>
        <time>2010-10-10T08:38:22Z</time>
      </trkpt>
      <trkpt lat="43.83608" lon="6.59531">
        <ele>1642.5498047</ele>
        <time>2010-10-10T08:38:29Z</time>
      </trkpt>
      <trkpt lat="43.83608" lon="6.59526">
        <ele>1644.4724121</ele>
        <time>2010-10-10T08:38:35Z</time>
      </trkpt>
      <trkpt lat="43.83609" lon="6.59525">
        <ele>1644.953125</ele>
        <time>2010-10-10T08:38:42Z</time>
      </trkpt>
      <trkpt lat="43.83609" lon="6.59527">
        <ele>1645.9145508</ele>
        <time>2010-10-10T08:38:50Z</time>
      </trkpt>
      <trkpt lat="43.8361" lon="6.59527">
        <ele>1647.3564453</ele>
        <time>2010-10-10T08:38:57Z</time>
      </trkpt>
      <trkpt lat="43.8361" lon="6.59527">
        <ele>1647.3564453</ele>
        <time>2010-10-10T08:39:09Z</time>
      </trkpt>
      <trkpt lat="43.83612" lon="6.59527">
        <ele>1649.2790527</ele>
        <time>2010-10-10T08:39:16Z</time>
      </trkpt>
      <trkpt lat="43.83614" lon="6.59526">
        <ele>1651.2016602</ele>
        <time>2010-10-10T08:39:23Z</time>
      </trkpt>
      <trkpt lat="43.83616" lon="6.59529">
        <ele>1651.682373</ele>
        <time>2010-10-10T08:39:30Z</time>
      </trkpt>
      <trkpt lat="43.83616" lon="6.59529">
        <ele>1652.6435547</ele>
        <time>2010-10-10T08:39:36Z</time>
      </trkpt>
      <trkpt lat="43.83618" lon="6.5953">
        <ele>1652.1628418</ele>
        <time>2010-10-10T08:39:43Z</time>
      </trkpt>
      <trkpt lat="43.83619" lon="6.59526">
        <ele>1653.1242676</ele>
        <time>2010-10-10T08:39:51Z</time>
      </trkpt>
      <trkpt lat="43.8362" lon="6.59528">
        <ele>1654.0856934</ele>
        <time>2010-10-10T08:39:56Z</time>
      </trkpt>
      <trkpt lat="43.83622" lon="6.5953">
        <ele>1655.046875</ele>
        <time>2010-10-10T08:40:05Z</time>
      </trkpt>
      <trkpt lat="43.83623" lon="6.5953">
        <ele>1656.0080566</ele>
        <time>2010-10-10T08:40:12Z</time>
      </trkpt>
      <trkpt lat="43.83624" lon="6.59527">
        <ele>1657.4501953</ele>
        <time>2010-10-10T08:40:18Z</time>
      </trkpt>
      <trkpt lat="43.83625" lon="6.59528">
        <ele>1657.9309082</ele>
        <time>2010-10-10T08:40:25Z</time>
      </trkpt>
      <trkpt lat="43.83627" lon="6.59527">
        <ele>1658.411377</ele>
        <time>2010-10-10T08:40:31Z</time>
      </trkpt>
      <trkpt lat="43.83628" lon="6.59523">
        <ele>1660.3342285</ele>
        <time>2010-10-10T08:40:39Z</time>
      </trkpt>
      <trkpt lat="43.83629" lon="6.59524">
        <ele>1661.7763672</ele>
        <time>2010-10-10T08:40:46Z</time>
      </trkpt>
      <trkpt lat="43.83631" lon="6.59524">
        <ele>1662.2568359</ele>
        <time>2010-10-10T08:40:53Z</time>
      </trkpt>
      <trkpt lat="43.83632" lon="6.59525">
        <ele>1661.7763672</ele>
        <time>2010-10-10T08:40:58Z</time>
      </trkpt>
      <trkpt lat="43.83633" lon="6.59525">
        <ele>1661.7763672</ele>
        <time>2010-10-10T08:41:06Z</time>
      </trkpt>
      <trkpt lat="43.83635" lon="6.59526">
        <ele>1661.2956543</ele>
        <time>2010-10-10T08:41:14Z</time>
      </trkpt>
      <trkpt lat="43.83637" lon="6.59525">
        <ele>1662.7375488</ele>
        <time>2010-10-10T08:41:21Z</time>
      </trkpt>
      <trkpt lat="43.83639" lon="6.59526">
        <ele>1664.6601562</ele>
        <time>2010-10-10T08:41:28Z</time>
      </trkpt>
      <trkpt lat="43.8364" lon="6.5953">
        <ele>1665.1408691</ele>
        <time>2010-10-10T08:41:35Z</time>
      </trkpt>
      <trkpt lat="43.83642" lon="6.59529">
        <ele>1665.621582</ele>
        <time>2010-10-10T08:41:41Z</time>
      </trkpt>
      <trkpt lat="43.83643" lon="6.59529">
        <ele>1667.5439453</ele>
        <time>2010-10-10T08:41:47Z</time>
      </trkpt>
      <trkpt lat="43.83644" lon="6.5953">
        <ele>1669.4667969</ele>
        <time>2010-10-10T08:41:54Z</time>
      </trkpt>
      <trkpt lat="43.83645" lon="6.5953">
        <ele>1670.9086914</ele>
        <time>2010-10-10T08:42:01Z</time>
      </trkpt>
      <trkpt lat="43.83646" lon="6.5953">
        <ele>1672.3505859</ele>
        <time>2010-10-10T08:42:06Z</time>
      </trkpt>
      <trkpt lat="43.83648" lon="6.5953">
        <ele>1672.8312988</ele>
        <time>2010-10-10T08:42:14Z</time>
      </trkpt>
      <trkpt lat="43.83648" lon="6.5953">
        <ele>1673.7924805</ele>
        <time>2010-10-10T08:42:21Z</time>
      </trkpt>
      <trkpt lat="43.8365" lon="6.5953">
        <ele>1675.7150879</ele>
        <time>2010-10-10T08:42:28Z</time>
      </trkpt>
      <trkpt lat="43.8365" lon="6.5953">
        <ele>1677.6379395</ele>
        <time>2010-10-10T08:42:36Z</time>
      </trkpt>
      <trkpt lat="43.83651" lon="6.5953">
        <ele>1677.6379395</ele>
        <time>2010-10-10T08:42:43Z</time>
      </trkpt>
      <trkpt lat="43.83652" lon="6.59529">
        <ele>1677.1574707</ele>
        <time>2010-10-10T08:42:51Z</time>
      </trkpt>
      <trkpt lat="43.83652" lon="6.59529">
        <ele>1676.6767578</ele>
        <time>2010-10-10T08:43:02Z</time>
      </trkpt>
      <trkpt lat="43.83654" lon="6.5953">
        <ele>1678.1186523</ele>
        <time>2010-10-10T08:43:10Z</time>
      </trkpt>
      <trkpt lat="43.83655" lon="6.59531">
        <ele>1679.079834</ele>
        <time>2010-10-10T08:43:17Z</time>
      </trkpt>
      <trkpt lat="43.83657" lon="6.59532">
        <ele>1680.0412598</ele>
        <time>2010-10-10T08:43:23Z</time>
      </trkpt>
      <trkpt lat="43.83659" lon="6.59528">
        <ele>1680.5219727</ele>
        <time>2010-10-10T08:43:30Z</time>
      </trkpt>
      <trkpt lat="43.83659" lon="6.59525">
        <ele>1681.0026855</ele>
        <time>2010-10-10T08:43:38Z</time>
      </trkpt>
      <trkpt lat="43.8366" lon="6.59526">
        <ele>1682.4445801</ele>
        <time>2010-10-10T08:43:44Z</time>
      </trkpt>
      <trkpt lat="43.83662" lon="6.59525">
        <ele>1682.9250488</ele>
        <time>2010-10-10T08:43:49Z</time>
      </trkpt>
      <trkpt lat="43.83663" lon="6.59522">
        <ele>1684.3671875</ele>
        <time>2010-10-10T08:43:56Z</time>
      </trkpt>
      <trkpt lat="43.83664" lon="6.59522">
        <ele>1684.3671875</ele>
        <time>2010-10-10T08:44:01Z</time>
      </trkpt>
      <trkpt lat="43.83667" lon="6.59524">
        <ele>1686.2897949</ele>
        <time>2010-10-10T08:44:08Z</time>
      </trkpt>
      <trkpt lat="43.83668" lon="6.59524">
        <ele>1686.7702637</ele>
        <time>2010-10-10T08:44:15Z</time>
      </trkpt>
      <trkpt lat="43.8367" lon="6.59523">
        <ele>1687.7316895</ele>
        <time>2010-10-10T08:44:21Z</time>
      </trkpt>
      <trkpt lat="43.83673" lon="6.59525">
        <ele>1689.173584</ele>
        <time>2010-10-10T08:44:30Z</time>
      </trkpt>
      <trkpt lat="43.83673" lon="6.59524">
        <ele>1689.173584</ele>
        <time>2010-10-10T08:44:39Z</time>
      </trkpt>
      <trkpt lat="43.83674" lon="6.59526">
        <ele>1691.5769043</ele>
        <time>2010-10-10T08:44:47Z</time>
      </trkpt>
      <trkpt lat="43.83676" lon="6.59525">
        <ele>1693.4997559</ele>
        <time>2010-10-10T08:44:56Z</time>
      </trkpt>
      <trkpt lat="43.83679" lon="6.59526">
        <ele>1694.4609375</ele>
        <time>2010-10-10T08:45:03Z</time>
      </trkpt>
      <trkpt lat="43.83679" lon="6.59524">
        <ele>1695.9030762</ele>
        <time>2010-10-10T08:45:14Z</time>
      </trkpt>
      <trkpt lat="43.83681" lon="6.59521">
        <ele>1698.3061523</ele>
        <time>2010-10-10T08:45:21Z</time>
      </trkpt>
      <trkpt lat="43.83683" lon="6.59519">
        <ele>1700.7094727</ele>
        <time>2010-10-10T08:45:28Z</time>
      </trkpt>
      <trkpt lat="43.83684" lon="6.59518">
        <ele>1702.1513672</ele>
        <time>2010-10-10T08:45:34Z</time>
      </trkpt>
      <trkpt lat="43.83686" lon="6.59516">
        <ele>1704.0742188</ele>
        <time>2010-10-10T08:45:40Z</time>
      </trkpt>
      <trkpt lat="43.83686" lon="6.59513">
        <ele>1704.5546875</ele>
        <time>2010-10-10T08:45:48Z</time>
      </trkpt>
      <trkpt lat="43.83688" lon="6.5951">
        <ele>1705.996582</ele>
        <time>2010-10-10T08:45:54Z</time>
      </trkpt>
      <trkpt lat="43.8369" lon="6.59506">
        <ele>1706.9580078</ele>
        <time>2010-10-10T08:46:00Z</time>
      </trkpt>
      <trkpt lat="43.83691" lon="6.59505">
        <ele>1707.9194336</ele>
        <time>2010-10-10T08:46:06Z</time>
      </trkpt>
      <trkpt lat="43.83692" lon="6.59508">
        <ele>1706.9580078</ele>
        <time>2010-10-10T08:46:11Z</time>
      </trkpt>
      <trkpt lat="43.83694" lon="6.59506">
        <ele>1707.9194336</ele>
        <time>2010-10-10T08:46:16Z</time>
      </trkpt>
      <trkpt lat="43.83695" lon="6.59501">
        <ele>1708.8808594</ele>
        <time>2010-10-10T08:46:23Z</time>
      </trkpt>
      <trkpt lat="43.83698" lon="6.59498">
        <ele>1709.842041</ele>
        <time>2010-10-10T08:46:30Z</time>
      </trkpt>
      <trkpt lat="43.83701" lon="6.59494">
        <ele>1711.7648926</ele>
        <time>2010-10-10T08:46:37Z</time>
      </trkpt>
      <trkpt lat="43.83702" lon="6.59492">
        <ele>1712.2453613</ele>
        <time>2010-10-10T08:46:44Z</time>
      </trkpt>
      <trkpt lat="43.83703" lon="6.59492">
        <ele>1710.3227539</ele>
        <time>2010-10-10T08:46:52Z</time>
      </trkpt>
      <trkpt lat="43.83704" lon="6.59493">
        <ele>1708.4001465</ele>
        <time>2010-10-10T08:47:02Z</time>
      </trkpt>
      <trkpt lat="43.83705" lon="6.59494">
        <ele>1705.996582</ele>
        <time>2010-10-10T08:47:11Z</time>
      </trkpt>
      <trkpt lat="43.83705" lon="6.59495">
        <ele>1707.9194336</ele>
        <time>2010-10-10T08:47:52Z</time>
      </trkpt>
      <trkpt lat="43.83705" lon="6.59496">
        <ele>1710.3227539</ele>
        <time>2010-10-10T08:48:18Z</time>
      </trkpt>
      <trkpt lat="43.83706" lon="6.59494">
        <ele>1710.8034668</ele>
        <time>2010-10-10T08:48:23Z</time>
      </trkpt>
      <trkpt lat="43.83708" lon="6.59487">
        <ele>1712.2453613</ele>
        <time>2010-10-10T08:48:31Z</time>
      </trkpt>
      <trkpt lat="43.83709" lon="6.59488">
        <ele>1714.6486816</ele>
        <time>2010-10-10T08:48:37Z</time>
      </trkpt>
      <trkpt lat="43.83712" lon="6.59487">
        <ele>1716.5712891</ele>
        <time>2010-10-10T08:48:44Z</time>
      </trkpt>
      <trkpt lat="43.83714" lon="6.59488">
        <ele>1718.0131836</ele>
        <time>2010-10-10T08:48:50Z</time>
      </trkpt>
      <trkpt lat="43.83717" lon="6.59485">
        <ele>1719.4553223</ele>
        <time>2010-10-10T08:48:56Z</time>
      </trkpt>
      <trkpt lat="43.83721" lon="6.59482">
        <ele>1720.8972168</ele>
        <time>2010-10-10T08:49:04Z</time>
      </trkpt>
      <trkpt lat="43.83723" lon="6.59482">
        <ele>1722.3391113</ele>
        <time>2010-10-10T08:49:11Z</time>
      </trkpt>
      <trkpt lat="43.83727" lon="6.5948">
        <ele>1724.2619629</ele>
        <time>2010-10-10T08:49:18Z</time>
      </trkpt>
      <trkpt lat="43.83727" lon="6.59481">
        <ele>1726.6652832</ele>
        <time>2010-10-10T08:49:24Z</time>
      </trkpt>
      <trkpt lat="43.83728" lon="6.59486">
        <ele>1729.0683594</ele>
        <time>2010-10-10T08:49:31Z</time>
      </trkpt>
      <trkpt lat="43.8373" lon="6.59491">
        <ele>1730.0297852</ele>
        <time>2010-10-10T08:49:38Z</time>
      </trkpt>
      <trkpt lat="43.8373" lon="6.59497">
        <ele>1730.510498</ele>
        <time>2010-10-10T08:49:46Z</time>
      </trkpt>
      <trkpt lat="43.83732" lon="6.595">
        <ele>1730.9912109</ele>
        <time>2010-10-10T08:49:52Z</time>
      </trkpt>
      <trkpt lat="43.83734" lon="6.59504">
        <ele>1730.9912109</ele>
        <time>2010-10-10T08:49:58Z</time>
      </trkpt>
      <trkpt lat="43.83739" lon="6.59506">
        <ele>1730.9912109</ele>
        <time>2010-10-10T08:50:06Z</time>
      </trkpt>
      <trkpt lat="43.83743" lon="6.59511">
        <ele>1731.4716797</ele>
        <time>2010-10-10T08:50:14Z</time>
      </trkpt>
      <trkpt lat="43.83747" lon="6.59515">
        <ele>1732.4331055</ele>
        <time>2010-10-10T08:50:22Z</time>
      </trkpt>
      <trkpt lat="43.83751" lon="6.59522">
        <ele>1733.3942871</ele>
        <time>2010-10-10T08:50:29Z</time>
      </trkpt>
      <trkpt lat="43.83754" lon="6.59533">
        <ele>1733.875</ele>
        <time>2010-10-10T08:50:39Z</time>
      </trkpt>
      <trkpt lat="43.83757" lon="6.59541">
        <ele>1734.8364258</ele>
        <time>2010-10-10T08:50:47Z</time>
      </trkpt>
      <trkpt lat="43.83761" lon="6.59551">
        <ele>1736.7587891</ele>
        <time>2010-10-10T08:50:58Z</time>
      </trkpt>
      <trkpt lat="43.83764" lon="6.59556">
        <ele>1737.239502</ele>
        <time>2010-10-10T08:51:04Z</time>
      </trkpt>
      <trkpt lat="43.83768" lon="6.59569">
        <ele>1738.2009277</ele>
        <time>2010-10-10T08:51:14Z</time>
      </trkpt>
      <trkpt lat="43.83771" lon="6.5958">
        <ele>1738.6816406</ele>
        <time>2010-10-10T08:51:23Z</time>
      </trkpt>
      <trkpt lat="43.83772" lon="6.59583">
        <ele>1737.7202148</ele>
        <time>2010-10-10T08:51:28Z</time>
      </trkpt>
      <trkpt lat="43.83775" lon="6.5959">
        <ele>1736.2783203</ele>
        <time>2010-10-10T08:51:36Z</time>
      </trkpt>
      <trkpt lat="43.83776" lon="6.59589">
        <ele>1732.9135742</ele>
        <time>2010-10-10T08:52:06Z</time>
      </trkpt>
      <trkpt lat="43.83776" lon="6.59589">
        <ele>1735.3168945</ele>
        <time>2010-10-10T08:52:28Z</time>
      </trkpt>
      <trkpt lat="43.83775" lon="6.59592">
        <ele>1751.6594238</ele>
        <time>2010-10-10T09:00:18Z</time>
      </trkpt>
      <trkpt lat="43.83778" lon="6.59608">
        <ele>1752.6206055</ele>
        <time>2010-10-10T09:00:24Z</time>
      </trkpt>
      <trkpt lat="43.83785" lon="6.59628">
        <ele>1753.1013184</ele>
        <time>2010-10-10T09:00:30Z</time>
      </trkpt>
      <trkpt lat="43.83794" lon="6.59652">
        <ele>1754.5432129</ele>
        <time>2010-10-10T09:00:37Z</time>
      </trkpt>
      <trkpt lat="43.838" lon="6.59677">
        <ele>1754.5432129</ele>
        <time>2010-10-10T09:00:44Z</time>
      </trkpt>
      <trkpt lat="43.83805" lon="6.59707">
        <ele>1752.6206055</ele>
        <time>2010-10-10T09:00:51Z</time>
      </trkpt>
      <trkpt lat="43.83811" lon="6.59732">
        <ele>1751.6594238</ele>
        <time>2010-10-10T09:00:57Z</time>
      </trkpt>
      <trkpt lat="43.83823" lon="6.59749">
        <ele>1749.7368164</ele>
        <time>2010-10-10T09:01:03Z</time>
      </trkpt>
      <trkpt lat="43.83834" lon="6.59763">
        <ele>1748.7753906</ele>
        <time>2010-10-10T09:01:08Z</time>
      </trkpt>
      <trkpt lat="43.83846" lon="6.59782">
        <ele>1748.2946777</ele>
        <time>2010-10-10T09:01:15Z</time>
      </trkpt>
      <trkpt lat="43.8385" lon="6.59803">
        <ele>1748.2946777</ele>
        <time>2010-10-10T09:01:22Z</time>
      </trkpt>
      <trkpt lat="43.83849" lon="6.59823">
        <ele>1748.7753906</ele>
        <time>2010-10-10T09:01:28Z</time>
      </trkpt>
      <trkpt lat="43.83853" lon="6.59824">
        <ele>1749.7368164</ele>
        <time>2010-10-10T09:01:32Z</time>
      </trkpt>
      <trkpt lat="43.83863" lon="6.59804">
        <ele>1751.1787109</ele>
        <time>2010-10-10T09:01:43Z</time>
      </trkpt>
      <trkpt lat="43.8387" lon="6.59789">
        <ele>1751.1787109</ele>
        <time>2010-10-10T09:01:51Z</time>
      </trkpt>
      <trkpt lat="43.83879" lon="6.5977">
        <ele>1752.1398926</ele>
        <time>2010-10-10T09:02:01Z</time>
      </trkpt>
      <trkpt lat="43.83886" lon="6.59763">
        <ele>1752.1398926</ele>
        <time>2010-10-10T09:02:06Z</time>
      </trkpt>
      <trkpt lat="43.83896" lon="6.59748">
        <ele>1753.5820312</ele>
        <time>2010-10-10T09:02:16Z</time>
      </trkpt>
      <trkpt lat="43.83902" lon="6.59739">
        <ele>1753.5820312</ele>
        <time>2010-10-10T09:02:22Z</time>
      </trkpt>
      <trkpt lat="43.83906" lon="6.59741">
        <ele>1754.0627441</ele>
        <time>2010-10-10T09:02:26Z</time>
      </trkpt>
      <trkpt lat="43.83904" lon="6.59758">
        <ele>1755.0239258</ele>
        <time>2010-10-10T09:02:35Z</time>
      </trkpt>
      <trkpt lat="43.83903" lon="6.59773">
        <ele>1756.9467773</ele>
        <time>2010-10-10T09:02:42Z</time>
      </trkpt>
      <trkpt lat="43.83899" lon="6.5979">
        <ele>1758.8693848</ele>
        <time>2010-10-10T09:02:51Z</time>
      </trkpt>
      <trkpt lat="43.83898" lon="6.598">
        <ele>1759.3500977</ele>
        <time>2010-10-10T09:02:56Z</time>
      </trkpt>
      <trkpt lat="43.83903" lon="6.59801">
        <ele>1760.7919922</ele>
        <time>2010-10-10T09:03:01Z</time>
      </trkpt>
      <trkpt lat="43.83904" lon="6.59799">
        <ele>1760.7919922</ele>
        <time>2010-10-10T09:03:02Z</time>
      </trkpt>
      <trkpt lat="43.83913" lon="6.59784">
        <ele>1759.3500977</ele>
        <time>2010-10-10T09:03:11Z</time>
      </trkpt>
      <trkpt lat="43.83922" lon="6.59769">
        <ele>1759.8305664</ele>
        <time>2010-10-10T09:03:20Z</time>
      </trkpt>
      <trkpt lat="43.83929" lon="6.59754">
        <ele>1760.3112793</ele>
        <time>2010-10-10T09:03:28Z</time>
      </trkpt>
      <trkpt lat="43.83938" lon="6.5974">
        <ele>1759.8305664</ele>
        <time>2010-10-10T09:03:36Z</time>
      </trkpt>
      <trkpt lat="43.83946" lon="6.59732">
        <ele>1761.2727051</ele>
        <time>2010-10-10T09:03:42Z</time>
      </trkpt>
      <trkpt lat="43.83947" lon="6.59738">
        <ele>1763.6757812</ele>
        <time>2010-10-10T09:03:47Z</time>
      </trkpt>
      <trkpt lat="43.83946" lon="6.59742">
        <ele>1764.637207</ele>
        <time>2010-10-10T09:03:49Z</time>
      </trkpt>
      <trkpt lat="43.83945" lon="6.59756">
        <ele>1767.5209961</ele>
        <time>2010-10-10T09:03:56Z</time>
      </trkpt>
      <trkpt lat="43.83949" lon="6.59759">
        <ele>1768.9631348</ele>
        <time>2010-10-10T09:04:00Z</time>
      </trkpt>
      <trkpt lat="43.83958" lon="6.59752">
        <ele>1769.9243164</ele>
        <time>2010-10-10T09:04:07Z</time>
      </trkpt>
      <trkpt lat="43.83968" lon="6.59754">
        <ele>1769.4438477</ele>
        <time>2010-10-10T09:04:14Z</time>
      </trkpt>
      <trkpt lat="43.83967" lon="6.59761">
        <ele>1769.9243164</ele>
        <time>2010-10-10T09:04:19Z</time>
      </trkpt>
      <trkpt lat="43.83965" lon="6.59764">
        <ele>1769.9243164</ele>
        <time>2010-10-10T09:04:21Z</time>
      </trkpt>
      <trkpt lat="43.83959" lon="6.59774">
        <ele>1771.8469238</ele>
        <time>2010-10-10T09:04:29Z</time>
      </trkpt>
      <trkpt lat="43.83957" lon="6.5979">
        <ele>1773.2893066</ele>
        <time>2010-10-10T09:04:37Z</time>
      </trkpt>
      <trkpt lat="43.83958" lon="6.59811">
        <ele>1774.7312012</ele>
        <time>2010-10-10T09:04:48Z</time>
      </trkpt>
      <trkpt lat="43.83957" lon="6.59827">
        <ele>1775.2116699</ele>
        <time>2010-10-10T09:04:56Z</time>
      </trkpt>
      <trkpt lat="43.83957" lon="6.59833">
        <ele>1775.2116699</ele>
        <time>2010-10-10T09:04:59Z</time>
      </trkpt>
      <trkpt lat="43.83964" lon="6.59841">
        <ele>1774.7312012</ele>
        <time>2010-10-10T09:05:04Z</time>
      </trkpt>
      <trkpt lat="43.83972" lon="6.59845">
        <ele>1773.7697754</ele>
        <time>2010-10-10T09:05:07Z</time>
      </trkpt>
      <trkpt lat="43.83986" lon="6.59843">
        <ele>1772.3278809</ele>
        <time>2010-10-10T09:05:12Z</time>
      </trkpt>
      <trkpt lat="43.84011" lon="6.59836">
        <ele>1767.0405273</ele>
        <time>2010-10-10T09:05:19Z</time>
      </trkpt>
      <trkpt lat="43.84034" lon="6.59835">
        <ele>1760.3112793</ele>
        <time>2010-10-10T09:05:25Z</time>
      </trkpt>
      <trkpt lat="43.8405" lon="6.5984">
        <ele>1754.0627441</ele>
        <time>2010-10-10T09:05:30Z</time>
      </trkpt>
      <trkpt lat="43.84061" lon="6.59842">
        <ele>1749.7368164</ele>
        <time>2010-10-10T09:05:33Z</time>
      </trkpt>
      <trkpt lat="43.84087" lon="6.59843">
        <ele>1744.4494629</ele>
        <time>2010-10-10T09:05:38Z</time>
      </trkpt>
      <trkpt lat="43.84097" lon="6.59845">
        <ele>1742.0463867</ele>
        <time>2010-10-10T09:05:40Z</time>
      </trkpt>
      <trkpt lat="43.84121" lon="6.59851">
        <ele>1739.1621094</ele>
        <time>2010-10-10T09:05:45Z</time>
      </trkpt>
      <trkpt lat="43.8414" lon="6.59853">
        <ele>1736.7587891</ele>
        <time>2010-10-10T09:05:51Z</time>
      </trkpt>
      <trkpt lat="43.8414" lon="6.59852">
        <ele>1736.7587891</ele>
        <time>2010-10-10T09:05:52Z</time>
      </trkpt>
      <trkpt lat="43.84142" lon="6.59848">
        <ele>1734.3557129</ele>
        <time>2010-10-10T09:05:58Z</time>
      </trkpt>
      <trkpt lat="43.84143" lon="6.59846">
        <ele>1730.9912109</ele>
        <time>2010-10-10T09:06:12Z</time>
      </trkpt>
      <trkpt lat="43.84144" lon="6.59844">
        <ele>1724.2619629</ele>
        <time>2010-10-10T09:06:36Z</time>
      </trkpt>
      <trkpt lat="43.84146" lon="6.59842">
        <ele>1718.4938965</ele>
        <time>2010-10-10T09:06:51Z</time>
      </trkpt>
      <trkpt lat="43.84147" lon="6.59839">
        <ele>1710.3227539</ele>
        <time>2010-10-10T09:07:28Z</time>
      </trkpt>
      <trkpt lat="43.84147" lon="6.5984">
        <ele>1712.2453613</ele>
        <time>2010-10-10T09:07:56Z</time>
      </trkpt>
      <trkpt lat="43.84148" lon="6.5984">
        <ele>1712.2453613</ele>
        <time>2010-10-10T09:08:29Z</time>
      </trkpt>
      <trkpt lat="43.84148" lon="6.59839">
        <ele>1709.842041</ele>
        <time>2010-10-10T09:09:01Z</time>
      </trkpt>
      <trkpt lat="43.84147" lon="6.59839">
        <ele>1711.7648926</ele>
        <time>2010-10-10T09:09:37Z</time>
      </trkpt>
      <trkpt lat="43.84142" lon="6.59845">
        <ele>1732.4331055</ele>
        <time>2010-10-10T09:10:40Z</time>
      </trkpt>
      <trkpt lat="43.84144" lon="6.59837">
        <ele>1734.8364258</ele>
        <time>2010-10-10T09:10:45Z</time>
      </trkpt>
      <trkpt lat="43.84149" lon="6.59822">
        <ele>1736.7587891</ele>
        <time>2010-10-10T09:10:50Z</time>
      </trkpt>
      <trkpt lat="43.8416" lon="6.59797">
        <ele>1735.7976074</ele>
        <time>2010-10-10T09:10:55Z</time>
      </trkpt>
      <trkpt lat="43.84163" lon="6.5979">
        <ele>1735.3168945</ele>
        <time>2010-10-10T09:10:56Z</time>
      </trkpt>
      <trkpt lat="43.84171" lon="6.59773">
        <ele>1734.3557129</ele>
        <time>2010-10-10T09:10:59Z</time>
      </trkpt>
      <trkpt lat="43.84169" lon="6.59748">
        <ele>1728.1071777</ele>
        <time>2010-10-10T09:11:05Z</time>
      </trkpt>
      <trkpt lat="43.8417" lon="6.59745">
        <ele>1725.2231445</ele>
        <time>2010-10-10T09:11:09Z</time>
      </trkpt>
      <trkpt lat="43.8417" lon="6.59746">
        <ele>1723.7810059</ele>
        <time>2010-10-10T09:11:19Z</time>
      </trkpt>
      <trkpt lat="43.84169" lon="6.59746">
        <ele>1723.7810059</ele>
        <time>2010-10-10T09:11:23Z</time>
      </trkpt>
      <trkpt lat="43.84159" lon="6.59747">
        <ele>1722.3391113</ele>
        <time>2010-10-10T09:11:29Z</time>
      </trkpt>
      <trkpt lat="43.84143" lon="6.59745">
        <ele>1719.935791</ele>
        <time>2010-10-10T09:11:37Z</time>
      </trkpt>
      <trkpt lat="43.84132" lon="6.5973">
        <ele>1716.0905762</ele>
        <time>2010-10-10T09:11:44Z</time>
      </trkpt>
      <trkpt lat="43.84119" lon="6.59711">
        <ele>1710.3227539</ele>
        <time>2010-10-10T09:11:52Z</time>
      </trkpt>
      <trkpt lat="43.84114" lon="6.59695">
        <ele>1705.0354004</ele>
        <time>2010-10-10T09:11:57Z</time>
      </trkpt>
      <trkpt lat="43.84111" lon="6.59674">
        <ele>1699.2675781</ele>
        <time>2010-10-10T09:12:02Z</time>
      </trkpt>
      <trkpt lat="43.84101" lon="6.59654">
        <ele>1692.5385742</ele>
        <time>2010-10-10T09:12:09Z</time>
      </trkpt>
      <trkpt lat="43.84095" lon="6.59639">
        <ele>1687.7316895</ele>
        <time>2010-10-10T09:12:14Z</time>
      </trkpt>
      <trkpt lat="43.8409" lon="6.59612">
        <ele>1681.0026855</ele>
        <time>2010-10-10T09:12:20Z</time>
      </trkpt>
      <trkpt lat="43.84093" lon="6.59591">
        <ele>1675.234375</ele>
        <time>2010-10-10T09:12:25Z</time>
      </trkpt>
      <trkpt lat="43.84098" lon="6.59581">
        <ele>1669.9472656</ele>
        <time>2010-10-10T09:12:29Z</time>
      </trkpt>
      <trkpt lat="43.84096" lon="6.5956">
        <ele>1662.7375488</ele>
        <time>2010-10-10T09:12:35Z</time>
      </trkpt>
      <trkpt lat="43.84096" lon="6.59555">
        <ele>1661.2956543</ele>
        <time>2010-10-10T09:12:36Z</time>
      </trkpt>
      <trkpt lat="43.841" lon="6.5952">
        <ele>1651.682373</ele>
        <time>2010-10-10T09:12:43Z</time>
      </trkpt>
      <trkpt lat="43.84099" lon="6.595">
        <ele>1646.3952637</ele>
        <time>2010-10-10T09:12:47Z</time>
      </trkpt>
      <trkpt lat="43.84101" lon="6.59482">
        <ele>1641.107666</ele>
        <time>2010-10-10T09:12:51Z</time>
      </trkpt>
      <trkpt lat="43.84104" lon="6.59479">
        <ele>1639.6657715</ele>
        <time>2010-10-10T09:12:52Z</time>
      </trkpt>
      <trkpt lat="43.84122" lon="6.59472">
        <ele>1633.8979492</ele>
        <time>2010-10-10T09:12:56Z</time>
      </trkpt>
      <trkpt lat="43.84138" lon="6.59456">
        <ele>1627.6491699</ele>
        <time>2010-10-10T09:13:01Z</time>
      </trkpt>
      <trkpt lat="43.84136" lon="6.59447">
        <ele>1626.2072754</ele>
        <time>2010-10-10T09:13:03Z</time>
      </trkpt>
      <trkpt lat="43.84128" lon="6.59417">
        <ele>1620.4394531</ele>
        <time>2010-10-10T09:13:09Z</time>
      </trkpt>
      <trkpt lat="43.84132" lon="6.59399">
        <ele>1615.6330566</ele>
        <time>2010-10-10T09:13:13Z</time>
      </trkpt>
      <trkpt lat="43.84146" lon="6.59395">
        <ele>1610.8261719</ele>
        <time>2010-10-10T09:13:17Z</time>
      </trkpt>
      <trkpt lat="43.84161" lon="6.5939">
        <ele>1603.1357422</ele>
        <time>2010-10-10T09:13:22Z</time>
      </trkpt>
      <trkpt lat="43.8417" lon="6.59374">
        <ele>1596.887207</ele>
        <time>2010-10-10T09:13:26Z</time>
      </trkpt>
      <trkpt lat="43.84169" lon="6.59357">
        <ele>1593.041748</ele>
        <time>2010-10-10T09:13:29Z</time>
      </trkpt>
      <trkpt lat="43.84168" lon="6.59348">
        <ele>1589.6772461</ele>
        <time>2010-10-10T09:13:33Z</time>
      </trkpt>
      <trkpt lat="43.84167" lon="6.59349">
        <ele>1588.2353516</ele>
        <time>2010-10-10T09:13:46Z</time>
      </trkpt>
      <trkpt lat="43.84167" lon="6.59346">
        <ele>1594.9643555</ele>
        <time>2010-10-10T09:14:29Z</time>
      </trkpt>
      <trkpt lat="43.84165" lon="6.5934">
        <ele>1594.4836426</ele>
        <time>2010-10-10T09:14:31Z</time>
      </trkpt>
      <trkpt lat="43.84172" lon="6.59331">
        <ele>1592.5612793</ele>
        <time>2010-10-10T09:14:35Z</time>
      </trkpt>
      <trkpt lat="43.84171" lon="6.59318">
        <ele>1588.2353516</ele>
        <time>2010-10-10T09:14:39Z</time>
      </trkpt>
      <trkpt lat="43.84168" lon="6.59313">
        <ele>1586.3127441</ele>
        <time>2010-10-10T09:14:41Z</time>
      </trkpt>
      <trkpt lat="43.8416" lon="6.59292">
        <ele>1579.1025391</ele>
        <time>2010-10-10T09:14:48Z</time>
      </trkpt>
      <trkpt lat="43.84158" lon="6.59274">
        <ele>1571.8928223</ele>
        <time>2010-10-10T09:14:53Z</time>
      </trkpt>
      <trkpt lat="43.84147" lon="6.59263">
        <ele>1566.6057129</ele>
        <time>2010-10-10T09:14:59Z</time>
      </trkpt>
      <trkpt lat="43.8414" lon="6.59253">
        <ele>1564.6831055</ele>
        <time>2010-10-10T09:15:04Z</time>
      </trkpt>
      <trkpt lat="43.84136" lon="6.59238">
        <ele>1561.3183594</ele>
        <time>2010-10-10T09:15:09Z</time>
      </trkpt>
      <trkpt lat="43.84135" lon="6.59217">
        <ele>1555.5505371</ele>
        <time>2010-10-10T09:15:15Z</time>
      </trkpt>
      <trkpt lat="43.84138" lon="6.59199">
        <ele>1549.302002</ele>
        <time>2010-10-10T09:15:21Z</time>
      </trkpt>
      <trkpt lat="43.84147" lon="6.5919">
        <ele>1543.5339355</ele>
        <time>2010-10-10T09:15:26Z</time>
      </trkpt>
      <trkpt lat="43.84152" lon="6.59178">
        <ele>1538.2468262</ele>
        <time>2010-10-10T09:15:31Z</time>
      </trkpt>
      <trkpt lat="43.84151" lon="6.59174">
        <ele>1536.8046875</ele>
        <time>2010-10-10T09:15:34Z</time>
      </trkpt>
      <trkpt lat="43.84151" lon="6.59174">
        <ele>1538.2468262</ele>
        <time>2010-10-10T09:15:59Z</time>
      </trkpt>
      <trkpt lat="43.84151" lon="6.59173">
        <ele>1539.6887207</ele>
        <time>2010-10-10T09:16:07Z</time>
      </trkpt>
      <trkpt lat="43.84147" lon="6.59155">
        <ele>1536.8046875</ele>
        <time>2010-10-10T09:16:13Z</time>
      </trkpt>
      <trkpt lat="43.84142" lon="6.59141">
        <ele>1533.9208984</ele>
        <time>2010-10-10T09:16:18Z</time>
      </trkpt>
      <trkpt lat="43.84137" lon="6.59121">
        <ele>1530.0754395</ele>
        <time>2010-10-10T09:16:23Z</time>
      </trkpt>
      <trkpt lat="43.84135" lon="6.5911">
        <ele>1529.1140137</ele>
        <time>2010-10-10T09:16:25Z</time>
      </trkpt>
      <trkpt lat="43.84134" lon="6.59094">
        <ele>1526.7109375</ele>
        <time>2010-10-10T09:16:28Z</time>
      </trkpt>
      <trkpt lat="43.84145" lon="6.59087">
        <ele>1522.3850098</ele>
        <time>2010-10-10T09:16:33Z</time>
      </trkpt>
      <trkpt lat="43.84157" lon="6.59091">
        <ele>1516.1364746</ele>
        <time>2010-10-10T09:16:39Z</time>
      </trkpt>
      <trkpt lat="43.84164" lon="6.59092">
        <ele>1513.2524414</ele>
        <time>2010-10-10T09:16:42Z</time>
      </trkpt>
      <trkpt lat="43.84166" lon="6.59085">
        <ele>1511.329834</ele>
        <time>2010-10-10T09:16:44Z</time>
      </trkpt>
      <trkpt lat="43.84169" lon="6.59063">
        <ele>1507.4846191</ele>
        <time>2010-10-10T09:16:50Z</time>
      </trkpt>
      <trkpt lat="43.84169" lon="6.59041">
        <ele>1502.1972656</ele>
        <time>2010-10-10T09:16:56Z</time>
      </trkpt>
      <trkpt lat="43.84168" lon="6.59021">
        <ele>1498.3518066</ele>
        <time>2010-10-10T09:17:01Z</time>
      </trkpt>
      <trkpt lat="43.84177" lon="6.59011">
        <ele>1493.0646973</ele>
        <time>2010-10-10T09:17:06Z</time>
      </trkpt>
      <trkpt lat="43.84183" lon="6.59007">
        <ele>1489.2194824</ele>
        <time>2010-10-10T09:17:09Z</time>
      </trkpt>
      <trkpt lat="43.84189" lon="6.59002">
        <ele>1485.8549805</ele>
        <time>2010-10-10T09:17:12Z</time>
      </trkpt>
      <trkpt lat="43.84198" lon="6.58981">
        <ele>1477.203125</ele>
        <time>2010-10-10T09:17:20Z</time>
      </trkpt>
      <trkpt lat="43.84201" lon="6.58971">
        <ele>1474.3190918</ele>
        <time>2010-10-10T09:17:24Z</time>
      </trkpt>
      <trkpt lat="43.84198" lon="6.58967">
        <ele>1476.2416992</ele>
        <time>2010-10-10T09:17:28Z</time>
      </trkpt>
      <trkpt lat="43.84193" lon="6.58955">
        <ele>1476.7224121</ele>
        <time>2010-10-10T09:17:34Z</time>
      </trkpt>
      <trkpt lat="43.8419" lon="6.58939">
        <ele>1476.2416992</ele>
        <time>2010-10-10T09:17:39Z</time>
      </trkpt>
      <trkpt lat="43.84189" lon="6.58938">
        <ele>1481.5288086</ele>
        <time>2010-10-10T09:17:46Z</time>
      </trkpt>
      <trkpt lat="43.84186" lon="6.58925">
        <ele>1480.0869141</ele>
        <time>2010-10-10T09:17:50Z</time>
      </trkpt>
      <trkpt lat="43.84173" lon="6.58897">
        <ele>1477.6835938</ele>
        <time>2010-10-10T09:17:56Z</time>
      </trkpt>
      <trkpt lat="43.84164" lon="6.58878">
        <ele>1469.9931641</ele>
        <time>2010-10-10T09:18:01Z</time>
      </trkpt>
      <trkpt lat="43.84158" lon="6.58867">
        <ele>1463.263916</ele>
        <time>2010-10-10T09:18:06Z</time>
      </trkpt>
      <trkpt lat="43.84157" lon="6.58854">
        <ele>1455.5734863</ele>
        <time>2010-10-10T09:18:11Z</time>
      </trkpt>
      <trkpt lat="43.84151" lon="6.58841">
        <ele>1451.7280273</ele>
        <time>2010-10-10T09:18:16Z</time>
      </trkpt>
      <trkpt lat="43.84149" lon="6.58828">
        <ele>1444.5180664</ele>
        <time>2010-10-10T09:18:21Z</time>
      </trkpt>
      <trkpt lat="43.8415" lon="6.58824">
        <ele>1445.9602051</ele>
        <time>2010-10-10T09:18:22Z</time>
      </trkpt>
      <trkpt lat="43.84145" lon="6.58806">
        <ele>1451.2473145</ele>
        <time>2010-10-10T09:18:27Z</time>
      </trkpt>
      <trkpt lat="43.84145" lon="6.58801">
        <ele>1450.2861328</ele>
        <time>2010-10-10T09:18:28Z</time>
      </trkpt>
      <trkpt lat="43.84146" lon="6.58768">
        <ele>1443.5568848</ele>
        <time>2010-10-10T09:18:34Z</time>
      </trkpt>
      <trkpt lat="43.84151" lon="6.58741">
        <ele>1437.7890625</ele>
        <time>2010-10-10T09:18:39Z</time>
      </trkpt>
      <trkpt lat="43.84152" lon="6.5872">
        <ele>1432.9821777</ele>
        <time>2010-10-10T09:18:44Z</time>
      </trkpt>
      <trkpt lat="43.84148" lon="6.58697">
        <ele>1424.8112793</ele>
        <time>2010-10-10T09:18:50Z</time>
      </trkpt>
      <trkpt lat="43.84145" lon="6.58676">
        <ele>1418.5625</ele>
        <time>2010-10-10T09:18:55Z</time>
      </trkpt>
      <trkpt lat="43.84146" lon="6.58667">
        <ele>1416.1591797</ele>
        <time>2010-10-10T09:18:57Z</time>
      </trkpt>
      <trkpt lat="43.84141" lon="6.58649">
        <ele>1413.2753906</ele>
        <time>2010-10-10T09:19:02Z</time>
      </trkpt>
      <trkpt lat="43.8413" lon="6.58625">
        <ele>1412.3139648</ele>
        <time>2010-10-10T09:19:07Z</time>
      </trkpt>
      <trkpt lat="43.84128" lon="6.58622">
        <ele>1411.3527832</ele>
        <time>2010-10-10T09:19:08Z</time>
      </trkpt>
      <trkpt lat="43.84115" lon="6.58621">
        <ele>1407.9882812</ele>
        <time>2010-10-10T09:19:13Z</time>
      </trkpt>
      <trkpt lat="43.84112" lon="6.58617">
        <ele>1406.0654297</ele>
        <time>2010-10-10T09:19:16Z</time>
      </trkpt>
      <trkpt lat="43.8411" lon="6.58611">
        <ele>1410.3913574</ele>
        <time>2010-10-10T09:19:20Z</time>
      </trkpt>
      <trkpt lat="43.8411" lon="6.5861">
        <ele>1409.9106445</ele>
        <time>2010-10-10T09:19:24Z</time>
      </trkpt>
      <trkpt lat="43.84108" lon="6.58604">
        <ele>1414.2365723</ele>
        <time>2010-10-10T09:19:30Z</time>
      </trkpt>
      <trkpt lat="43.84108" lon="6.58599">
        <ele>1415.6787109</ele>
        <time>2010-10-10T09:19:34Z</time>
      </trkpt>
      <trkpt lat="43.84107" lon="6.58593">
        <ele>1416.1591797</ele>
        <time>2010-10-10T09:19:39Z</time>
      </trkpt>
      <trkpt lat="43.84102" lon="6.58574">
        <ele>1412.7946777</ele>
        <time>2010-10-10T09:19:44Z</time>
      </trkpt>
      <trkpt lat="43.841" lon="6.58553">
        <ele>1411.3527832</ele>
        <time>2010-10-10T09:19:49Z</time>
      </trkpt>
      <trkpt lat="43.84099" lon="6.58548">
        <ele>1410.3913574</ele>
        <time>2010-10-10T09:19:50Z</time>
      </trkpt>
      <trkpt lat="43.8409" lon="6.58521">
        <ele>1405.5849609</ele>
        <time>2010-10-10T09:19:55Z</time>
      </trkpt>
      <trkpt lat="43.84083" lon="6.58501">
        <ele>1399.3361816</ele>
        <time>2010-10-10T09:20:00Z</time>
      </trkpt>
      <trkpt lat="43.84079" lon="6.58487">
        <ele>1394.529541</ele>
        <time>2010-10-10T09:20:04Z</time>
      </trkpt>
      <trkpt lat="43.84077" lon="6.58478">
        <ele>1392.6071777</ele>
        <time>2010-10-10T09:20:06Z</time>
      </trkpt>
      <trkpt lat="43.84065" lon="6.58448">
        <ele>1389.7231445</ele>
        <time>2010-10-10T09:20:12Z</time>
      </trkpt>
      <trkpt lat="43.8406" lon="6.58435">
        <ele>1391.645752</ele>
        <time>2010-10-10T09:20:15Z</time>
      </trkpt>
      <trkpt lat="43.84056" lon="6.58405">
        <ele>1387.800293</ele>
        <time>2010-10-10T09:20:20Z</time>
      </trkpt>
      <trkpt lat="43.84051" lon="6.58371">
        <ele>1383.9550781</ele>
        <time>2010-10-10T09:20:26Z</time>
      </trkpt>
      <trkpt lat="43.84047" lon="6.58351">
        <ele>1385.8776855</ele>
        <time>2010-10-10T09:20:30Z</time>
      </trkpt>
      <trkpt lat="43.84045" lon="6.58319">
        <ele>1383.9550781</ele>
        <time>2010-10-10T09:20:35Z</time>
      </trkpt>
      <trkpt lat="43.84045" lon="6.58313">
        <ele>1383.4743652</ele>
        <time>2010-10-10T09:20:36Z</time>
      </trkpt>
      <trkpt lat="43.84047" lon="6.58284">
        <ele>1382.5131836</ele>
        <time>2010-10-10T09:20:42Z</time>
      </trkpt>
      <trkpt lat="43.84052" lon="6.58259">
        <ele>1379.1484375</ele>
        <time>2010-10-10T09:20:47Z</time>
      </trkpt>
      <trkpt lat="43.84051" lon="6.58236">
        <ele>1375.3032227</ele>
        <time>2010-10-10T09:20:51Z</time>
      </trkpt>
      <trkpt lat="43.8405" lon="6.58215">
        <ele>1373.8613281</ele>
        <time>2010-10-10T09:20:55Z</time>
      </trkpt>
      <trkpt lat="43.8405" lon="6.5819">
        <ele>1363.767334</ele>
        <time>2010-10-10T09:20:59Z</time>
      </trkpt>
      <trkpt lat="43.84042" lon="6.58171">
        <ele>1360.402832</ele>
        <time>2010-10-10T09:21:02Z</time>
      </trkpt>
      <trkpt lat="43.84041" lon="6.58152">
        <ele>1359.4416504</ele>
        <time>2010-10-10T09:21:06Z</time>
      </trkpt>
      <trkpt lat="43.84042" lon="6.58149">
        <ele>1359.4416504</ele>
        <time>2010-10-10T09:21:07Z</time>
      </trkpt>
      <trkpt lat="43.84035" lon="6.58127">
        <ele>1361.3642578</ele>
        <time>2010-10-10T09:21:12Z</time>
      </trkpt>
      <trkpt lat="43.84029" lon="6.58115">
        <ele>1358.4802246</ele>
        <time>2010-10-10T09:21:16Z</time>
      </trkpt>
      <trkpt lat="43.8402" lon="6.58097">
        <ele>1353.673584</ele>
        <time>2010-10-10T09:21:20Z</time>
      </trkpt>
      <trkpt lat="43.84009" lon="6.58063">
        <ele>1352.2314453</ele>
        <time>2010-10-10T09:21:25Z</time>
      </trkpt>
      <trkpt lat="43.84006" lon="6.58038">
        <ele>1341.1765137</ele>
        <time>2010-10-10T09:21:30Z</time>
      </trkpt>
      <trkpt lat="43.84007" lon="6.58016">
        <ele>1336.8503418</ele>
        <time>2010-10-10T09:21:34Z</time>
      </trkpt>
      <trkpt lat="43.84" lon="6.57986">
        <ele>1329.640625</ele>
        <time>2010-10-10T09:21:39Z</time>
      </trkpt>
      <trkpt lat="43.83997" lon="6.57958">
        <ele>1323.8725586</ele>
        <time>2010-10-10T09:21:44Z</time>
      </trkpt>
      <trkpt lat="43.83996" lon="6.5795">
        <ele>1322.4306641</ele>
        <time>2010-10-10T09:21:46Z</time>
      </trkpt>
      <trkpt lat="43.83993" lon="6.57929">
        <ele>1321.4692383</ele>
        <time>2010-10-10T09:21:52Z</time>
      </trkpt>
      <trkpt lat="43.83984" lon="6.57936">
        <ele>1361.8449707</ele>
        <time>2010-10-10T09:23:45Z</time>
      </trkpt>
      <trkpt lat="43.83997" lon="6.57929">
        <ele>1367.6125488</ele>
        <time>2010-10-10T09:24:12Z</time>
      </trkpt>
      <trkpt lat="43.83994" lon="6.57929">
        <ele>1368.0932617</ele>
        <time>2010-10-10T09:24:17Z</time>
      </trkpt>
      <trkpt lat="43.83994" lon="6.57927">
        <ele>1357.519043</ele>
        <time>2010-10-10T09:24:30Z</time>
      </trkpt>
      <trkpt lat="43.8399" lon="6.57926">
        <ele>1346.9443359</ele>
        <time>2010-10-10T09:25:39Z</time>
      </trkpt>
      <trkpt lat="43.83988" lon="6.57914">
        <ele>1332.0439453</ele>
        <time>2010-10-10T09:25:46Z</time>
      </trkpt>
      <trkpt lat="43.83987" lon="6.57892">
        <ele>1319.546875</ele>
        <time>2010-10-10T09:25:50Z</time>
      </trkpt>
      <trkpt lat="43.83985" lon="6.57872">
        <ele>1312.3369141</ele>
        <time>2010-10-10T09:25:54Z</time>
      </trkpt>
      <trkpt lat="43.83984" lon="6.57866">
        <ele>1309.9335938</ele>
        <time>2010-10-10T09:25:55Z</time>
      </trkpt>
      <trkpt lat="43.83969" lon="6.57832">
        <ele>1299.3591309</ele>
        <time>2010-10-10T09:26:01Z</time>
      </trkpt>
      <trkpt lat="43.83964" lon="6.57821">
        <ele>1295.9946289</ele>
        <time>2010-10-10T09:26:03Z</time>
      </trkpt>
      <trkpt lat="43.83955" lon="6.57799">
        <ele>1292.630127</ele>
        <time>2010-10-10T09:26:07Z</time>
      </trkpt>
      <trkpt lat="43.83942" lon="6.57766">
        <ele>1283.0166016</ele>
        <time>2010-10-10T09:26:13Z</time>
      </trkpt>
      <trkpt lat="43.83936" lon="6.57744">
        <ele>1283.9780273</ele>
        <time>2010-10-10T09:26:17Z</time>
      </trkpt>
      <trkpt lat="43.8392" lon="6.57724">
        <ele>1280.1328125</ele>
        <time>2010-10-10T09:26:22Z</time>
      </trkpt>
      <trkpt lat="43.83899" lon="6.57701">
        <ele>1275.8066406</ele>
        <time>2010-10-10T09:26:28Z</time>
      </trkpt>
      <trkpt lat="43.83891" lon="6.57697">
        <ele>1277.2490234</ele>
        <time>2010-10-10T09:26:32Z</time>
      </trkpt>
      <trkpt lat="43.83885" lon="6.57681">
        <ele>1278.2102051</ele>
        <time>2010-10-10T09:26:36Z</time>
      </trkpt>
      <trkpt lat="43.8388" lon="6.57671">
        <ele>1278.690918</ele>
        <time>2010-10-10T09:26:39Z</time>
      </trkpt>
      <trkpt lat="43.83864" lon="6.57648">
        <ele>1275.3259277</ele>
        <time>2010-10-10T09:26:45Z</time>
      </trkpt>
      <trkpt lat="43.83845" lon="6.57629">
        <ele>1271.0002441</ele>
        <time>2010-10-10T09:26:49Z</time>
      </trkpt>
      <trkpt lat="43.8384" lon="6.57624">
        <ele>1271.0002441</ele>
        <time>2010-10-10T09:26:50Z</time>
      </trkpt>
      <trkpt lat="43.83821" lon="6.57596">
        <ele>1267.635498</ele>
        <time>2010-10-10T09:26:55Z</time>
      </trkpt>
      <trkpt lat="43.83806" lon="6.5756">
        <ele>1267.635498</ele>
        <time>2010-10-10T09:27:00Z</time>
      </trkpt>
      <trkpt lat="43.83798" lon="6.57542">
        <ele>1263.3098145</ele>
        <time>2010-10-10T09:27:05Z</time>
      </trkpt>
      <trkpt lat="43.83793" lon="6.57539">
        <ele>1256.5803223</ele>
        <time>2010-10-10T09:27:09Z</time>
      </trkpt>
      <trkpt lat="43.83784" lon="6.57531">
        <ele>1253.6965332</ele>
        <time>2010-10-10T09:27:13Z</time>
      </trkpt>
      <trkpt lat="43.83775" lon="6.57515">
        <ele>1252.7351074</ele>
        <time>2010-10-10T09:27:18Z</time>
      </trkpt>
      <trkpt lat="43.8377" lon="6.57505">
        <ele>1254.1772461</ele>
        <time>2010-10-10T09:27:23Z</time>
      </trkpt>
      <trkpt lat="43.8377" lon="6.57502">
        <ele>1260.4257812</ele>
        <time>2010-10-10T09:27:39Z</time>
      </trkpt>
      <trkpt lat="43.83768" lon="6.57501">
        <ele>1262.8291016</ele>
        <time>2010-10-10T09:27:49Z</time>
      </trkpt>
      <trkpt lat="43.83766" lon="6.57496">
        <ele>1265.2324219</ele>
        <time>2010-10-10T09:27:55Z</time>
      </trkpt>
      <trkpt lat="43.83761" lon="6.57488">
        <ele>1263.7902832</ele>
        <time>2010-10-10T09:28:02Z</time>
      </trkpt>
      <trkpt lat="43.83755" lon="6.57486">
        <ele>1264.2709961</ele>
        <time>2010-10-10T09:28:08Z</time>
      </trkpt>
      <trkpt lat="43.83752" lon="6.57481">
        <ele>1261.387207</ele>
        <time>2010-10-10T09:28:15Z</time>
      </trkpt>
      <trkpt lat="43.83749" lon="6.57479">
        <ele>1258.9836426</ele>
        <time>2010-10-10T09:28:20Z</time>
      </trkpt>
      <trkpt lat="43.83744" lon="6.57475">
        <ele>1257.0610352</ele>
        <time>2010-10-10T09:28:27Z</time>
      </trkpt>
      <trkpt lat="43.83744" lon="6.57474">
        <ele>1255.6191406</ele>
        <time>2010-10-10T09:28:33Z</time>
      </trkpt>
      <trkpt lat="43.83746" lon="6.57474">
        <ele>1255.1384277</ele>
        <time>2010-10-10T09:28:36Z</time>
      </trkpt>
      <trkpt lat="43.83748" lon="6.57471">
        <ele>1255.6191406</ele>
        <time>2010-10-10T09:28:41Z</time>
      </trkpt>
      <trkpt lat="43.83746" lon="6.5747">
        <ele>1253.2158203</ele>
        <time>2010-10-10T09:28:51Z</time>
      </trkpt>
      <trkpt lat="43.83744" lon="6.5747">
        <ele>1249.8513184</ele>
        <time>2010-10-10T09:29:00Z</time>
      </trkpt>
      <trkpt lat="43.83738" lon="6.57465">
        <ele>1249.8513184</ele>
        <time>2010-10-10T09:29:04Z</time>
      </trkpt>
      <trkpt lat="43.83721" lon="6.57453">
        <ele>1249.8513184</ele>
        <time>2010-10-10T09:29:11Z</time>
      </trkpt>
      <trkpt lat="43.83714" lon="6.57442">
        <ele>1250.3320312</ele>
        <time>2010-10-10T09:29:16Z</time>
      </trkpt>
      <trkpt lat="43.83712" lon="6.5744">
        <ele>1250.8125</ele>
        <time>2010-10-10T09:29:21Z</time>
      </trkpt>
      <trkpt lat="43.83709" lon="6.57435">
        <ele>1253.2158203</ele>
        <time>2010-10-10T09:29:28Z</time>
      </trkpt>
      <trkpt lat="43.83705" lon="6.57431">
        <ele>1252.7351074</ele>
        <time>2010-10-10T09:29:32Z</time>
      </trkpt>
      <trkpt lat="43.83699" lon="6.57425">
        <ele>1251.7739258</ele>
        <time>2010-10-10T09:29:35Z</time>
      </trkpt>
      <trkpt lat="43.83694" lon="6.57408">
        <ele>1247.447998</ele>
        <time>2010-10-10T09:29:41Z</time>
      </trkpt>
      <trkpt lat="43.8369" lon="6.57383">
        <ele>1242.6413574</ele>
        <time>2010-10-10T09:29:47Z</time>
      </trkpt>
      <trkpt lat="43.83687" lon="6.57371">
        <ele>1237.3540039</ele>
        <time>2010-10-10T09:29:51Z</time>
      </trkpt>
      <trkpt lat="43.83687" lon="6.57369">
        <ele>1236.3928223</ele>
        <time>2010-10-10T09:29:52Z</time>
      </trkpt>
      <trkpt lat="43.83683" lon="6.57363">
        <ele>1232.5476074</ele>
        <time>2010-10-10T09:29:57Z</time>
      </trkpt>
      <trkpt lat="43.83676" lon="6.57367">
        <ele>1229.6635742</ele>
        <time>2010-10-10T09:30:02Z</time>
      </trkpt>
      <trkpt lat="43.83663" lon="6.5737">
        <ele>1225.8181152</ele>
        <time>2010-10-10T09:30:09Z</time>
      </trkpt>
      <trkpt lat="43.8366" lon="6.57371">
        <ele>1222.9343262</ele>
        <time>2010-10-10T09:30:12Z</time>
      </trkpt>
      <trkpt lat="43.83661" lon="6.57372">
        <ele>1219.0891113</ele>
        <time>2010-10-10T09:30:21Z</time>
      </trkpt>
      <trkpt lat="43.83662" lon="6.57369">
        <ele>1218.6083984</ele>
        <time>2010-10-10T09:30:28Z</time>
      </trkpt>
      <trkpt lat="43.83658" lon="6.57367">
        <ele>1219.5698242</ele>
        <time>2010-10-10T09:30:37Z</time>
      </trkpt>
      <trkpt lat="43.83657" lon="6.57366">
        <ele>1226.2988281</ele>
        <time>2010-10-10T09:31:06Z</time>
      </trkpt>
      <trkpt lat="43.83646" lon="6.57358">
        <ele>1228.2216797</ele>
        <time>2010-10-10T09:31:12Z</time>
      </trkpt>
      <trkpt lat="43.83637" lon="6.57352">
        <ele>1226.779541</ele>
        <time>2010-10-10T09:31:16Z</time>
      </trkpt>
      <trkpt lat="43.83632" lon="6.57349">
        <ele>1223.4150391</ele>
        <time>2010-10-10T09:31:19Z</time>
      </trkpt>
      <trkpt lat="43.83631" lon="6.57352">
        <ele>1214.2824707</ele>
        <time>2010-10-10T09:31:22Z</time>
      </trkpt>
      <trkpt lat="43.8363" lon="6.5735">
        <ele>1214.2824707</ele>
        <time>2010-10-10T09:31:31Z</time>
      </trkpt>
      <trkpt lat="43.83621" lon="6.57345">
        <ele>1209.4758301</ele>
        <time>2010-10-10T09:31:38Z</time>
      </trkpt>
      <trkpt lat="43.83618" lon="6.57337">
        <ele>1206.5917969</ele>
        <time>2010-10-10T09:31:43Z</time>
      </trkpt>
      <trkpt lat="43.83619" lon="6.57339">
        <ele>1205.1499023</ele>
        <time>2010-10-10T09:31:50Z</time>
      </trkpt>
      <trkpt lat="43.83621" lon="6.57338">
        <ele>1208.0339355</ele>
        <time>2010-10-10T09:32:09Z</time>
      </trkpt>
      <trkpt lat="43.83623" lon="6.57336">
        <ele>1208.5144043</ele>
        <time>2010-10-10T09:32:19Z</time>
      </trkpt>
      <trkpt lat="43.83625" lon="6.57332">
        <ele>1206.5917969</ele>
        <time>2010-10-10T09:32:25Z</time>
      </trkpt>
      <trkpt lat="43.83622" lon="6.57326">
        <ele>1205.6306152</ele>
        <time>2010-10-10T09:32:31Z</time>
      </trkpt>
      <trkpt lat="43.83625" lon="6.57327">
        <ele>1213.3212891</ele>
        <time>2010-10-10T09:33:58Z</time>
      </trkpt>
      <trkpt lat="43.8362" lon="6.57317">
        <ele>1209.9562988</ele>
        <time>2010-10-10T09:34:03Z</time>
      </trkpt>
      <trkpt lat="43.83611" lon="6.573">
        <ele>1205.1499023</ele>
        <time>2010-10-10T09:34:08Z</time>
      </trkpt>
      <trkpt lat="43.836" lon="6.57286">
        <ele>1197.9401855</ele>
        <time>2010-10-10T09:34:13Z</time>
      </trkpt>
      <trkpt lat="43.8359" lon="6.57282">
        <ele>1193.1333008</ele>
        <time>2010-10-10T09:34:17Z</time>
      </trkpt>
      <trkpt lat="43.83586" lon="6.57278">
        <ele>1191.6914062</ele>
        <time>2010-10-10T09:34:19Z</time>
      </trkpt>
      <trkpt lat="43.83571" lon="6.57271">
        <ele>1184.4816895</ele>
        <time>2010-10-10T09:34:26Z</time>
      </trkpt>
      <trkpt lat="43.83559" lon="6.57265">
        <ele>1176.7910156</ele>
        <time>2010-10-10T09:34:31Z</time>
      </trkpt>
      <trkpt lat="43.83556" lon="6.57263">
        <ele>1172.9458008</ele>
        <time>2010-10-10T09:34:36Z</time>
      </trkpt>
      <trkpt lat="43.83557" lon="6.57266">
        <ele>1171.984375</ele>
        <time>2010-10-10T09:34:42Z</time>
      </trkpt>
      <trkpt lat="43.83562" lon="6.57268">
        <ele>1174.8684082</ele>
        <time>2010-10-10T09:34:49Z</time>
      </trkpt>
      <trkpt lat="43.83562" lon="6.57267">
        <ele>1175.8295898</ele>
        <time>2010-10-10T09:35:01Z</time>
      </trkpt>
      <trkpt lat="43.8356" lon="6.57265">
        <ele>1176.3103027</ele>
        <time>2010-10-10T09:35:03Z</time>
      </trkpt>
      <trkpt lat="43.83559" lon="6.57261">
        <ele>1177.7521973</ele>
        <time>2010-10-10T09:35:08Z</time>
      </trkpt>
      <trkpt lat="43.83559" lon="6.57263">
        <ele>1182.559082</ele>
        <time>2010-10-10T09:35:17Z</time>
      </trkpt>
      <trkpt lat="43.83564" lon="6.57265">
        <ele>1185.4428711</ele>
        <time>2010-10-10T09:35:23Z</time>
      </trkpt>
      <trkpt lat="43.83564" lon="6.57265">
        <ele>1184.9624023</ele>
        <time>2010-10-10T09:35:32Z</time>
      </trkpt>
      <trkpt lat="43.83562" lon="6.57265">
        <ele>1184.0009766</ele>
        <time>2010-10-10T09:35:42Z</time>
      </trkpt>
      <trkpt lat="43.83559" lon="6.57261">
        <ele>1182.0783691</ele>
        <time>2010-10-10T09:35:47Z</time>
      </trkpt>
      <trkpt lat="43.83561" lon="6.5726">
        <ele>1182.0783691</ele>
        <time>2010-10-10T09:35:55Z</time>
      </trkpt>
      <trkpt lat="43.83559" lon="6.5725">
        <ele>1180.6364746</ele>
        <time>2010-10-10T09:36:00Z</time>
      </trkpt>
      <trkpt lat="43.83555" lon="6.57244">
        <ele>1178.2329102</ele>
        <time>2010-10-10T09:36:03Z</time>
      </trkpt>
      <trkpt lat="43.83551" lon="6.5724">
        <ele>1175.348877</ele>
        <time>2010-10-10T09:36:07Z</time>
      </trkpt>
      <trkpt lat="43.8354" lon="6.57234">
        <ele>1170.5424805</ele>
        <time>2010-10-10T09:36:13Z</time>
      </trkpt>
      <trkpt lat="43.83537" lon="6.57237">
        <ele>1168.1391602</ele>
        <time>2010-10-10T09:36:16Z</time>
      </trkpt>
      <trkpt lat="43.83533" lon="6.57239">
        <ele>1165.736084</ele>
        <time>2010-10-10T09:36:21Z</time>
      </trkpt>
      <trkpt lat="43.83533" lon="6.5724">
        <ele>1164.2939453</ele>
        <time>2010-10-10T09:36:27Z</time>
      </trkpt>
      <trkpt lat="43.83528" lon="6.57233">
        <ele>1162.8518066</ele>
        <time>2010-10-10T09:36:33Z</time>
      </trkpt>
      <trkpt lat="43.83526" lon="6.57233">
        <ele>1161.890625</ele>
        <time>2010-10-10T09:36:34Z</time>
      </trkpt>
      <trkpt lat="43.83511" lon="6.57228">
        <ele>1156.1225586</ele>
        <time>2010-10-10T09:36:41Z</time>
      </trkpt>
      <trkpt lat="43.83499" lon="6.57222">
        <ele>1151.796875</ele>
        <time>2010-10-10T09:36:46Z</time>
      </trkpt>
      <trkpt lat="43.83496" lon="6.57222">
        <ele>1150.3549805</ele>
        <time>2010-10-10T09:36:49Z</time>
      </trkpt>
      <trkpt lat="43.83497" lon="6.57223">
        <ele>1145.5480957</ele>
        <time>2010-10-10T09:36:55Z</time>
      </trkpt>
      <trkpt lat="43.83495" lon="6.57233">
        <ele>1138.3383789</ele>
        <time>2010-10-10T09:37:06Z</time>
      </trkpt>
      <trkpt lat="43.83493" lon="6.5723">
        <ele>1136.4157715</ele>
        <time>2010-10-10T09:37:15Z</time>
      </trkpt>
      <trkpt lat="43.83487" lon="6.57217">
        <ele>1143.1447754</ele>
        <time>2010-10-10T09:38:08Z</time>
      </trkpt>
      <trkpt lat="43.83481" lon="6.5721">
        <ele>1141.7028809</ele>
        <time>2010-10-10T09:38:12Z</time>
      </trkpt>
      <trkpt lat="43.83481" lon="6.57211">
        <ele>1141.222168</ele>
        <time>2010-10-10T09:38:16Z</time>
      </trkpt>
      <trkpt lat="43.83478" lon="6.57208">
        <ele>1141.7028809</ele>
        <time>2010-10-10T09:38:23Z</time>
      </trkpt>
      <trkpt lat="43.8347" lon="6.57209">
        <ele>1142.1835938</ele>
        <time>2010-10-10T09:38:28Z</time>
      </trkpt>
      <trkpt lat="43.83463" lon="6.57209">
        <ele>1140.2609863</ele>
        <time>2010-10-10T09:38:32Z</time>
      </trkpt>
      <trkpt lat="43.83445" lon="6.57217">
        <ele>1129.2055664</ele>
        <time>2010-10-10T09:38:39Z</time>
      </trkpt>
      <trkpt lat="43.83439" lon="6.57221">
        <ele>1124.8798828</ele>
        <time>2010-10-10T09:38:41Z</time>
      </trkpt>
      <trkpt lat="43.83414" lon="6.5721">
        <ele>1117.6699219</ele>
        <time>2010-10-10T09:38:47Z</time>
      </trkpt>
      <trkpt lat="43.83403" lon="6.57203">
        <ele>1110.4599609</ele>
        <time>2010-10-10T09:38:53Z</time>
      </trkpt>
      <trkpt lat="43.83399" lon="6.57199">
        <ele>1106.6147461</ele>
        <time>2010-10-10T09:38:57Z</time>
      </trkpt>
      <trkpt lat="43.83405" lon="6.57191">
        <ele>1105.6535645</ele>
        <time>2010-10-10T09:39:01Z</time>
      </trkpt>
      <trkpt lat="43.83413" lon="6.57176">
        <ele>1106.1340332</ele>
        <time>2010-10-10T09:39:07Z</time>
      </trkpt>
      <trkpt lat="43.83413" lon="6.5717">
        <ele>1108.5373535</ele>
        <time>2010-10-10T09:39:10Z</time>
      </trkpt>
      <trkpt lat="43.83415" lon="6.57158">
        <ele>1105.6535645</ele>
        <time>2010-10-10T09:39:16Z</time>
      </trkpt>
      <trkpt lat="43.83419" lon="6.57153">
        <ele>1108.0568848</ele>
        <time>2010-10-10T09:39:20Z</time>
      </trkpt>
      <trkpt lat="43.83419" lon="6.57153">
        <ele>1112.3825684</ele>
        <time>2010-10-10T09:39:28Z</time>
      </trkpt>
      <trkpt lat="43.83421" lon="6.57136">
        <ele>1132.5705566</ele>
        <time>2010-10-10T09:39:57Z</time>
      </trkpt>
      <trkpt lat="43.83422" lon="6.57128">
        <ele>1134.0124512</ele>
        <time>2010-10-10T09:40:03Z</time>
      </trkpt>
      <trkpt lat="43.83423" lon="6.57121">
        <ele>1132.5705566</ele>
        <time>2010-10-10T09:40:10Z</time>
      </trkpt>
      <trkpt lat="43.83429" lon="6.57114">
        <ele>1128.2443848</ele>
        <time>2010-10-10T09:40:14Z</time>
      </trkpt>
      <trkpt lat="43.83433" lon="6.57103">
        <ele>1121.034668</ele>
        <time>2010-10-10T09:40:19Z</time>
      </trkpt>
      <trkpt lat="43.83434" lon="6.57101">
        <ele>1110.9406738</ele>
        <time>2010-10-10T09:40:23Z</time>
      </trkpt>
      <trkpt lat="43.83443" lon="6.57092">
        <ele>1105.6535645</ele>
        <time>2010-10-10T09:40:27Z</time>
      </trkpt>
      <trkpt lat="43.83458" lon="6.57076">
        <ele>1096.0402832</ele>
        <time>2010-10-10T09:40:34Z</time>
      </trkpt>
      <trkpt lat="43.83459" lon="6.57073">
        <ele>1094.5981445</ele>
        <time>2010-10-10T09:40:35Z</time>
      </trkpt>
      <trkpt lat="43.83468" lon="6.57067">
        <ele>1090.2724609</ele>
        <time>2010-10-10T09:40:40Z</time>
      </trkpt>
      <trkpt lat="43.8347" lon="6.57055">
        <ele>1082.5817871</ele>
        <time>2010-10-10T09:40:45Z</time>
      </trkpt>
      <trkpt lat="43.8347" lon="6.57052">
        <ele>1081.1398926</ele>
        <time>2010-10-10T09:40:46Z</time>
      </trkpt>
      <trkpt lat="43.83469" lon="6.57045">
        <ele>1079.6977539</ele>
        <time>2010-10-10T09:40:49Z</time>
      </trkpt>
      <trkpt lat="43.83477" lon="6.57039">
        <ele>1072.96875</ele>
        <time>2010-10-10T09:40:54Z</time>
      </trkpt>
      <trkpt lat="43.83483" lon="6.57042">
        <ele>1071.0461426</ele>
        <time>2010-10-10T09:40:59Z</time>
      </trkpt>
      <trkpt lat="43.83484" lon="6.57041">
        <ele>1069.604248</ele>
        <time>2010-10-10T09:41:00Z</time>
      </trkpt>
      <trkpt lat="43.83483" lon="6.5703">
        <ele>1067.2006836</ele>
        <time>2010-10-10T09:41:05Z</time>
      </trkpt>
      <trkpt lat="43.83496" lon="6.57035">
        <ele>1068.1621094</ele>
        <time>2010-10-10T09:41:10Z</time>
      </trkpt>
      <trkpt lat="43.835" lon="6.57027">
        <ele>1065.2780762</ele>
        <time>2010-10-10T09:41:14Z</time>
      </trkpt>
      <trkpt lat="43.835" lon="6.57022">
        <ele>1063.3554688</ele>
        <time>2010-10-10T09:41:15Z</time>
      </trkpt>
      <trkpt lat="43.83497" lon="6.57008">
        <ele>1058.5488281</ele>
        <time>2010-10-10T09:41:18Z</time>
      </trkpt>
      <trkpt lat="43.83495" lon="6.57003">
        <ele>1057.5876465</ele>
        <time>2010-10-10T09:41:21Z</time>
      </trkpt>
      <trkpt lat="43.83499" lon="6.57005">
        <ele>1056.1455078</ele>
        <time>2010-10-10T09:41:25Z</time>
      </trkpt>
      <trkpt lat="43.83502" lon="6.57004">
        <ele>1052.7810059</ele>
        <time>2010-10-10T09:41:27Z</time>
      </trkpt>
      <trkpt lat="43.83503" lon="6.57001">
        <ele>1047.0129395</ele>
        <time>2010-10-10T09:41:30Z</time>
      </trkpt>
      <trkpt lat="43.8351" lon="6.56994">
        <ele>1042.6872559</ele>
        <time>2010-10-10T09:41:35Z</time>
      </trkpt>
      <trkpt lat="43.83512" lon="6.56986">
        <ele>1039.3225098</ele>
        <time>2010-10-10T09:41:39Z</time>
      </trkpt>
      <trkpt lat="43.83515" lon="6.56975">
        <ele>1034.996582</ele>
        <time>2010-10-10T09:41:43Z</time>
      </trkpt>
      <trkpt lat="43.83519" lon="6.56963">
        <ele>1031.6318359</ele>
        <time>2010-10-10T09:41:50Z</time>
      </trkpt>
      <trkpt lat="43.83521" lon="6.56962">
        <ele>1031.1513672</ele>
        <time>2010-10-10T09:41:53Z</time>
      </trkpt>
      <trkpt lat="43.83527" lon="6.56954">
        <ele>1030.6706543</ele>
        <time>2010-10-10T09:41:58Z</time>
      </trkpt>
      <trkpt lat="43.83527" lon="6.56943">
        <ele>1031.1513672</ele>
        <time>2010-10-10T09:42:02Z</time>
      </trkpt>
      <trkpt lat="43.83524" lon="6.56929">
        <ele>1029.2285156</ele>
        <time>2010-10-10T09:42:07Z</time>
      </trkpt>
      <trkpt lat="43.83513" lon="6.56912">
        <ele>1023.4609375</ele>
        <time>2010-10-10T09:42:11Z</time>
      </trkpt>
      <trkpt lat="43.835" lon="6.56891">
        <ele>1020.0961914</ele>
        <time>2010-10-10T09:42:15Z</time>
      </trkpt>
      <trkpt lat="43.83487" lon="6.56878">
        <ele>1018.1733398</ele>
        <time>2010-10-10T09:42:18Z</time>
      </trkpt>
      <trkpt lat="43.83474" lon="6.56882">
        <ele>1016.2507324</ele>
        <time>2010-10-10T09:42:21Z</time>
      </trkpt>
      <trkpt lat="43.83469" lon="6.56886">
        <ele>1016.2507324</ele>
        <time>2010-10-10T09:42:22Z</time>
      </trkpt>
      <trkpt lat="43.83451" lon="6.56899">
        <ele>1010.4829102</ele>
        <time>2010-10-10T09:42:27Z</time>
      </trkpt>
      <trkpt lat="43.83451" lon="6.56905">
        <ele>1005.6765137</ele>
        <time>2010-10-10T09:42:34Z</time>
      </trkpt>
      <trkpt lat="43.83454" lon="6.56898">
        <ele>1011.9250488</ele>
        <time>2010-10-10T09:42:51Z</time>
      </trkpt>
      <trkpt lat="43.83452" lon="6.56897">
        <ele>1006.6376953</ele>
        <time>2010-10-10T09:45:03Z</time>
      </trkpt>
      <trkpt lat="43.83437" lon="6.56888">
        <ele>1006.1569824</ele>
        <time>2010-10-10T09:45:09Z</time>
      </trkpt>
      <trkpt lat="43.8343" lon="6.56882">
        <ele>1005.6765137</ele>
        <time>2010-10-10T09:45:11Z</time>
      </trkpt>
      <trkpt lat="43.83414" lon="6.56873">
        <ele>1004.2346191</ele>
        <time>2010-10-10T09:45:15Z</time>
      </trkpt>
      <trkpt lat="43.8339" lon="6.56855">
        <ele>1002.3115234</ele>
        <time>2010-10-10T09:45:21Z</time>
      </trkpt>
      <trkpt lat="43.83383" lon="6.5685">
        <ele>1000.3891602</ele>
        <time>2010-10-10T09:45:23Z</time>
      </trkpt>
      <trkpt lat="43.83375" lon="6.56837">
        <ele>997.505127</ele>
        <time>2010-10-10T09:45:26Z</time>
      </trkpt>
      <trkpt lat="43.83359" lon="6.56828">
        <ele>994.140625</ele>
        <time>2010-10-10T09:45:30Z</time>
      </trkpt>
      <trkpt lat="43.83349" lon="6.56816">
        <ele>992.6987305</ele>
        <time>2010-10-10T09:45:34Z</time>
      </trkpt>
      <trkpt lat="43.83342" lon="6.56809">
        <ele>989.8146973</ele>
        <time>2010-10-10T09:45:36Z</time>
      </trkpt>
      <trkpt lat="43.83324" lon="6.5678">
        <ele>983.565918</ele>
        <time>2010-10-10T09:45:41Z</time>
      </trkpt>
      <trkpt lat="43.83311" lon="6.56764">
        <ele>979.7207031</ele>
        <time>2010-10-10T09:45:44Z</time>
      </trkpt>
      <trkpt lat="43.83297" lon="6.56754">
        <ele>976.3562012</ele>
        <time>2010-10-10T09:45:47Z</time>
      </trkpt>
      <trkpt lat="43.83268" lon="6.5671">
        <ele>972.0302734</ele>
        <time>2010-10-10T09:45:54Z</time>
      </trkpt>
      <trkpt lat="43.83252" lon="6.56688">
        <ele>967.7041016</ele>
        <time>2010-10-10T09:45:58Z</time>
      </trkpt>
      <trkpt lat="43.83246" lon="6.56677">
        <ele>967.7041016</ele>
        <time>2010-10-10T09:46:00Z</time>
      </trkpt>
      <trkpt lat="43.8322" lon="6.56651">
        <ele>965.3010254</ele>
        <time>2010-10-10T09:46:06Z</time>
      </trkpt>
      <trkpt lat="43.83215" lon="6.56648">
        <ele>964.8203125</ele>
        <time>2010-10-10T09:46:07Z</time>
      </trkpt>
      <trkpt lat="43.83206" lon="6.56633">
        <ele>963.378418</ele>
        <time>2010-10-10T09:46:11Z</time>
      </trkpt>
      <trkpt lat="43.83204" lon="6.56624">
        <ele>964.3395996</ele>
        <time>2010-10-10T09:46:13Z</time>
      </trkpt>
      <trkpt lat="43.83194" lon="6.56593">
        <ele>960.0136719</ele>
        <time>2010-10-10T09:46:19Z</time>
      </trkpt>
      <trkpt lat="43.83178" lon="6.56561">
        <ele>953.7651367</ele>
        <time>2010-10-10T09:46:25Z</time>
      </trkpt>
      <trkpt lat="43.83172" lon="6.56549">
        <ele>952.322998</ele>
        <time>2010-10-10T09:46:28Z</time>
      </trkpt>
      <trkpt lat="43.83166" lon="6.56542">
        <ele>950.8811035</ele>
        <time>2010-10-10T09:46:30Z</time>
      </trkpt>
      <trkpt lat="43.83158" lon="6.56533">
        <ele>949.9199219</ele>
        <time>2010-10-10T09:46:32Z</time>
      </trkpt>
      <trkpt lat="43.83146" lon="6.56509">
        <ele>947.9973145</ele>
        <time>2010-10-10T09:46:36Z</time>
      </trkpt>
      <trkpt lat="43.83141" lon="6.56491">
        <ele>947.0358887</ele>
        <time>2010-10-10T09:46:39Z</time>
      </trkpt>
      <trkpt lat="43.83134" lon="6.56441">
        <ele>943.1906738</ele>
        <time>2010-10-10T09:46:46Z</time>
      </trkpt>
      <trkpt lat="43.83127" lon="6.564">
        <ele>939.3452148</ele>
        <time>2010-10-10T09:46:51Z</time>
      </trkpt>
      <trkpt lat="43.83123" lon="6.56379">
        <ele>938.3840332</ele>
        <time>2010-10-10T09:46:54Z</time>
      </trkpt>
      <trkpt lat="43.83129" lon="6.56357">
        <ele>938.8647461</ele>
        <time>2010-10-10T09:46:59Z</time>
      </trkpt>
      <trkpt lat="43.83133" lon="6.56354">
        <ele>939.3452148</ele>
        <time>2010-10-10T09:47:00Z</time>
      </trkpt>
      <trkpt lat="43.83149" lon="6.56343">
        <ele>941.2680664</ele>
        <time>2010-10-10T09:47:06Z</time>
      </trkpt>
      <trkpt lat="43.83168" lon="6.5632">
        <ele>941.2680664</ele>
        <time>2010-10-10T09:47:13Z</time>
      </trkpt>
      <trkpt lat="43.83186" lon="6.56312">
        <ele>944.1520996</ele>
        <time>2010-10-10T09:47:18Z</time>
      </trkpt>
      <trkpt lat="43.83203" lon="6.56302">
        <ele>946.5554199</ele>
        <time>2010-10-10T09:47:24Z</time>
      </trkpt>
      <trkpt lat="43.83222" lon="6.56291">
        <ele>946.5554199</ele>
        <time>2010-10-10T09:47:30Z</time>
      </trkpt>
      <trkpt lat="43.83238" lon="6.56289">
        <ele>946.5554199</ele>
        <time>2010-10-10T09:47:35Z</time>
      </trkpt>
      <trkpt lat="43.83251" lon="6.56294">
        <ele>947.9973145</ele>
        <time>2010-10-10T09:47:41Z</time>
      </trkpt>
      <trkpt lat="43.83267" lon="6.56303">
        <ele>952.322998</ele>
        <time>2010-10-10T09:47:49Z</time>
      </trkpt>
      <trkpt lat="43.83279" lon="6.56314">
        <ele>954.2458496</ele>
        <time>2010-10-10T09:47:56Z</time>
      </trkpt>
      <trkpt lat="43.83296" lon="6.56326">
        <ele>955.6877441</ele>
        <time>2010-10-10T09:48:05Z</time>
      </trkpt>
      <trkpt lat="43.83309" lon="6.56337">
        <ele>957.1298828</ele>
        <time>2010-10-10T09:48:12Z</time>
      </trkpt>
      <trkpt lat="43.83322" lon="6.56336">
        <ele>957.6105957</ele>
        <time>2010-10-10T09:48:19Z</time>
      </trkpt>
      <trkpt lat="43.83334" lon="6.56335">
        <ele>958.5717773</ele>
        <time>2010-10-10T09:48:25Z</time>
      </trkpt>
      <trkpt lat="43.83349" lon="6.5634">
        <ele>959.0524902</ele>
        <time>2010-10-10T09:48:32Z</time>
      </trkpt>
      <trkpt lat="43.83362" lon="6.56336">
        <ele>960.0136719</ele>
        <time>2010-10-10T09:48:38Z</time>
      </trkpt>
      <trkpt lat="43.8338" lon="6.56333">
        <ele>961.4558105</ele>
        <time>2010-10-10T09:48:46Z</time>
      </trkpt>
      <trkpt lat="43.83389" lon="6.5632">
        <ele>960.4943848</ele>
        <time>2010-10-10T09:48:51Z</time>
      </trkpt>
      <trkpt lat="43.83388" lon="6.56306">
        <ele>964.8203125</ele>
        <time>2010-10-10T09:48:56Z</time>
      </trkpt>
      <trkpt lat="43.83383" lon="6.56284">
        <ele>964.3395996</ele>
        <time>2010-10-10T09:49:02Z</time>
      </trkpt>
      <trkpt lat="43.83377" lon="6.56269">
        <ele>966.262207</ele>
        <time>2010-10-10T09:49:07Z</time>
      </trkpt>
      <trkpt lat="43.83369" lon="6.56243">
        <ele>969.1462402</ele>
        <time>2010-10-10T09:49:14Z</time>
      </trkpt>
      <trkpt lat="43.8336" lon="6.56217">
        <ele>968.6655273</ele>
        <time>2010-10-10T09:49:22Z</time>
      </trkpt>
      <trkpt lat="43.83351" lon="6.56202">
        <ele>972.5109863</ele>
        <time>2010-10-10T09:49:29Z</time>
      </trkpt>
      <trkpt lat="43.83341" lon="6.56183">
        <ele>980.6821289</ele>
        <time>2010-10-10T09:49:37Z</time>
      </trkpt>
      <trkpt lat="43.83333" lon="6.56168">
        <ele>983.565918</ele>
        <time>2010-10-10T09:49:44Z</time>
      </trkpt>
      <trkpt lat="43.83322" lon="6.56145">
        <ele>990.2954102</ele>
        <time>2010-10-10T09:49:54Z</time>
      </trkpt>
      <trkpt lat="43.83321" lon="6.56137">
        <ele>988.8535156</ele>
        <time>2010-10-10T09:49:57Z</time>
      </trkpt>
      <trkpt lat="43.83322" lon="6.56115">
        <ele>983.565918</ele>
        <time>2010-10-10T09:50:04Z</time>
      </trkpt>
      <trkpt lat="43.83321" lon="6.56108">
        <ele>982.6047363</ele>
        <time>2010-10-10T09:50:07Z</time>
      </trkpt>
      <trkpt lat="43.83321" lon="6.5609">
        <ele>982.6047363</ele>
        <time>2010-10-10T09:50:16Z</time>
      </trkpt>
      <trkpt lat="43.83318" lon="6.56069">
        <ele>976.8369141</ele>
        <time>2010-10-10T09:50:25Z</time>
      </trkpt>
      <trkpt lat="43.83307" lon="6.56055">
        <ele>973.4724121</ele>
        <time>2010-10-10T09:50:33Z</time>
      </trkpt>
      <trkpt lat="43.83293" lon="6.56042">
        <ele>974.9143066</ele>
        <time>2010-10-10T09:50:40Z</time>
      </trkpt>
      <trkpt lat="43.83285" lon="6.56026">
        <ele>972.5109863</ele>
        <time>2010-10-10T09:50:48Z</time>
      </trkpt>
      <trkpt lat="43.83272" lon="6.56019">
        <ele>976.3562012</ele>
        <time>2010-10-10T09:50:55Z</time>
      </trkpt>
      <trkpt lat="43.8327" lon="6.56018">
        <ele>976.8369141</ele>
        <time>2010-10-10T09:50:56Z</time>
      </trkpt>
      <trkpt lat="43.83268" lon="6.56016">
        <ele>975.8754883</ele>
        <time>2010-10-10T09:51:02Z</time>
      </trkpt>
      <trkpt lat="43.83268" lon="6.56014">
        <ele>979.7207031</ele>
        <time>2010-10-10T09:52:39Z</time>
      </trkpt>
      <trkpt lat="43.83268" lon="6.56014">
        <ele>979.2399902</ele>
        <time>2010-10-10T09:52:53Z</time>
      </trkpt>
      <trkpt lat="43.83268" lon="6.56013">
        <ele>978.2788086</ele>
        <time>2010-10-10T09:53:01Z</time>
      </trkpt>
      <trkpt lat="43.83268" lon="6.56012">
        <ele>977.317627</ele>
        <time>2010-10-10T09:53:03Z</time>
      </trkpt>
      <trkpt lat="43.8327" lon="6.56002">
        <ele>979.2399902</ele>
        <time>2010-10-10T09:53:08Z</time>
      </trkpt>
      <trkpt lat="43.83272" lon="6.5598">
        <ele>980.6821289</ele>
        <time>2010-10-10T09:53:14Z</time>
      </trkpt>
      <trkpt lat="43.83275" lon="6.5596">
        <ele>983.565918</ele>
        <time>2010-10-10T09:53:20Z</time>
      </trkpt>
      <trkpt lat="43.83282" lon="6.55936">
        <ele>987.4111328</ele>
        <time>2010-10-10T09:53:28Z</time>
      </trkpt>
      <trkpt lat="43.83285" lon="6.55919">
        <ele>988.3728027</ele>
        <time>2010-10-10T09:53:34Z</time>
      </trkpt>
      <trkpt lat="43.83287" lon="6.55901">
        <ele>992.6987305</ele>
        <time>2010-10-10T09:53:41Z</time>
      </trkpt>
      <trkpt lat="43.83287" lon="6.55891">
        <ele>994.6210938</ele>
        <time>2010-10-10T09:53:46Z</time>
      </trkpt>
      <trkpt lat="43.83287" lon="6.55874">
        <ele>998.9470215</ele>
        <time>2010-10-10T09:53:52Z</time>
      </trkpt>
      <trkpt lat="43.83286" lon="6.55861">
        <ele>1003.2729492</ele>
        <time>2010-10-10T09:53:57Z</time>
      </trkpt>
      <trkpt lat="43.83288" lon="6.55846">
        <ele>1003.7536621</ele>
        <time>2010-10-10T09:54:02Z</time>
      </trkpt>
      <trkpt lat="43.83288" lon="6.55832">
        <ele>1003.7536621</ele>
        <time>2010-10-10T09:54:07Z</time>
      </trkpt>
      <trkpt lat="43.83288" lon="6.55805">
        <ele>1001.8310547</ele>
        <time>2010-10-10T09:54:17Z</time>
      </trkpt>
      <trkpt lat="43.83283" lon="6.55785">
        <ele>1002.3115234</ele>
        <time>2010-10-10T09:54:23Z</time>
      </trkpt>
      <trkpt lat="43.83286" lon="6.55767">
        <ele>998.4663086</ele>
        <time>2010-10-10T09:54:28Z</time>
      </trkpt>
      <trkpt lat="43.83287" lon="6.55757">
        <ele>997.9858398</ele>
        <time>2010-10-10T09:54:34Z</time>
      </trkpt>
      <trkpt lat="43.83288" lon="6.55756">
        <ele>998.4663086</ele>
        <time>2010-10-10T09:54:35Z</time>
      </trkpt>
      <trkpt lat="43.83293" lon="6.5575">
        <ele>997.0244141</ele>
        <time>2010-10-10T09:54:42Z</time>
      </trkpt>
      <trkpt lat="43.83296" lon="6.55748">
        <ele>995.1018066</ele>
        <time>2010-10-10T09:54:50Z</time>
      </trkpt>
      <trkpt lat="43.83298" lon="6.55747">
        <ele>994.6210938</ele>
        <time>2010-10-10T09:54:56Z</time>
      </trkpt>
      <trkpt lat="43.83298" lon="6.55747">
        <ele>995.1018066</ele>
        <time>2010-10-10T09:55:06Z</time>
      </trkpt>
      <trkpt lat="43.83301" lon="6.55744">
        <ele>992.6987305</ele>
        <time>2010-10-10T09:55:17Z</time>
      </trkpt>
      <trkpt lat="43.83305" lon="6.55741">
        <ele>989.8146973</ele>
        <time>2010-10-10T09:55:38Z</time>
      </trkpt>
      <trkpt lat="43.83314" lon="6.55739">
        <ele>992.2180176</ele>
        <time>2010-10-10T09:55:46Z</time>
      </trkpt>
      <trkpt lat="43.83319" lon="6.55737">
        <ele>995.5825195</ele>
        <time>2010-10-10T09:55:54Z</time>
      </trkpt>
      <trkpt lat="43.83324" lon="6.55734">
        <ele>999.4277344</ele>
        <time>2010-10-10T09:56:03Z</time>
      </trkpt>
      <trkpt lat="43.83326" lon="6.55732">
        <ele>1001.8310547</ele>
        <time>2010-10-10T09:56:12Z</time>
      </trkpt>
      <trkpt lat="43.83329" lon="6.55727">
        <ele>1003.2729492</ele>
        <time>2010-10-10T09:56:19Z</time>
      </trkpt>
      <trkpt lat="43.83331" lon="6.55723">
        <ele>1004.2346191</ele>
        <time>2010-10-10T09:56:26Z</time>
      </trkpt>
      <trkpt lat="43.83334" lon="6.55716">
        <ele>1006.1569824</ele>
        <time>2010-10-10T09:56:37Z</time>
      </trkpt>
      <trkpt lat="43.83336" lon="6.55711">
        <ele>1007.1184082</ele>
        <time>2010-10-10T09:56:45Z</time>
      </trkpt>
      <trkpt lat="43.83339" lon="6.55704">
        <ele>1007.5991211</ele>
        <time>2010-10-10T09:56:55Z</time>
      </trkpt>
      <trkpt lat="43.8334" lon="6.55698">
        <ele>1009.0410156</ele>
        <time>2010-10-10T09:57:03Z</time>
      </trkpt>
      <trkpt lat="43.83342" lon="6.55692">
        <ele>1010.0021973</ele>
        <time>2010-10-10T09:57:13Z</time>
      </trkpt>
      <trkpt lat="43.83344" lon="6.55686">
        <ele>1011.9250488</ele>
        <time>2010-10-10T09:57:22Z</time>
      </trkpt>
      <trkpt lat="43.83347" lon="6.5568">
        <ele>1013.3669434</ele>
        <time>2010-10-10T09:57:31Z</time>
      </trkpt>
      <trkpt lat="43.83349" lon="6.55674">
        <ele>1014.328125</ele>
        <time>2010-10-10T09:57:40Z</time>
      </trkpt>
      <trkpt lat="43.83351" lon="6.55669">
        <ele>1014.8088379</ele>
        <time>2010-10-10T09:57:48Z</time>
      </trkpt>
      <trkpt lat="43.83353" lon="6.55662">
        <ele>1016.2507324</ele>
        <time>2010-10-10T09:57:57Z</time>
      </trkpt>
      <trkpt lat="43.83354" lon="6.55656">
        <ele>1016.7314453</ele>
        <time>2010-10-10T09:58:05Z</time>
      </trkpt>
      <trkpt lat="43.83357" lon="6.5565">
        <ele>1017.692627</ele>
        <time>2010-10-10T09:58:13Z</time>
      </trkpt>
      <trkpt lat="43.83358" lon="6.55643">
        <ele>1019.6154785</ele>
        <time>2010-10-10T09:58:22Z</time>
      </trkpt>
      <trkpt lat="43.83359" lon="6.55637">
        <ele>1020.0961914</ele>
        <time>2010-10-10T09:58:30Z</time>
      </trkpt>
      <trkpt lat="43.83361" lon="6.55632">
        <ele>1020.5769043</ele>
        <time>2010-10-10T09:58:38Z</time>
      </trkpt>
      <trkpt lat="43.83366" lon="6.55629">
        <ele>1022.0187988</ele>
        <time>2010-10-10T09:58:47Z</time>
      </trkpt>
      <trkpt lat="43.83369" lon="6.5563">
        <ele>1022.4995117</ele>
        <time>2010-10-10T09:58:53Z</time>
      </trkpt>
      <trkpt lat="43.83373" lon="6.5563">
        <ele>1023.9414062</ele>
        <time>2010-10-10T09:59:01Z</time>
      </trkpt>
      <trkpt lat="43.83374" lon="6.55632">
        <ele>1026.8254395</ele>
        <time>2010-10-10T09:59:08Z</time>
      </trkpt>
      <trkpt lat="43.8338" lon="6.55633">
        <ele>1029.2285156</ele>
        <time>2010-10-10T09:59:13Z</time>
      </trkpt>
      <trkpt lat="43.83393" lon="6.55632">
        <ele>1030.6706543</ele>
        <time>2010-10-10T09:59:22Z</time>
      </trkpt>
      <trkpt lat="43.83405" lon="6.5563">
        <ele>1030.1899414</ele>
        <time>2010-10-10T09:59:30Z</time>
      </trkpt>
      <trkpt lat="43.83415" lon="6.55633">
        <ele>1031.1513672</ele>
        <time>2010-10-10T09:59:38Z</time>
      </trkpt>
      <trkpt lat="43.83422" lon="6.55639">
        <ele>1032.5932617</ele>
        <time>2010-10-10T09:59:45Z</time>
      </trkpt>
      <trkpt lat="43.83429" lon="6.55647">
        <ele>1033.5544434</ele>
        <time>2010-10-10T09:59:53Z</time>
      </trkpt>
      <trkpt lat="43.83437" lon="6.55653">
        <ele>1031.6318359</ele>
        <time>2010-10-10T10:00:01Z</time>
      </trkpt>
      <trkpt lat="43.8344" lon="6.55659">
        <ele>1033.0737305</ele>
        <time>2010-10-10T10:00:07Z</time>
      </trkpt>
      <trkpt lat="43.83442" lon="6.55665">
        <ele>1033.0737305</ele>
        <time>2010-10-10T10:00:14Z</time>
      </trkpt>
      <trkpt lat="43.83444" lon="6.55672">
        <ele>1035.4770508</ele>
        <time>2010-10-10T10:00:20Z</time>
      </trkpt>
      <trkpt lat="43.83447" lon="6.55682">
        <ele>1035.4770508</ele>
        <time>2010-10-10T10:00:27Z</time>
      </trkpt>
      <trkpt lat="43.83447" lon="6.5569">
        <ele>1037.3999023</ele>
        <time>2010-10-10T10:00:33Z</time>
      </trkpt>
      <trkpt lat="43.83447" lon="6.55699">
        <ele>1040.2839355</ele>
        <time>2010-10-10T10:00:41Z</time>
      </trkpt>
      <trkpt lat="43.83448" lon="6.55712">
        <ele>1042.6872559</ele>
        <time>2010-10-10T10:00:50Z</time>
      </trkpt>
      <trkpt lat="43.83451" lon="6.55729">
        <ele>1048.9355469</ele>
        <time>2010-10-10T10:00:59Z</time>
      </trkpt>
      <trkpt lat="43.83451" lon="6.55736">
        <ele>1050.8581543</ele>
        <time>2010-10-10T10:01:04Z</time>
      </trkpt>
      <trkpt lat="43.83456" lon="6.55751">
        <ele>1052.7810059</ele>
        <time>2010-10-10T10:01:08Z</time>
      </trkpt>
      <trkpt lat="43.8346" lon="6.55765">
        <ele>1052.300293</ele>
        <time>2010-10-10T10:01:16Z</time>
      </trkpt>
      <trkpt lat="43.83463" lon="6.55773">
        <ele>1053.2617188</ele>
        <time>2010-10-10T10:01:23Z</time>
      </trkpt>
      <trkpt lat="43.83463" lon="6.55777">
        <ele>1053.7424316</ele>
        <time>2010-10-10T10:01:26Z</time>
      </trkpt>
      <trkpt lat="43.83462" lon="6.55792">
        <ele>1059.9907227</ele>
        <time>2010-10-10T10:01:35Z</time>
      </trkpt>
      <trkpt lat="43.83459" lon="6.55802">
        <ele>1067.2006836</ele>
        <time>2010-10-10T10:01:44Z</time>
      </trkpt>
      <trkpt lat="43.83461" lon="6.55811">
        <ele>1059.029541</ele>
        <time>2010-10-10T10:01:51Z</time>
      </trkpt>
      <trkpt lat="43.83466" lon="6.55818">
        <ele>1059.029541</ele>
        <time>2010-10-10T10:01:59Z</time>
      </trkpt>
      <trkpt lat="43.83467" lon="6.55823">
        <ele>1058.5488281</ele>
        <time>2010-10-10T10:02:06Z</time>
      </trkpt>
      <trkpt lat="43.83468" lon="6.55827">
        <ele>1061.4328613</ele>
        <time>2010-10-10T10:02:19Z</time>
      </trkpt>
      <trkpt lat="43.8347" lon="6.55835">
        <ele>1059.5102539</ele>
        <time>2010-10-10T10:02:26Z</time>
      </trkpt>
      <trkpt lat="43.83472" lon="6.55843">
        <ele>1062.8747559</ele>
        <time>2010-10-10T10:02:33Z</time>
      </trkpt>
      <trkpt lat="43.8347" lon="6.55851">
        <ele>1063.8359375</ele>
        <time>2010-10-10T10:02:41Z</time>
      </trkpt>
      <trkpt lat="43.8347" lon="6.5586">
        <ele>1069.1235352</ele>
        <time>2010-10-10T10:02:51Z</time>
      </trkpt>
      <trkpt lat="43.8347" lon="6.55867">
        <ele>1071.0461426</ele>
        <time>2010-10-10T10:02:58Z</time>
      </trkpt>
      <trkpt lat="43.83471" lon="6.55871">
        <ele>1072.96875</ele>
        <time>2010-10-10T10:03:02Z</time>
      </trkpt>
      <trkpt lat="43.83475" lon="6.55875">
        <ele>1072.0073242</ele>
        <time>2010-10-10T10:03:07Z</time>
      </trkpt>
      <trkpt lat="43.83476" lon="6.5588">
        <ele>1072.0073242</ele>
        <time>2010-10-10T10:03:15Z</time>
      </trkpt>
      <trkpt lat="43.83485" lon="6.55899">
        <ele>1074.8913574</ele>
        <time>2010-10-10T10:03:47Z</time>
      </trkpt>
      <trkpt lat="43.83484" lon="6.55914">
        <ele>1086.9077148</ele>
        <time>2010-10-10T10:03:57Z</time>
      </trkpt>
      <trkpt lat="43.83488" lon="6.5592">
        <ele>1087.8691406</ele>
        <time>2010-10-10T10:04:02Z</time>
      </trkpt>
      <trkpt lat="43.8349" lon="6.55916">
        <ele>1089.791748</ele>
        <time>2010-10-10T10:04:09Z</time>
      </trkpt>
      <trkpt lat="43.83497" lon="6.55915">
        <ele>1089.3110352</ele>
        <time>2010-10-10T10:04:16Z</time>
      </trkpt>
      <trkpt lat="43.83501" lon="6.55909">
        <ele>1087.3884277</ele>
        <time>2010-10-10T10:04:22Z</time>
      </trkpt>
      <trkpt lat="43.83501" lon="6.55904">
        <ele>1088.8305664</ele>
        <time>2010-10-10T10:04:30Z</time>
      </trkpt>
      <trkpt lat="43.83502" lon="6.55907">
        <ele>1096.5209961</ele>
        <time>2010-10-10T10:04:38Z</time>
      </trkpt>
      <trkpt lat="43.83506" lon="6.55907">
        <ele>1093.15625</ele>
        <time>2010-10-10T10:04:43Z</time>
      </trkpt>
      <trkpt lat="43.83509" lon="6.55914">
        <ele>1094.1176758</ele>
        <time>2010-10-10T10:04:50Z</time>
      </trkpt>
      <trkpt lat="43.83512" lon="6.55917">
        <ele>1093.6369629</ele>
        <time>2010-10-10T10:04:57Z</time>
      </trkpt>
      <trkpt lat="43.83514" lon="6.55917">
        <ele>1093.15625</ele>
        <time>2010-10-10T10:05:02Z</time>
      </trkpt>
      <trkpt lat="43.83517" lon="6.55926">
        <ele>1095.5595703</ele>
        <time>2010-10-10T10:05:08Z</time>
      </trkpt>
      <trkpt lat="43.83523" lon="6.55927">
        <ele>1095.5595703</ele>
        <time>2010-10-10T10:05:16Z</time>
      </trkpt>
      <trkpt lat="43.83524" lon="6.55927">
        <ele>1089.3110352</ele>
        <time>2010-10-10T10:05:24Z</time>
      </trkpt>
      <trkpt lat="43.83526" lon="6.55931">
        <ele>1084.5046387</ele>
        <time>2010-10-10T10:05:29Z</time>
      </trkpt>
      <trkpt lat="43.83532" lon="6.55942">
        <ele>1085.9465332</ele>
        <time>2010-10-10T10:05:36Z</time>
      </trkpt>
      <trkpt lat="43.83539" lon="6.55949">
        <ele>1087.3884277</ele>
        <time>2010-10-10T10:05:42Z</time>
      </trkpt>
      <trkpt lat="43.83546" lon="6.55958">
        <ele>1091.2336426</ele>
        <time>2010-10-10T10:05:49Z</time>
      </trkpt>
      <trkpt lat="43.83553" lon="6.55969">
        <ele>1094.1176758</ele>
        <time>2010-10-10T10:05:56Z</time>
      </trkpt>
      <trkpt lat="43.83555" lon="6.55978">
        <ele>1098.9240723</ele>
        <time>2010-10-10T10:06:02Z</time>
      </trkpt>
      <trkpt lat="43.83562" lon="6.55985">
        <ele>1105.6535645</ele>
        <time>2010-10-10T10:06:08Z</time>
      </trkpt>
      <trkpt lat="43.83566" lon="6.5599">
        <ele>1101.8083496</ele>
        <time>2010-10-10T10:06:14Z</time>
      </trkpt>
      <trkpt lat="43.83568" lon="6.55995">
        <ele>1100.8469238</ele>
        <time>2010-10-10T10:06:17Z</time>
      </trkpt>
      <trkpt lat="43.8357" lon="6.56006">
        <ele>1103.730957</ele>
        <time>2010-10-10T10:06:24Z</time>
      </trkpt>
      <trkpt lat="43.83571" lon="6.56009">
        <ele>1104.2116699</ele>
        <time>2010-10-10T10:06:32Z</time>
      </trkpt>
      <trkpt lat="43.83574" lon="6.5602">
        <ele>1107.5761719</ele>
        <time>2010-10-10T10:06:41Z</time>
      </trkpt>
      <trkpt lat="43.83578" lon="6.56028">
        <ele>1115.7473145</ele>
        <time>2010-10-10T10:06:48Z</time>
      </trkpt>
      <trkpt lat="43.83581" lon="6.56033">
        <ele>1115.2666016</ele>
        <time>2010-10-10T10:06:53Z</time>
      </trkpt>
      <trkpt lat="43.83585" lon="6.56039">
        <ele>1113.8244629</ele>
        <time>2010-10-10T10:07:00Z</time>
      </trkpt>
      <trkpt lat="43.83588" lon="6.56044">
        <ele>1112.8632812</ele>
        <time>2010-10-10T10:07:07Z</time>
      </trkpt>
      <trkpt lat="43.8359" lon="6.56048">
        <ele>1111.4213867</ele>
        <time>2010-10-10T10:07:11Z</time>
      </trkpt>
      <trkpt lat="43.83592" lon="6.56051">
        <ele>1112.8632812</ele>
        <time>2010-10-10T10:07:14Z</time>
      </trkpt>
      <trkpt lat="43.83595" lon="6.56058">
        <ele>1111.9020996</ele>
        <time>2010-10-10T10:07:20Z</time>
      </trkpt>
      <trkpt lat="43.83601" lon="6.56062">
        <ele>1120.0732422</ele>
        <time>2010-10-10T10:07:33Z</time>
      </trkpt>
      <trkpt lat="43.83601" lon="6.56066">
        <ele>1124.3991699</ele>
        <time>2010-10-10T10:07:40Z</time>
      </trkpt>
      <trkpt lat="43.83603" lon="6.56072">
        <ele>1125.3603516</ele>
        <time>2010-10-10T10:07:47Z</time>
      </trkpt>
      <trkpt lat="43.8361" lon="6.56078">
        <ele>1122.9572754</ele>
        <time>2010-10-10T10:07:54Z</time>
      </trkpt>
      <trkpt lat="43.83612" lon="6.56081">
        <ele>1121.034668</ele>
        <time>2010-10-10T10:08:01Z</time>
      </trkpt>
      <trkpt lat="43.83614" lon="6.56081">
        <ele>1119.1120605</ele>
        <time>2010-10-10T10:08:06Z</time>
      </trkpt>
      <trkpt lat="43.83623" lon="6.56088">
        <ele>1119.1120605</ele>
        <time>2010-10-10T10:08:12Z</time>
      </trkpt>
      <trkpt lat="43.8363" lon="6.561">
        <ele>1120.5539551</ele>
        <time>2010-10-10T10:08:18Z</time>
      </trkpt>
      <trkpt lat="43.83638" lon="6.56118">
        <ele>1127.7636719</ele>
        <time>2010-10-10T10:08:25Z</time>
      </trkpt>
      <trkpt lat="43.83643" lon="6.56124">
        <ele>1131.6088867</ele>
        <time>2010-10-10T10:08:32Z</time>
      </trkpt>
      <trkpt lat="43.83646" lon="6.56133">
        <ele>1132.5705566</ele>
        <time>2010-10-10T10:08:38Z</time>
      </trkpt>
      <trkpt lat="43.83654" lon="6.5615">
        <ele>1130.1669922</ele>
        <time>2010-10-10T10:08:46Z</time>
      </trkpt>
      <trkpt lat="43.83661" lon="6.56173">
        <ele>1127.7636719</ele>
        <time>2010-10-10T10:08:54Z</time>
      </trkpt>
      <trkpt lat="43.83664" lon="6.56189">
        <ele>1130.1669922</ele>
        <time>2010-10-10T10:09:00Z</time>
      </trkpt>
      <trkpt lat="43.83668" lon="6.562">
        <ele>1131.128418</ele>
        <time>2010-10-10T10:09:05Z</time>
      </trkpt>
      <trkpt lat="43.83671" lon="6.56207">
        <ele>1131.6088867</ele>
        <time>2010-10-10T10:09:11Z</time>
      </trkpt>
      <trkpt lat="43.83674" lon="6.56212">
        <ele>1134.0124512</ele>
        <time>2010-10-10T10:09:17Z</time>
      </trkpt>
      <trkpt lat="43.83681" lon="6.56225">
        <ele>1139.2995605</ele>
        <time>2010-10-10T10:09:25Z</time>
      </trkpt>
      <trkpt lat="43.83684" lon="6.56232">
        <ele>1140.7414551</ele>
        <time>2010-10-10T10:09:31Z</time>
      </trkpt>
      <trkpt lat="43.83692" lon="6.56239">
        <ele>1143.1447754</ele>
        <time>2010-10-10T10:09:38Z</time>
      </trkpt>
      <trkpt lat="43.83702" lon="6.56242">
        <ele>1136.8962402</ele>
        <time>2010-10-10T10:10:04Z</time>
      </trkpt>
      <trkpt lat="43.83708" lon="6.56243">
        <ele>1138.8190918</ele>
        <time>2010-10-10T10:10:08Z</time>
      </trkpt>
      <trkpt lat="43.83718" lon="6.56247">
        <ele>1142.6643066</ele>
        <time>2010-10-10T10:10:16Z</time>
      </trkpt>
      <trkpt lat="43.83734" lon="6.56249">
        <ele>1145.5480957</ele>
        <time>2010-10-10T10:10:23Z</time>
      </trkpt>
      <trkpt lat="43.83744" lon="6.56252">
        <ele>1148.4321289</ele>
        <time>2010-10-10T10:10:30Z</time>
      </trkpt>
      <trkpt lat="43.83757" lon="6.5626">
        <ele>1148.9128418</ele>
        <time>2010-10-10T10:10:38Z</time>
      </trkpt>
      <trkpt lat="43.8377" lon="6.56271">
        <ele>1148.9128418</ele>
        <time>2010-10-10T10:10:45Z</time>
      </trkpt>
      <trkpt lat="43.83779" lon="6.56279">
        <ele>1154.6806641</ele>
        <time>2010-10-10T10:10:52Z</time>
      </trkpt>
      <trkpt lat="43.83787" lon="6.5629">
        <ele>1149.3935547</ele>
        <time>2010-10-10T10:10:57Z</time>
      </trkpt>
      <trkpt lat="43.83798" lon="6.56308">
        <ele>1150.8354492</ele>
        <time>2010-10-10T10:11:03Z</time>
      </trkpt>
      <trkpt lat="43.83806" lon="6.56321">
        <ele>1147.4707031</ele>
        <time>2010-10-10T10:11:09Z</time>
      </trkpt>
      <trkpt lat="43.83813" lon="6.56333">
        <ele>1149.8742676</ele>
        <time>2010-10-10T10:11:17Z</time>
      </trkpt>
      <trkpt lat="43.8382" lon="6.5634">
        <ele>1155.161377</ele>
        <time>2010-10-10T10:11:22Z</time>
      </trkpt>
      <trkpt lat="43.83826" lon="6.56348">
        <ele>1161.890625</ele>
        <time>2010-10-10T10:11:29Z</time>
      </trkpt>
      <trkpt lat="43.83826" lon="6.56354">
        <ele>1165.2553711</ele>
        <time>2010-10-10T10:11:37Z</time>
      </trkpt>
      <trkpt lat="43.83833" lon="6.56371">
        <ele>1167.6584473</ele>
        <time>2010-10-10T10:12:01Z</time>
      </trkpt>
      <trkpt lat="43.83835" lon="6.56374">
        <ele>1163.3325195</ele>
        <time>2010-10-10T10:12:06Z</time>
      </trkpt>
      <trkpt lat="43.83837" lon="6.56374">
        <ele>1164.2939453</ele>
        <time>2010-10-10T10:12:11Z</time>
      </trkpt>
      <trkpt lat="43.83837" lon="6.56385">
        <ele>1163.3325195</ele>
        <time>2010-10-10T10:12:19Z</time>
      </trkpt>
      <trkpt lat="43.83837" lon="6.56389">
        <ele>1162.8518066</ele>
        <time>2010-10-10T10:12:28Z</time>
      </trkpt>
      <trkpt lat="43.83838" lon="6.56403">
        <ele>1160.9291992</ele>
        <time>2010-10-10T10:12:34Z</time>
      </trkpt>
      <trkpt lat="43.83839" lon="6.56411">
        <ele>1162.8518066</ele>
        <time>2010-10-10T10:12:41Z</time>
      </trkpt>
      <trkpt lat="43.83849" lon="6.56412">
        <ele>1163.3325195</ele>
        <time>2010-10-10T10:13:08Z</time>
      </trkpt>
      <trkpt lat="43.83846" lon="6.56416">
        <ele>1159.4873047</ele>
        <time>2010-10-10T10:13:27Z</time>
      </trkpt>
      <trkpt lat="43.83856" lon="6.56424">
        <ele>1154.2001953</ele>
        <time>2010-10-10T10:13:33Z</time>
      </trkpt>
      <trkpt lat="43.83866" lon="6.56425">
        <ele>1152.7580566</ele>
        <time>2010-10-10T10:13:37Z</time>
      </trkpt>
      <trkpt lat="43.83877" lon="6.56421">
        <ele>1151.796875</ele>
        <time>2010-10-10T10:13:39Z</time>
      </trkpt>
      <trkpt lat="43.83901" lon="6.56408">
        <ele>1146.9899902</ele>
        <time>2010-10-10T10:13:44Z</time>
      </trkpt>
      <trkpt lat="43.83903" lon="6.56408">
        <ele>1146.5095215</ele>
        <time>2010-10-10T10:13:48Z</time>
      </trkpt>
      <trkpt lat="43.83906" lon="6.56413">
        <ele>1140.7414551</ele>
        <time>2010-10-10T10:13:55Z</time>
      </trkpt>
      <trkpt lat="43.83908" lon="6.56417">
        <ele>1142.6643066</ele>
        <time>2010-10-10T10:14:01Z</time>
      </trkpt>
      <trkpt lat="43.83916" lon="6.56422">
        <ele>1145.5480957</ele>
        <time>2010-10-10T10:14:06Z</time>
      </trkpt>
      <trkpt lat="43.83925" lon="6.56423">
        <ele>1145.0673828</ele>
        <time>2010-10-10T10:14:10Z</time>
      </trkpt>
      <trkpt lat="43.83927" lon="6.56415">
        <ele>1144.1062012</ele>
        <time>2010-10-10T10:14:15Z</time>
      </trkpt>
      <trkpt lat="43.83935" lon="6.5642">
        <ele>1145.0673828</ele>
        <time>2010-10-10T10:14:19Z</time>
      </trkpt>
      <trkpt lat="43.83945" lon="6.5643">
        <ele>1145.5480957</ele>
        <time>2010-10-10T10:14:23Z</time>
      </trkpt>
      <trkpt lat="43.83966" lon="6.56442">
        <ele>1145.5480957</ele>
        <time>2010-10-10T10:14:29Z</time>
      </trkpt>
      <trkpt lat="43.83971" lon="6.56442">
        <ele>1146.0288086</ele>
        <time>2010-10-10T10:14:30Z</time>
      </trkpt>
      <trkpt lat="43.83984" lon="6.5645">
        <ele>1147.951416</ele>
        <time>2010-10-10T10:14:36Z</time>
      </trkpt>
      <trkpt lat="43.83991" lon="6.56453">
        <ele>1156.6032715</ele>
        <time>2010-10-10T10:14:44Z</time>
      </trkpt>
      <trkpt lat="43.83994" lon="6.56451">
        <ele>1158.5258789</ele>
        <time>2010-10-10T10:14:49Z</time>
      </trkpt>
      <trkpt lat="43.83997" lon="6.56443">
        <ele>1162.3710938</ele>
        <time>2010-10-10T10:14:57Z</time>
      </trkpt>
      <trkpt lat="43.84001" lon="6.56439">
        <ele>1156.1225586</ele>
        <time>2010-10-10T10:15:06Z</time>
      </trkpt>
      <trkpt lat="43.84004" lon="6.5644">
        <ele>1153.2387695</ele>
        <time>2010-10-10T10:15:10Z</time>
      </trkpt>
      <trkpt lat="43.84017" lon="6.56431">
        <ele>1150.3549805</ele>
        <time>2010-10-10T10:15:15Z</time>
      </trkpt>
      <trkpt lat="43.84026" lon="6.5643">
        <ele>1146.0288086</ele>
        <time>2010-10-10T10:15:20Z</time>
      </trkpt>
      <trkpt lat="43.84036" lon="6.56419">
        <ele>1145.0673828</ele>
        <time>2010-10-10T10:15:28Z</time>
      </trkpt>
      <trkpt lat="43.84042" lon="6.56411">
        <ele>1146.5095215</ele>
        <time>2010-10-10T10:15:34Z</time>
      </trkpt>
      <trkpt lat="43.84042" lon="6.56408">
        <ele>1152.2773438</ele>
        <time>2010-10-10T10:15:40Z</time>
      </trkpt>
      <trkpt lat="43.84045" lon="6.56401">
        <ele>1158.0454102</ele>
        <time>2010-10-10T10:15:48Z</time>
      </trkpt>
      <trkpt lat="43.84049" lon="6.56398">
        <ele>1156.1225586</ele>
        <time>2010-10-10T10:15:53Z</time>
      </trkpt>
      <trkpt lat="43.84055" lon="6.56392">
        <ele>1155.6420898</ele>
        <time>2010-10-10T10:15:59Z</time>
      </trkpt>
      <trkpt lat="43.84062" lon="6.5639">
        <ele>1157.5646973</ele>
        <time>2010-10-10T10:16:05Z</time>
      </trkpt>
      <trkpt lat="43.84065" lon="6.56387">
        <ele>1159.9677734</ele>
        <time>2010-10-10T10:16:15Z</time>
      </trkpt>
      <trkpt lat="43.84071" lon="6.56387">
        <ele>1158.0454102</ele>
        <time>2010-10-10T10:16:22Z</time>
      </trkpt>
      <trkpt lat="43.84076" lon="6.5639">
        <ele>1161.4099121</ele>
        <time>2010-10-10T10:16:30Z</time>
      </trkpt>
      <trkpt lat="43.84076" lon="6.56393">
        <ele>1158.0454102</ele>
        <time>2010-10-10T10:16:38Z</time>
      </trkpt>
      <trkpt lat="43.8408" lon="6.56391">
        <ele>1156.6032715</ele>
        <time>2010-10-10T10:16:40Z</time>
      </trkpt>
      <trkpt lat="43.84088" lon="6.5639">
        <ele>1157.0839844</ele>
        <time>2010-10-10T10:16:47Z</time>
      </trkpt>
      <trkpt lat="43.84095" lon="6.56395">
        <ele>1159.4873047</ele>
        <time>2010-10-10T10:16:55Z</time>
      </trkpt>
      <trkpt lat="43.84099" lon="6.56395">
        <ele>1162.3710938</ele>
        <time>2010-10-10T10:16:59Z</time>
      </trkpt>
      <trkpt lat="43.84105" lon="6.56397">
        <ele>1164.7746582</ele>
        <time>2010-10-10T10:17:05Z</time>
      </trkpt>
      <trkpt lat="43.84109" lon="6.56398">
        <ele>1169.5812988</ele>
        <time>2010-10-10T10:17:11Z</time>
      </trkpt>
      <trkpt lat="43.84123" lon="6.56399">
        <ele>1177.2717285</ele>
        <time>2010-10-10T10:17:19Z</time>
      </trkpt>
      <trkpt lat="43.84125" lon="6.56398">
        <ele>1177.7521973</ele>
        <time>2010-10-10T10:17:20Z</time>
      </trkpt>
      <trkpt lat="43.84135" lon="6.564">
        <ele>1182.0783691</ele>
        <time>2010-10-10T10:17:27Z</time>
      </trkpt>
      <trkpt lat="43.84141" lon="6.564">
        <ele>1183.0395508</ele>
        <time>2010-10-10T10:17:31Z</time>
      </trkpt>
      <trkpt lat="43.84144" lon="6.56402">
        <ele>1182.0783691</ele>
        <time>2010-10-10T10:17:34Z</time>
      </trkpt>
      <trkpt lat="43.84153" lon="6.5641">
        <ele>1184.4816895</ele>
        <time>2010-10-10T10:17:41Z</time>
      </trkpt>
      <trkpt lat="43.84154" lon="6.56411">
        <ele>1185.923584</ele>
        <time>2010-10-10T10:17:42Z</time>
      </trkpt>
      <trkpt lat="43.84167" lon="6.56418">
        <ele>1185.923584</ele>
        <time>2010-10-10T10:17:49Z</time>
      </trkpt>
      <trkpt lat="43.84176" lon="6.56427">
        <ele>1189.7687988</ele>
        <time>2010-10-10T10:17:55Z</time>
      </trkpt>
      <trkpt lat="43.84189" lon="6.56438">
        <ele>1183.5202637</ele>
        <time>2010-10-10T10:18:03Z</time>
      </trkpt>
      <trkpt lat="43.84204" lon="6.56453">
        <ele>1183.0395508</ele>
        <time>2010-10-10T10:18:10Z</time>
      </trkpt>
      <trkpt lat="43.84217" lon="6.56471">
        <ele>1174.3876953</ele>
        <time>2010-10-10T10:18:16Z</time>
      </trkpt>
      <trkpt lat="43.8423" lon="6.56495">
        <ele>1171.984375</ele>
        <time>2010-10-10T10:18:24Z</time>
      </trkpt>
      <trkpt lat="43.84239" lon="6.56505">
        <ele>1175.348877</ele>
        <time>2010-10-10T10:18:30Z</time>
      </trkpt>
      <trkpt lat="43.84245" lon="6.56516">
        <ele>1181.1171875</ele>
        <time>2010-10-10T10:18:36Z</time>
      </trkpt>
      <trkpt lat="43.84251" lon="6.56531">
        <ele>1183.5202637</ele>
        <time>2010-10-10T10:18:43Z</time>
      </trkpt>
      <trkpt lat="43.84256" lon="6.56537">
        <ele>1193.6140137</ele>
        <time>2010-10-10T10:18:51Z</time>
      </trkpt>
      <trkpt lat="43.84256" lon="6.56547">
        <ele>1205.1499023</ele>
        <time>2010-10-10T10:18:58Z</time>
      </trkpt>
      <trkpt lat="43.84259" lon="6.56551">
        <ele>1207.0725098</ele>
        <time>2010-10-10T10:19:02Z</time>
      </trkpt>
      <trkpt lat="43.84269" lon="6.56568">
        <ele>1208.9951172</ele>
        <time>2010-10-10T10:19:10Z</time>
      </trkpt>
      <trkpt lat="43.84278" lon="6.56585">
        <ele>1210.9177246</ele>
        <time>2010-10-10T10:19:18Z</time>
      </trkpt>
      <trkpt lat="43.84291" lon="6.56602">
        <ele>1204.1887207</ele>
        <time>2010-10-10T10:19:25Z</time>
      </trkpt>
      <trkpt lat="43.843" lon="6.56614">
        <ele>1202.746582</ele>
        <time>2010-10-10T10:19:30Z</time>
      </trkpt>
      <trkpt lat="43.84306" lon="6.56631">
        <ele>1198.9013672</ele>
        <time>2010-10-10T10:19:36Z</time>
      </trkpt>
      <trkpt lat="43.84315" lon="6.56647">
        <ele>1199.3820801</ele>
        <time>2010-10-10T10:19:41Z</time>
      </trkpt>
      <trkpt lat="43.84324" lon="6.5666">
        <ele>1202.746582</ele>
        <time>2010-10-10T10:19:47Z</time>
      </trkpt>
      <trkpt lat="43.84331" lon="6.56683">
        <ele>1194.5751953</ele>
        <time>2010-10-10T10:19:53Z</time>
      </trkpt>
      <trkpt lat="43.84338" lon="6.567">
        <ele>1197.9401855</ele>
        <time>2010-10-10T10:19:59Z</time>
      </trkpt>
      <trkpt lat="43.84346" lon="6.56724">
        <ele>1194.0947266</ele>
        <time>2010-10-10T10:20:07Z</time>
      </trkpt>
      <trkpt lat="43.84359" lon="6.56748">
        <ele>1187.3654785</ele>
        <time>2010-10-10T10:20:14Z</time>
      </trkpt>
      <trkpt lat="43.8436" lon="6.56759">
        <ele>1186.4042969</ele>
        <time>2010-10-10T10:20:18Z</time>
      </trkpt>
      <trkpt lat="43.84373" lon="6.56777">
        <ele>1189.7687988</ele>
        <time>2010-10-10T10:20:26Z</time>
      </trkpt>
      <trkpt lat="43.84381" lon="6.56796">
        <ele>1188.3269043</ele>
        <time>2010-10-10T10:20:32Z</time>
      </trkpt>
      <trkpt lat="43.84384" lon="6.5681">
        <ele>1188.8076172</ele>
        <time>2010-10-10T10:20:38Z</time>
      </trkpt>
      <trkpt lat="43.84392" lon="6.56823">
        <ele>1192.652832</ele>
        <time>2010-10-10T10:20:44Z</time>
      </trkpt>
      <trkpt lat="43.84398" lon="6.56847">
        <ele>1189.2880859</ele>
        <time>2010-10-10T10:20:51Z</time>
      </trkpt>
      <trkpt lat="43.84399" lon="6.5685">
        <ele>1189.7687988</ele>
        <time>2010-10-10T10:20:52Z</time>
      </trkpt>
      <trkpt lat="43.84413" lon="6.56872">
        <ele>1188.3269043</ele>
        <time>2010-10-10T10:21:00Z</time>
      </trkpt>
      <trkpt lat="43.84416" lon="6.56886">
        <ele>1190.7299805</ele>
        <time>2010-10-10T10:21:05Z</time>
      </trkpt>
      <trkpt lat="43.84419" lon="6.56896">
        <ele>1202.746582</ele>
        <time>2010-10-10T10:21:12Z</time>
      </trkpt>
      <trkpt lat="43.84424" lon="6.56914">
        <ele>1197.9401855</ele>
        <time>2010-10-10T10:21:19Z</time>
      </trkpt>
      <trkpt lat="43.84434" lon="6.56926">
        <ele>1198.4206543</ele>
        <time>2010-10-10T10:21:25Z</time>
      </trkpt>
      <trkpt lat="43.84439" lon="6.56938">
        <ele>1202.2658691</ele>
        <time>2010-10-10T10:21:31Z</time>
      </trkpt>
      <trkpt lat="43.84448" lon="6.56952">
        <ele>1204.1887207</ele>
        <time>2010-10-10T10:21:36Z</time>
      </trkpt>
      <trkpt lat="43.84461" lon="6.56978">
        <ele>1202.2658691</ele>
        <time>2010-10-10T10:21:44Z</time>
      </trkpt>
      <trkpt lat="43.84465" lon="6.56998">
        <ele>1200.8239746</ele>
        <time>2010-10-10T10:21:50Z</time>
      </trkpt>
      <trkpt lat="43.84474" lon="6.57014">
        <ele>1206.5917969</ele>
        <time>2010-10-10T10:21:56Z</time>
      </trkpt>
      <trkpt lat="43.84475" lon="6.57026">
        <ele>1208.5144043</ele>
        <time>2010-10-10T10:22:00Z</time>
      </trkpt>
      <trkpt lat="43.84479" lon="6.57031">
        <ele>1208.5144043</ele>
        <time>2010-10-10T10:22:02Z</time>
      </trkpt>
      <trkpt lat="43.84485" lon="6.57045">
        <ele>1207.5532227</ele>
        <time>2010-10-10T10:22:08Z</time>
      </trkpt>
      <trkpt lat="43.8449" lon="6.57059">
        <ele>1205.6306152</ele>
        <time>2010-10-10T10:22:14Z</time>
      </trkpt>
      <trkpt lat="43.84492" lon="6.57075">
        <ele>1204.1887207</ele>
        <time>2010-10-10T10:22:20Z</time>
      </trkpt>
      <trkpt lat="43.84491" lon="6.57082">
        <ele>1203.2272949</ele>
        <time>2010-10-10T10:22:23Z</time>
      </trkpt>
      <trkpt lat="43.84498" lon="6.57096">
        <ele>1203.7080078</ele>
        <time>2010-10-10T10:22:28Z</time>
      </trkpt>
      <trkpt lat="43.84499" lon="6.57099">
        <ele>1203.7080078</ele>
        <time>2010-10-10T10:22:29Z</time>
      </trkpt>
      <trkpt lat="43.845" lon="6.57104">
        <ele>1205.6306152</ele>
        <time>2010-10-10T10:22:31Z</time>
      </trkpt>
      <trkpt lat="43.84511" lon="6.57115">
        <ele>1215.7246094</ele>
        <time>2010-10-10T10:22:39Z</time>
      </trkpt>
      <trkpt lat="43.84513" lon="6.57131">
        <ele>1216.685791</ele>
        <time>2010-10-10T10:22:46Z</time>
      </trkpt>
      <trkpt lat="43.84517" lon="6.57143">
        <ele>1218.1276855</ele>
        <time>2010-10-10T10:22:53Z</time>
      </trkpt>
      <trkpt lat="43.84517" lon="6.57157">
        <ele>1222.9343262</ele>
        <time>2010-10-10T10:23:00Z</time>
      </trkpt>
      <trkpt lat="43.84522" lon="6.57167">
        <ele>1222.9343262</ele>
        <time>2010-10-10T10:23:04Z</time>
      </trkpt>
      <trkpt lat="43.84532" lon="6.57183">
        <ele>1222.4536133</ele>
        <time>2010-10-10T10:23:11Z</time>
      </trkpt>
      <trkpt lat="43.84539" lon="6.572">
        <ele>1216.685791</ele>
        <time>2010-10-10T10:23:18Z</time>
      </trkpt>
      <trkpt lat="43.84539" lon="6.57203">
        <ele>1216.2050781</ele>
        <time>2010-10-10T10:23:20Z</time>
      </trkpt>
      <trkpt lat="43.84541" lon="6.57214">
        <ele>1216.2050781</ele>
        <time>2010-10-10T10:23:25Z</time>
      </trkpt>
      <trkpt lat="43.84547" lon="6.57223">
        <ele>1216.2050781</ele>
        <time>2010-10-10T10:23:30Z</time>
      </trkpt>
      <trkpt lat="43.84549" lon="6.57229">
        <ele>1219.5698242</ele>
        <time>2010-10-10T10:23:33Z</time>
      </trkpt>
      <trkpt lat="43.84561" lon="6.57241">
        <ele>1225.8181152</ele>
        <time>2010-10-10T10:23:41Z</time>
      </trkpt>
      <trkpt lat="43.84563" lon="6.5725">
        <ele>1235.9121094</ele>
        <time>2010-10-10T10:23:47Z</time>
      </trkpt>
      <trkpt lat="43.84566" lon="6.57266">
        <ele>1234.4702148</ele>
        <time>2010-10-10T10:23:54Z</time>
      </trkpt>
      <trkpt lat="43.84567" lon="6.57267">
        <ele>1233.989502</ele>
        <time>2010-10-10T10:23:55Z</time>
      </trkpt>
      <trkpt lat="43.84573" lon="6.57284">
        <ele>1233.0280762</ele>
        <time>2010-10-10T10:24:03Z</time>
      </trkpt>
      <trkpt lat="43.84574" lon="6.5729">
        <ele>1232.0668945</ele>
        <time>2010-10-10T10:24:07Z</time>
      </trkpt>
      <trkpt lat="43.84571" lon="6.57303">
        <ele>1233.989502</ele>
        <time>2010-10-10T10:24:14Z</time>
      </trkpt>
      <trkpt lat="43.84572" lon="6.57305">
        <ele>1233.5087891</ele>
        <time>2010-10-10T10:24:15Z</time>
      </trkpt>
      <trkpt lat="43.84577" lon="6.57312">
        <ele>1230.625</ele>
        <time>2010-10-10T10:24:19Z</time>
      </trkpt>
      <trkpt lat="43.84585" lon="6.57325">
        <ele>1227.2602539</ele>
        <time>2010-10-10T10:24:25Z</time>
      </trkpt>
      <trkpt lat="43.84595" lon="6.57338">
        <ele>1223.8955078</ele>
        <time>2010-10-10T10:24:30Z</time>
      </trkpt>
      <trkpt lat="43.84604" lon="6.57355">
        <ele>1226.2988281</ele>
        <time>2010-10-10T10:24:37Z</time>
      </trkpt>
      <trkpt lat="43.8461" lon="6.57365">
        <ele>1231.1057129</ele>
        <time>2010-10-10T10:24:44Z</time>
      </trkpt>
      <trkpt lat="43.84612" lon="6.57375">
        <ele>1233.989502</ele>
        <time>2010-10-10T10:24:49Z</time>
      </trkpt>
      <trkpt lat="43.84614" lon="6.5738">
        <ele>1235.9121094</ele>
        <time>2010-10-10T10:24:51Z</time>
      </trkpt>
      <trkpt lat="43.84613" lon="6.57399">
        <ele>1232.5476074</ele>
        <time>2010-10-10T10:24:59Z</time>
      </trkpt>
      <trkpt lat="43.8462" lon="6.57408">
        <ele>1235.9121094</ele>
        <time>2010-10-10T10:25:07Z</time>
      </trkpt>
      <trkpt lat="43.84628" lon="6.57427">
        <ele>1237.8347168</ele>
        <time>2010-10-10T10:25:17Z</time>
      </trkpt>
      <trkpt lat="43.84628" lon="6.57433">
        <ele>1235.4313965</ele>
        <time>2010-10-10T10:25:21Z</time>
      </trkpt>
      <trkpt lat="43.84632" lon="6.5745">
        <ele>1233.0280762</ele>
        <time>2010-10-10T10:25:29Z</time>
      </trkpt>
      <trkpt lat="43.84634" lon="6.57457">
        <ele>1241.6799316</ele>
        <time>2010-10-10T10:25:36Z</time>
      </trkpt>
      <trkpt lat="43.84635" lon="6.57465">
        <ele>1241.1992188</ele>
        <time>2010-10-10T10:25:40Z</time>
      </trkpt>
      <trkpt lat="43.84638" lon="6.57476">
        <ele>1242.6413574</ele>
        <time>2010-10-10T10:25:46Z</time>
      </trkpt>
      <trkpt lat="43.84636" lon="6.57487">
        <ele>1244.5639648</ele>
        <time>2010-10-10T10:25:52Z</time>
      </trkpt>
      <trkpt lat="43.84642" lon="6.57494">
        <ele>1246.9672852</ele>
        <time>2010-10-10T10:25:59Z</time>
      </trkpt>
      <trkpt lat="43.84647" lon="6.57505">
        <ele>1247.9287109</ele>
        <time>2010-10-10T10:26:06Z</time>
      </trkpt>
      <trkpt lat="43.8465" lon="6.57513">
        <ele>1249.8513184</ele>
        <time>2010-10-10T10:26:12Z</time>
      </trkpt>
      <trkpt lat="43.84656" lon="6.57526">
        <ele>1246.9672852</ele>
        <time>2010-10-10T10:26:19Z</time>
      </trkpt>
      <trkpt lat="43.84661" lon="6.57537">
        <ele>1246.4868164</ele>
        <time>2010-10-10T10:26:26Z</time>
      </trkpt>
      <trkpt lat="43.84661" lon="6.5755">
        <ele>1246.9672852</ele>
        <time>2010-10-10T10:26:33Z</time>
      </trkpt>
      <trkpt lat="43.84661" lon="6.57556">
        <ele>1246.4868164</ele>
        <time>2010-10-10T10:26:38Z</time>
      </trkpt>
      <trkpt lat="43.8467" lon="6.57569">
        <ele>1247.9287109</ele>
        <time>2010-10-10T10:26:47Z</time>
      </trkpt>
      <trkpt lat="43.84673" lon="6.57581">
        <ele>1248.8898926</ele>
        <time>2010-10-10T10:26:53Z</time>
      </trkpt>
      <trkpt lat="43.84682" lon="6.57589">
        <ele>1247.9287109</ele>
        <time>2010-10-10T10:26:59Z</time>
      </trkpt>
      <trkpt lat="43.84687" lon="6.576">
        <ele>1247.447998</ele>
        <time>2010-10-10T10:27:06Z</time>
      </trkpt>
      <trkpt lat="43.84692" lon="6.57612">
        <ele>1252.7351074</ele>
        <time>2010-10-10T10:27:14Z</time>
      </trkpt>
      <trkpt lat="43.84694" lon="6.57617">
        <ele>1256.0996094</ele>
        <time>2010-10-10T10:27:18Z</time>
      </trkpt>
      <trkpt lat="43.84696" lon="6.57626">
        <ele>1257.541748</ele>
        <time>2010-10-10T10:27:23Z</time>
      </trkpt>
      <trkpt lat="43.84699" lon="6.57638">
        <ele>1256.5803223</ele>
        <time>2010-10-10T10:27:30Z</time>
      </trkpt>
      <trkpt lat="43.847" lon="6.57641">
        <ele>1255.1384277</ele>
        <time>2010-10-10T10:27:31Z</time>
      </trkpt>
      <trkpt lat="43.84702" lon="6.5765">
        <ele>1253.2158203</ele>
        <time>2010-10-10T10:27:37Z</time>
      </trkpt>
      <trkpt lat="43.8471" lon="6.57655">
        <ele>1253.6965332</ele>
        <time>2010-10-10T10:27:41Z</time>
      </trkpt>
      <trkpt lat="43.84717" lon="6.57668">
        <ele>1255.6191406</ele>
        <time>2010-10-10T10:27:49Z</time>
      </trkpt>
      <trkpt lat="43.84726" lon="6.57682">
        <ele>1257.541748</ele>
        <time>2010-10-10T10:27:58Z</time>
      </trkpt>
      <trkpt lat="43.84729" lon="6.57692">
        <ele>1259.9448242</ele>
        <time>2010-10-10T10:28:05Z</time>
      </trkpt>
      <trkpt lat="43.84732" lon="6.57694">
        <ele>1259.4643555</ele>
        <time>2010-10-10T10:28:21Z</time>
      </trkpt>
      <trkpt lat="43.84741" lon="6.57691">
        <ele>1251.2932129</ele>
        <time>2010-10-10T10:28:29Z</time>
      </trkpt>
      <trkpt lat="43.84744" lon="6.57689">
        <ele>1250.8125</ele>
        <time>2010-10-10T10:28:35Z</time>
      </trkpt>
      <trkpt lat="43.84744" lon="6.57691">
        <ele>1256.5803223</ele>
        <time>2010-10-10T10:31:29Z</time>
      </trkpt>
      <trkpt lat="43.84752" lon="6.5769">
        <ele>1250.8125</ele>
        <time>2010-10-10T10:31:46Z</time>
      </trkpt>
      <trkpt lat="43.84751" lon="6.57692">
        <ele>1231.1057129</ele>
        <time>2010-10-10T10:32:17Z</time>
      </trkpt>
      <trkpt lat="43.84748" lon="6.57699">
        <ele>1245.0446777</ele>
        <time>2010-10-10T10:33:10Z</time>
      </trkpt>
      <trkpt lat="43.8474" lon="6.57705">
        <ele>1250.3320312</ele>
        <time>2010-10-10T10:33:17Z</time>
      </trkpt>
      <trkpt lat="43.84743" lon="6.57698">
        <ele>1249.8513184</ele>
        <time>2010-10-10T10:33:27Z</time>
      </trkpt>
      <trkpt lat="43.84744" lon="6.57695">
        <ele>1246.9672852</ele>
        <time>2010-10-10T10:33:33Z</time>
      </trkpt>
      <trkpt lat="43.84743" lon="6.57692">
        <ele>1237.3540039</ele>
        <time>2010-10-10T10:33:38Z</time>
      </trkpt>
      <trkpt lat="43.84741" lon="6.57691">
        <ele>1233.989502</ele>
        <time>2010-10-10T10:33:44Z</time>
      </trkpt>
      <trkpt lat="43.84749" lon="6.57691">
        <ele>1242.1606445</ele>
        <time>2010-10-10T10:33:59Z</time>
      </trkpt>
      <trkpt lat="43.84737" lon="6.57701">
        <ele>1243.1218262</ele>
        <time>2010-10-10T10:34:37Z</time>
      </trkpt>
      <trkpt lat="43.84742" lon="6.57699">
        <ele>1247.447998</ele>
        <time>2010-10-10T10:35:00Z</time>
      </trkpt>
      <trkpt lat="43.84744" lon="6.57702">
        <ele>1244.0834961</ele>
        <time>2010-10-10T10:38:53Z</time>
      </trkpt>
      <trkpt lat="43.84745" lon="6.57696">
        <ele>1249.8513184</ele>
        <time>2010-10-10T10:39:09Z</time>
      </trkpt>
      <trkpt lat="43.84732" lon="6.57712">
        <ele>1244.0834961</ele>
        <time>2010-10-10T10:39:14Z</time>
      </trkpt>
      <trkpt lat="43.84721" lon="6.57723">
        <ele>1245.0446777</ele>
        <time>2010-10-10T10:39:19Z</time>
      </trkpt>
      <trkpt lat="43.84723" lon="6.5772">
        <ele>1249.8513184</ele>
        <time>2010-10-10T10:39:24Z</time>
      </trkpt>
      <trkpt lat="43.84735" lon="6.57707">
        <ele>1253.2158203</ele>
        <time>2010-10-10T10:39:41Z</time>
      </trkpt>
      <trkpt lat="43.84741" lon="6.57703">
        <ele>1243.1218262</ele>
        <time>2010-10-10T10:39:58Z</time>
      </trkpt>
      <trkpt lat="43.8474" lon="6.57704">
        <ele>1241.6799316</ele>
        <time>2010-10-10T10:40:05Z</time>
      </trkpt>
      <trkpt lat="43.84745" lon="6.577">
        <ele>1240.2380371</ele>
        <time>2010-10-10T10:40:11Z</time>
      </trkpt>
      <trkpt lat="43.84747" lon="6.57699">
        <ele>1240.2380371</ele>
        <time>2010-10-10T10:40:17Z</time>
      </trkpt>
      <trkpt lat="43.84739" lon="6.57701">
        <ele>1249.8513184</ele>
        <time>2010-10-10T10:40:30Z</time>
      </trkpt>
      <trkpt lat="43.84743" lon="6.57699">
        <ele>1248.4091797</ele>
        <time>2010-10-10T10:41:35Z</time>
      </trkpt>
      <trkpt lat="43.84747" lon="6.57693">
        <ele>1255.1384277</ele>
        <time>2010-10-10T10:42:20Z</time>
      </trkpt>
      <trkpt lat="43.84736" lon="6.577">
        <ele>1255.1384277</ele>
        <time>2010-10-10T10:42:38Z</time>
      </trkpt>
      <trkpt lat="43.84737" lon="6.577">
        <ele>1257.541748</ele>
        <time>2010-10-10T10:42:44Z</time>
      </trkpt>
      <trkpt lat="43.84731" lon="6.57698">
        <ele>1252.7351074</ele>
        <time>2010-10-10T10:43:07Z</time>
      </trkpt>
      <trkpt lat="43.8473" lon="6.57702">
        <ele>1258.9836426</ele>
        <time>2010-10-10T10:43:19Z</time>
      </trkpt>
      <trkpt lat="43.84733" lon="6.57699">
        <ele>1260.9064941</ele>
        <time>2010-10-10T10:43:27Z</time>
      </trkpt>
      <trkpt lat="43.84732" lon="6.57698">
        <ele>1252.2543945</ele>
        <time>2010-10-10T10:43:59Z</time>
      </trkpt>
      <trkpt lat="43.84729" lon="6.57704">
        <ele>1252.7351074</ele>
        <time>2010-10-10T10:44:14Z</time>
      </trkpt>
      <trkpt lat="43.84731" lon="6.577">
        <ele>1254.1772461</ele>
        <time>2010-10-10T10:44:33Z</time>
      </trkpt>
      <trkpt lat="43.84739" lon="6.57698">
        <ele>1250.3320312</ele>
        <time>2010-10-10T10:44:38Z</time>
      </trkpt>
      <trkpt lat="43.84734" lon="6.57695">
        <ele>1245.5253906</ele>
        <time>2010-10-10T10:45:08Z</time>
      </trkpt>
      <trkpt lat="43.84736" lon="6.57693">
        <ele>1244.5639648</ele>
        <time>2010-10-10T10:45:09Z</time>
      </trkpt>
      <trkpt lat="43.8474" lon="6.57686">
        <ele>1243.1218262</ele>
        <time>2010-10-10T10:45:13Z</time>
      </trkpt>
      <trkpt lat="43.84736" lon="6.57666">
        <ele>1241.6799316</ele>
        <time>2010-10-10T10:45:18Z</time>
      </trkpt>
      <trkpt lat="43.84733" lon="6.5764">
        <ele>1239.7573242</ele>
        <time>2010-10-10T10:45:22Z</time>
      </trkpt>
      <trkpt lat="43.84721" lon="6.57603">
        <ele>1234.9509277</ele>
        <time>2010-10-10T10:45:27Z</time>
      </trkpt>
      <trkpt lat="43.84719" lon="6.57587">
        <ele>1234.4702148</ele>
        <time>2010-10-10T10:45:29Z</time>
      </trkpt>
      <trkpt lat="43.84714" lon="6.57543">
        <ele>1231.5861816</ele>
        <time>2010-10-10T10:45:34Z</time>
      </trkpt>
      <trkpt lat="43.84707" lon="6.57495">
        <ele>1225.3374023</ele>
        <time>2010-10-10T10:45:40Z</time>
      </trkpt>
      <trkpt lat="43.84683" lon="6.57439">
        <ele>1208.5144043</ele>
        <time>2010-10-10T10:45:46Z</time>
      </trkpt>
      <trkpt lat="43.84674" lon="6.57403">
        <ele>1201.3046875</ele>
        <time>2010-10-10T10:45:50Z</time>
      </trkpt>
      <trkpt lat="43.84667" lon="6.57375">
        <ele>1207.5532227</ele>
        <time>2010-10-10T10:45:55Z</time>
      </trkpt>
      <trkpt lat="43.84656" lon="6.57349">
        <ele>1209.4758301</ele>
        <time>2010-10-10T10:46:01Z</time>
      </trkpt>
      <trkpt lat="43.84651" lon="6.5733">
        <ele>1206.111084</ele>
        <time>2010-10-10T10:46:04Z</time>
      </trkpt>
      <trkpt lat="43.84641" lon="6.57303">
        <ele>1200.8239746</ele>
        <time>2010-10-10T10:46:08Z</time>
      </trkpt>
      <trkpt lat="43.84642" lon="6.57265">
        <ele>1202.2658691</ele>
        <time>2010-10-10T10:46:14Z</time>
      </trkpt>
      <trkpt lat="43.84645" lon="6.57248">
        <ele>1203.7080078</ele>
        <time>2010-10-10T10:46:19Z</time>
      </trkpt>
      <trkpt lat="43.84639" lon="6.57215">
        <ele>1199.862793</ele>
        <time>2010-10-10T10:46:25Z</time>
      </trkpt>
      <trkpt lat="43.84638" lon="6.57208">
        <ele>1197.9401855</ele>
        <time>2010-10-10T10:46:26Z</time>
      </trkpt>
      <trkpt lat="43.84635" lon="6.57171">
        <ele>1192.652832</ele>
        <time>2010-10-10T10:46:32Z</time>
      </trkpt>
      <trkpt lat="43.84634" lon="6.57164">
        <ele>1188.8076172</ele>
        <time>2010-10-10T10:46:35Z</time>
      </trkpt>
      <trkpt lat="43.84633" lon="6.57164">
        <ele>1185.923584</ele>
        <time>2010-10-10T10:46:37Z</time>
      </trkpt>
      <trkpt lat="43.84638" lon="6.57162">
        <ele>1181.5976562</ele>
        <time>2010-10-10T10:46:41Z</time>
      </trkpt>
      <trkpt lat="43.84646" lon="6.57159">
        <ele>1177.7521973</ele>
        <time>2010-10-10T10:46:45Z</time>
      </trkpt>
      <trkpt lat="43.84652" lon="6.57139">
        <ele>1168.1391602</ele>
        <time>2010-10-10T10:46:50Z</time>
      </trkpt>
      <trkpt lat="43.84659" lon="6.57121">
        <ele>1160.4484863</ele>
        <time>2010-10-10T10:46:54Z</time>
      </trkpt>
      <trkpt lat="43.84669" lon="6.57094">
        <ele>1153.2387695</ele>
        <time>2010-10-10T10:47:00Z</time>
      </trkpt>
      <trkpt lat="43.84672" lon="6.57072">
        <ele>1145.5480957</ele>
        <time>2010-10-10T10:47:06Z</time>
      </trkpt>
      <trkpt lat="43.84669" lon="6.57046">
        <ele>1141.222168</ele>
        <time>2010-10-10T10:47:12Z</time>
      </trkpt>
      <trkpt lat="43.84668" lon="6.57015">
        <ele>1138.8190918</ele>
        <time>2010-10-10T10:47:18Z</time>
      </trkpt>
      <trkpt lat="43.84663" lon="6.56987">
        <ele>1135.4543457</ele>
        <time>2010-10-10T10:47:23Z</time>
      </trkpt>
      <trkpt lat="43.84659" lon="6.56969">
        <ele>1133.0510254</ele>
        <time>2010-10-10T10:47:26Z</time>
      </trkpt>
      <trkpt lat="43.8465" lon="6.56942">
        <ele>1130.6477051</ele>
        <time>2010-10-10T10:47:30Z</time>
      </trkpt>
      <trkpt lat="43.84647" lon="6.56921">
        <ele>1125.8410645</ele>
        <time>2010-10-10T10:47:33Z</time>
      </trkpt>
      <trkpt lat="43.8465" lon="6.56894">
        <ele>1122.9572754</ele>
        <time>2010-10-10T10:47:37Z</time>
      </trkpt>
      <trkpt lat="43.84643" lon="6.56859">
        <ele>1117.6699219</ele>
        <time>2010-10-10T10:47:42Z</time>
      </trkpt>
      <trkpt lat="43.8464" lon="6.56826">
        <ele>1113.3439941</ele>
        <time>2010-10-10T10:47:47Z</time>
      </trkpt>
      <trkpt lat="43.84638" lon="6.56815">
        <ele>1111.4213867</ele>
        <time>2010-10-10T10:47:49Z</time>
      </trkpt>
      <trkpt lat="43.84632" lon="6.56783">
        <ele>1107.5761719</ele>
        <time>2010-10-10T10:47:54Z</time>
      </trkpt>
      <trkpt lat="43.84618" lon="6.56752">
        <ele>1107.5761719</ele>
        <time>2010-10-10T10:47:59Z</time>
      </trkpt>
      <trkpt lat="43.84618" lon="6.56744">
        <ele>1107.095459</ele>
        <time>2010-10-10T10:48:00Z</time>
      </trkpt>
      <trkpt lat="43.84612" lon="6.5672">
        <ele>1106.6147461</ele>
        <time>2010-10-10T10:48:05Z</time>
      </trkpt>
      <trkpt lat="43.84606" lon="6.5669">
        <ele>1103.730957</ele>
        <time>2010-10-10T10:48:11Z</time>
      </trkpt>
      <trkpt lat="43.84603" lon="6.56669">
        <ele>1101.8083496</ele>
        <time>2010-10-10T10:48:15Z</time>
      </trkpt>
      <trkpt lat="43.84597" lon="6.56635">
        <ele>1098.9240723</ele>
        <time>2010-10-10T10:48:21Z</time>
      </trkpt>
      <trkpt lat="43.84594" lon="6.56618">
        <ele>1097.0014648</ele>
        <time>2010-10-10T10:48:24Z</time>
      </trkpt>
      <trkpt lat="43.84586" lon="6.5657">
        <ele>1094.1176758</ele>
        <time>2010-10-10T10:48:31Z</time>
      </trkpt>
      <trkpt lat="43.84578" lon="6.56553">
        <ele>1091.2336426</ele>
        <time>2010-10-10T10:48:35Z</time>
      </trkpt>
      <trkpt lat="43.8456" lon="6.56538">
        <ele>1091.2336426</ele>
        <time>2010-10-10T10:48:40Z</time>
      </trkpt>
      <trkpt lat="43.84549" lon="6.56515">
        <ele>1089.3110352</ele>
        <time>2010-10-10T10:48:46Z</time>
      </trkpt>
      <trkpt lat="43.84546" lon="6.56495">
        <ele>1085.4658203</ele>
        <time>2010-10-10T10:48:51Z</time>
      </trkpt>
      <trkpt lat="43.84541" lon="6.56476">
        <ele>1084.0239258</ele>
        <time>2010-10-10T10:48:55Z</time>
      </trkpt>
      <trkpt lat="43.84534" lon="6.5645">
        <ele>1082.5817871</ele>
        <time>2010-10-10T10:49:00Z</time>
      </trkpt>
      <trkpt lat="43.84532" lon="6.56434">
        <ele>1079.217041</ele>
        <time>2010-10-10T10:49:03Z</time>
      </trkpt>
      <trkpt lat="43.84531" lon="6.56414">
        <ele>1072.4880371</ele>
        <time>2010-10-10T10:49:06Z</time>
      </trkpt>
      <trkpt lat="43.84522" lon="6.56374">
        <ele>1069.604248</ele>
        <time>2010-10-10T10:49:12Z</time>
      </trkpt>
      <trkpt lat="43.84518" lon="6.56336">
        <ele>1061.4328613</ele>
        <time>2010-10-10T10:49:18Z</time>
      </trkpt>
      <trkpt lat="43.84513" lon="6.56295">
        <ele>1057.1069336</ele>
        <time>2010-10-10T10:49:25Z</time>
      </trkpt>
      <trkpt lat="43.8451" lon="6.56274">
        <ele>1055.6650391</ele>
        <time>2010-10-10T10:49:28Z</time>
      </trkpt>
      <trkpt lat="43.84501" lon="6.56248">
        <ele>1052.7810059</ele>
        <time>2010-10-10T10:49:32Z</time>
      </trkpt>
      <trkpt lat="43.84499" lon="6.56216">
        <ele>1049.8969727</ele>
        <time>2010-10-10T10:49:36Z</time>
      </trkpt>
      <trkpt lat="43.84497" lon="6.56163">
        <ele>1040.7644043</ele>
        <time>2010-10-10T10:49:42Z</time>
      </trkpt>
      <trkpt lat="43.84493" lon="6.56141">
        <ele>1037.3999023</ele>
        <time>2010-10-10T10:49:46Z</time>
      </trkpt>
      <trkpt lat="43.84496" lon="6.56139">
        <ele>1032.1125488</ele>
        <time>2010-10-10T10:49:51Z</time>
      </trkpt>
      <trkpt lat="43.84497" lon="6.56134">
        <ele>1022.9802246</ele>
        <time>2010-10-10T10:49:59Z</time>
      </trkpt>
      <trkpt lat="43.84495" lon="6.56113">
        <ele>1022.0187988</ele>
        <time>2010-10-10T10:50:04Z</time>
      </trkpt>
      <trkpt lat="43.84491" lon="6.56074">
        <ele>1020.5769043</ele>
        <time>2010-10-10T10:50:10Z</time>
      </trkpt>
      <trkpt lat="43.84489" lon="6.56068">
        <ele>1021.0576172</ele>
        <time>2010-10-10T10:50:11Z</time>
      </trkpt>
      <trkpt lat="43.84479" lon="6.56022">
        <ele>1020.0961914</ele>
        <time>2010-10-10T10:50:17Z</time>
      </trkpt>
      <trkpt lat="43.8447" lon="6.55976">
        <ele>1015.7702637</ele>
        <time>2010-10-10T10:50:22Z</time>
      </trkpt>
      <trkpt lat="43.84469" lon="6.55967">
        <ele>1014.8088379</ele>
        <time>2010-10-10T10:50:23Z</time>
      </trkpt>
      <trkpt lat="43.84465" lon="6.55947">
        <ele>1011.9250488</ele>
        <time>2010-10-10T10:50:25Z</time>
      </trkpt>
      <trkpt lat="43.84459" lon="6.55911">
        <ele>1008.5603027</ele>
        <time>2010-10-10T10:50:29Z</time>
      </trkpt>
      <trkpt lat="43.84449" lon="6.55884">
        <ele>1010.963623</ele>
        <time>2010-10-10T10:50:33Z</time>
      </trkpt>
      <trkpt lat="43.84447" lon="6.55868">
        <ele>1010.4829102</ele>
        <time>2010-10-10T10:50:35Z</time>
      </trkpt>
      <trkpt lat="43.84444" lon="6.55803">
        <ele>1004.2346191</ele>
        <time>2010-10-10T10:50:42Z</time>
      </trkpt>
      <trkpt lat="43.84442" lon="6.55754">
        <ele>1001.3503418</ele>
        <time>2010-10-10T10:50:47Z</time>
      </trkpt>
      <trkpt lat="43.8444" lon="6.55706">
        <ele>1002.3115234</ele>
        <time>2010-10-10T10:50:53Z</time>
      </trkpt>
      <trkpt lat="43.8444" lon="6.55679">
        <ele>1002.7922363</ele>
        <time>2010-10-10T10:50:56Z</time>
      </trkpt>
      <trkpt lat="43.84441" lon="6.55638">
        <ele>999.4277344</ele>
        <time>2010-10-10T10:51:02Z</time>
      </trkpt>
      <trkpt lat="43.84443" lon="6.55613">
        <ele>994.140625</ele>
        <time>2010-10-10T10:51:07Z</time>
      </trkpt>
      <trkpt lat="43.84448" lon="6.55584">
        <ele>990.7758789</ele>
        <time>2010-10-10T10:51:12Z</time>
      </trkpt>
      <trkpt lat="43.84462" lon="6.55542">
        <ele>979.2399902</ele>
        <time>2010-10-10T10:51:18Z</time>
      </trkpt>
      <trkpt lat="43.84471" lon="6.55518">
        <ele>971.5493164</ele>
        <time>2010-10-10T10:51:22Z</time>
      </trkpt>
      <trkpt lat="43.84475" lon="6.55502">
        <ele>971.0688477</ele>
        <time>2010-10-10T10:51:24Z</time>
      </trkpt>
      <trkpt lat="43.84473" lon="6.55476">
        <ele>963.8588867</ele>
        <time>2010-10-10T10:51:28Z</time>
      </trkpt>
      <trkpt lat="43.84462" lon="6.5546">
        <ele>962.8977051</ele>
        <time>2010-10-10T10:51:31Z</time>
      </trkpt>
      <trkpt lat="43.84453" lon="6.55442">
        <ele>964.8203125</ele>
        <time>2010-10-10T10:51:35Z</time>
      </trkpt>
      <trkpt lat="43.84448" lon="6.55406">
        <ele>958.5717773</ele>
        <time>2010-10-10T10:51:41Z</time>
      </trkpt>
      <trkpt lat="43.84447" lon="6.554">
        <ele>957.1298828</ele>
        <time>2010-10-10T10:51:42Z</time>
      </trkpt>
      <trkpt lat="43.84443" lon="6.55365">
        <ele>956.168457</ele>
        <time>2010-10-10T10:51:47Z</time>
      </trkpt>
      <trkpt lat="43.84442" lon="6.5536">
        <ele>956.168457</ele>
        <time>2010-10-10T10:51:48Z</time>
      </trkpt>
      <trkpt lat="43.84436" lon="6.5532">
        <ele>952.322998</ele>
        <time>2010-10-10T10:51:54Z</time>
      </trkpt>
      <trkpt lat="43.84437" lon="6.55305">
        <ele>948.4777832</ele>
        <time>2010-10-10T10:51:57Z</time>
      </trkpt>
      <trkpt lat="43.84437" lon="6.55287">
        <ele>945.1132812</ele>
        <time>2010-10-10T10:52:01Z</time>
      </trkpt>
      <trkpt lat="43.84434" lon="6.55257">
        <ele>943.1906738</ele>
        <time>2010-10-10T10:52:06Z</time>
      </trkpt>
      <trkpt lat="43.84431" lon="6.55236">
        <ele>941.2680664</ele>
        <time>2010-10-10T10:52:10Z</time>
      </trkpt>
      <trkpt lat="43.84432" lon="6.55211">
        <ele>938.3840332</ele>
        <time>2010-10-10T10:52:15Z</time>
      </trkpt>
      <trkpt lat="43.84434" lon="6.55181">
        <ele>933.0966797</ele>
        <time>2010-10-10T10:52:21Z</time>
      </trkpt>
      <trkpt lat="43.84434" lon="6.55147">
        <ele>933.0966797</ele>
        <time>2010-10-10T10:52:27Z</time>
      </trkpt>
      <trkpt lat="43.84434" lon="6.55129">
        <ele>929.7321777</ele>
        <time>2010-10-10T10:52:32Z</time>
      </trkpt>
      <trkpt lat="43.84431" lon="6.55105">
        <ele>929.2514648</ele>
        <time>2010-10-10T10:52:36Z</time>
      </trkpt>
      <trkpt lat="43.84429" lon="6.55076">
        <ele>925.8869629</ele>
        <time>2010-10-10T10:52:41Z</time>
      </trkpt>
      <trkpt lat="43.84422" lon="6.55064">
        <ele>923.0029297</ele>
        <time>2010-10-10T10:52:45Z</time>
      </trkpt>
      <trkpt lat="43.84405" lon="6.55047">
        <ele>919.6384277</ele>
        <time>2010-10-10T10:52:58Z</time>
      </trkpt>
      <trkpt lat="43.8441" lon="6.5502">
        <ele>914.3510742</ele>
        <time>2010-10-10T10:53:03Z</time>
      </trkpt>
      <trkpt lat="43.84412" lon="6.5501">
        <ele>913.8703613</ele>
        <time>2010-10-10T10:53:05Z</time>
      </trkpt>
      <trkpt lat="43.84408" lon="6.54989">
        <ele>912.9091797</ele>
        <time>2010-10-10T10:53:09Z</time>
      </trkpt>
      <trkpt lat="43.84408" lon="6.54982">
        <ele>912.4284668</ele>
        <time>2010-10-10T10:53:10Z</time>
      </trkpt>
      <trkpt lat="43.84401" lon="6.54953">
        <ele>908.583252</ele>
        <time>2010-10-10T10:53:15Z</time>
      </trkpt>
      <trkpt lat="43.84388" lon="6.54932">
        <ele>906.1796875</ele>
        <time>2010-10-10T10:53:19Z</time>
      </trkpt>
      <trkpt lat="43.84388" lon="6.54902">
        <ele>899.9313965</ele>
        <time>2010-10-10T10:53:24Z</time>
      </trkpt>
      <trkpt lat="43.84385" lon="6.54887">
        <ele>898.4892578</ele>
        <time>2010-10-10T10:53:29Z</time>
      </trkpt>
      <trkpt lat="43.84386" lon="6.54883">
        <ele>897.5280762</ele>
        <time>2010-10-10T10:53:49Z</time>
      </trkpt>
      <trkpt lat="43.84391" lon="6.54862">
        <ele>888.8762207</ele>
        <time>2010-10-10T10:53:53Z</time>
      </trkpt>
      <trkpt lat="43.84397" lon="6.54838">
        <ele>881.6662598</ele>
        <time>2010-10-10T10:53:57Z</time>
      </trkpt>
      <trkpt lat="43.84398" lon="6.54815">
        <ele>880.7050781</ele>
        <time>2010-10-10T10:54:00Z</time>
      </trkpt>
      <trkpt lat="43.84392" lon="6.54772">
        <ele>879.2629395</ele>
        <time>2010-10-10T10:54:06Z</time>
      </trkpt>
      <trkpt lat="43.84385" lon="6.54739">
        <ele>881.185791</ele>
        <time>2010-10-10T10:54:12Z</time>
      </trkpt>
      <trkpt lat="43.84388" lon="6.54717">
        <ele>877.3405762</ele>
        <time>2010-10-10T10:54:17Z</time>
      </trkpt>
      <trkpt lat="43.84393" lon="6.54697">
        <ele>874.9370117</ele>
        <time>2010-10-10T10:54:21Z</time>
      </trkpt>
      <trkpt lat="43.84406" lon="6.54669">
        <ele>869.6499023</ele>
        <time>2010-10-10T10:54:27Z</time>
      </trkpt>
      <trkpt lat="43.84407" lon="6.54656">
        <ele>867.7270508</ele>
        <time>2010-10-10T10:54:32Z</time>
      </trkpt>
      <trkpt lat="43.84409" lon="6.54647">
        <ele>865.8046875</ele>
        <time>2010-10-10T10:54:34Z</time>
      </trkpt>
      <trkpt lat="43.84413" lon="6.54636">
        <ele>864.8432617</ele>
        <time>2010-10-10T10:54:36Z</time>
      </trkpt>
      <trkpt lat="43.84421" lon="6.54601">
        <ele>859.0751953</ele>
        <time>2010-10-10T10:54:41Z</time>
      </trkpt>
      <trkpt lat="43.84425" lon="6.54556">
        <ele>858.1140137</ele>
        <time>2010-10-10T10:54:47Z</time>
      </trkpt>
      <trkpt lat="43.8443" lon="6.54521">
        <ele>852.8266602</ele>
        <time>2010-10-10T10:54:53Z</time>
      </trkpt>
      <trkpt lat="43.84432" lon="6.54509">
        <ele>850.9040527</ele>
        <time>2010-10-10T10:54:55Z</time>
      </trkpt>
      <trkpt lat="43.84437" lon="6.54478">
        <ele>844.6555176</ele>
        <time>2010-10-10T10:55:00Z</time>
      </trkpt>
      <trkpt lat="43.84436" lon="6.54464">
        <ele>842.7329102</ele>
        <time>2010-10-10T10:55:02Z</time>
      </trkpt>
      <trkpt lat="43.84438" lon="6.54446">
        <ele>841.2907715</ele>
        <time>2010-10-10T10:55:05Z</time>
      </trkpt>
      <trkpt lat="43.8444" lon="6.54417">
        <ele>836.484375</ele>
        <time>2010-10-10T10:55:09Z</time>
      </trkpt>
      <trkpt lat="43.84447" lon="6.54366">
        <ele>829.2744141</ele>
        <time>2010-10-10T10:55:16Z</time>
      </trkpt>
      <trkpt lat="43.84451" lon="6.54319">
        <ele>824.4677734</ele>
        <time>2010-10-10T10:55:21Z</time>
      </trkpt>
      <trkpt lat="43.84456" lon="6.54286">
        <ele>819.661377</ele>
        <time>2010-10-10T10:55:25Z</time>
      </trkpt>
      <trkpt lat="43.8446" lon="6.54251">
        <ele>813.8933105</ele>
        <time>2010-10-10T10:55:30Z</time>
      </trkpt>
      <trkpt lat="43.84467" lon="6.54222">
        <ele>813.4128418</ele>
        <time>2010-10-10T10:55:35Z</time>
      </trkpt>
      <trkpt lat="43.84467" lon="6.54211">
        <ele>810.0478516</ele>
        <time>2010-10-10T10:55:37Z</time>
      </trkpt>
      <trkpt lat="43.84461" lon="6.54181">
        <ele>804.7607422</ele>
        <time>2010-10-10T10:55:44Z</time>
      </trkpt>
      <trkpt lat="43.84457" lon="6.54154">
        <ele>803.3188477</ele>
        <time>2010-10-10T10:55:49Z</time>
      </trkpt>
      <trkpt lat="43.84451" lon="6.54115">
        <ele>802.3574219</ele>
        <time>2010-10-10T10:55:56Z</time>
      </trkpt>
      <trkpt lat="43.84442" lon="6.54086">
        <ele>798.9929199</ele>
        <time>2010-10-10T10:56:02Z</time>
      </trkpt>
      <trkpt lat="43.84441" lon="6.54068">
        <ele>795.6281738</ele>
        <time>2010-10-10T10:56:05Z</time>
      </trkpt>
      <trkpt lat="43.8443" lon="6.54032">
        <ele>795.6281738</ele>
        <time>2010-10-10T10:56:11Z</time>
      </trkpt>
      <trkpt lat="43.84427" lon="6.54024">
        <ele>791.3022461</ele>
        <time>2010-10-10T10:56:15Z</time>
      </trkpt>
      <trkpt lat="43.84426" lon="6.54022">
        <ele>789.8603516</ele>
        <time>2010-10-10T10:56:17Z</time>
      </trkpt>
      <trkpt lat="43.84418" lon="6.54009">
        <ele>792.7443848</ele>
        <time>2010-10-10T10:56:23Z</time>
      </trkpt>
      <trkpt lat="43.84422" lon="6.54003">
        <ele>790.8215332</ele>
        <time>2010-10-10T10:56:26Z</time>
      </trkpt>
      <trkpt lat="43.84425" lon="6.53984">
        <ele>785.5344238</ele>
        <time>2010-10-10T10:56:32Z</time>
      </trkpt>
      <trkpt lat="43.84424" lon="6.5398">
        <ele>785.0539551</ele>
        <time>2010-10-10T10:56:33Z</time>
      </trkpt>
      <trkpt lat="43.84419" lon="6.5397">
        <ele>788.418457</ele>
        <time>2010-10-10T10:56:37Z</time>
      </trkpt>
      <trkpt lat="43.8441" lon="6.53948">
        <ele>790.3410645</ele>
        <time>2010-10-10T10:56:44Z</time>
      </trkpt>
      <trkpt lat="43.844" lon="6.5393">
        <ele>788.8991699</ele>
        <time>2010-10-10T10:56:51Z</time>
      </trkpt>
      <trkpt lat="43.84391" lon="6.53903">
        <ele>788.418457</ele>
        <time>2010-10-10T10:56:59Z</time>
      </trkpt>
      <trkpt lat="43.84387" lon="6.53894">
        <ele>788.418457</ele>
        <time>2010-10-10T10:57:04Z</time>
      </trkpt>
      <trkpt lat="43.84381" lon="6.53886">
        <ele>786.9763184</ele>
        <time>2010-10-10T10:57:08Z</time>
      </trkpt>
      <trkpt lat="43.84379" lon="6.53877">
        <ele>787.4570312</ele>
        <time>2010-10-10T10:57:15Z</time>
      </trkpt>
      <trkpt lat="43.84375" lon="6.53868">
        <ele>786.9763184</ele>
        <time>2010-10-10T10:57:21Z</time>
      </trkpt>
      <trkpt lat="43.84366" lon="6.53841">
        <ele>784.0925293</ele>
        <time>2010-10-10T10:57:29Z</time>
      </trkpt>
      <trkpt lat="43.84356" lon="6.53812">
        <ele>782.1699219</ele>
        <time>2010-10-10T10:57:36Z</time>
      </trkpt>
      <trkpt lat="43.84349" lon="6.53797">
        <ele>784.0925293</ele>
        <time>2010-10-10T10:57:42Z</time>
      </trkpt>
      <trkpt lat="43.84342" lon="6.53788">
        <ele>788.8991699</ele>
        <time>2010-10-10T10:57:48Z</time>
      </trkpt>
      <trkpt lat="43.84336" lon="6.53787">
        <ele>790.8215332</ele>
        <time>2010-10-10T10:57:52Z</time>
      </trkpt>
      <trkpt lat="43.84328" lon="6.53778">
        <ele>791.782959</ele>
        <time>2010-10-10T10:57:57Z</time>
      </trkpt>
      <trkpt lat="43.84307" lon="6.5378">
        <ele>788.8991699</ele>
        <time>2010-10-10T10:58:03Z</time>
      </trkpt>
      <trkpt lat="43.84299" lon="6.53784">
        <ele>788.8991699</ele>
        <time>2010-10-10T10:58:07Z</time>
      </trkpt>
      <trkpt lat="43.84296" lon="6.53784">
        <ele>789.3796387</ele>
        <time>2010-10-10T10:58:09Z</time>
      </trkpt>
      <trkpt lat="43.84299" lon="6.53786">
        <ele>788.418457</ele>
        <time>2010-10-10T10:58:14Z</time>
      </trkpt>
      <trkpt lat="43.84299" lon="6.53784">
        <ele>787.9377441</ele>
        <time>2010-10-10T10:58:16Z</time>
      </trkpt>
      <trkpt lat="43.84285" lon="6.53785">
        <ele>786.4958496</ele>
        <time>2010-10-10T10:58:21Z</time>
      </trkpt>
      <trkpt lat="43.84276" lon="6.53768">
        <ele>782.6506348</ele>
        <time>2010-10-10T10:58:25Z</time>
      </trkpt>
      <trkpt lat="43.8428" lon="6.53757">
        <ele>781.2087402</ele>
        <time>2010-10-10T10:58:27Z</time>
      </trkpt>
      <trkpt lat="43.84287" lon="6.53723">
        <ele>778.3244629</ele>
        <time>2010-10-10T10:58:33Z</time>
      </trkpt>
      <trkpt lat="43.84294" lon="6.53694">
        <ele>775.4404297</ele>
        <time>2010-10-10T10:58:38Z</time>
      </trkpt>
      <trkpt lat="43.84303" lon="6.53665">
        <ele>773.0373535</ele>
        <time>2010-10-10T10:58:43Z</time>
      </trkpt>
      <trkpt lat="43.84307" lon="6.53648">
        <ele>772.0759277</ele>
        <time>2010-10-10T10:58:47Z</time>
      </trkpt>
      <trkpt lat="43.84311" lon="6.53633">
        <ele>769.6728516</ele>
        <time>2010-10-10T10:58:50Z</time>
      </trkpt>
      <trkpt lat="43.84323" lon="6.53603">
        <ele>764.8662109</ele>
        <time>2010-10-10T10:58:56Z</time>
      </trkpt>
      <trkpt lat="43.84322" lon="6.53601">
        <ele>762.9433594</ele>
        <time>2010-10-10T10:58:59Z</time>
      </trkpt>
      <trkpt lat="43.84324" lon="6.53594">
        <ele>764.385498</ele>
        <time>2010-10-10T10:59:03Z</time>
      </trkpt>
      <trkpt lat="43.84325" lon="6.53592">
        <ele>763.904541</ele>
        <time>2010-10-10T10:59:04Z</time>
      </trkpt>
      <trkpt lat="43.84328" lon="6.53579">
        <ele>763.904541</ele>
        <time>2010-10-10T10:59:09Z</time>
      </trkpt>
      <trkpt lat="43.84329" lon="6.53567">
        <ele>761.5014648</ele>
        <time>2010-10-10T10:59:11Z</time>
      </trkpt>
      <trkpt lat="43.84333" lon="6.53542">
        <ele>757.65625</ele>
        <time>2010-10-10T10:59:16Z</time>
      </trkpt>
      <trkpt lat="43.8434" lon="6.53524">
        <ele>756.6948242</ele>
        <time>2010-10-10T10:59:21Z</time>
      </trkpt>
      <trkpt lat="43.8435" lon="6.53509">
        <ele>755.2529297</ele>
        <time>2010-10-10T10:59:26Z</time>
      </trkpt>
      <trkpt lat="43.84352" lon="6.53507">
        <ele>755.7336426</ele>
        <time>2010-10-10T10:59:27Z</time>
      </trkpt>
      <trkpt lat="43.84356" lon="6.53488">
        <ele>753.3303223</ele>
        <time>2010-10-10T10:59:32Z</time>
      </trkpt>
      <trkpt lat="43.84366" lon="6.53468">
        <ele>751.4077148</ele>
        <time>2010-10-10T10:59:37Z</time>
      </trkpt>
      <trkpt lat="43.84367" lon="6.53465">
        <ele>749.4851074</ele>
        <time>2010-10-10T10:59:38Z</time>
      </trkpt>
      <trkpt lat="43.84369" lon="6.53453">
        <ele>749.0043945</ele>
        <time>2010-10-10T10:59:42Z</time>
      </trkpt>
      <trkpt lat="43.84374" lon="6.53439">
        <ele>746.1203613</ele>
        <time>2010-10-10T10:59:46Z</time>
      </trkpt>
      <trkpt lat="43.84374" lon="6.53437">
        <ele>744.1977539</ele>
        <time>2010-10-10T10:59:53Z</time>
      </trkpt>
      <trkpt lat="43.84375" lon="6.53428">
        <ele>743.717041</ele>
        <time>2010-10-10T11:00:13Z</time>
      </trkpt>
      <trkpt lat="43.84379" lon="6.53409">
        <ele>741.7944336</ele>
        <time>2010-10-10T11:00:17Z</time>
      </trkpt>
      <trkpt lat="43.84372" lon="6.53369">
        <ele>738.4299316</ele>
        <time>2010-10-10T11:00:23Z</time>
      </trkpt>
      <trkpt lat="43.84363" lon="6.53318">
        <ele>734.1040039</ele>
        <time>2010-10-10T11:00:30Z</time>
      </trkpt>
      <trkpt lat="43.84353" lon="6.5328">
        <ele>736.0266113</ele>
        <time>2010-10-10T11:00:36Z</time>
      </trkpt>
      <trkpt lat="43.84345" lon="6.53239">
        <ele>735.5458984</ele>
        <time>2010-10-10T11:00:43Z</time>
      </trkpt>
      <trkpt lat="43.84336" lon="6.532">
        <ele>735.0654297</ele>
        <time>2010-10-10T11:00:50Z</time>
      </trkpt>
      <trkpt lat="43.84331" lon="6.53181">
        <ele>734.1040039</ele>
        <time>2010-10-10T11:00:55Z</time>
      </trkpt>
      <trkpt lat="43.84329" lon="6.53178">
        <ele>735.0654297</ele>
        <time>2010-10-10T11:00:57Z</time>
      </trkpt>
      <trkpt lat="43.84326" lon="6.53193">
        <ele>738.4299316</ele>
        <time>2010-10-10T11:01:02Z</time>
      </trkpt>
      <trkpt lat="43.84325" lon="6.532">
        <ele>738.4299316</ele>
        <time>2010-10-10T11:01:06Z</time>
      </trkpt>
      <trkpt lat="43.84326" lon="6.53192">
        <ele>731.7004395</ele>
        <time>2010-10-10T11:01:24Z</time>
      </trkpt>
      <trkpt lat="43.84327" lon="6.53191">
        <ele>732.1813965</ele>
        <time>2010-10-10T11:01:25Z</time>
      </trkpt>
      <trkpt lat="43.84329" lon="6.53174">
        <ele>733.1425781</ele>
        <time>2010-10-10T11:01:31Z</time>
      </trkpt>
      <trkpt lat="43.84328" lon="6.53169">
        <ele>733.623291</ele>
        <time>2010-10-10T11:01:32Z</time>
      </trkpt>
      <trkpt lat="43.84313" lon="6.53116">
        <ele>732.6621094</ele>
        <time>2010-10-10T11:01:41Z</time>
      </trkpt>
      <trkpt lat="43.84297" lon="6.53057">
        <ele>733.1425781</ele>
        <time>2010-10-10T11:01:50Z</time>
      </trkpt>
      <trkpt lat="43.84284" lon="6.52998">
        <ele>733.623291</ele>
        <time>2010-10-10T11:01:58Z</time>
      </trkpt>
      <trkpt lat="43.84269" lon="6.52938">
        <ele>732.1813965</ele>
        <time>2010-10-10T11:02:06Z</time>
      </trkpt>
      <trkpt lat="43.84256" lon="6.52883">
        <ele>731.7004395</ele>
        <time>2010-10-10T11:02:14Z</time>
      </trkpt>
      <trkpt lat="43.84245" lon="6.52839">
        <ele>731.7004395</ele>
        <time>2010-10-10T11:02:21Z</time>
      </trkpt>
      <trkpt lat="43.84235" lon="6.52795">
        <ele>730.2585449</ele>
        <time>2010-10-10T11:02:29Z</time>
      </trkpt>
      <trkpt lat="43.84229" lon="6.52765">
        <ele>728.8166504</ele>
        <time>2010-10-10T11:02:35Z</time>
      </trkpt>
      <trkpt lat="43.84216" lon="6.52715">
        <ele>727.3747559</ele>
        <time>2010-10-10T11:02:43Z</time>
      </trkpt>
      <trkpt lat="43.84209" lon="6.52672">
        <ele>727.3747559</ele>
        <time>2010-10-10T11:02:49Z</time>
      </trkpt>
      <trkpt lat="43.84208" lon="6.52665">
        <ele>727.3747559</ele>
        <time>2010-10-10T11:02:50Z</time>
      </trkpt>
      <trkpt lat="43.84205" lon="6.5264">
        <ele>727.8552246</ele>
        <time>2010-10-10T11:02:54Z</time>
      </trkpt>
      <trkpt lat="43.84193" lon="6.52634">
        <ele>727.8552246</ele>
        <time>2010-10-10T11:02:58Z</time>
      </trkpt>
      <trkpt lat="43.84181" lon="6.52646">
        <ele>734.1040039</ele>
        <time>2010-10-10T11:03:02Z</time>
      </trkpt>
      <trkpt lat="43.8418" lon="6.52651">
        <ele>736.987793</ele>
        <time>2010-10-10T11:03:03Z</time>
      </trkpt>
      <trkpt lat="43.84162" lon="6.5269">
        <ele>742.2751465</ele>
        <time>2010-10-10T11:03:10Z</time>
      </trkpt>
      <trkpt lat="43.84153" lon="6.52706">
        <ele>743.717041</ele>
        <time>2010-10-10T11:03:13Z</time>
      </trkpt>
      <trkpt lat="43.84143" lon="6.5273">
        <ele>750.4465332</ele>
        <time>2010-10-10T11:03:18Z</time>
      </trkpt>
      <trkpt lat="43.84136" lon="6.52759">
        <ele>752.8496094</ele>
        <time>2010-10-10T11:03:25Z</time>
      </trkpt>
      <trkpt lat="43.84139" lon="6.52793">
        <ele>759.0981445</ele>
        <time>2010-10-10T11:03:32Z</time>
      </trkpt>
      <trkpt lat="43.84142" lon="6.52825">
        <ele>769.1921387</ele>
        <time>2010-10-10T11:03:38Z</time>
      </trkpt>
      <trkpt lat="43.84139" lon="6.52862">
        <ele>774.9599609</ele>
        <time>2010-10-10T11:03:44Z</time>
      </trkpt>
      <trkpt lat="43.84136" lon="6.52868">
        <ele>773.0373535</ele>
        <time>2010-10-10T11:03:45Z</time>
      </trkpt>
      <trkpt lat="43.8412" lon="6.52911">
        <ele>765.8276367</ele>
        <time>2010-10-10T11:03:52Z</time>
      </trkpt>
      <trkpt lat="43.84124" lon="6.52939">
        <ele>761.020752</ele>
        <time>2010-10-10T11:03:58Z</time>
      </trkpt>
      <trkpt lat="43.8413" lon="6.52975">
        <ele>753.8110352</ele>
        <time>2010-10-10T11:04:05Z</time>
      </trkpt>
      <trkpt lat="43.84134" lon="6.52994">
        <ele>750.4465332</ele>
        <time>2010-10-10T11:04:10Z</time>
      </trkpt>
      <trkpt lat="43.84134" lon="6.53017">
        <ele>752.3688965</ele>
        <time>2010-10-10T11:04:16Z</time>
      </trkpt>
      <trkpt lat="43.84126" lon="6.53042">
        <ele>755.2529297</ele>
        <time>2010-10-10T11:04:22Z</time>
      </trkpt>
      <trkpt lat="43.84121" lon="6.53072">
        <ele>759.0981445</ele>
        <time>2010-10-10T11:04:28Z</time>
      </trkpt>
      <trkpt lat="43.84116" lon="6.53097">
        <ele>760.0593262</ele>
        <time>2010-10-10T11:04:34Z</time>
      </trkpt>
      <trkpt lat="43.84111" lon="6.53127">
        <ele>765.3469238</ele>
        <time>2010-10-10T11:04:41Z</time>
      </trkpt>
      <trkpt lat="43.84113" lon="6.53134">
        <ele>769.6728516</ele>
        <time>2010-10-10T11:04:43Z</time>
      </trkpt>
      <trkpt lat="43.84128" lon="6.53157">
        <ele>775.9211426</ele>
        <time>2010-10-10T11:04:49Z</time>
      </trkpt>
      <trkpt lat="43.84142" lon="6.53183">
        <ele>773.0373535</ele>
        <time>2010-10-10T11:04:56Z</time>
      </trkpt>
      <trkpt lat="43.84156" lon="6.53204">
        <ele>767.2695312</ele>
        <time>2010-10-10T11:05:03Z</time>
      </trkpt>
      <trkpt lat="43.84157" lon="6.53207">
        <ele>766.7888184</ele>
        <time>2010-10-10T11:05:04Z</time>
      </trkpt>
      <trkpt lat="43.84158" lon="6.53218">
        <ele>762.4626465</ele>
        <time>2010-10-10T11:05:09Z</time>
      </trkpt>
      <trkpt lat="43.84159" lon="6.53219">
        <ele>761.9821777</ele>
        <time>2010-10-10T11:05:10Z</time>
      </trkpt>
      <trkpt lat="43.84167" lon="6.53238">
        <ele>757.1755371</ele>
        <time>2010-10-10T11:05:18Z</time>
      </trkpt>
      <trkpt lat="43.84167" lon="6.53256">
        <ele>753.8110352</ele>
        <time>2010-10-10T11:05:25Z</time>
      </trkpt>
      <trkpt lat="43.84161" lon="6.53263">
        <ele>755.7336426</ele>
        <time>2010-10-10T11:05:30Z</time>
      </trkpt>
      <trkpt lat="43.84152" lon="6.53266">
        <ele>754.7722168</ele>
        <time>2010-10-10T11:05:36Z</time>
      </trkpt>
      <trkpt lat="43.84148" lon="6.53258">
        <ele>753.8110352</ele>
        <time>2010-10-10T11:05:41Z</time>
      </trkpt>
      <trkpt lat="43.84147" lon="6.53239">
        <ele>753.3303223</ele>
        <time>2010-10-10T11:05:48Z</time>
      </trkpt>
      <trkpt lat="43.84141" lon="6.53225">
        <ele>752.3688965</ele>
        <time>2010-10-10T11:05:56Z</time>
      </trkpt>
      <trkpt lat="43.84129" lon="6.53222">
        <ele>754.291748</ele>
        <time>2010-10-10T11:06:02Z</time>
      </trkpt>
      <trkpt lat="43.84115" lon="6.53227">
        <ele>757.65625</ele>
        <time>2010-10-10T11:06:09Z</time>
      </trkpt>
      <trkpt lat="43.84114" lon="6.53228">
        <ele>759.0981445</ele>
        <time>2010-10-10T11:06:10Z</time>
      </trkpt>
      <trkpt lat="43.84106" lon="6.53225">
        <ele>764.8662109</ele>
        <time>2010-10-10T11:06:16Z</time>
      </trkpt>
      <trkpt lat="43.84105" lon="6.53225">
        <ele>762.9433594</ele>
        <time>2010-10-10T11:06:24Z</time>
      </trkpt>
      <trkpt lat="43.84105" lon="6.53224">
        <ele>763.4240723</ele>
        <time>2010-10-10T11:06:39Z</time>
      </trkpt>
      <trkpt lat="43.84098" lon="6.53226">
        <ele>760.0593262</ele>
        <time>2010-10-10T11:07:40Z</time>
      </trkpt>
      <trkpt lat="43.84099" lon="6.53225">
        <ele>761.020752</ele>
        <time>2010-10-10T11:08:01Z</time>
      </trkpt>
      <trkpt lat="43.84103" lon="6.53227">
        <ele>759.5788574</ele>
        <time>2010-10-10T11:08:26Z</time>
      </trkpt>
      <trkpt lat="43.84103" lon="6.53229">
        <ele>759.5788574</ele>
        <time>2010-10-10T11:08:32Z</time>
      </trkpt>
      <trkpt lat="43.84102" lon="6.53229">
        <ele>759.5788574</ele>
        <time>2010-10-10T11:08:33Z</time>
      </trkpt>
      <trkpt lat="43.84098" lon="6.53221">
        <ele>761.9821777</ele>
        <time>2010-10-10T11:08:39Z</time>
      </trkpt>
      <trkpt lat="43.84098" lon="6.53216">
        <ele>761.9821777</ele>
        <time>2010-10-10T11:08:41Z</time>
      </trkpt>
      <trkpt lat="43.84095" lon="6.53195">
        <ele>761.9821777</ele>
        <time>2010-10-10T11:08:49Z</time>
      </trkpt>
      <trkpt lat="43.84091" lon="6.53181">
        <ele>761.5014648</ele>
        <time>2010-10-10T11:08:55Z</time>
      </trkpt>
      <trkpt lat="43.84087" lon="6.53159">
        <ele>760.5400391</ele>
        <time>2010-10-10T11:09:05Z</time>
      </trkpt>
      <trkpt lat="43.84086" lon="6.5314">
        <ele>761.5014648</ele>
        <time>2010-10-10T11:09:13Z</time>
      </trkpt>
      <trkpt lat="43.84086" lon="6.53122">
        <ele>763.4240723</ele>
        <time>2010-10-10T11:09:20Z</time>
      </trkpt>
      <trkpt lat="43.84083" lon="6.53104">
        <ele>762.9433594</ele>
        <time>2010-10-10T11:09:28Z</time>
      </trkpt>
      <trkpt lat="43.84078" lon="6.53091">
        <ele>764.385498</ele>
        <time>2010-10-10T11:09:35Z</time>
      </trkpt>
      <trkpt lat="43.84073" lon="6.53075">
        <ele>765.3469238</ele>
        <time>2010-10-10T11:09:43Z</time>
      </trkpt>
      <trkpt lat="43.84068" lon="6.53064">
        <ele>765.3469238</ele>
        <time>2010-10-10T11:09:50Z</time>
      </trkpt>
      <trkpt lat="43.84065" lon="6.53051">
        <ele>767.75</ele>
        <time>2010-10-10T11:09:58Z</time>
      </trkpt>
      <trkpt lat="43.84059" lon="6.5303">
        <ele>768.7114258</ele>
        <time>2010-10-10T11:10:08Z</time>
      </trkpt>
      <trkpt lat="43.84053" lon="6.53018">
        <ele>770.6340332</ele>
        <time>2010-10-10T11:10:15Z</time>
      </trkpt>
      <trkpt lat="43.84044" lon="6.53005">
        <ele>772.5566406</ele>
        <time>2010-10-10T11:10:23Z</time>
      </trkpt>
      <trkpt lat="43.84044" lon="6.53003">
        <ele>772.5566406</ele>
        <time>2010-10-10T11:10:24Z</time>
      </trkpt>
      <trkpt lat="43.84045" lon="6.52983">
        <ele>775.4404297</ele>
        <time>2010-10-10T11:10:33Z</time>
      </trkpt>
      <trkpt lat="43.84045" lon="6.52969">
        <ele>776.8825684</ele>
        <time>2010-10-10T11:10:40Z</time>
      </trkpt>
      <trkpt lat="43.84044" lon="6.52955">
        <ele>777.3632812</ele>
        <time>2010-10-10T11:10:46Z</time>
      </trkpt>
      <trkpt lat="43.8404" lon="6.52944">
        <ele>778.3244629</ele>
        <time>2010-10-10T11:10:53Z</time>
      </trkpt>
      <trkpt lat="43.84037" lon="6.52933">
        <ele>780.7280273</ele>
        <time>2010-10-10T11:10:59Z</time>
      </trkpt>
      <trkpt lat="43.84032" lon="6.52915">
        <ele>782.1699219</ele>
        <time>2010-10-10T11:11:08Z</time>
      </trkpt>
      <trkpt lat="43.84025" lon="6.52898">
        <ele>783.6118164</ele>
        <time>2010-10-10T11:11:16Z</time>
      </trkpt>
      <trkpt lat="43.84019" lon="6.52883">
        <ele>784.0925293</ele>
        <time>2010-10-10T11:11:23Z</time>
      </trkpt>
      <trkpt lat="43.84016" lon="6.52869">
        <ele>785.0539551</ele>
        <time>2010-10-10T11:11:29Z</time>
      </trkpt>
      <trkpt lat="43.84016" lon="6.52855">
        <ele>787.4570312</ele>
        <time>2010-10-10T11:11:36Z</time>
      </trkpt>
      <trkpt lat="43.84015" lon="6.52839">
        <ele>789.8603516</ele>
        <time>2010-10-10T11:11:43Z</time>
      </trkpt>
      <trkpt lat="43.84011" lon="6.52816">
        <ele>788.418457</ele>
        <time>2010-10-10T11:11:52Z</time>
      </trkpt>
      <trkpt lat="43.8401" lon="6.52796">
        <ele>787.9377441</ele>
        <time>2010-10-10T11:12:00Z</time>
      </trkpt>
      <trkpt lat="43.84009" lon="6.52777">
        <ele>789.3796387</ele>
        <time>2010-10-10T11:12:09Z</time>
      </trkpt>
      <trkpt lat="43.84007" lon="6.52761">
        <ele>791.3022461</ele>
        <time>2010-10-10T11:12:17Z</time>
      </trkpt>
      <trkpt lat="43.84001" lon="6.5276">
        <ele>793.2248535</ele>
        <time>2010-10-10T11:12:21Z</time>
      </trkpt>
      <trkpt lat="43.83996" lon="6.52767">
        <ele>794.666748</ele>
        <time>2010-10-10T11:12:25Z</time>
      </trkpt>
      <trkpt lat="43.8399" lon="6.52792">
        <ele>794.1862793</ele>
        <time>2010-10-10T11:12:34Z</time>
      </trkpt>
      <trkpt lat="43.83989" lon="6.52816">
        <ele>795.6281738</ele>
        <time>2010-10-10T11:12:41Z</time>
      </trkpt>
      <trkpt lat="43.83984" lon="6.52835">
        <ele>798.512207</ele>
        <time>2010-10-10T11:12:48Z</time>
      </trkpt>
      <trkpt lat="43.8398" lon="6.52852">
        <ele>801.8769531</ele>
        <time>2010-10-10T11:12:55Z</time>
      </trkpt>
      <trkpt lat="43.83973" lon="6.52865">
        <ele>801.3962402</ele>
        <time>2010-10-10T11:13:01Z</time>
      </trkpt>
      <trkpt lat="43.83966" lon="6.52879">
        <ele>801.3962402</ele>
        <time>2010-10-10T11:13:08Z</time>
      </trkpt>
      <trkpt lat="43.83961" lon="6.52892">
        <ele>802.3574219</ele>
        <time>2010-10-10T11:13:14Z</time>
      </trkpt>
      <trkpt lat="43.83962" lon="6.52902">
        <ele>808.605957</ele>
        <time>2010-10-10T11:13:19Z</time>
      </trkpt>
      <trkpt lat="43.8397" lon="6.52918">
        <ele>813.8933105</ele>
        <time>2010-10-10T11:13:26Z</time>
      </trkpt>
      <trkpt lat="43.83974" lon="6.52934">
        <ele>817.2580566</ele>
        <time>2010-10-10T11:13:33Z</time>
      </trkpt>
      <trkpt lat="43.83974" lon="6.52951">
        <ele>819.661377</ele>
        <time>2010-10-10T11:13:40Z</time>
      </trkpt>
      <trkpt lat="43.83973" lon="6.52968">
        <ele>819.661377</ele>
        <time>2010-10-10T11:13:47Z</time>
      </trkpt>
      <trkpt lat="43.8397" lon="6.52988">
        <ele>815.8161621</ele>
        <time>2010-10-10T11:13:54Z</time>
      </trkpt>
      <trkpt lat="43.83964" lon="6.53006">
        <ele>814.8547363</ele>
        <time>2010-10-10T11:14:02Z</time>
      </trkpt>
      <trkpt lat="43.83961" lon="6.53024">
        <ele>817.2580566</ele>
        <time>2010-10-10T11:14:10Z</time>
      </trkpt>
      <trkpt lat="43.83959" lon="6.53046">
        <ele>820.6225586</ele>
        <time>2010-10-10T11:14:19Z</time>
      </trkpt>
      <trkpt lat="43.83958" lon="6.53063">
        <ele>822.545166</ele>
        <time>2010-10-10T11:14:26Z</time>
      </trkpt>
      <trkpt lat="43.83959" lon="6.53081">
        <ele>825.909668</ele>
        <time>2010-10-10T11:14:34Z</time>
      </trkpt>
      <trkpt lat="43.83964" lon="6.53096">
        <ele>826.3903809</ele>
        <time>2010-10-10T11:14:40Z</time>
      </trkpt>
      <trkpt lat="43.83965" lon="6.53112">
        <ele>827.8322754</ele>
        <time>2010-10-10T11:14:47Z</time>
      </trkpt>
      <trkpt lat="43.83964" lon="6.53114">
        <ele>828.3132324</ele>
        <time>2010-10-10T11:14:48Z</time>
      </trkpt>
      <trkpt lat="43.8397" lon="6.53129">
        <ele>828.7939453</ele>
        <time>2010-10-10T11:14:54Z</time>
      </trkpt>
      <trkpt lat="43.83975" lon="6.53151">
        <ele>828.3132324</ele>
        <time>2010-10-10T11:15:03Z</time>
      </trkpt>
      <trkpt lat="43.83976" lon="6.53168">
        <ele>826.3903809</ele>
        <time>2010-10-10T11:15:10Z</time>
      </trkpt>
      <trkpt lat="43.83971" lon="6.53184">
        <ele>828.3132324</ele>
        <time>2010-10-10T11:15:18Z</time>
      </trkpt>
      <trkpt lat="43.83964" lon="6.53191">
        <ele>829.755127</ele>
        <time>2010-10-10T11:15:24Z</time>
      </trkpt>
      <trkpt lat="43.83955" lon="6.53197">
        <ele>830.7165527</ele>
        <time>2010-10-10T11:15:31Z</time>
      </trkpt>
      <trkpt lat="43.83941" lon="6.53203">
        <ele>830.7165527</ele>
        <time>2010-10-10T11:15:39Z</time>
      </trkpt>
      <trkpt lat="43.83925" lon="6.53211">
        <ele>835.0424805</ele>
        <time>2010-10-10T11:15:50Z</time>
      </trkpt>
      <trkpt lat="43.83913" lon="6.53217">
        <ele>836.9648438</ele>
        <time>2010-10-10T11:15:58Z</time>
      </trkpt>
      <trkpt lat="43.83896" lon="6.53226">
        <ele>838.8876953</ele>
        <time>2010-10-10T11:16:07Z</time>
      </trkpt>
      <trkpt lat="43.83891" lon="6.5324">
        <ele>843.6940918</ele>
        <time>2010-10-10T11:16:13Z</time>
      </trkpt>
      <trkpt lat="43.8389" lon="6.53254">
        <ele>844.6555176</ele>
        <time>2010-10-10T11:16:18Z</time>
      </trkpt>
      <trkpt lat="43.83888" lon="6.53269">
        <ele>840.8100586</ele>
        <time>2010-10-10T11:16:25Z</time>
      </trkpt>
      <trkpt lat="43.83891" lon="6.53288">
        <ele>840.8100586</ele>
        <time>2010-10-10T11:16:34Z</time>
      </trkpt>
      <trkpt lat="43.83886" lon="6.53304">
        <ele>839.3681641</ele>
        <time>2010-10-10T11:16:41Z</time>
      </trkpt>
      <trkpt lat="43.83879" lon="6.53319">
        <ele>839.848877</ele>
        <time>2010-10-10T11:16:49Z</time>
      </trkpt>
      <trkpt lat="43.83868" lon="6.53337">
        <ele>840.3295898</ele>
        <time>2010-10-10T11:16:58Z</time>
      </trkpt>
      <trkpt lat="43.83855" lon="6.53349">
        <ele>840.3295898</ele>
        <time>2010-10-10T11:17:06Z</time>
      </trkpt>
      <trkpt lat="43.83846" lon="6.53355">
        <ele>842.2521973</ele>
        <time>2010-10-10T11:17:13Z</time>
      </trkpt>
      <trkpt lat="43.83836" lon="6.53366">
        <ele>843.2133789</ele>
        <time>2010-10-10T11:17:19Z</time>
      </trkpt>
      <trkpt lat="43.83837" lon="6.53381">
        <ele>845.6169434</ele>
        <time>2010-10-10T11:17:25Z</time>
      </trkpt>
      <trkpt lat="43.83842" lon="6.53402">
        <ele>848.0202637</ele>
        <time>2010-10-10T11:17:34Z</time>
      </trkpt>
      <trkpt lat="43.83844" lon="6.53422">
        <ele>851.3847656</ele>
        <time>2010-10-10T11:17:42Z</time>
      </trkpt>
      <trkpt lat="43.83849" lon="6.53439">
        <ele>856.671875</ele>
        <time>2010-10-10T11:17:51Z</time>
      </trkpt>
      <trkpt lat="43.83843" lon="6.53449">
        <ele>856.1911621</ele>
        <time>2010-10-10T11:17:56Z</time>
      </trkpt>
      <trkpt lat="43.83841" lon="6.53448">
        <ele>856.1911621</ele>
        <time>2010-10-10T11:17:58Z</time>
      </trkpt>
      <trkpt lat="43.83835" lon="6.53435">
        <ele>853.7880859</ele>
        <time>2010-10-10T11:18:05Z</time>
      </trkpt>
      <trkpt lat="43.83832" lon="6.53414">
        <ele>854.2687988</ele>
        <time>2010-10-10T11:18:13Z</time>
      </trkpt>
      <trkpt lat="43.83826" lon="6.5339">
        <ele>853.7880859</ele>
        <time>2010-10-10T11:18:23Z</time>
      </trkpt>
      <trkpt lat="43.83819" lon="6.53379">
        <ele>854.2687988</ele>
        <time>2010-10-10T11:18:29Z</time>
      </trkpt>
      <trkpt lat="43.83812" lon="6.53368">
        <ele>853.307373</ele>
        <time>2010-10-10T11:18:35Z</time>
      </trkpt>
      <trkpt lat="43.83814" lon="6.53354">
        <ele>852.3459473</ele>
        <time>2010-10-10T11:18:41Z</time>
      </trkpt>
      <trkpt lat="43.83823" lon="6.53339">
        <ele>852.3459473</ele>
        <time>2010-10-10T11:18:49Z</time>
      </trkpt>
      <trkpt lat="43.83835" lon="6.53323">
        <ele>853.307373</ele>
        <time>2010-10-10T11:18:58Z</time>
      </trkpt>
      <trkpt lat="43.83846" lon="6.53307">
        <ele>855.2299805</ele>
        <time>2010-10-10T11:19:06Z</time>
      </trkpt>
      <trkpt lat="43.83848" lon="6.53286">
        <ele>856.1911621</ele>
        <time>2010-10-10T11:19:14Z</time>
      </trkpt>
      <trkpt lat="43.83844" lon="6.53265">
        <ele>857.6333008</ele>
        <time>2010-10-10T11:19:23Z</time>
      </trkpt>
      <trkpt lat="43.83839" lon="6.53246">
        <ele>859.0751953</ele>
        <time>2010-10-10T11:19:32Z</time>
      </trkpt>
      <trkpt lat="43.83833" lon="6.53231">
        <ele>860.0366211</ele>
        <time>2010-10-10T11:19:40Z</time>
      </trkpt>
      <trkpt lat="43.83832" lon="6.53228">
        <ele>860.9980469</ele>
        <time>2010-10-10T11:19:42Z</time>
      </trkpt>
      <trkpt lat="43.83832" lon="6.5322">
        <ele>865.3239746</ele>
        <time>2010-10-10T11:19:47Z</time>
      </trkpt>
      <trkpt lat="43.83827" lon="6.53211">
        <ele>872.0529785</ele>
        <time>2010-10-10T11:19:56Z</time>
      </trkpt>
      <trkpt lat="43.83822" lon="6.53193">
        <ele>872.5336914</ele>
        <time>2010-10-10T11:20:04Z</time>
      </trkpt>
      <trkpt lat="43.83821" lon="6.53178">
        <ele>865.8046875</ele>
        <time>2010-10-10T11:20:11Z</time>
      </trkpt>
      <trkpt lat="43.83832" lon="6.53166">
        <ele>865.8046875</ele>
        <time>2010-10-10T11:20:19Z</time>
      </trkpt>
      <trkpt lat="43.83846" lon="6.53154">
        <ele>865.3239746</ele>
        <time>2010-10-10T11:20:28Z</time>
      </trkpt>
      <trkpt lat="43.83861" lon="6.53143">
        <ele>867.246582</ele>
        <time>2010-10-10T11:20:37Z</time>
      </trkpt>
      <trkpt lat="43.83873" lon="6.53133">
        <ele>868.2077637</ele>
        <time>2010-10-10T11:20:45Z</time>
      </trkpt>
      <trkpt lat="43.83881" lon="6.53124">
        <ele>869.6499023</ele>
        <time>2010-10-10T11:20:50Z</time>
      </trkpt>
      <trkpt lat="43.83879" lon="6.53116">
        <ele>870.611084</ele>
        <time>2010-10-10T11:20:54Z</time>
      </trkpt>
      <trkpt lat="43.83871" lon="6.531">
        <ele>873.4951172</ele>
        <time>2010-10-10T11:21:04Z</time>
      </trkpt>
      <trkpt lat="43.83864" lon="6.53086">
        <ele>875.8981934</ele>
        <time>2010-10-10T11:21:13Z</time>
      </trkpt>
      <trkpt lat="43.83867" lon="6.53079">
        <ele>881.185791</ele>
        <time>2010-10-10T11:21:20Z</time>
      </trkpt>
      <trkpt lat="43.83873" lon="6.53081">
        <ele>880.7050781</ele>
        <time>2010-10-10T11:21:53Z</time>
      </trkpt>
      <trkpt lat="43.83865" lon="6.53082">
        <ele>874.4562988</ele>
        <time>2010-10-10T11:22:08Z</time>
      </trkpt>
      <trkpt lat="43.83851" lon="6.53065">
        <ele>873.9755859</ele>
        <time>2010-10-10T11:22:16Z</time>
      </trkpt>
      <trkpt lat="43.83846" lon="6.5305">
        <ele>877.8210449</ele>
        <time>2010-10-10T11:22:23Z</time>
      </trkpt>
      <trkpt lat="43.83836" lon="6.53032">
        <ele>883.5888672</ele>
        <time>2010-10-10T11:22:32Z</time>
      </trkpt>
      <trkpt lat="43.83826" lon="6.5302">
        <ele>885.0310059</ele>
        <time>2010-10-10T11:22:39Z</time>
      </trkpt>
      <trkpt lat="43.83817" lon="6.53007">
        <ele>888.3955078</ele>
        <time>2010-10-10T11:22:47Z</time>
      </trkpt>
      <trkpt lat="43.83811" lon="6.5299">
        <ele>892.2409668</ele>
        <time>2010-10-10T11:22:55Z</time>
      </trkpt>
      <trkpt lat="43.8381" lon="6.52977">
        <ele>896.0861816</ele>
        <time>2010-10-10T11:23:01Z</time>
      </trkpt>
      <trkpt lat="43.83805" lon="6.52958">
        <ele>894.644043</ele>
        <time>2010-10-10T11:23:09Z</time>
      </trkpt>
      <trkpt lat="43.83803" lon="6.52957">
        <ele>893.6828613</ele>
        <time>2010-10-10T11:23:11Z</time>
      </trkpt>
      <trkpt lat="43.83797" lon="6.52961">
        <ele>895.1247559</ele>
        <time>2010-10-10T11:23:16Z</time>
      </trkpt>
      <trkpt lat="43.83799" lon="6.52975">
        <ele>897.5280762</ele>
        <time>2010-10-10T11:23:20Z</time>
      </trkpt>
      <trkpt lat="43.83803" lon="6.52982">
        <ele>899.4506836</ele>
        <time>2010-10-10T11:23:22Z</time>
      </trkpt>
      <trkpt lat="43.83812" lon="6.53004">
        <ele>902.3344727</ele>
        <time>2010-10-10T11:23:30Z</time>
      </trkpt>
      <trkpt lat="43.83817" lon="6.53025">
        <ele>899.9313965</ele>
        <time>2010-10-10T11:23:39Z</time>
      </trkpt>
      <trkpt lat="43.83814" lon="6.53035">
        <ele>899.9313965</ele>
        <time>2010-10-10T11:23:45Z</time>
      </trkpt>
      <trkpt lat="43.83817" lon="6.53046">
        <ele>900.8925781</ele>
        <time>2010-10-10T11:23:51Z</time>
      </trkpt>
      <trkpt lat="43.83816" lon="6.53054">
        <ele>901.8540039</ele>
        <time>2010-10-10T11:23:56Z</time>
      </trkpt>
      <trkpt lat="43.83824" lon="6.53064">
        <ele>903.2958984</ele>
        <time>2010-10-10T11:24:00Z</time>
      </trkpt>
      <trkpt lat="43.83829" lon="6.5308">
        <ele>904.737793</ele>
        <time>2010-10-10T11:24:07Z</time>
      </trkpt>
      <trkpt lat="43.8383" lon="6.531">
        <ele>898.4892578</ele>
        <time>2010-10-10T11:24:14Z</time>
      </trkpt>
      <trkpt lat="43.83825" lon="6.53108">
        <ele>899.4506836</ele>
        <time>2010-10-10T11:24:20Z</time>
      </trkpt>
      <trkpt lat="43.83817" lon="6.53117">
        <ele>899.9313965</ele>
        <time>2010-10-10T11:24:28Z</time>
      </trkpt>
      <trkpt lat="43.83813" lon="6.53124">
        <ele>897.5280762</ele>
        <time>2010-10-10T11:24:34Z</time>
      </trkpt>
      <trkpt lat="43.83799" lon="6.53127">
        <ele>906.6604004</ele>
        <time>2010-10-10T11:24:40Z</time>
      </trkpt>
      <trkpt lat="43.83797" lon="6.53128">
        <ele>907.1411133</ele>
        <time>2010-10-10T11:24:42Z</time>
      </trkpt>
      <trkpt lat="43.83788" lon="6.53131">
        <ele>905.2185059</ele>
        <time>2010-10-10T11:24:48Z</time>
      </trkpt>
      <trkpt lat="43.83778" lon="6.53135">
        <ele>902.8151855</ele>
        <time>2010-10-10T11:24:54Z</time>
      </trkpt>
      <trkpt lat="43.83773" lon="6.53138">
        <ele>904.737793</ele>
        <time>2010-10-10T11:24:58Z</time>
      </trkpt>
      <trkpt lat="43.8376" lon="6.53146">
        <ele>909.0639648</ele>
        <time>2010-10-10T11:25:06Z</time>
      </trkpt>
      <trkpt lat="43.83748" lon="6.53153">
        <ele>915.7932129</ele>
        <time>2010-10-10T11:25:12Z</time>
      </trkpt>
      <trkpt lat="43.83728" lon="6.53162">
        <ele>926.3676758</ele>
        <time>2010-10-10T11:25:20Z</time>
      </trkpt>
      <trkpt lat="43.83722" lon="6.53177">
        <ele>927.8095703</ele>
        <time>2010-10-10T11:25:27Z</time>
      </trkpt>
      <trkpt lat="43.83723" lon="6.53187">
        <ele>930.6936035</ele>
        <time>2010-10-10T11:25:32Z</time>
      </trkpt>
      <trkpt lat="43.83735" lon="6.53204">
        <ele>923.4836426</ele>
        <time>2010-10-10T11:25:41Z</time>
      </trkpt>
      <trkpt lat="43.83737" lon="6.53214">
        <ele>923.9641113</ele>
        <time>2010-10-10T11:25:46Z</time>
      </trkpt>
      <trkpt lat="43.83748" lon="6.53235">
        <ele>923.4836426</ele>
        <time>2010-10-10T11:25:53Z</time>
      </trkpt>
      <trkpt lat="43.8375" lon="6.5325">
        <ele>923.9641113</ele>
        <time>2010-10-10T11:26:00Z</time>
      </trkpt>
      <trkpt lat="43.83746" lon="6.5327">
        <ele>918.1962891</ele>
        <time>2010-10-10T11:26:08Z</time>
      </trkpt>
      <trkpt lat="43.83747" lon="6.53279">
        <ele>917.7155762</ele>
        <time>2010-10-10T11:26:11Z</time>
      </trkpt>
      <trkpt lat="43.83738" lon="6.53283">
        <ele>918.677002</ele>
        <time>2010-10-10T11:26:15Z</time>
      </trkpt>
      <trkpt lat="43.83734" lon="6.53286">
        <ele>919.1577148</ele>
        <time>2010-10-10T11:26:17Z</time>
      </trkpt>
      <trkpt lat="43.83731" lon="6.53293">
        <ele>918.677002</ele>
        <time>2010-10-10T11:26:22Z</time>
      </trkpt>
      <trkpt lat="43.83727" lon="6.53304">
        <ele>918.677002</ele>
        <time>2010-10-10T11:26:29Z</time>
      </trkpt>
      <trkpt lat="43.83721" lon="6.53317">
        <ele>920.5996094</ele>
        <time>2010-10-10T11:26:37Z</time>
      </trkpt>
      <trkpt lat="43.83721" lon="6.5332">
        <ele>921.0803223</ele>
        <time>2010-10-10T11:26:39Z</time>
      </trkpt>
      <trkpt lat="43.83716" lon="6.53327">
        <ele>925.40625</ele>
        <time>2010-10-10T11:26:44Z</time>
      </trkpt>
      <trkpt lat="43.83707" lon="6.53339">
        <ele>923.4836426</ele>
        <time>2010-10-10T11:26:51Z</time>
      </trkpt>
      <trkpt lat="43.83693" lon="6.53353">
        <ele>925.40625</ele>
        <time>2010-10-10T11:26:59Z</time>
      </trkpt>
      <trkpt lat="43.83686" lon="6.53368">
        <ele>926.3676758</ele>
        <time>2010-10-10T11:27:07Z</time>
      </trkpt>
      <trkpt lat="43.83686" lon="6.5337">
        <ele>926.8483887</ele>
        <time>2010-10-10T11:27:08Z</time>
      </trkpt>
      <trkpt lat="43.83689" lon="6.53384">
        <ele>929.2514648</ele>
        <time>2010-10-10T11:27:16Z</time>
      </trkpt>
      <trkpt lat="43.83691" lon="6.53398">
        <ele>932.135498</ele>
        <time>2010-10-10T11:27:24Z</time>
      </trkpt>
      <trkpt lat="43.83694" lon="6.53414">
        <ele>935.0195312</ele>
        <time>2010-10-10T11:27:31Z</time>
      </trkpt>
      <trkpt lat="43.83693" lon="6.53432">
        <ele>932.6162109</ele>
        <time>2010-10-10T11:27:39Z</time>
      </trkpt>
      <trkpt lat="43.83694" lon="6.53449">
        <ele>934.5388184</ele>
        <time>2010-10-10T11:27:48Z</time>
      </trkpt>
      <trkpt lat="43.83695" lon="6.53463">
        <ele>936.4614258</ele>
        <time>2010-10-10T11:27:55Z</time>
      </trkpt>
      <trkpt lat="43.83698" lon="6.53484">
        <ele>937.4226074</ele>
        <time>2010-10-10T11:28:05Z</time>
      </trkpt>
      <trkpt lat="43.83701" lon="6.53501">
        <ele>937.4226074</ele>
        <time>2010-10-10T11:28:12Z</time>
      </trkpt>
      <trkpt lat="43.83699" lon="6.53504">
        <ele>938.3840332</ele>
        <time>2010-10-10T11:28:14Z</time>
      </trkpt>
      <trkpt lat="43.83678" lon="6.53513">
        <ele>940.7873535</ele>
        <time>2010-10-10T11:28:23Z</time>
      </trkpt>
      <trkpt lat="43.83668" lon="6.53521">
        <ele>943.1906738</ele>
        <time>2010-10-10T11:28:29Z</time>
      </trkpt>
      <trkpt lat="43.8366" lon="6.53527">
        <ele>944.6325684</ele>
        <time>2010-10-10T11:28:35Z</time>
      </trkpt>
      <trkpt lat="43.83654" lon="6.53533">
        <ele>947.0358887</ele>
        <time>2010-10-10T11:28:41Z</time>
      </trkpt>
      <trkpt lat="43.83645" lon="6.53538">
        <ele>948.4777832</ele>
        <time>2010-10-10T11:28:47Z</time>
      </trkpt>
      <trkpt lat="43.83638" lon="6.53545">
        <ele>948.9584961</ele>
        <time>2010-10-10T11:28:53Z</time>
      </trkpt>
      <trkpt lat="43.83631" lon="6.53551">
        <ele>944.6325684</ele>
        <time>2010-10-10T11:29:00Z</time>
      </trkpt>
      <trkpt lat="43.83625" lon="6.53553">
        <ele>940.7873535</ele>
        <time>2010-10-10T11:29:07Z</time>
      </trkpt>
      <trkpt lat="43.83613" lon="6.53555">
        <ele>941.7487793</ele>
        <time>2010-10-10T11:29:13Z</time>
      </trkpt>
      <trkpt lat="43.83604" lon="6.53558">
        <ele>950.4006348</ele>
        <time>2010-10-10T11:29:19Z</time>
      </trkpt>
      <trkpt lat="43.83596" lon="6.53565">
        <ele>951.3618164</ele>
        <time>2010-10-10T11:29:26Z</time>
      </trkpt>
      <trkpt lat="43.83583" lon="6.53575">
        <ele>958.5717773</ele>
        <time>2010-10-10T11:29:35Z</time>
      </trkpt>
      <trkpt lat="43.83578" lon="6.5358">
        <ele>958.5717773</ele>
        <time>2010-10-10T11:29:41Z</time>
      </trkpt>
      <trkpt lat="43.83561" lon="6.53584">
        <ele>960.9750977</ele>
        <time>2010-10-10T11:29:49Z</time>
      </trkpt>
      <trkpt lat="43.83553" lon="6.53589">
        <ele>961.4558105</ele>
        <time>2010-10-10T11:29:56Z</time>
      </trkpt>
      <trkpt lat="43.83538" lon="6.5359">
        <ele>963.8588867</ele>
        <time>2010-10-10T11:30:04Z</time>
      </trkpt>
      <trkpt lat="43.83535" lon="6.5359">
        <ele>958.0913086</ele>
        <time>2010-10-10T11:30:10Z</time>
      </trkpt>
      <trkpt lat="43.8353" lon="6.53587">
        <ele>951.8425293</ele>
        <time>2010-10-10T11:30:16Z</time>
      </trkpt>
      <trkpt lat="43.83519" lon="6.53588">
        <ele>957.6105957</ele>
        <time>2010-10-10T11:30:21Z</time>
      </trkpt>
      <trkpt lat="43.83511" lon="6.53584">
        <ele>959.5332031</ele>
        <time>2010-10-10T11:30:27Z</time>
      </trkpt>
      <trkpt lat="43.83505" lon="6.53585">
        <ele>964.8203125</ele>
        <time>2010-10-10T11:30:29Z</time>
      </trkpt>
      <trkpt lat="43.83488" lon="6.53592">
        <ele>983.0852051</ele>
        <time>2010-10-10T11:30:38Z</time>
      </trkpt>
      <trkpt lat="43.83485" lon="6.53604">
        <ele>982.1240234</ele>
        <time>2010-10-10T11:30:44Z</time>
      </trkpt>
      <trkpt lat="43.83482" lon="6.53615">
        <ele>984.0466309</ele>
        <time>2010-10-10T11:30:50Z</time>
      </trkpt>
      <trkpt lat="43.8347" lon="6.53623">
        <ele>988.3728027</ele>
        <time>2010-10-10T11:30:56Z</time>
      </trkpt>
      <trkpt lat="43.83469" lon="6.53629">
        <ele>985.9692383</ele>
        <time>2010-10-10T11:31:02Z</time>
      </trkpt>
      <trkpt lat="43.83458" lon="6.53632">
        <ele>983.565918</ele>
        <time>2010-10-10T11:31:08Z</time>
      </trkpt>
      <trkpt lat="43.83456" lon="6.5364">
        <ele>985.4885254</ele>
        <time>2010-10-10T11:31:14Z</time>
      </trkpt>
      <trkpt lat="43.83444" lon="6.53646">
        <ele>980.201416</ele>
        <time>2010-10-10T11:31:21Z</time>
      </trkpt>
      <trkpt lat="43.83439" lon="6.53657">
        <ele>973.9528809</ele>
        <time>2010-10-10T11:31:29Z</time>
      </trkpt>
      <trkpt lat="43.83429" lon="6.53673">
        <ele>968.1848145</ele>
        <time>2010-10-10T11:31:37Z</time>
      </trkpt>
      <trkpt lat="43.83428" lon="6.53679">
        <ele>964.8203125</ele>
        <time>2010-10-10T11:31:42Z</time>
      </trkpt>
      <trkpt lat="43.83428" lon="6.53695">
        <ele>959.0524902</ele>
        <time>2010-10-10T11:31:51Z</time>
      </trkpt>
      <trkpt lat="43.83429" lon="6.53697">
        <ele>958.5717773</ele>
        <time>2010-10-10T11:31:52Z</time>
      </trkpt>
      <trkpt lat="43.83426" lon="6.53709">
        <ele>954.2458496</ele>
        <time>2010-10-10T11:31:59Z</time>
      </trkpt>
      <trkpt lat="43.83425" lon="6.53726">
        <ele>949.439209</ele>
        <time>2010-10-10T11:32:06Z</time>
      </trkpt>
      <trkpt lat="43.83426" lon="6.53735">
        <ele>943.1906738</ele>
        <time>2010-10-10T11:32:13Z</time>
      </trkpt>
      <trkpt lat="43.83427" lon="6.53737">
        <ele>942.2294922</ele>
        <time>2010-10-10T11:32:14Z</time>
      </trkpt>
      <trkpt lat="43.83408" lon="6.5375">
        <ele>950.8811035</ele>
        <time>2010-10-10T11:32:22Z</time>
      </trkpt>
      <trkpt lat="43.834" lon="6.53761">
        <ele>958.0913086</ele>
        <time>2010-10-10T11:32:28Z</time>
      </trkpt>
      <trkpt lat="43.83398" lon="6.53765">
        <ele>960.4943848</ele>
        <time>2010-10-10T11:32:30Z</time>
      </trkpt>
      <trkpt lat="43.83387" lon="6.53762">
        <ele>964.3395996</ele>
        <time>2010-10-10T11:32:36Z</time>
      </trkpt>
      <trkpt lat="43.83371" lon="6.53746">
        <ele>980.6821289</ele>
        <time>2010-10-10T11:32:42Z</time>
      </trkpt>
      <trkpt lat="43.8337" lon="6.53728">
        <ele>983.0852051</ele>
        <time>2010-10-10T11:32:50Z</time>
      </trkpt>
      <trkpt lat="43.83373" lon="6.53711">
        <ele>985.4885254</ele>
        <time>2010-10-10T11:32:56Z</time>
      </trkpt>
      <trkpt lat="43.83377" lon="6.53696">
        <ele>985.9692383</ele>
        <time>2010-10-10T11:33:03Z</time>
      </trkpt>
      <trkpt lat="43.83378" lon="6.53684">
        <ele>987.4111328</ele>
        <time>2010-10-10T11:33:09Z</time>
      </trkpt>
      <trkpt lat="43.83382" lon="6.53669">
        <ele>991.7373047</ele>
        <time>2010-10-10T11:33:16Z</time>
      </trkpt>
      <trkpt lat="43.83385" lon="6.53657">
        <ele>991.7373047</ele>
        <time>2010-10-10T11:33:22Z</time>
      </trkpt>
      <trkpt lat="43.83386" lon="6.53646">
        <ele>997.0244141</ele>
        <time>2010-10-10T11:33:28Z</time>
      </trkpt>
      <trkpt lat="43.83389" lon="6.5363">
        <ele>1000.3891602</ele>
        <time>2010-10-10T11:33:35Z</time>
      </trkpt>
      <trkpt lat="43.83394" lon="6.53619">
        <ele>996.5439453</ele>
        <time>2010-10-10T11:33:40Z</time>
      </trkpt>
      <trkpt lat="43.83398" lon="6.53615">
        <ele>996.0632324</ele>
        <time>2010-10-10T11:33:44Z</time>
      </trkpt>
      <trkpt lat="43.83398" lon="6.53613">
        <ele>995.5825195</ele>
        <time>2010-10-10T11:33:45Z</time>
      </trkpt>
      <trkpt lat="43.83399" lon="6.536">
        <ele>999.4277344</ele>
        <time>2010-10-10T11:33:52Z</time>
      </trkpt>
      <trkpt lat="43.83397" lon="6.53592">
        <ele>1006.1569824</ele>
        <time>2010-10-10T11:33:57Z</time>
      </trkpt>
      <trkpt lat="43.83399" lon="6.53577">
        <ele>1012.4055176</ele>
        <time>2010-10-10T11:34:05Z</time>
      </trkpt>
      <trkpt lat="43.83406" lon="6.53574">
        <ele>1016.2507324</ele>
        <time>2010-10-10T11:34:10Z</time>
      </trkpt>
      <trkpt lat="43.83417" lon="6.53569">
        <ele>1014.328125</ele>
        <time>2010-10-10T11:34:18Z</time>
      </trkpt>
      <trkpt lat="43.83424" lon="6.53564">
        <ele>1014.8088379</ele>
        <time>2010-10-10T11:34:24Z</time>
      </trkpt>
      <trkpt lat="43.83429" lon="6.53555">
        <ele>1020.0961914</ele>
        <time>2010-10-10T11:34:28Z</time>
      </trkpt>
      <trkpt lat="43.83429" lon="6.53541">
        <ele>1026.3447266</ele>
        <time>2010-10-10T11:34:37Z</time>
      </trkpt>
      <trkpt lat="43.83433" lon="6.5353">
        <ele>1028.267334</ele>
        <time>2010-10-10T11:34:44Z</time>
      </trkpt>
      <trkpt lat="43.83438" lon="6.53518">
        <ele>1030.6706543</ele>
        <time>2010-10-10T11:34:51Z</time>
      </trkpt>
      <trkpt lat="43.83446" lon="6.53502">
        <ele>1030.6706543</ele>
        <time>2010-10-10T11:34:59Z</time>
      </trkpt>
      <trkpt lat="43.83459" lon="6.53489">
        <ele>1019.6154785</ele>
        <time>2010-10-10T11:35:05Z</time>
      </trkpt>
      <trkpt lat="43.83475" lon="6.53476">
        <ele>1004.7150879</ele>
        <time>2010-10-10T11:35:10Z</time>
      </trkpt>
      <trkpt lat="43.83487" lon="6.53447">
        <ele>989.3339844</ele>
        <time>2010-10-10T11:35:17Z</time>
      </trkpt>
      <trkpt lat="43.8349" lon="6.53442">
        <ele>991.7373047</ele>
        <time>2010-10-10T11:35:21Z</time>
      </trkpt>
      <trkpt lat="43.83495" lon="6.53431">
        <ele>991.7373047</ele>
        <time>2010-10-10T11:35:28Z</time>
      </trkpt>
      <trkpt lat="43.83504" lon="6.53421">
        <ele>991.2565918</ele>
        <time>2010-10-10T11:35:35Z</time>
      </trkpt>
      <trkpt lat="43.83512" lon="6.53416">
        <ele>994.140625</ele>
        <time>2010-10-10T11:35:41Z</time>
      </trkpt>
      <trkpt lat="43.83519" lon="6.53403">
        <ele>997.9858398</ele>
        <time>2010-10-10T11:35:48Z</time>
      </trkpt>
      <trkpt lat="43.83519" lon="6.5338">
        <ele>999.9084473</ele>
        <time>2010-10-10T11:35:56Z</time>
      </trkpt>
      <trkpt lat="43.83519" lon="6.53359">
        <ele>998.9470215</ele>
        <time>2010-10-10T11:36:04Z</time>
      </trkpt>
      <trkpt lat="43.83523" lon="6.53345">
        <ele>1004.7150879</ele>
        <time>2010-10-10T11:36:12Z</time>
      </trkpt>
      <trkpt lat="43.83526" lon="6.53332">
        <ele>1008.079834</ele>
        <time>2010-10-10T11:36:19Z</time>
      </trkpt>
      <trkpt lat="43.83526" lon="6.53317">
        <ele>1014.328125</ele>
        <time>2010-10-10T11:36:27Z</time>
      </trkpt>
      <trkpt lat="43.83527" lon="6.53304">
        <ele>1015.7702637</ele>
        <time>2010-10-10T11:36:33Z</time>
      </trkpt>
      <trkpt lat="43.8353" lon="6.53287">
        <ele>1007.5991211</ele>
        <time>2010-10-10T11:36:41Z</time>
      </trkpt>
      <trkpt lat="43.83526" lon="6.53273">
        <ele>1017.2121582</ele>
        <time>2010-10-10T11:36:48Z</time>
      </trkpt>
      <trkpt lat="43.83523" lon="6.53259">
        <ele>1025.3833008</ele>
        <time>2010-10-10T11:36:55Z</time>
      </trkpt>
      <trkpt lat="43.83525" lon="6.53243">
        <ele>1014.8088379</ele>
        <time>2010-10-10T11:37:02Z</time>
      </trkpt>
      <trkpt lat="43.83529" lon="6.5324">
        <ele>1012.4055176</ele>
        <time>2010-10-10T11:37:04Z</time>
      </trkpt>
      <trkpt lat="43.83538" lon="6.53228">
        <ele>1009.0410156</ele>
        <time>2010-10-10T11:37:12Z</time>
      </trkpt>
      <trkpt lat="43.83543" lon="6.53218">
        <ele>1011.9250488</ele>
        <time>2010-10-10T11:37:20Z</time>
      </trkpt>
      <trkpt lat="43.83546" lon="6.53206">
        <ele>1012.4055176</ele>
        <time>2010-10-10T11:37:28Z</time>
      </trkpt>
      <trkpt lat="43.83546" lon="6.53203">
        <ele>1014.8088379</ele>
        <time>2010-10-10T11:37:30Z</time>
      </trkpt>
      <trkpt lat="43.83547" lon="6.53189">
        <ele>1021.0576172</ele>
        <time>2010-10-10T11:37:39Z</time>
      </trkpt>
      <trkpt lat="43.83547" lon="6.53176">
        <ele>1024.902832</ele>
        <time>2010-10-10T11:37:47Z</time>
      </trkpt>
      <trkpt lat="43.83546" lon="6.53167">
        <ele>1026.8254395</ele>
        <time>2010-10-10T11:37:51Z</time>
      </trkpt>
      <trkpt lat="43.83551" lon="6.53151">
        <ele>1031.6318359</ele>
        <time>2010-10-10T11:37:59Z</time>
      </trkpt>
      <trkpt lat="43.83557" lon="6.53137">
        <ele>1030.1899414</ele>
        <time>2010-10-10T11:38:07Z</time>
      </trkpt>
      <trkpt lat="43.83559" lon="6.53126">
        <ele>1033.0737305</ele>
        <time>2010-10-10T11:38:14Z</time>
      </trkpt>
      <trkpt lat="43.83558" lon="6.53118">
        <ele>1031.6318359</ele>
        <time>2010-10-10T11:38:17Z</time>
      </trkpt>
      <trkpt lat="43.83564" lon="6.53104">
        <ele>1026.8254395</ele>
        <time>2010-10-10T11:38:25Z</time>
      </trkpt>
      <trkpt lat="43.83567" lon="6.53091">
        <ele>1026.3447266</ele>
        <time>2010-10-10T11:38:32Z</time>
      </trkpt>
      <trkpt lat="43.83572" lon="6.5308">
        <ele>1028.7480469</ele>
        <time>2010-10-10T11:38:39Z</time>
      </trkpt>
      <trkpt lat="43.83571" lon="6.53076">
        <ele>1030.6706543</ele>
        <time>2010-10-10T11:38:41Z</time>
      </trkpt>
      <trkpt lat="43.83571" lon="6.5307">
        <ele>1032.1125488</ele>
        <time>2010-10-10T11:38:44Z</time>
      </trkpt>
      <trkpt lat="43.83578" lon="6.53054">
        <ele>1033.5544434</ele>
        <time>2010-10-10T11:38:51Z</time>
      </trkpt>
      <trkpt lat="43.83588" lon="6.5304">
        <ele>1033.5544434</ele>
        <time>2010-10-10T11:38:58Z</time>
      </trkpt>
      <trkpt lat="43.83593" lon="6.5303">
        <ele>1034.5158691</ele>
        <time>2010-10-10T11:39:05Z</time>
      </trkpt>
      <trkpt lat="43.83604" lon="6.53022">
        <ele>1029.7092285</ele>
        <time>2010-10-10T11:39:12Z</time>
      </trkpt>
      <trkpt lat="43.83608" lon="6.53018">
        <ele>1030.6706543</ele>
        <time>2010-10-10T11:39:16Z</time>
      </trkpt>
      <trkpt lat="43.83606" lon="6.53003">
        <ele>1033.0737305</ele>
        <time>2010-10-10T11:39:24Z</time>
      </trkpt>
      <trkpt lat="43.83602" lon="6.52992">
        <ele>1036.9191895</ele>
        <time>2010-10-10T11:39:30Z</time>
      </trkpt>
      <trkpt lat="43.83597" lon="6.52986">
        <ele>1038.3613281</ele>
        <time>2010-10-10T11:39:37Z</time>
      </trkpt>
      <trkpt lat="43.83593" lon="6.52984">
        <ele>1037.8806152</ele>
        <time>2010-10-10T11:39:44Z</time>
      </trkpt>
      <trkpt lat="43.83592" lon="6.5298">
        <ele>1038.3613281</ele>
        <time>2010-10-10T11:39:50Z</time>
      </trkpt>
      <trkpt lat="43.83588" lon="6.52972">
        <ele>1038.842041</ele>
        <time>2010-10-10T11:39:56Z</time>
      </trkpt>
      <trkpt lat="43.83582" lon="6.52968">
        <ele>1032.1125488</ele>
        <time>2010-10-10T11:40:02Z</time>
      </trkpt>
      <trkpt lat="43.83577" lon="6.52954">
        <ele>1036.4387207</ele>
        <time>2010-10-10T11:40:11Z</time>
      </trkpt>
      <trkpt lat="43.83576" lon="6.52944">
        <ele>1036.4387207</ele>
        <time>2010-10-10T11:40:17Z</time>
      </trkpt>
      <trkpt lat="43.83574" lon="6.52934">
        <ele>1037.3999023</ele>
        <time>2010-10-10T11:40:21Z</time>
      </trkpt>
      <trkpt lat="43.83562" lon="6.52918">
        <ele>1044.6096191</ele>
        <time>2010-10-10T11:40:29Z</time>
      </trkpt>
      <trkpt lat="43.83558" lon="6.5291">
        <ele>1046.5324707</ele>
        <time>2010-10-10T11:40:36Z</time>
      </trkpt>
      <trkpt lat="43.83548" lon="6.52893">
        <ele>1047.9743652</ele>
        <time>2010-10-10T11:40:45Z</time>
      </trkpt>
      <trkpt lat="43.83541" lon="6.5288">
        <ele>1049.8969727</ele>
        <time>2010-10-10T11:40:51Z</time>
      </trkpt>
      <trkpt lat="43.83542" lon="6.52867">
        <ele>1054.2231445</ele>
        <time>2010-10-10T11:40:58Z</time>
      </trkpt>
      <trkpt lat="43.83544" lon="6.52859">
        <ele>1051.3388672</ele>
        <time>2010-10-10T11:41:03Z</time>
      </trkpt>
      <trkpt lat="43.83533" lon="6.52845">
        <ele>1052.300293</ele>
        <time>2010-10-10T11:41:12Z</time>
      </trkpt>
      <trkpt lat="43.83528" lon="6.5283">
        <ele>1051.3388672</ele>
        <time>2010-10-10T11:41:20Z</time>
      </trkpt>
      <trkpt lat="43.83527" lon="6.52825">
        <ele>1051.8195801</ele>
        <time>2010-10-10T11:41:23Z</time>
      </trkpt>
      <trkpt lat="43.83528" lon="6.52816">
        <ele>1055.6650391</ele>
        <time>2010-10-10T11:41:27Z</time>
      </trkpt>
      <trkpt lat="43.83538" lon="6.528">
        <ele>1056.1455078</ele>
        <time>2010-10-10T11:41:36Z</time>
      </trkpt>
      <trkpt lat="43.83539" lon="6.52799">
        <ele>1056.1455078</ele>
        <time>2010-10-10T11:41:37Z</time>
      </trkpt>
      <trkpt lat="43.83544" lon="6.52793">
        <ele>1056.1455078</ele>
        <time>2010-10-10T11:41:41Z</time>
      </trkpt>
      <trkpt lat="43.83556" lon="6.52785">
        <ele>1054.2231445</ele>
        <time>2010-10-10T11:41:50Z</time>
      </trkpt>
      <trkpt lat="43.83571" lon="6.52781">
        <ele>1052.300293</ele>
        <time>2010-10-10T11:41:58Z</time>
      </trkpt>
      <trkpt lat="43.83589" lon="6.52776">
        <ele>1045.5710449</ele>
        <time>2010-10-10T11:42:09Z</time>
      </trkpt>
      <trkpt lat="43.83598" lon="6.52768">
        <ele>1050.8581543</ele>
        <time>2010-10-10T11:42:18Z</time>
      </trkpt>
      <trkpt lat="43.83597" lon="6.52754">
        <ele>1051.8195801</ele>
        <time>2010-10-10T11:42:25Z</time>
      </trkpt>
      <trkpt lat="43.83598" lon="6.52736">
        <ele>1054.7036133</ele>
        <time>2010-10-10T11:42:35Z</time>
      </trkpt>
      <trkpt lat="43.83597" lon="6.52722">
        <ele>1057.1069336</ele>
        <time>2010-10-10T11:42:42Z</time>
      </trkpt>
      <trkpt lat="43.83594" lon="6.52709">
        <ele>1062.394043</ele>
        <time>2010-10-10T11:42:50Z</time>
      </trkpt>
      <trkpt lat="43.83595" lon="6.52695">
        <ele>1061.9135742</ele>
        <time>2010-10-10T11:42:57Z</time>
      </trkpt>
      <trkpt lat="43.83597" lon="6.52683">
        <ele>1062.8747559</ele>
        <time>2010-10-10T11:43:04Z</time>
      </trkpt>
      <trkpt lat="43.836" lon="6.52679">
        <ele>1066.7199707</ele>
        <time>2010-10-10T11:43:07Z</time>
      </trkpt>
      <trkpt lat="43.8361" lon="6.52668">
        <ele>1064.7973633</ele>
        <time>2010-10-10T11:43:16Z</time>
      </trkpt>
      <trkpt lat="43.83619" lon="6.5266">
        <ele>1064.7973633</ele>
        <time>2010-10-10T11:43:22Z</time>
      </trkpt>
      <trkpt lat="43.83622" lon="6.52647">
        <ele>1066.7199707</ele>
        <time>2010-10-10T11:43:29Z</time>
      </trkpt>
      <trkpt lat="43.83624" lon="6.5263">
        <ele>1066.2392578</ele>
        <time>2010-10-10T11:43:36Z</time>
      </trkpt>
      <trkpt lat="43.83627" lon="6.52612">
        <ele>1065.7587891</ele>
        <time>2010-10-10T11:43:44Z</time>
      </trkpt>
      <trkpt lat="43.83629" lon="6.526">
        <ele>1070.5654297</ele>
        <time>2010-10-10T11:43:50Z</time>
      </trkpt>
      <trkpt lat="43.83635" lon="6.52582">
        <ele>1075.3718262</ele>
        <time>2010-10-10T11:43:58Z</time>
      </trkpt>
      <trkpt lat="43.83639" lon="6.52581">
        <ele>1075.8525391</ele>
        <time>2010-10-10T11:44:00Z</time>
      </trkpt>
      <trkpt lat="43.8364" lon="6.52579">
        <ele>1076.333252</ele>
        <time>2010-10-10T11:44:06Z</time>
      </trkpt>
      <trkpt lat="43.83646" lon="6.52579">
        <ele>1071.5266113</ele>
        <time>2010-10-10T11:45:52Z</time>
      </trkpt>
      <trkpt lat="43.83644" lon="6.52582">
        <ele>1074.8913574</ele>
        <time>2010-10-10T11:46:18Z</time>
      </trkpt>
      <trkpt lat="43.83643" lon="6.52583">
        <ele>1076.8139648</ele>
        <time>2010-10-10T11:46:28Z</time>
      </trkpt>
      <trkpt lat="43.83642" lon="6.52583">
        <ele>1079.6977539</ele>
        <time>2010-10-10T11:47:24Z</time>
      </trkpt>
      <trkpt lat="43.83642" lon="6.52584">
        <ele>1079.6977539</ele>
        <time>2010-10-10T11:47:44Z</time>
      </trkpt>
      <trkpt lat="43.8364" lon="6.52583">
        <ele>1079.217041</ele>
        <time>2010-10-10T11:49:45Z</time>
      </trkpt>
      <trkpt lat="43.83642" lon="6.52582">
        <ele>1076.333252</ele>
        <time>2010-10-10T11:50:12Z</time>
      </trkpt>
      <trkpt lat="43.83644" lon="6.52577">
        <ele>1073.9299316</ele>
        <time>2010-10-10T11:50:22Z</time>
      </trkpt>
      <trkpt lat="43.83649" lon="6.52559">
        <ele>1068.6428223</ele>
        <time>2010-10-10T11:50:26Z</time>
      </trkpt>
      <trkpt lat="43.83657" lon="6.5255">
        <ele>1069.1235352</ele>
        <time>2010-10-10T11:50:29Z</time>
      </trkpt>
      <trkpt lat="43.83666" lon="6.52532">
        <ele>1067.2006836</ele>
        <time>2010-10-10T11:50:34Z</time>
      </trkpt>
      <trkpt lat="43.83674" lon="6.52505">
        <ele>1068.1621094</ele>
        <time>2010-10-10T11:50:39Z</time>
      </trkpt>
      <trkpt lat="43.83678" lon="6.52494">
        <ele>1064.7973633</ele>
        <time>2010-10-10T11:50:43Z</time>
      </trkpt>
      <trkpt lat="43.83678" lon="6.52477">
        <ele>1069.604248</ele>
        <time>2010-10-10T11:50:50Z</time>
      </trkpt>
      <trkpt lat="43.83679" lon="6.52476">
        <ele>1069.604248</ele>
        <time>2010-10-10T11:50:51Z</time>
      </trkpt>
      <trkpt lat="43.83682" lon="6.52462">
        <ele>1068.1621094</ele>
        <time>2010-10-10T11:50:59Z</time>
      </trkpt>
      <trkpt lat="43.83687" lon="6.52457">
        <ele>1068.6428223</ele>
        <time>2010-10-10T11:51:04Z</time>
      </trkpt>
      <trkpt lat="43.83694" lon="6.52441">
        <ele>1063.3554688</ele>
        <time>2010-10-10T11:51:08Z</time>
      </trkpt>
      <trkpt lat="43.83705" lon="6.52417">
        <ele>1062.394043</ele>
        <time>2010-10-10T11:51:12Z</time>
      </trkpt>
      <trkpt lat="43.83713" lon="6.52395">
        <ele>1061.4328613</ele>
        <time>2010-10-10T11:51:17Z</time>
      </trkpt>
      <trkpt lat="43.83727" lon="6.52376">
        <ele>1057.5876465</ele>
        <time>2010-10-10T11:51:21Z</time>
      </trkpt>
      <trkpt lat="43.83748" lon="6.52349">
        <ele>1056.6262207</ele>
        <time>2010-10-10T11:51:26Z</time>
      </trkpt>
      <trkpt lat="43.83779" lon="6.52316">
        <ele>1055.6650391</ele>
        <time>2010-10-10T11:51:33Z</time>
      </trkpt>
      <trkpt lat="43.83806" lon="6.52296">
        <ele>1040.2839355</ele>
        <time>2010-10-10T11:51:38Z</time>
      </trkpt>
      <trkpt lat="43.83816" lon="6.52287">
        <ele>1037.3999023</ele>
        <time>2010-10-10T11:51:40Z</time>
      </trkpt>
      <trkpt lat="43.83835" lon="6.52274">
        <ele>1024.4221191</ele>
        <time>2010-10-10T11:51:44Z</time>
      </trkpt>
      <trkpt lat="43.83859" lon="6.52259">
        <ele>1012.8862305</ele>
        <time>2010-10-10T11:51:50Z</time>
      </trkpt>
      <trkpt lat="43.83862" lon="6.52257">
        <ele>1008.079834</ele>
        <time>2010-10-10T11:51:54Z</time>
      </trkpt>
      <trkpt lat="43.83863" lon="6.52255">
        <ele>1007.1184082</ele>
        <time>2010-10-10T11:51:59Z</time>
      </trkpt>
      <trkpt lat="43.83868" lon="6.52253">
        <ele>1004.7150879</ele>
        <time>2010-10-10T11:52:02Z</time>
      </trkpt>
      <trkpt lat="43.83878" lon="6.52254">
        <ele>1006.6376953</ele>
        <time>2010-10-10T11:52:06Z</time>
      </trkpt>
      <trkpt lat="43.83894" lon="6.52249">
        <ele>1004.2346191</ele>
        <time>2010-10-10T11:52:11Z</time>
      </trkpt>
      <trkpt lat="43.83892" lon="6.5225">
        <ele>1008.5603027</ele>
        <time>2010-10-10T11:52:15Z</time>
      </trkpt>
      <trkpt lat="43.83895" lon="6.52249">
        <ele>1007.5991211</ele>
        <time>2010-10-10T11:52:16Z</time>
      </trkpt>
      <trkpt lat="43.83896" lon="6.52252">
        <ele>1004.7150879</ele>
        <time>2010-10-10T11:52:21Z</time>
      </trkpt>
      <trkpt lat="43.83887" lon="6.52255">
        <ele>1008.079834</ele>
        <time>2010-10-10T11:52:25Z</time>
      </trkpt>
      <trkpt lat="43.83883" lon="6.52256">
        <ele>1008.5603027</ele>
        <time>2010-10-10T11:52:26Z</time>
      </trkpt>
      <trkpt lat="43.83864" lon="6.52282">
        <ele>1015.7702637</ele>
        <time>2010-10-10T11:52:32Z</time>
      </trkpt>
      <trkpt lat="43.83857" lon="6.52296">
        <ele>1017.2121582</ele>
        <time>2010-10-10T11:52:34Z</time>
      </trkpt>
      <trkpt lat="43.83837" lon="6.52349">
        <ele>1022.0187988</ele>
        <time>2010-10-10T11:52:40Z</time>
      </trkpt>
      <trkpt lat="43.8383" lon="6.52367">
        <ele>1024.902832</ele>
        <time>2010-10-10T11:52:42Z</time>
      </trkpt>
      <trkpt lat="43.8381" lon="6.52407">
        <ele>1022.9802246</ele>
        <time>2010-10-10T11:52:48Z</time>
      </trkpt>
      <trkpt lat="43.83796" lon="6.52441">
        <ele>1020.5769043</ele>
        <time>2010-10-10T11:52:52Z</time>
      </trkpt>
      <trkpt lat="43.83793" lon="6.52448">
        <ele>1019.6154785</ele>
        <time>2010-10-10T11:52:53Z</time>
      </trkpt>
      <trkpt lat="43.8379" lon="6.52468">
        <ele>1013.3669434</ele>
        <time>2010-10-10T11:52:57Z</time>
      </trkpt>
      <trkpt lat="43.83792" lon="6.52468">
        <ele>1006.6376953</ele>
        <time>2010-10-10T11:53:01Z</time>
      </trkpt>
      <trkpt lat="43.83792" lon="6.52462">
        <ele>1003.2729492</ele>
        <time>2010-10-10T11:53:03Z</time>
      </trkpt>
      <trkpt lat="43.83806" lon="6.52452">
        <ele>1001.3503418</ele>
        <time>2010-10-10T11:53:08Z</time>
      </trkpt>
      <trkpt lat="43.83817" lon="6.52443">
        <ele>1001.3503418</ele>
        <time>2010-10-10T11:53:10Z</time>
      </trkpt>
      <trkpt lat="43.83844" lon="6.5243">
        <ele>990.2954102</ele>
        <time>2010-10-10T11:53:14Z</time>
      </trkpt>
      <trkpt lat="43.8387" lon="6.524">
        <ele>975.8754883</ele>
        <time>2010-10-10T11:53:20Z</time>
      </trkpt>
      <trkpt lat="43.83892" lon="6.5239">
        <ele>969.6269531</ele>
        <time>2010-10-10T11:53:24Z</time>
      </trkpt>
      <trkpt lat="43.83931" lon="6.52379">
        <ele>962.8977051</ele>
        <time>2010-10-10T11:53:30Z</time>
      </trkpt>
      <trkpt lat="43.83938" lon="6.52378">
        <ele>961.4558105</ele>
        <time>2010-10-10T11:53:31Z</time>
      </trkpt>
      <trkpt lat="43.83955" lon="6.52364">
        <ele>954.2458496</ele>
        <time>2010-10-10T11:53:35Z</time>
      </trkpt>
      <trkpt lat="43.83955" lon="6.52358">
        <ele>951.8425293</ele>
        <time>2010-10-10T11:53:36Z</time>
      </trkpt>
      <trkpt lat="43.83971" lon="6.52315">
        <ele>944.6325684</ele>
        <time>2010-10-10T11:53:43Z</time>
      </trkpt>
      <trkpt lat="43.83978" lon="6.52303">
        <ele>942.2294922</ele>
        <time>2010-10-10T11:53:45Z</time>
      </trkpt>
      <trkpt lat="43.83997" lon="6.52277">
        <ele>936.9418945</ele>
        <time>2010-10-10T11:53:51Z</time>
      </trkpt>
      <trkpt lat="43.84013" lon="6.52249">
        <ele>936.9418945</ele>
        <time>2010-10-10T11:53:57Z</time>
      </trkpt>
      <trkpt lat="43.84021" lon="6.52236">
        <ele>935.9807129</ele>
        <time>2010-10-10T11:54:01Z</time>
      </trkpt>
      <trkpt lat="43.84026" lon="6.52224">
        <ele>933.5773926</ele>
        <time>2010-10-10T11:54:07Z</time>
      </trkpt>
      <trkpt lat="43.84028" lon="6.52219">
        <ele>931.6547852</ele>
        <time>2010-10-10T11:54:13Z</time>
      </trkpt>
      <trkpt lat="43.84031" lon="6.5221">
        <ele>933.5773926</ele>
        <time>2010-10-10T11:54:19Z</time>
      </trkpt>
      <trkpt lat="43.84031" lon="6.52208">
        <ele>934.5388184</ele>
        <time>2010-10-10T11:54:21Z</time>
      </trkpt>
      <trkpt lat="43.84039" lon="6.52194">
        <ele>935.5</ele>
        <time>2010-10-10T11:54:26Z</time>
      </trkpt>
      <trkpt lat="43.84047" lon="6.52185">
        <ele>937.4226074</ele>
        <time>2010-10-10T11:54:30Z</time>
      </trkpt>
      <trkpt lat="43.84059" lon="6.52161">
        <ele>936.4614258</ele>
        <time>2010-10-10T11:54:37Z</time>
      </trkpt>
      <trkpt lat="43.84062" lon="6.52156">
        <ele>936.4614258</ele>
        <time>2010-10-10T11:54:41Z</time>
      </trkpt>
      <trkpt lat="43.84064" lon="6.52151">
        <ele>940.3068848</ele>
        <time>2010-10-10T11:55:41Z</time>
      </trkpt>
      <trkpt lat="43.84063" lon="6.5214">
        <ele>935.9807129</ele>
        <time>2010-10-10T11:55:47Z</time>
      </trkpt>
      <trkpt lat="43.84063" lon="6.5214">
        <ele>934.5388184</ele>
        <time>2010-10-10T11:55:51Z</time>
      </trkpt>
      <trkpt lat="43.84073" lon="6.52121">
        <ele>935.5</ele>
        <time>2010-10-10T11:55:57Z</time>
      </trkpt>
      <trkpt lat="43.8408" lon="6.521">
        <ele>934.5388184</ele>
        <time>2010-10-10T11:56:02Z</time>
      </trkpt>
      <trkpt lat="43.84091" lon="6.52083">
        <ele>933.0966797</ele>
        <time>2010-10-10T11:56:06Z</time>
      </trkpt>
      <trkpt lat="43.84097" lon="6.52071">
        <ele>932.135498</ele>
        <time>2010-10-10T11:56:10Z</time>
      </trkpt>
      <trkpt lat="43.84107" lon="6.52057">
        <ele>931.1743164</ele>
        <time>2010-10-10T11:56:15Z</time>
      </trkpt>
      <trkpt lat="43.84121" lon="6.52034">
        <ele>926.8483887</ele>
        <time>2010-10-10T11:56:20Z</time>
      </trkpt>
      <trkpt lat="43.84124" lon="6.52029">
        <ele>922.5222168</ele>
        <time>2010-10-10T11:56:24Z</time>
      </trkpt>
      <trkpt lat="43.84128" lon="6.52026">
        <ele>920.1188965</ele>
        <time>2010-10-10T11:56:29Z</time>
      </trkpt>
      <trkpt lat="43.84133" lon="6.52026">
        <ele>916.2736816</ele>
        <time>2010-10-10T11:56:33Z</time>
      </trkpt>
      <trkpt lat="43.84137" lon="6.52032">
        <ele>920.5996094</ele>
        <time>2010-10-10T11:56:37Z</time>
      </trkpt>
      <trkpt lat="43.84142" lon="6.52033">
        <ele>922.0415039</ele>
        <time>2010-10-10T11:56:41Z</time>
      </trkpt>
      <trkpt lat="43.84138" lon="6.5204">
        <ele>923.4836426</ele>
        <time>2010-10-10T11:56:45Z</time>
      </trkpt>
      <trkpt lat="43.84138" lon="6.52042">
        <ele>924.4450684</ele>
        <time>2010-10-10T11:56:49Z</time>
      </trkpt>
      <trkpt lat="43.84151" lon="6.52041">
        <ele>918.677002</ele>
        <time>2010-10-10T11:56:56Z</time>
      </trkpt>
      <trkpt lat="43.84154" lon="6.52039">
        <ele>914.8317871</ele>
        <time>2010-10-10T11:56:59Z</time>
      </trkpt>
      <trkpt lat="43.84159" lon="6.52039">
        <ele>908.583252</ele>
        <time>2010-10-10T11:57:04Z</time>
      </trkpt>
      <trkpt lat="43.84156" lon="6.52041">
        <ele>905.2185059</ele>
        <time>2010-10-10T11:57:08Z</time>
      </trkpt>
      <trkpt lat="43.84149" lon="6.52054">
        <ele>901.8540039</ele>
        <time>2010-10-10T11:57:14Z</time>
      </trkpt>
      <trkpt lat="43.84141" lon="6.52076">
        <ele>901.8540039</ele>
        <time>2010-10-10T11:57:19Z</time>
      </trkpt>
      <trkpt lat="43.84135" lon="6.52095">
        <ele>898.9699707</ele>
        <time>2010-10-10T11:57:23Z</time>
      </trkpt>
      <trkpt lat="43.8413" lon="6.52116">
        <ele>899.9313965</ele>
        <time>2010-10-10T11:57:27Z</time>
      </trkpt>
      <trkpt lat="43.84123" lon="6.52142">
        <ele>908.583252</ele>
        <time>2010-10-10T11:57:32Z</time>
      </trkpt>
      <trkpt lat="43.84119" lon="6.52174">
        <ele>916.7543945</ele>
        <time>2010-10-10T11:57:38Z</time>
      </trkpt>
      <trkpt lat="43.84114" lon="6.52192">
        <ele>915.7932129</ele>
        <time>2010-10-10T11:57:42Z</time>
      </trkpt>
      <trkpt lat="43.84111" lon="6.52197">
        <ele>913.3898926</ele>
        <time>2010-10-10T11:57:46Z</time>
      </trkpt>
      <trkpt lat="43.84109" lon="6.52209">
        <ele>912.4284668</ele>
        <time>2010-10-10T11:57:50Z</time>
      </trkpt>
      <trkpt lat="43.84105" lon="6.52233">
        <ele>902.3344727</ele>
        <time>2010-10-10T11:57:56Z</time>
      </trkpt>
      <trkpt lat="43.84102" lon="6.52255">
        <ele>902.3344727</ele>
        <time>2010-10-10T11:58:00Z</time>
      </trkpt>
      <trkpt lat="43.84098" lon="6.52277">
        <ele>899.9313965</ele>
        <time>2010-10-10T11:58:05Z</time>
      </trkpt>
      <trkpt lat="43.84097" lon="6.52295">
        <ele>898.0087891</ele>
        <time>2010-10-10T11:58:10Z</time>
      </trkpt>
      <trkpt lat="43.84094" lon="6.52307">
        <ele>895.6054688</ele>
        <time>2010-10-10T11:58:14Z</time>
      </trkpt>
      <trkpt lat="43.84093" lon="6.52293">
        <ele>892.7216797</ele>
        <time>2010-10-10T11:58:20Z</time>
      </trkpt>
      <trkpt lat="43.84097" lon="6.52279">
        <ele>888.3955078</ele>
        <time>2010-10-10T11:58:24Z</time>
      </trkpt>
      <trkpt lat="43.84106" lon="6.52263">
        <ele>884.550293</ele>
        <time>2010-10-10T11:58:28Z</time>
      </trkpt>
      <trkpt lat="43.84108" lon="6.52259">
        <ele>883.1081543</ele>
        <time>2010-10-10T11:58:29Z</time>
      </trkpt>
      <trkpt lat="43.84118" lon="6.52238">
        <ele>879.2629395</ele>
        <time>2010-10-10T11:58:33Z</time>
      </trkpt>
      <trkpt lat="43.84133" lon="6.52209">
        <ele>873.9755859</ele>
        <time>2010-10-10T11:58:39Z</time>
      </trkpt>
      <trkpt lat="43.84139" lon="6.52195">
        <ele>873.4951172</ele>
        <time>2010-10-10T11:58:42Z</time>
      </trkpt>
      <trkpt lat="43.84147" lon="6.52177">
        <ele>869.6499023</ele>
        <time>2010-10-10T11:58:45Z</time>
      </trkpt>
      <trkpt lat="43.84153" lon="6.52168">
        <ele>869.1691895</ele>
        <time>2010-10-10T11:58:47Z</time>
      </trkpt>
      <trkpt lat="43.84164" lon="6.52142">
        <ele>864.8432617</ele>
        <time>2010-10-10T11:58:52Z</time>
      </trkpt>
      <trkpt lat="43.8418" lon="6.52117">
        <ele>862.9206543</ele>
        <time>2010-10-10T11:58:58Z</time>
      </trkpt>
      <trkpt lat="43.84187" lon="6.52107">
        <ele>860.517334</ele>
        <time>2010-10-10T11:59:00Z</time>
      </trkpt>
      <trkpt lat="43.8421" lon="6.52104">
        <ele>860.0366211</ele>
        <time>2010-10-10T11:59:04Z</time>
      </trkpt>
      <trkpt lat="43.84236" lon="6.52103">
        <ele>857.6333008</ele>
        <time>2010-10-10T11:59:08Z</time>
      </trkpt>
      <trkpt lat="43.84247" lon="6.52088">
        <ele>855.2299805</ele>
        <time>2010-10-10T11:59:12Z</time>
      </trkpt>
      <trkpt lat="43.84248" lon="6.52075">
        <ele>852.8266602</ele>
        <time>2010-10-10T11:59:15Z</time>
      </trkpt>
      <trkpt lat="43.84256" lon="6.52052">
        <ele>854.7492676</ele>
        <time>2010-10-10T11:59:21Z</time>
      </trkpt>
      <trkpt lat="43.84262" lon="6.52034">
        <ele>852.3459473</ele>
        <time>2010-10-10T11:59:25Z</time>
      </trkpt>
      <trkpt lat="43.84275" lon="6.52018">
        <ele>848.5007324</ele>
        <time>2010-10-10T11:59:29Z</time>
      </trkpt>
      <trkpt lat="43.84282" lon="6.52007">
        <ele>845.6169434</ele>
        <time>2010-10-10T11:59:31Z</time>
      </trkpt>
      <trkpt lat="43.84298" lon="6.51996">
        <ele>839.3681641</ele>
        <time>2010-10-10T11:59:36Z</time>
      </trkpt>
      <trkpt lat="43.84299" lon="6.51996">
        <ele>840.8100586</ele>
        <time>2010-10-10T11:59:37Z</time>
      </trkpt>
      <trkpt lat="43.84294" lon="6.5201">
        <ele>836.0036621</ele>
        <time>2010-10-10T11:59:41Z</time>
      </trkpt>
      <trkpt lat="43.84287" lon="6.5203">
        <ele>835.5229492</ele>
        <time>2010-10-10T11:59:44Z</time>
      </trkpt>
      <trkpt lat="43.84278" lon="6.5205">
        <ele>837.4455566</ele>
        <time>2010-10-10T11:59:49Z</time>
      </trkpt>
      <trkpt lat="43.84276" lon="6.52052">
        <ele>835.0424805</ele>
        <time>2010-10-10T11:59:53Z</time>
      </trkpt>
      <trkpt lat="43.84281" lon="6.52049">
        <ele>831.6777344</ele>
        <time>2010-10-10T11:59:58Z</time>
      </trkpt>
      <trkpt lat="43.84296" lon="6.52037">
        <ele>832.6391602</ele>
        <time>2010-10-10T12:00:03Z</time>
      </trkpt>
      <trkpt lat="43.843" lon="6.52034">
        <ele>832.6391602</ele>
        <time>2010-10-10T12:00:04Z</time>
      </trkpt>
      <trkpt lat="43.84331" lon="6.52014">
        <ele>828.3132324</ele>
        <time>2010-10-10T12:00:09Z</time>
      </trkpt>
      <trkpt lat="43.8434" lon="6.52007">
        <ele>825.4289551</ele>
        <time>2010-10-10T12:00:12Z</time>
      </trkpt>
      <trkpt lat="43.84351" lon="6.51999">
        <ele>816.2966309</ele>
        <time>2010-10-10T12:00:15Z</time>
      </trkpt>
      <trkpt lat="43.84349" lon="6.51987">
        <ele>811.4899902</ele>
        <time>2010-10-10T12:00:19Z</time>
      </trkpt>
      <trkpt lat="43.84347" lon="6.51966">
        <ele>809.5673828</ele>
        <time>2010-10-10T12:00:23Z</time>
      </trkpt>
      <trkpt lat="43.84352" lon="6.51942">
        <ele>804.7607422</ele>
        <time>2010-10-10T12:00:28Z</time>
      </trkpt>
      <trkpt lat="43.84356" lon="6.51919">
        <ele>802.8381348</ele>
        <time>2010-10-10T12:00:32Z</time>
      </trkpt>
      <trkpt lat="43.84357" lon="6.51911">
        <ele>801.3962402</ele>
        <time>2010-10-10T12:00:33Z</time>
      </trkpt>
      <trkpt lat="43.84373" lon="6.51869">
        <ele>798.9929199</ele>
        <time>2010-10-10T12:00:39Z</time>
      </trkpt>
      <trkpt lat="43.84379" lon="6.5185">
        <ele>796.5898438</ele>
        <time>2010-10-10T12:00:42Z</time>
      </trkpt>
      <trkpt lat="43.84393" lon="6.51824">
        <ele>792.2636719</ele>
        <time>2010-10-10T12:00:47Z</time>
      </trkpt>
      <trkpt lat="43.84401" lon="6.51801">
        <ele>788.8991699</ele>
        <time>2010-10-10T12:00:50Z</time>
      </trkpt>
      <trkpt lat="43.84408" lon="6.51778">
        <ele>785.0539551</ele>
        <time>2010-10-10T12:00:53Z</time>
      </trkpt>
      <trkpt lat="43.84421" lon="6.51729">
        <ele>776.8825684</ele>
        <time>2010-10-10T12:01:00Z</time>
      </trkpt>
      <trkpt lat="43.84432" lon="6.51702">
        <ele>774.479248</ele>
        <time>2010-10-10T12:01:04Z</time>
      </trkpt>
      <trkpt lat="43.84435" lon="6.51692">
        <ele>773.0373535</ele>
        <time>2010-10-10T12:01:07Z</time>
      </trkpt>
      <trkpt lat="43.84437" lon="6.51691">
        <ele>774.479248</ele>
        <time>2010-10-10T12:01:09Z</time>
      </trkpt>
      <trkpt lat="43.84436" lon="6.51715">
        <ele>784.5732422</ele>
        <time>2010-10-10T12:01:14Z</time>
      </trkpt>
      <trkpt lat="43.84437" lon="6.51753">
        <ele>794.666748</ele>
        <time>2010-10-10T12:01:19Z</time>
      </trkpt>
      <trkpt lat="43.84435" lon="6.51803">
        <ele>802.8381348</ele>
        <time>2010-10-10T12:01:26Z</time>
      </trkpt>
      <trkpt lat="43.84428" lon="6.5182">
        <ele>804.2802734</ele>
        <time>2010-10-10T12:01:30Z</time>
      </trkpt>
      <trkpt lat="43.8443" lon="6.51824">
        <ele>798.0317383</ele>
        <time>2010-10-10T12:01:36Z</time>
      </trkpt>
      <trkpt lat="43.84427" lon="6.51824">
        <ele>793.2248535</ele>
        <time>2010-10-10T12:01:40Z</time>
      </trkpt>
      <trkpt lat="43.8443" lon="6.51804">
        <ele>786.0151367</ele>
        <time>2010-10-10T12:01:46Z</time>
      </trkpt>
      <trkpt lat="43.84442" lon="6.51782">
        <ele>782.6506348</ele>
        <time>2010-10-10T12:01:50Z</time>
      </trkpt>
      <trkpt lat="43.84453" lon="6.51771">
        <ele>780.7280273</ele>
        <time>2010-10-10T12:01:52Z</time>
      </trkpt>
      <trkpt lat="43.8447" lon="6.51747">
        <ele>775.9211426</ele>
        <time>2010-10-10T12:01:55Z</time>
      </trkpt>
      <trkpt lat="43.84481" lon="6.51724">
        <ele>768.7114258</ele>
        <time>2010-10-10T12:01:58Z</time>
      </trkpt>
      <trkpt lat="43.8449" lon="6.51695">
        <ele>763.4240723</ele>
        <time>2010-10-10T12:02:02Z</time>
      </trkpt>
      <trkpt lat="43.84494" lon="6.51666">
        <ele>755.7336426</ele>
        <time>2010-10-10T12:02:07Z</time>
      </trkpt>
      <trkpt lat="43.84495" lon="6.51652">
        <ele>747.081543</ele>
        <time>2010-10-10T12:02:11Z</time>
      </trkpt>
      <trkpt lat="43.84493" lon="6.51651">
        <ele>744.1977539</ele>
        <time>2010-10-10T12:02:13Z</time>
      </trkpt>
      <trkpt lat="43.84497" lon="6.51648">
        <ele>749.0043945</ele>
        <time>2010-10-10T12:02:17Z</time>
      </trkpt>
      <trkpt lat="43.84505" lon="6.51651">
        <ele>754.291748</ele>
        <time>2010-10-10T12:02:22Z</time>
      </trkpt>
      <trkpt lat="43.84509" lon="6.5165">
        <ele>762.4626465</ele>
        <time>2010-10-10T12:02:36Z</time>
      </trkpt>
      <trkpt lat="43.84503" lon="6.5164">
        <ele>759.0981445</ele>
        <time>2010-10-10T12:02:44Z</time>
      </trkpt>
      <trkpt lat="43.84498" lon="6.51637">
        <ele>753.3303223</ele>
        <time>2010-10-10T12:02:53Z</time>
      </trkpt>
      <trkpt lat="43.84498" lon="6.51626">
        <ele>748.0432129</ele>
        <time>2010-10-10T12:02:59Z</time>
      </trkpt>
      <trkpt lat="43.84501" lon="6.51617">
        <ele>749.0043945</ele>
        <time>2010-10-10T12:03:05Z</time>
      </trkpt>
      <trkpt lat="43.84505" lon="6.51617">
        <ele>746.6010742</ele>
        <time>2010-10-10T12:03:15Z</time>
      </trkpt>
      <trkpt lat="43.84506" lon="6.51615">
        <ele>748.5236816</ele>
        <time>2010-10-10T12:03:24Z</time>
      </trkpt>
      <trkpt lat="43.84509" lon="6.51616">
        <ele>746.1203613</ele>
        <time>2010-10-10T12:03:29Z</time>
      </trkpt>
      <trkpt lat="43.84511" lon="6.5162">
        <ele>742.2751465</ele>
        <time>2010-10-10T12:03:33Z</time>
      </trkpt>
      <trkpt lat="43.84512" lon="6.51626">
        <ele>735.0654297</ele>
        <time>2010-10-10T12:03:39Z</time>
      </trkpt>
      <trkpt lat="43.84512" lon="6.51627">
        <ele>731.2199707</ele>
        <time>2010-10-10T12:04:08Z</time>
      </trkpt>
      <trkpt lat="43.84512" lon="6.51629">
        <ele>728.8166504</ele>
        <time>2010-10-10T12:04:14Z</time>
      </trkpt>
      <trkpt lat="43.84519" lon="6.51639">
        <ele>729.2971191</ele>
        <time>2010-10-10T12:04:21Z</time>
      </trkpt>
      <trkpt lat="43.84529" lon="6.51653">
        <ele>728.8166504</ele>
        <time>2010-10-10T12:04:26Z</time>
      </trkpt>
      <trkpt lat="43.84538" lon="6.51657">
        <ele>729.777832</ele>
        <time>2010-10-10T12:04:30Z</time>
      </trkpt>
      <trkpt lat="43.84556" lon="6.51661">
        <ele>728.8166504</ele>
        <time>2010-10-10T12:04:39Z</time>
      </trkpt>
      <trkpt lat="43.84572" lon="6.51662">
        <ele>727.8552246</ele>
        <time>2010-10-10T12:04:44Z</time>
      </trkpt>
      <trkpt lat="43.84575" lon="6.51661">
        <ele>727.3747559</ele>
        <time>2010-10-10T12:04:45Z</time>
      </trkpt>
      <trkpt lat="43.84593" lon="6.5164">
        <ele>724.9714355</ele>
        <time>2010-10-10T12:04:50Z</time>
      </trkpt>
      <trkpt lat="43.84599" lon="6.51622">
        <ele>724.4907227</ele>
        <time>2010-10-10T12:04:54Z</time>
      </trkpt>
      <trkpt lat="43.84599" lon="6.51616">
        <ele>724.0100098</ele>
        <time>2010-10-10T12:04:55Z</time>
      </trkpt>
      <trkpt lat="43.84605" lon="6.51594">
        <ele>735.5458984</ele>
        <time>2010-10-10T12:05:02Z</time>
      </trkpt>
      <trkpt lat="43.84613" lon="6.51572">
        <ele>742.7558594</ele>
        <time>2010-10-10T12:05:08Z</time>
      </trkpt>
      <trkpt lat="43.84622" lon="6.51541">
        <ele>747.081543</ele>
        <time>2010-10-10T12:05:14Z</time>
      </trkpt>
      <trkpt lat="43.84624" lon="6.51534">
        <ele>749.0043945</ele>
        <time>2010-10-10T12:05:15Z</time>
      </trkpt>
      <trkpt lat="43.84623" lon="6.51511">
        <ele>751.4077148</ele>
        <time>2010-10-10T12:05:19Z</time>
      </trkpt>
      <trkpt lat="43.84623" lon="6.51503">
        <ele>743.2363281</ele>
        <time>2010-10-10T12:05:21Z</time>
      </trkpt>
      <trkpt lat="43.8461" lon="6.51509">
        <ele>737.4685059</ele>
        <time>2010-10-10T12:05:26Z</time>
      </trkpt>
      <trkpt lat="43.84602" lon="6.51511">
        <ele>737.4685059</ele>
        <time>2010-10-10T12:05:31Z</time>
      </trkpt>
      <trkpt lat="43.84604" lon="6.51516">
        <ele>739.3911133</ele>
        <time>2010-10-10T12:09:43Z</time>
      </trkpt>
      <trkpt lat="43.84604" lon="6.51516">
        <ele>739.3911133</ele>
        <time>2010-10-10T12:09:45Z</time>
      </trkpt>
      <trkpt lat="43.84615" lon="6.51513">
        <ele>738.9106445</ele>
        <time>2010-10-10T12:09:51Z</time>
      </trkpt>
      <trkpt lat="43.84617" lon="6.51513">
        <ele>738.9106445</ele>
        <time>2010-10-10T12:09:52Z</time>
      </trkpt>
      <trkpt lat="43.84629" lon="6.515">
        <ele>736.987793</ele>
        <time>2010-10-10T12:09:59Z</time>
      </trkpt>
      <trkpt lat="43.84632" lon="6.51486">
        <ele>741.7944336</ele>
        <time>2010-10-10T12:10:04Z</time>
      </trkpt>
      <trkpt lat="43.84639" lon="6.51461">
        <ele>748.5236816</ele>
        <time>2010-10-10T12:10:09Z</time>
      </trkpt>
      <trkpt lat="43.84645" lon="6.5144">
        <ele>739.3911133</ele>
        <time>2010-10-10T12:10:13Z</time>
      </trkpt>
      <trkpt lat="43.84659" lon="6.51422">
        <ele>745.6396484</ele>
        <time>2010-10-10T12:10:19Z</time>
      </trkpt>
      <trkpt lat="43.84664" lon="6.51396">
        <ele>746.1203613</ele>
        <time>2010-10-10T12:10:25Z</time>
      </trkpt>
      <trkpt lat="43.84676" lon="6.51366">
        <ele>751.4077148</ele>
        <time>2010-10-10T12:10:32Z</time>
      </trkpt>
      <trkpt lat="43.84689" lon="6.51346">
        <ele>749.4851074</ele>
        <time>2010-10-10T12:10:37Z</time>
      </trkpt>
      <trkpt lat="43.84699" lon="6.5133">
        <ele>745.6396484</ele>
        <time>2010-10-10T12:10:41Z</time>
      </trkpt>
      <trkpt lat="43.84716" lon="6.51307">
        <ele>718.7229004</ele>
        <time>2010-10-10T12:10:46Z</time>
      </trkpt>
      <trkpt lat="43.84724" lon="6.51288">
        <ele>713.4355469</ele>
        <time>2010-10-10T12:10:52Z</time>
      </trkpt>
      <trkpt lat="43.84738" lon="6.51263">
        <ele>714.3967285</ele>
        <time>2010-10-10T12:10:57Z</time>
      </trkpt>
      <trkpt lat="43.84746" lon="6.51246">
        <ele>720.6455078</ele>
        <time>2010-10-10T12:11:02Z</time>
      </trkpt>
      <trkpt lat="43.8475" lon="6.51224">
        <ele>726.894043</ele>
        <time>2010-10-10T12:11:06Z</time>
      </trkpt>
      <trkpt lat="43.8476" lon="6.51207">
        <ele>728.8166504</ele>
        <time>2010-10-10T12:11:11Z</time>
      </trkpt>
      <trkpt lat="43.84762" lon="6.51203">
        <ele>731.2199707</ele>
        <time>2010-10-10T12:11:15Z</time>
      </trkpt>
      <trkpt lat="43.8478" lon="6.51197">
        <ele>732.1813965</ele>
        <time>2010-10-10T12:11:21Z</time>
      </trkpt>
      <trkpt lat="43.84784" lon="6.51181">
        <ele>730.2585449</ele>
        <time>2010-10-10T12:11:25Z</time>
      </trkpt>
      <trkpt lat="43.84791" lon="6.51163">
        <ele>735.5458984</ele>
        <time>2010-10-10T12:11:32Z</time>
      </trkpt>
      <trkpt lat="43.84797" lon="6.51135">
        <ele>740.3525391</ele>
        <time>2010-10-10T12:11:39Z</time>
      </trkpt>
      <trkpt lat="43.84809" lon="6.51101">
        <ele>737.9492188</ele>
        <time>2010-10-10T12:11:48Z</time>
      </trkpt>
      <trkpt lat="43.84821" lon="6.51077">
        <ele>745.6396484</ele>
        <time>2010-10-10T12:11:55Z</time>
      </trkpt>
      <trkpt lat="43.84832" lon="6.51055">
        <ele>750.927002</ele>
        <time>2010-10-10T12:12:02Z</time>
      </trkpt>
      <trkpt lat="43.84838" lon="6.5104">
        <ele>747.081543</ele>
        <time>2010-10-10T12:12:08Z</time>
      </trkpt>
      <trkpt lat="43.84844" lon="6.51024">
        <ele>746.1203613</ele>
        <time>2010-10-10T12:12:13Z</time>
      </trkpt>
      <trkpt lat="43.84865" lon="6.50975">
        <ele>738.4299316</ele>
        <time>2010-10-10T12:12:22Z</time>
      </trkpt>
      <trkpt lat="43.84885" lon="6.50948">
        <ele>743.2363281</ele>
        <time>2010-10-10T12:12:29Z</time>
      </trkpt>
      <trkpt lat="43.84898" lon="6.50929">
        <ele>744.1977539</ele>
        <time>2010-10-10T12:12:35Z</time>
      </trkpt>
      <trkpt lat="43.84921" lon="6.50914">
        <ele>740.3525391</ele>
        <time>2010-10-10T12:12:44Z</time>
      </trkpt>
      <trkpt lat="43.84943" lon="6.50903">
        <ele>742.2751465</ele>
        <time>2010-10-10T12:12:52Z</time>
      </trkpt>
      <trkpt lat="43.84962" lon="6.50892">
        <ele>741.3137207</ele>
        <time>2010-10-10T12:12:59Z</time>
      </trkpt>
      <trkpt lat="43.8499" lon="6.50878">
        <ele>744.1977539</ele>
        <time>2010-10-10T12:13:09Z</time>
      </trkpt>
      <trkpt lat="43.85015" lon="6.50867">
        <ele>749.4851074</ele>
        <time>2010-10-10T12:13:17Z</time>
      </trkpt>
      <trkpt lat="43.85044" lon="6.50852">
        <ele>749.4851074</ele>
        <time>2010-10-10T12:13:27Z</time>
      </trkpt>
      <trkpt lat="43.85067" lon="6.50841">
        <ele>749.9658203</ele>
        <time>2010-10-10T12:13:36Z</time>
      </trkpt>
      <trkpt lat="43.85078" lon="6.50832">
        <ele>747.5622559</ele>
        <time>2010-10-10T12:13:42Z</time>
      </trkpt>
      <trkpt lat="43.85095" lon="6.50809">
        <ele>728.8166504</ele>
        <time>2010-10-10T12:13:48Z</time>
      </trkpt>
      <trkpt lat="43.85109" lon="6.50808">
        <ele>736.5073242</ele>
        <time>2010-10-10T12:13:55Z</time>
      </trkpt>
      <trkpt lat="43.85111" lon="6.50808">
        <ele>736.5073242</ele>
        <time>2010-10-10T12:13:56Z</time>
      </trkpt>
      <trkpt lat="43.85128" lon="6.50817">
        <ele>736.987793</ele>
        <time>2010-10-10T12:14:03Z</time>
      </trkpt>
      <trkpt lat="43.85137" lon="6.50829">
        <ele>736.5073242</ele>
        <time>2010-10-10T12:14:08Z</time>
      </trkpt>
      <trkpt lat="43.85143" lon="6.50843">
        <ele>739.3911133</ele>
        <time>2010-10-10T12:14:13Z</time>
      </trkpt>
      <trkpt lat="43.85154" lon="6.50855">
        <ele>747.081543</ele>
        <time>2010-10-10T12:14:19Z</time>
      </trkpt>
      <trkpt lat="43.85166" lon="6.50868">
        <ele>750.927002</ele>
        <time>2010-10-10T12:14:27Z</time>
      </trkpt>
      <trkpt lat="43.85177" lon="6.50879">
        <ele>759.5788574</ele>
        <time>2010-10-10T12:14:34Z</time>
      </trkpt>
      <trkpt lat="43.85189" lon="6.50893">
        <ele>764.8662109</ele>
        <time>2010-10-10T12:14:42Z</time>
      </trkpt>
      <trkpt lat="43.85203" lon="6.50911">
        <ele>767.75</ele>
        <time>2010-10-10T12:14:50Z</time>
      </trkpt>
      <trkpt lat="43.85213" lon="6.50921">
        <ele>767.75</ele>
        <time>2010-10-10T12:14:56Z</time>
      </trkpt>
      <trkpt lat="43.85223" lon="6.50935">
        <ele>764.8662109</ele>
        <time>2010-10-10T12:15:03Z</time>
      </trkpt>
      <trkpt lat="43.85235" lon="6.50948">
        <ele>761.5014648</ele>
        <time>2010-10-10T12:15:09Z</time>
      </trkpt>
      <trkpt lat="43.85251" lon="6.50966">
        <ele>762.4626465</ele>
        <time>2010-10-10T12:15:17Z</time>
      </trkpt>
      <trkpt lat="43.85266" lon="6.50981">
        <ele>767.75</ele>
        <time>2010-10-10T12:15:24Z</time>
      </trkpt>
      <trkpt lat="43.85278" lon="6.50991">
        <ele>765.3469238</ele>
        <time>2010-10-10T12:15:29Z</time>
      </trkpt>
      <trkpt lat="43.85295" lon="6.51002">
        <ele>764.8662109</ele>
        <time>2010-10-10T12:15:36Z</time>
      </trkpt>
      <trkpt lat="43.85309" lon="6.51013">
        <ele>765.3469238</ele>
        <time>2010-10-10T12:15:43Z</time>
      </trkpt>
      <trkpt lat="43.85326" lon="6.51029">
        <ele>763.4240723</ele>
        <time>2010-10-10T12:15:51Z</time>
      </trkpt>
      <trkpt lat="43.85339" lon="6.51041">
        <ele>763.4240723</ele>
        <time>2010-10-10T12:15:58Z</time>
      </trkpt>
      <trkpt lat="43.85354" lon="6.51058">
        <ele>767.2695312</ele>
        <time>2010-10-10T12:16:06Z</time>
      </trkpt>
      <trkpt lat="43.85365" lon="6.51067">
        <ele>764.8662109</ele>
        <time>2010-10-10T12:16:12Z</time>
      </trkpt>
      <trkpt lat="43.85377" lon="6.51078">
        <ele>765.3469238</ele>
        <time>2010-10-10T12:16:19Z</time>
      </trkpt>
      <trkpt lat="43.85388" lon="6.51084">
        <ele>766.3081055</ele>
        <time>2010-10-10T12:16:25Z</time>
      </trkpt>
      <trkpt lat="43.85402" lon="6.51092">
        <ele>764.8662109</ele>
        <time>2010-10-10T12:16:32Z</time>
      </trkpt>
      <trkpt lat="43.85415" lon="6.51099">
        <ele>768.7114258</ele>
        <time>2010-10-10T12:16:40Z</time>
      </trkpt>
      <trkpt lat="43.85428" lon="6.51106">
        <ele>768.2307129</ele>
        <time>2010-10-10T12:16:47Z</time>
      </trkpt>
      <trkpt lat="43.85439" lon="6.51109">
        <ele>769.6728516</ele>
        <time>2010-10-10T12:16:52Z</time>
      </trkpt>
      <trkpt lat="43.85449" lon="6.51112">
        <ele>769.1921387</ele>
        <time>2010-10-10T12:16:58Z</time>
      </trkpt>
      <trkpt lat="43.85452" lon="6.51112">
        <ele>769.6728516</ele>
        <time>2010-10-10T12:17:00Z</time>
      </trkpt>
      <trkpt lat="43.85464" lon="6.51114">
        <ele>768.7114258</ele>
        <time>2010-10-10T12:17:06Z</time>
      </trkpt>
      <trkpt lat="43.85469" lon="6.51116">
        <ele>769.1921387</ele>
        <time>2010-10-10T12:17:09Z</time>
      </trkpt>
      <trkpt lat="43.8548" lon="6.51118">
        <ele>771.5952148</ele>
        <time>2010-10-10T12:17:16Z</time>
      </trkpt>
      <trkpt lat="43.85482" lon="6.51118">
        <ele>772.5566406</ele>
        <time>2010-10-10T12:17:17Z</time>
      </trkpt>
      <trkpt lat="43.85487" lon="6.51116">
        <ele>773.9985352</ele>
        <time>2010-10-10T12:17:22Z</time>
      </trkpt>
      <trkpt lat="43.85496" lon="6.51119">
        <ele>775.4404297</ele>
        <time>2010-10-10T12:17:28Z</time>
      </trkpt>
      <trkpt lat="43.85505" lon="6.5112">
        <ele>777.3632812</ele>
        <time>2010-10-10T12:17:34Z</time>
      </trkpt>
      <trkpt lat="43.8551" lon="6.5112">
        <ele>779.7663574</ele>
        <time>2010-10-10T12:17:38Z</time>
      </trkpt>
      <trkpt lat="43.85517" lon="6.51121">
        <ele>777.84375</ele>
        <time>2010-10-10T12:17:43Z</time>
      </trkpt>
      <trkpt lat="43.85527" lon="6.51123">
        <ele>782.6506348</ele>
        <time>2010-10-10T12:17:49Z</time>
      </trkpt>
      <trkpt lat="43.85538" lon="6.51124">
        <ele>781.689209</ele>
        <time>2010-10-10T12:17:56Z</time>
      </trkpt>
      <trkpt lat="43.85539" lon="6.51124">
        <ele>782.1699219</ele>
        <time>2010-10-10T12:17:57Z</time>
      </trkpt>
      <trkpt lat="43.85548" lon="6.51128">
        <ele>783.1311035</ele>
        <time>2010-10-10T12:18:04Z</time>
      </trkpt>
      <trkpt lat="43.85552" lon="6.51128">
        <ele>782.6506348</ele>
        <time>2010-10-10T12:18:06Z</time>
      </trkpt>
      <trkpt lat="43.85559" lon="6.51129">
        <ele>783.6118164</ele>
        <time>2010-10-10T12:18:12Z</time>
      </trkpt>
      <trkpt lat="43.85563" lon="6.5113">
        <ele>783.6118164</ele>
        <time>2010-10-10T12:18:14Z</time>
      </trkpt>
      <trkpt lat="43.85574" lon="6.51129">
        <ele>784.0925293</ele>
        <time>2010-10-10T12:18:21Z</time>
      </trkpt>
      <trkpt lat="43.8558" lon="6.51133">
        <ele>784.0925293</ele>
        <time>2010-10-10T12:18:26Z</time>
      </trkpt>
      <trkpt lat="43.85583" lon="6.51133">
        <ele>784.5732422</ele>
        <time>2010-10-10T12:18:28Z</time>
      </trkpt>
      <trkpt lat="43.8559" lon="6.51131">
        <ele>787.9377441</ele>
        <time>2010-10-10T12:18:35Z</time>
      </trkpt>
      <trkpt lat="43.85594" lon="6.51129">
        <ele>789.8603516</ele>
        <time>2010-10-10T12:18:39Z</time>
      </trkpt>
      <trkpt lat="43.85604" lon="6.51128">
        <ele>793.7055664</ele>
        <time>2010-10-10T12:18:46Z</time>
      </trkpt>
      <trkpt lat="43.8561" lon="6.51126">
        <ele>794.1862793</ele>
        <time>2010-10-10T12:18:51Z</time>
      </trkpt>
      <trkpt lat="43.85622" lon="6.51127">
        <ele>798.512207</ele>
        <time>2010-10-10T12:18:58Z</time>
      </trkpt>
      <trkpt lat="43.85632" lon="6.51132">
        <ele>794.666748</ele>
        <time>2010-10-10T12:19:05Z</time>
      </trkpt>
      <trkpt lat="43.85635" lon="6.51132">
        <ele>798.0317383</ele>
        <time>2010-10-10T12:19:08Z</time>
      </trkpt>
      <trkpt lat="43.85642" lon="6.51139">
        <ele>800.4350586</ele>
        <time>2010-10-10T12:19:16Z</time>
      </trkpt>
      <trkpt lat="43.85649" lon="6.51147">
        <ele>801.3962402</ele>
        <time>2010-10-10T12:19:22Z</time>
      </trkpt>
      <trkpt lat="43.85651" lon="6.51151">
        <ele>803.7995605</ele>
        <time>2010-10-10T12:19:26Z</time>
      </trkpt>
      <trkpt lat="43.85657" lon="6.51154">
        <ele>805.722168</ele>
        <time>2010-10-10T12:19:30Z</time>
      </trkpt>
      <trkpt lat="43.85666" lon="6.51165">
        <ele>807.6447754</ele>
        <time>2010-10-10T12:19:37Z</time>
      </trkpt>
      <trkpt lat="43.85673" lon="6.51178">
        <ele>808.605957</ele>
        <time>2010-10-10T12:19:45Z</time>
      </trkpt>
      <trkpt lat="43.85677" lon="6.51182">
        <ele>808.1254883</ele>
        <time>2010-10-10T12:19:48Z</time>
      </trkpt>
      <trkpt lat="43.85683" lon="6.51184">
        <ele>804.7607422</ele>
        <time>2010-10-10T12:19:52Z</time>
      </trkpt>
      <trkpt lat="43.85687" lon="6.51189">
        <ele>805.722168</ele>
        <time>2010-10-10T12:19:56Z</time>
      </trkpt>
      <trkpt lat="43.85689" lon="6.51187">
        <ele>805.2414551</ele>
        <time>2010-10-10T12:19:59Z</time>
      </trkpt>
      <trkpt lat="43.85701" lon="6.51187">
        <ele>806.6833496</ele>
        <time>2010-10-10T12:20:06Z</time>
      </trkpt>
      <trkpt lat="43.85705" lon="6.51187">
        <ele>808.1254883</ele>
        <time>2010-10-10T12:20:08Z</time>
      </trkpt>
      <trkpt lat="43.85714" lon="6.51188">
        <ele>808.1254883</ele>
        <time>2010-10-10T12:20:13Z</time>
      </trkpt>
      <trkpt lat="43.85715" lon="6.51185">
        <ele>808.605957</ele>
        <time>2010-10-10T12:20:16Z</time>
      </trkpt>
      <trkpt lat="43.85726" lon="6.51182">
        <ele>805.2414551</ele>
        <time>2010-10-10T12:20:23Z</time>
      </trkpt>
      <trkpt lat="43.85732" lon="6.5118">
        <ele>807.6447754</ele>
        <time>2010-10-10T12:20:28Z</time>
      </trkpt>
      <trkpt lat="43.85738" lon="6.51183">
        <ele>809.0866699</ele>
        <time>2010-10-10T12:20:36Z</time>
      </trkpt>
      <trkpt lat="43.85739" lon="6.51185">
        <ele>811.4899902</ele>
        <time>2010-10-10T12:20:38Z</time>
      </trkpt>
      <trkpt lat="43.8575" lon="6.51199">
        <ele>817.2580566</ele>
        <time>2010-10-10T12:20:47Z</time>
      </trkpt>
      <trkpt lat="43.85759" lon="6.51218">
        <ele>820.1418457</ele>
        <time>2010-10-10T12:20:57Z</time>
      </trkpt>
      <trkpt lat="43.85768" lon="6.51233">
        <ele>820.1418457</ele>
        <time>2010-10-10T12:21:05Z</time>
      </trkpt>
      <trkpt lat="43.85774" lon="6.51247">
        <ele>817.7385254</ele>
        <time>2010-10-10T12:21:12Z</time>
      </trkpt>
      <trkpt lat="43.8578" lon="6.51259">
        <ele>817.7385254</ele>
        <time>2010-10-10T12:21:18Z</time>
      </trkpt>
      <trkpt lat="43.85783" lon="6.51265">
        <ele>816.7773438</ele>
        <time>2010-10-10T12:21:21Z</time>
      </trkpt>
      <trkpt lat="43.85784" lon="6.51275">
        <ele>818.2192383</ele>
        <time>2010-10-10T12:21:25Z</time>
      </trkpt>
      <trkpt lat="43.85788" lon="6.51288">
        <ele>819.661377</ele>
        <time>2010-10-10T12:21:33Z</time>
      </trkpt>
      <trkpt lat="43.8578" lon="6.51282">
        <ele>821.5837402</ele>
        <time>2010-10-10T12:21:38Z</time>
      </trkpt>
      <trkpt lat="43.85778" lon="6.5128">
        <ele>822.545166</ele>
        <time>2010-10-10T12:21:39Z</time>
      </trkpt>
      <trkpt lat="43.85773" lon="6.51275">
        <ele>825.4289551</ele>
        <time>2010-10-10T12:21:44Z</time>
      </trkpt>
      <trkpt lat="43.85768" lon="6.5127">
        <ele>827.3518066</ele>
        <time>2010-10-10T12:21:59Z</time>
      </trkpt>
      <trkpt lat="43.85754" lon="6.5126">
        <ele>828.3132324</ele>
        <time>2010-10-10T12:22:06Z</time>
      </trkpt>
      <trkpt lat="43.85739" lon="6.51256">
        <ele>829.2744141</ele>
        <time>2010-10-10T12:22:13Z</time>
      </trkpt>
      <trkpt lat="43.85736" lon="6.51257">
        <ele>828.3132324</ele>
        <time>2010-10-10T12:22:14Z</time>
      </trkpt>
      <trkpt lat="43.8571" lon="6.51266">
        <ele>826.3903809</ele>
        <time>2010-10-10T12:22:19Z</time>
      </trkpt>
      <trkpt lat="43.85686" lon="6.51258">
        <ele>825.909668</ele>
        <time>2010-10-10T12:22:23Z</time>
      </trkpt>
      <trkpt lat="43.85682" lon="6.51251">
        <ele>825.909668</ele>
        <time>2010-10-10T12:22:24Z</time>
      </trkpt>
      <trkpt lat="43.85667" lon="6.51222">
        <ele>824.9484863</ele>
        <time>2010-10-10T12:22:30Z</time>
      </trkpt>
      <trkpt lat="43.85651" lon="6.51205">
        <ele>825.909668</ele>
        <time>2010-10-10T12:22:35Z</time>
      </trkpt>
      <trkpt lat="43.85639" lon="6.51197">
        <ele>820.1418457</ele>
        <time>2010-10-10T12:22:39Z</time>
      </trkpt>
      <trkpt lat="43.85617" lon="6.51189">
        <ele>818.6999512</ele>
        <time>2010-10-10T12:22:45Z</time>
      </trkpt>
      <trkpt lat="43.85605" lon="6.51194">
        <ele>820.6225586</ele>
        <time>2010-10-10T12:22:49Z</time>
      </trkpt>
      <trkpt lat="43.85595" lon="6.51196">
        <ele>819.1806641</ele>
        <time>2010-10-10T12:22:53Z</time>
      </trkpt>
      <trkpt lat="43.85582" lon="6.51205">
        <ele>818.6999512</ele>
        <time>2010-10-10T12:22:57Z</time>
      </trkpt>
      <trkpt lat="43.85567" lon="6.51227">
        <ele>818.2192383</ele>
        <time>2010-10-10T12:23:03Z</time>
      </trkpt>
      <trkpt lat="43.85557" lon="6.51243">
        <ele>815.8161621</ele>
        <time>2010-10-10T12:23:07Z</time>
      </trkpt>
      <trkpt lat="43.85547" lon="6.51275">
        <ele>814.8547363</ele>
        <time>2010-10-10T12:23:12Z</time>
      </trkpt>
      <trkpt lat="43.85545" lon="6.5131">
        <ele>811.9707031</ele>
        <time>2010-10-10T12:23:17Z</time>
      </trkpt>
      <trkpt lat="43.85546" lon="6.51315">
        <ele>811.0092773</ele>
        <time>2010-10-10T12:23:18Z</time>
      </trkpt>
      <trkpt lat="43.85555" lon="6.51333">
        <ele>805.722168</ele>
        <time>2010-10-10T12:23:22Z</time>
      </trkpt>
      <trkpt lat="43.85565" lon="6.51346">
        <ele>802.3574219</ele>
        <time>2010-10-10T12:23:28Z</time>
      </trkpt>
      <trkpt lat="43.85572" lon="6.51359">
        <ele>800.9155273</ele>
        <time>2010-10-10T12:23:34Z</time>
      </trkpt>
      <trkpt lat="43.85574" lon="6.51363">
        <ele>802.8381348</ele>
        <time>2010-10-10T12:23:36Z</time>
      </trkpt>
      <trkpt lat="43.85581" lon="6.51375">
        <ele>804.7607422</ele>
        <time>2010-10-10T12:23:42Z</time>
      </trkpt>
      <trkpt lat="43.85585" lon="6.51381">
        <ele>804.2802734</ele>
        <time>2010-10-10T12:23:45Z</time>
      </trkpt>
      <trkpt lat="43.85585" lon="6.51391">
        <ele>803.7995605</ele>
        <time>2010-10-10T12:23:49Z</time>
      </trkpt>
      <trkpt lat="43.8558" lon="6.51411">
        <ele>807.1640625</ele>
        <time>2010-10-10T12:23:56Z</time>
      </trkpt>
      <trkpt lat="43.85574" lon="6.51426">
        <ele>810.5285645</ele>
        <time>2010-10-10T12:24:01Z</time>
      </trkpt>
      <trkpt lat="43.8557" lon="6.51443">
        <ele>816.7773438</ele>
        <time>2010-10-10T12:24:07Z</time>
      </trkpt>
      <trkpt lat="43.85572" lon="6.51462">
        <ele>820.1418457</ele>
        <time>2010-10-10T12:24:14Z</time>
      </trkpt>
      <trkpt lat="43.85574" lon="6.51476">
        <ele>819.1806641</ele>
        <time>2010-10-10T12:24:20Z</time>
      </trkpt>
      <trkpt lat="43.85574" lon="6.51502">
        <ele>821.5837402</ele>
        <time>2010-10-10T12:24:27Z</time>
      </trkpt>
      <trkpt lat="43.85576" lon="6.51511">
        <ele>823.9870605</ele>
        <time>2010-10-10T12:24:30Z</time>
      </trkpt>
      <trkpt lat="43.85572" lon="6.51521">
        <ele>823.9870605</ele>
        <time>2010-10-10T12:24:36Z</time>
      </trkpt>
      <trkpt lat="43.85569" lon="6.51521">
        <ele>823.5065918</ele>
        <time>2010-10-10T12:24:40Z</time>
      </trkpt>
      <trkpt lat="43.8557" lon="6.51517">
        <ele>828.7939453</ele>
        <time>2010-10-10T12:24:44Z</time>
      </trkpt>
      <trkpt lat="43.85564" lon="6.51503">
        <ele>826.8710938</ele>
        <time>2010-10-10T12:24:51Z</time>
      </trkpt>
      <trkpt lat="43.8556" lon="6.51497">
        <ele>828.7939453</ele>
        <time>2010-10-10T12:24:53Z</time>
      </trkpt>
      <trkpt lat="43.85548" lon="6.51481">
        <ele>828.7939453</ele>
        <time>2010-10-10T12:25:01Z</time>
      </trkpt>
      <trkpt lat="43.8554" lon="6.51463">
        <ele>830.2358398</ele>
        <time>2010-10-10T12:25:06Z</time>
      </trkpt>
      <trkpt lat="43.85525" lon="6.51443">
        <ele>820.6225586</ele>
        <time>2010-10-10T12:25:13Z</time>
      </trkpt>
      <trkpt lat="43.85521" lon="6.51422">
        <ele>818.2192383</ele>
        <time>2010-10-10T12:25:17Z</time>
      </trkpt>
      <trkpt lat="43.85505" lon="6.51403">
        <ele>816.7773438</ele>
        <time>2010-10-10T12:25:22Z</time>
      </trkpt>
      <trkpt lat="43.85493" lon="6.51391">
        <ele>814.3740234</ele>
        <time>2010-10-10T12:25:26Z</time>
      </trkpt>
      <trkpt lat="43.85487" lon="6.51387">
        <ele>809.0866699</ele>
        <time>2010-10-10T12:25:30Z</time>
      </trkpt>
      <trkpt lat="43.85478" lon="6.51387">
        <ele>796.1091309</ele>
        <time>2010-10-10T12:25:52Z</time>
      </trkpt>
      <trkpt lat="43.85461" lon="6.51371">
        <ele>792.7443848</ele>
        <time>2010-10-10T12:25:58Z</time>
      </trkpt>
      <trkpt lat="43.85455" lon="6.51364">
        <ele>798.9929199</ele>
        <time>2010-10-10T12:26:03Z</time>
      </trkpt>
      <trkpt lat="43.85451" lon="6.51363">
        <ele>808.605957</ele>
        <time>2010-10-10T12:26:10Z</time>
      </trkpt>
      <trkpt lat="43.8545" lon="6.51362">
        <ele>809.5673828</ele>
        <time>2010-10-10T12:26:11Z</time>
      </trkpt>
      <trkpt lat="43.85449" lon="6.51342">
        <ele>823.0258789</ele>
        <time>2010-10-10T12:26:18Z</time>
      </trkpt>
      <trkpt lat="43.85443" lon="6.51327">
        <ele>826.3903809</ele>
        <time>2010-10-10T12:26:23Z</time>
      </trkpt>
      <trkpt lat="43.8543" lon="6.51309">
        <ele>824.4677734</ele>
        <time>2010-10-10T12:26:28Z</time>
      </trkpt>
      <trkpt lat="43.85413" lon="6.51294">
        <ele>826.8710938</ele>
        <time>2010-10-10T12:26:34Z</time>
      </trkpt>
      <trkpt lat="43.85405" lon="6.51286">
        <ele>823.9870605</ele>
        <time>2010-10-10T12:26:37Z</time>
      </trkpt>
      <trkpt lat="43.85394" lon="6.51291">
        <ele>824.9484863</ele>
        <time>2010-10-10T12:26:42Z</time>
      </trkpt>
      <trkpt lat="43.85384" lon="6.51291">
        <ele>825.4289551</ele>
        <time>2010-10-10T12:26:46Z</time>
      </trkpt>
      <trkpt lat="43.8536" lon="6.5128">
        <ele>823.0258789</ele>
        <time>2010-10-10T12:26:53Z</time>
      </trkpt>
      <trkpt lat="43.8535" lon="6.51273">
        <ele>822.0644531</ele>
        <time>2010-10-10T12:26:56Z</time>
      </trkpt>
      <trkpt lat="43.85332" lon="6.51253">
        <ele>817.2580566</ele>
        <time>2010-10-10T12:27:02Z</time>
      </trkpt>
      <trkpt lat="43.85309" lon="6.51235">
        <ele>814.8547363</ele>
        <time>2010-10-10T12:27:08Z</time>
      </trkpt>
      <trkpt lat="43.85293" lon="6.51224">
        <ele>813.8933105</ele>
        <time>2010-10-10T12:27:13Z</time>
      </trkpt>
      <trkpt lat="43.85282" lon="6.51219">
        <ele>812.451416</ele>
        <time>2010-10-10T12:27:16Z</time>
      </trkpt>
      <trkpt lat="43.85262" lon="6.5121">
        <ele>809.0866699</ele>
        <time>2010-10-10T12:27:21Z</time>
      </trkpt>
      <trkpt lat="43.85243" lon="6.51207">
        <ele>807.6447754</ele>
        <time>2010-10-10T12:27:26Z</time>
      </trkpt>
      <trkpt lat="43.85239" lon="6.51205">
        <ele>808.605957</ele>
        <time>2010-10-10T12:27:27Z</time>
      </trkpt>
      <trkpt lat="43.85214" lon="6.51184">
        <ele>804.7607422</ele>
        <time>2010-10-10T12:27:34Z</time>
      </trkpt>
      <trkpt lat="43.85199" lon="6.5117">
        <ele>797.5510254</ele>
        <time>2010-10-10T12:27:39Z</time>
      </trkpt>
      <trkpt lat="43.85197" lon="6.51168">
        <ele>796.1091309</ele>
        <time>2010-10-10T12:27:43Z</time>
      </trkpt>
      <trkpt lat="43.85192" lon="6.51166">
        <ele>780.2473145</ele>
        <time>2010-10-10T12:27:58Z</time>
      </trkpt>
      <trkpt lat="43.85187" lon="6.51166">
        <ele>780.2473145</ele>
        <time>2010-10-10T12:28:04Z</time>
      </trkpt>
      <trkpt lat="43.85177" lon="6.51156">
        <ele>782.6506348</ele>
        <time>2010-10-10T12:28:11Z</time>
      </trkpt>
      <trkpt lat="43.85166" lon="6.51145">
        <ele>786.4958496</ele>
        <time>2010-10-10T12:28:18Z</time>
      </trkpt>
      <trkpt lat="43.85157" lon="6.51143">
        <ele>787.9377441</ele>
        <time>2010-10-10T12:28:23Z</time>
      </trkpt>
      <trkpt lat="43.8515" lon="6.51134">
        <ele>787.4570312</ele>
        <time>2010-10-10T12:28:29Z</time>
      </trkpt>
      <trkpt lat="43.85147" lon="6.51128">
        <ele>789.8603516</ele>
        <time>2010-10-10T12:28:36Z</time>
      </trkpt>
      <trkpt lat="43.85143" lon="6.51123">
        <ele>791.782959</ele>
        <time>2010-10-10T12:28:44Z</time>
      </trkpt>
      <trkpt lat="43.85141" lon="6.5112">
        <ele>793.7055664</ele>
        <time>2010-10-10T12:28:50Z</time>
      </trkpt>
      <trkpt lat="43.85134" lon="6.5111">
        <ele>795.6281738</ele>
        <time>2010-10-10T12:28:59Z</time>
      </trkpt>
      <trkpt lat="43.8513" lon="6.51105">
        <ele>796.5898438</ele>
        <time>2010-10-10T12:29:06Z</time>
      </trkpt>
      <trkpt lat="43.85127" lon="6.51099">
        <ele>797.5510254</ele>
        <time>2010-10-10T12:29:12Z</time>
      </trkpt>
      <trkpt lat="43.85122" lon="6.51086">
        <ele>798.9929199</ele>
        <time>2010-10-10T12:29:21Z</time>
      </trkpt>
      <trkpt lat="43.85115" lon="6.5108">
        <ele>799.4736328</ele>
        <time>2010-10-10T12:29:28Z</time>
      </trkpt>
      <trkpt lat="43.85113" lon="6.51078">
        <ele>800.4350586</ele>
        <time>2010-10-10T12:29:31Z</time>
      </trkpt>
      <trkpt lat="43.85109" lon="6.51082">
        <ele>800.9155273</ele>
        <time>2010-10-10T12:29:37Z</time>
      </trkpt>
      <trkpt lat="43.85107" lon="6.51091">
        <ele>801.8769531</ele>
        <time>2010-10-10T12:29:44Z</time>
      </trkpt>
      <trkpt lat="43.85107" lon="6.51093">
        <ele>801.3962402</ele>
        <time>2010-10-10T12:29:49Z</time>
      </trkpt>
      <trkpt lat="43.85105" lon="6.51098">
        <ele>802.3574219</ele>
        <time>2010-10-10T12:29:55Z</time>
      </trkpt>
      <trkpt lat="43.85105" lon="6.51101">
        <ele>802.3574219</ele>
        <time>2010-10-10T12:29:59Z</time>
      </trkpt>
      <trkpt lat="43.85105" lon="6.51107">
        <ele>802.8381348</ele>
        <time>2010-10-10T12:30:03Z</time>
      </trkpt>
      <trkpt lat="43.85106" lon="6.51111">
        <ele>803.7995605</ele>
        <time>2010-10-10T12:30:06Z</time>
      </trkpt>
      <trkpt lat="43.85109" lon="6.51116">
        <ele>803.3188477</ele>
        <time>2010-10-10T12:30:11Z</time>
      </trkpt>
      <trkpt lat="43.85106" lon="6.51127">
        <ele>804.2802734</ele>
        <time>2010-10-10T12:30:19Z</time>
      </trkpt>
      <trkpt lat="43.851" lon="6.51133">
        <ele>807.6447754</ele>
        <time>2010-10-10T12:30:27Z</time>
      </trkpt>
      <trkpt lat="43.85094" lon="6.51141">
        <ele>810.5285645</ele>
        <time>2010-10-10T12:30:34Z</time>
      </trkpt>
      <trkpt lat="43.8509" lon="6.51143">
        <ele>811.9707031</ele>
        <time>2010-10-10T12:30:41Z</time>
      </trkpt>
      <trkpt lat="43.85085" lon="6.51145">
        <ele>813.4128418</ele>
        <time>2010-10-10T12:30:46Z</time>
      </trkpt>
      <trkpt lat="43.85076" lon="6.51154">
        <ele>814.3740234</ele>
        <time>2010-10-10T12:30:53Z</time>
      </trkpt>
      <trkpt lat="43.85068" lon="6.51154">
        <ele>816.7773438</ele>
        <time>2010-10-10T12:30:59Z</time>
      </trkpt>
      <trkpt lat="43.85067" lon="6.51154">
        <ele>816.7773438</ele>
        <time>2010-10-10T12:31:05Z</time>
      </trkpt>
      <trkpt lat="43.85064" lon="6.51157">
        <ele>816.2966309</ele>
        <time>2010-10-10T12:31:13Z</time>
      </trkpt>
      <trkpt lat="43.85059" lon="6.51164">
        <ele>816.7773438</ele>
        <time>2010-10-10T12:31:22Z</time>
      </trkpt>
      <trkpt lat="43.85057" lon="6.5117">
        <ele>817.2580566</ele>
        <time>2010-10-10T12:31:29Z</time>
      </trkpt>
      <trkpt lat="43.85057" lon="6.51176">
        <ele>818.6999512</ele>
        <time>2010-10-10T12:31:36Z</time>
      </trkpt>
      <trkpt lat="43.85054" lon="6.51182">
        <ele>820.1418457</ele>
        <time>2010-10-10T12:31:43Z</time>
      </trkpt>
      <trkpt lat="43.85051" lon="6.5119">
        <ele>821.5837402</ele>
        <time>2010-10-10T12:31:51Z</time>
      </trkpt>
      <trkpt lat="43.8505" lon="6.51197">
        <ele>823.0258789</ele>
        <time>2010-10-10T12:31:59Z</time>
      </trkpt>
      <trkpt lat="43.85047" lon="6.51202">
        <ele>824.9484863</ele>
        <time>2010-10-10T12:32:05Z</time>
      </trkpt>
      <trkpt lat="43.8504" lon="6.51207">
        <ele>826.3903809</ele>
        <time>2010-10-10T12:32:13Z</time>
      </trkpt>
      <trkpt lat="43.85034" lon="6.51213">
        <ele>826.8710938</ele>
        <time>2010-10-10T12:32:20Z</time>
      </trkpt>
      <trkpt lat="43.85032" lon="6.51219">
        <ele>828.3132324</ele>
        <time>2010-10-10T12:32:27Z</time>
      </trkpt>
      <trkpt lat="43.85032" lon="6.51227">
        <ele>831.1972656</ele>
        <time>2010-10-10T12:32:36Z</time>
      </trkpt>
      <trkpt lat="43.85034" lon="6.51235">
        <ele>835.0424805</ele>
        <time>2010-10-10T12:32:45Z</time>
      </trkpt>
      <trkpt lat="43.85037" lon="6.51246">
        <ele>836.0036621</ele>
        <time>2010-10-10T12:32:56Z</time>
      </trkpt>
      <trkpt lat="43.85039" lon="6.51255">
        <ele>836.0036621</ele>
        <time>2010-10-10T12:33:06Z</time>
      </trkpt>
      <trkpt lat="43.8504" lon="6.51262">
        <ele>836.9648438</ele>
        <time>2010-10-10T12:33:14Z</time>
      </trkpt>
      <trkpt lat="43.85041" lon="6.51269">
        <ele>839.3681641</ele>
        <time>2010-10-10T12:33:22Z</time>
      </trkpt>
      <trkpt lat="43.85039" lon="6.51273">
        <ele>839.848877</ele>
        <time>2010-10-10T12:33:30Z</time>
      </trkpt>
      <trkpt lat="43.8504" lon="6.51279">
        <ele>841.7714844</ele>
        <time>2010-10-10T12:33:37Z</time>
      </trkpt>
      <trkpt lat="43.85041" lon="6.51283">
        <ele>844.1750488</ele>
        <time>2010-10-10T12:33:44Z</time>
      </trkpt>
      <trkpt lat="43.85043" lon="6.51286">
        <ele>845.1362305</ele>
        <time>2010-10-10T12:33:49Z</time>
      </trkpt>
      <trkpt lat="43.85044" lon="6.51292">
        <ele>845.6169434</ele>
        <time>2010-10-10T12:33:57Z</time>
      </trkpt>
      <trkpt lat="43.85046" lon="6.51297">
        <ele>847.0588379</ele>
        <time>2010-10-10T12:34:05Z</time>
      </trkpt>
      <trkpt lat="43.85049" lon="6.51299">
        <ele>847.5395508</ele>
        <time>2010-10-10T12:34:11Z</time>
      </trkpt>
      <trkpt lat="43.85055" lon="6.51301">
        <ele>849.9428711</ele>
        <time>2010-10-10T12:34:19Z</time>
      </trkpt>
      <trkpt lat="43.85057" lon="6.51302">
        <ele>851.3847656</ele>
        <time>2010-10-10T12:34:25Z</time>
      </trkpt>
      <trkpt lat="43.85059" lon="6.51305">
        <ele>851.3847656</ele>
        <time>2010-10-10T12:34:30Z</time>
      </trkpt>
      <trkpt lat="43.85059" lon="6.51306">
        <ele>850.9040527</ele>
        <time>2010-10-10T12:34:38Z</time>
      </trkpt>
      <trkpt lat="43.85063" lon="6.51308">
        <ele>851.8654785</ele>
        <time>2010-10-10T12:35:30Z</time>
      </trkpt>
      <trkpt lat="43.85066" lon="6.51313">
        <ele>854.2687988</ele>
        <time>2010-10-10T12:35:38Z</time>
      </trkpt>
      <trkpt lat="43.85063" lon="6.5132">
        <ele>856.671875</ele>
        <time>2010-10-10T12:35:48Z</time>
      </trkpt>
      <trkpt lat="43.85065" lon="6.51322">
        <ele>857.6333008</ele>
        <time>2010-10-10T12:35:53Z</time>
      </trkpt>
      <trkpt lat="43.85066" lon="6.51326">
        <ele>856.671875</ele>
        <time>2010-10-10T12:36:00Z</time>
      </trkpt>
      <trkpt lat="43.85069" lon="6.5133">
        <ele>858.1140137</ele>
        <time>2010-10-10T12:36:07Z</time>
      </trkpt>
      <trkpt lat="43.85072" lon="6.51337">
        <ele>857.6333008</ele>
        <time>2010-10-10T12:36:16Z</time>
      </trkpt>
      <trkpt lat="43.85074" lon="6.51343">
        <ele>858.5944824</ele>
        <time>2010-10-10T12:36:25Z</time>
      </trkpt>
      <trkpt lat="43.85076" lon="6.51349">
        <ele>861.4787598</ele>
        <time>2010-10-10T12:36:34Z</time>
      </trkpt>
      <trkpt lat="43.8508" lon="6.51353">
        <ele>863.8818359</ele>
        <time>2010-10-10T12:36:43Z</time>
      </trkpt>
      <trkpt lat="43.85083" lon="6.51358">
        <ele>865.8046875</ele>
        <time>2010-10-10T12:36:52Z</time>
      </trkpt>
      <trkpt lat="43.85085" lon="6.51363">
        <ele>866.7658691</ele>
        <time>2010-10-10T12:37:00Z</time>
      </trkpt>
      <trkpt lat="43.85088" lon="6.51367">
        <ele>868.2077637</ele>
        <time>2010-10-10T12:37:07Z</time>
      </trkpt>
      <trkpt lat="43.8509" lon="6.51371">
        <ele>869.1691895</ele>
        <time>2010-10-10T12:37:11Z</time>
      </trkpt>
      <trkpt lat="43.85098" lon="6.51376">
        <ele>870.1303711</ele>
        <time>2010-10-10T12:37:20Z</time>
      </trkpt>
      <trkpt lat="43.85099" lon="6.51375">
        <ele>871.5722656</ele>
        <time>2010-10-10T12:37:26Z</time>
      </trkpt>
      <trkpt lat="43.851" lon="6.51375">
        <ele>871.5722656</ele>
        <time>2010-10-10T12:37:33Z</time>
      </trkpt>
      <trkpt lat="43.851" lon="6.51376">
        <ele>871.5722656</ele>
        <time>2010-10-10T12:37:40Z</time>
      </trkpt>
      <trkpt lat="43.851" lon="6.51378">
        <ele>871.5722656</ele>
        <time>2010-10-10T12:37:42Z</time>
      </trkpt>
      <trkpt lat="43.85105" lon="6.51389">
        <ele>872.5336914</ele>
        <time>2010-10-10T12:37:49Z</time>
      </trkpt>
      <trkpt lat="43.85106" lon="6.51403">
        <ele>874.4562988</ele>
        <time>2010-10-10T12:37:57Z</time>
      </trkpt>
      <trkpt lat="43.85109" lon="6.51416">
        <ele>875.4174805</ele>
        <time>2010-10-10T12:38:04Z</time>
      </trkpt>
      <trkpt lat="43.85114" lon="6.51428">
        <ele>875.8981934</ele>
        <time>2010-10-10T12:38:11Z</time>
      </trkpt>
      <trkpt lat="43.85119" lon="6.51442">
        <ele>878.3017578</ele>
        <time>2010-10-10T12:38:18Z</time>
      </trkpt>
      <trkpt lat="43.85121" lon="6.51455">
        <ele>878.7824707</ele>
        <time>2010-10-10T12:38:24Z</time>
      </trkpt>
      <trkpt lat="43.85122" lon="6.51458">
        <ele>878.7824707</ele>
        <time>2010-10-10T12:38:26Z</time>
      </trkpt>
      <trkpt lat="43.85127" lon="6.51476">
        <ele>884.550293</ele>
        <time>2010-10-10T12:38:35Z</time>
      </trkpt>
      <trkpt lat="43.85133" lon="6.51488">
        <ele>887.434082</ele>
        <time>2010-10-10T12:38:42Z</time>
      </trkpt>
      <trkpt lat="43.85139" lon="6.51508">
        <ele>886.9533691</ele>
        <time>2010-10-10T12:38:51Z</time>
      </trkpt>
      <trkpt lat="43.85142" lon="6.51521">
        <ele>885.0310059</ele>
        <time>2010-10-10T12:38:57Z</time>
      </trkpt>
      <trkpt lat="43.85146" lon="6.51537">
        <ele>885.0310059</ele>
        <time>2010-10-10T12:39:05Z</time>
      </trkpt>
      <trkpt lat="43.85152" lon="6.51557">
        <ele>885.0310059</ele>
        <time>2010-10-10T12:39:14Z</time>
      </trkpt>
      <trkpt lat="43.85151" lon="6.51568">
        <ele>886.9533691</ele>
        <time>2010-10-10T12:39:19Z</time>
      </trkpt>
      <trkpt lat="43.85142" lon="6.51581">
        <ele>892.2409668</ele>
        <time>2010-10-10T12:39:27Z</time>
      </trkpt>
      <trkpt lat="43.85134" lon="6.51589">
        <ele>895.6054688</ele>
        <time>2010-10-10T12:39:33Z</time>
      </trkpt>
      <trkpt lat="43.85123" lon="6.516">
        <ele>896.5668945</ele>
        <time>2010-10-10T12:39:38Z</time>
      </trkpt>
      <trkpt lat="43.85111" lon="6.51611">
        <ele>897.5280762</ele>
        <time>2010-10-10T12:39:44Z</time>
      </trkpt>
      <trkpt lat="43.851" lon="6.51621">
        <ele>899.4506836</ele>
        <time>2010-10-10T12:39:49Z</time>
      </trkpt>
      <trkpt lat="43.85087" lon="6.5163">
        <ele>903.2958984</ele>
        <time>2010-10-10T12:39:55Z</time>
      </trkpt>
      <trkpt lat="43.85084" lon="6.51632">
        <ele>903.2958984</ele>
        <time>2010-10-10T12:39:59Z</time>
      </trkpt>
      <trkpt lat="43.8508" lon="6.51636">
        <ele>904.2573242</ele>
        <time>2010-10-10T12:40:04Z</time>
      </trkpt>
      <trkpt lat="43.85076" lon="6.51638">
        <ele>899.4506836</ele>
        <time>2010-10-10T12:40:09Z</time>
      </trkpt>
      <trkpt lat="43.85069" lon="6.51641">
        <ele>890.798584</ele>
        <time>2010-10-10T12:40:27Z</time>
      </trkpt>
      <trkpt lat="43.85067" lon="6.51646">
        <ele>891.7600098</ele>
        <time>2010-10-10T12:40:33Z</time>
      </trkpt>
      <trkpt lat="43.85063" lon="6.51661">
        <ele>891.7600098</ele>
        <time>2010-10-10T12:40:38Z</time>
      </trkpt>
      <trkpt lat="43.85051" lon="6.51677">
        <ele>893.2021484</ele>
        <time>2010-10-10T12:40:43Z</time>
      </trkpt>
      <trkpt lat="43.85038" lon="6.517">
        <ele>894.1635742</ele>
        <time>2010-10-10T12:40:49Z</time>
      </trkpt>
      <trkpt lat="43.8503" lon="6.51724">
        <ele>890.798584</ele>
        <time>2010-10-10T12:40:54Z</time>
      </trkpt>
      <trkpt lat="43.85023" lon="6.51747">
        <ele>891.2792969</ele>
        <time>2010-10-10T12:40:59Z</time>
      </trkpt>
      <trkpt lat="43.85013" lon="6.51771">
        <ele>890.3181152</ele>
        <time>2010-10-10T12:41:04Z</time>
      </trkpt>
      <trkpt lat="43.84996" lon="6.5179">
        <ele>889.3566895</ele>
        <time>2010-10-10T12:41:10Z</time>
      </trkpt>
      <trkpt lat="43.84993" lon="6.51792">
        <ele>888.8762207</ele>
        <time>2010-10-10T12:41:11Z</time>
      </trkpt>
      <trkpt lat="43.8498" lon="6.51798">
        <ele>889.8374023</ele>
        <time>2010-10-10T12:41:14Z</time>
      </trkpt>
      <trkpt lat="43.84954" lon="6.51817">
        <ele>884.550293</ele>
        <time>2010-10-10T12:41:20Z</time>
      </trkpt>
      <trkpt lat="43.84931" lon="6.51833">
        <ele>879.7436523</ele>
        <time>2010-10-10T12:41:26Z</time>
      </trkpt>
      <trkpt lat="43.84915" lon="6.51842">
        <ele>875.8981934</ele>
        <time>2010-10-10T12:41:31Z</time>
      </trkpt>
      <trkpt lat="43.84906" lon="6.51854">
        <ele>873.0144043</ele>
        <time>2010-10-10T12:41:35Z</time>
      </trkpt>
      <trkpt lat="43.84896" lon="6.51845">
        <ele>866.2851562</ele>
        <time>2010-10-10T12:41:39Z</time>
      </trkpt>
      <trkpt lat="43.84893" lon="6.51843">
        <ele>865.8046875</ele>
        <time>2010-10-10T12:41:40Z</time>
      </trkpt>
      <trkpt lat="43.84878" lon="6.51833">
        <ele>865.3239746</ele>
        <time>2010-10-10T12:41:43Z</time>
      </trkpt>
      <trkpt lat="43.8485" lon="6.51821">
        <ele>864.3625488</ele>
        <time>2010-10-10T12:41:49Z</time>
      </trkpt>
      <trkpt lat="43.84839" lon="6.51814">
        <ele>864.3625488</ele>
        <time>2010-10-10T12:41:54Z</time>
      </trkpt>
      <trkpt lat="43.84839" lon="6.51813">
        <ele>860.0366211</ele>
        <time>2010-10-10T12:41:59Z</time>
      </trkpt>
      <trkpt lat="43.84835" lon="6.51803">
        <ele>857.1525879</ele>
        <time>2010-10-10T12:42:04Z</time>
      </trkpt>
      <trkpt lat="43.84827" lon="6.51784">
        <ele>855.2299805</ele>
        <time>2010-10-10T12:42:11Z</time>
      </trkpt>
      <trkpt lat="43.84825" lon="6.51772">
        <ele>855.7106934</ele>
        <time>2010-10-10T12:42:13Z</time>
      </trkpt>
      <trkpt lat="43.84811" lon="6.51739">
        <ele>852.3459473</ele>
        <time>2010-10-10T12:42:18Z</time>
      </trkpt>
      <trkpt lat="43.84802" lon="6.51734">
        <ele>852.3459473</ele>
        <time>2010-10-10T12:42:21Z</time>
      </trkpt>
      <trkpt lat="43.84798" lon="6.51735">
        <ele>850.9040527</ele>
        <time>2010-10-10T12:42:24Z</time>
      </trkpt>
      <trkpt lat="43.84794" lon="6.51731">
        <ele>856.1911621</ele>
        <time>2010-10-10T12:42:34Z</time>
      </trkpt>
      <trkpt lat="43.84789" lon="6.51732">
        <ele>857.1525879</ele>
        <time>2010-10-10T12:42:44Z</time>
      </trkpt>
      <trkpt lat="43.84787" lon="6.51733">
        <ele>856.1911621</ele>
        <time>2010-10-10T12:42:49Z</time>
      </trkpt>
      <trkpt lat="43.84782" lon="6.51733">
        <ele>857.1525879</ele>
        <time>2010-10-10T12:43:05Z</time>
      </trkpt>
      <trkpt lat="43.84769" lon="6.51739">
        <ele>860.9980469</ele>
        <time>2010-10-10T12:43:12Z</time>
      </trkpt>
      <trkpt lat="43.8476" lon="6.51748">
        <ele>865.3239746</ele>
        <time>2010-10-10T12:43:18Z</time>
      </trkpt>
      <trkpt lat="43.84755" lon="6.51761">
        <ele>862.9206543</ele>
        <time>2010-10-10T12:43:25Z</time>
      </trkpt>
      <trkpt lat="43.84743" lon="6.51781">
        <ele>863.8818359</ele>
        <time>2010-10-10T12:43:31Z</time>
      </trkpt>
      <trkpt lat="43.84729" lon="6.51805">
        <ele>866.2851562</ele>
        <time>2010-10-10T12:43:37Z</time>
      </trkpt>
      <trkpt lat="43.84724" lon="6.51814">
        <ele>866.7658691</ele>
        <time>2010-10-10T12:43:39Z</time>
      </trkpt>
      <trkpt lat="43.84708" lon="6.51825">
        <ele>867.246582</ele>
        <time>2010-10-10T12:43:44Z</time>
      </trkpt>
      <trkpt lat="43.84705" lon="6.51826">
        <ele>863.4013672</ele>
        <time>2010-10-10T12:43:47Z</time>
      </trkpt>
      <trkpt lat="43.84703" lon="6.51827">
        <ele>860.0366211</ele>
        <time>2010-10-10T12:43:52Z</time>
      </trkpt>
      <trkpt lat="43.84703" lon="6.51827">
        <ele>858.1140137</ele>
        <time>2010-10-10T12:44:06Z</time>
      </trkpt>
      <trkpt lat="43.84695" lon="6.51826">
        <ele>859.0751953</ele>
        <time>2010-10-10T12:44:15Z</time>
      </trkpt>
      <trkpt lat="43.84688" lon="6.51826">
        <ele>860.0366211</ele>
        <time>2010-10-10T12:44:23Z</time>
      </trkpt>
      <trkpt lat="43.84683" lon="6.51822">
        <ele>861.4787598</ele>
        <time>2010-10-10T12:44:32Z</time>
      </trkpt>
      <trkpt lat="43.84677" lon="6.5182">
        <ele>863.4013672</ele>
        <time>2010-10-10T12:44:42Z</time>
      </trkpt>
      <trkpt lat="43.84672" lon="6.51819">
        <ele>864.8432617</ele>
        <time>2010-10-10T12:44:50Z</time>
      </trkpt>
      <trkpt lat="43.84666" lon="6.51819">
        <ele>865.3239746</ele>
        <time>2010-10-10T12:44:58Z</time>
      </trkpt>
      <trkpt lat="43.84661" lon="6.51817">
        <ele>866.2851562</ele>
        <time>2010-10-10T12:45:06Z</time>
      </trkpt>
      <trkpt lat="43.84656" lon="6.51815">
        <ele>867.246582</ele>
        <time>2010-10-10T12:45:12Z</time>
      </trkpt>
      <trkpt lat="43.84652" lon="6.51813">
        <ele>867.246582</ele>
        <time>2010-10-10T12:45:19Z</time>
      </trkpt>
      <trkpt lat="43.84646" lon="6.51814">
        <ele>867.7270508</ele>
        <time>2010-10-10T12:45:27Z</time>
      </trkpt>
      <trkpt lat="43.84646" lon="6.51808">
        <ele>868.6884766</ele>
        <time>2010-10-10T12:45:34Z</time>
      </trkpt>
      <trkpt lat="43.84651" lon="6.51806">
        <ele>870.1303711</ele>
        <time>2010-10-10T12:45:41Z</time>
      </trkpt>
      <trkpt lat="43.84656" lon="6.51805">
        <ele>871.0917969</ele>
        <time>2010-10-10T12:45:48Z</time>
      </trkpt>
      <trkpt lat="43.84661" lon="6.51805">
        <ele>872.5336914</ele>
        <time>2010-10-10T12:45:55Z</time>
      </trkpt>
      <trkpt lat="43.84668" lon="6.51802">
        <ele>873.4951172</ele>
        <time>2010-10-10T12:46:03Z</time>
      </trkpt>
      <trkpt lat="43.84679" lon="6.51799">
        <ele>875.4174805</ele>
        <time>2010-10-10T12:46:14Z</time>
      </trkpt>
      <trkpt lat="43.84685" lon="6.51793">
        <ele>876.3791504</ele>
        <time>2010-10-10T12:46:21Z</time>
      </trkpt>
      <trkpt lat="43.84695" lon="6.51787">
        <ele>877.8210449</ele>
        <time>2010-10-10T12:46:32Z</time>
      </trkpt>
      <trkpt lat="43.84702" lon="6.51781">
        <ele>878.3017578</ele>
        <time>2010-10-10T12:46:42Z</time>
      </trkpt>
      <trkpt lat="43.84705" lon="6.51775">
        <ele>879.7436523</ele>
        <time>2010-10-10T12:46:50Z</time>
      </trkpt>
      <trkpt lat="43.84708" lon="6.5177">
        <ele>881.6662598</ele>
        <time>2010-10-10T12:46:58Z</time>
      </trkpt>
      <trkpt lat="43.84708" lon="6.51765">
        <ele>883.1081543</ele>
        <time>2010-10-10T12:47:04Z</time>
      </trkpt>
      <trkpt lat="43.84707" lon="6.51765">
        <ele>883.5888672</ele>
        <time>2010-10-10T12:47:06Z</time>
      </trkpt>
      <trkpt lat="43.847" lon="6.51766">
        <ele>885.5114746</ele>
        <time>2010-10-10T12:47:14Z</time>
      </trkpt>
      <trkpt lat="43.84693" lon="6.51766">
        <ele>886.4729004</ele>
        <time>2010-10-10T12:47:23Z</time>
      </trkpt>
      <trkpt lat="43.8469" lon="6.51763">
        <ele>886.9533691</ele>
        <time>2010-10-10T12:47:30Z</time>
      </trkpt>
      <trkpt lat="43.84691" lon="6.51762">
        <ele>887.434082</ele>
        <time>2010-10-10T12:47:31Z</time>
      </trkpt>
      <trkpt lat="43.84699" lon="6.51757">
        <ele>888.8762207</ele>
        <time>2010-10-10T12:47:41Z</time>
      </trkpt>
      <trkpt lat="43.84701" lon="6.51751">
        <ele>889.8374023</ele>
        <time>2010-10-10T12:47:48Z</time>
      </trkpt>
      <trkpt lat="43.84701" lon="6.51745">
        <ele>892.2409668</ele>
        <time>2010-10-10T12:47:55Z</time>
      </trkpt>
      <trkpt lat="43.84699" lon="6.51738">
        <ele>893.2021484</ele>
        <time>2010-10-10T12:48:02Z</time>
      </trkpt>
      <trkpt lat="43.84697" lon="6.51736">
        <ele>893.6828613</ele>
        <time>2010-10-10T12:48:06Z</time>
      </trkpt>
      <trkpt lat="43.8469" lon="6.51735">
        <ele>894.644043</ele>
        <time>2010-10-10T12:48:14Z</time>
      </trkpt>
      <trkpt lat="43.84689" lon="6.51734">
        <ele>894.644043</ele>
        <time>2010-10-10T12:48:16Z</time>
      </trkpt>
      <trkpt lat="43.84683" lon="6.51735">
        <ele>895.6054688</ele>
        <time>2010-10-10T12:48:23Z</time>
      </trkpt>
      <trkpt lat="43.84677" lon="6.51737">
        <ele>897.0473633</ele>
        <time>2010-10-10T12:48:31Z</time>
      </trkpt>
      <trkpt lat="43.84678" lon="6.5173">
        <ele>898.0087891</ele>
        <time>2010-10-10T12:48:38Z</time>
      </trkpt>
      <trkpt lat="43.84678" lon="6.5172">
        <ele>899.4506836</ele>
        <time>2010-10-10T12:48:47Z</time>
      </trkpt>
      <trkpt lat="43.84677" lon="6.51718">
        <ele>899.9313965</ele>
        <time>2010-10-10T12:48:49Z</time>
      </trkpt>
      <trkpt lat="43.84675" lon="6.51709">
        <ele>900.8925781</ele>
        <time>2010-10-10T12:48:57Z</time>
      </trkpt>
      <trkpt lat="43.84674" lon="6.51707">
        <ele>900.8925781</ele>
        <time>2010-10-10T12:49:03Z</time>
      </trkpt>
      <trkpt lat="43.84674" lon="6.51707">
        <ele>900.4121094</ele>
        <time>2010-10-10T12:49:07Z</time>
      </trkpt>
      <trkpt lat="43.84674" lon="6.51705">
        <ele>902.3344727</ele>
        <time>2010-10-10T12:49:11Z</time>
      </trkpt>
      <trkpt lat="43.84674" lon="6.517">
        <ele>903.2958984</ele>
        <time>2010-10-10T12:49:17Z</time>
      </trkpt>
      <trkpt lat="43.84673" lon="6.517">
        <ele>905.6992188</ele>
        <time>2010-10-10T12:49:27Z</time>
      </trkpt>
      <trkpt lat="43.84673" lon="6.51701">
        <ele>906.6604004</ele>
        <time>2010-10-10T12:49:37Z</time>
      </trkpt>
      <trkpt lat="43.84674" lon="6.51701">
        <ele>906.6604004</ele>
        <time>2010-10-10T12:49:48Z</time>
      </trkpt>
      <trkpt lat="43.84673" lon="6.51701">
        <ele>906.6604004</ele>
        <time>2010-10-10T12:50:07Z</time>
      </trkpt>
      <trkpt lat="43.84673" lon="6.51702">
        <ele>906.6604004</ele>
        <time>2010-10-10T12:50:25Z</time>
      </trkpt>
      <trkpt lat="43.84673" lon="6.51702">
        <ele>906.6604004</ele>
        <time>2010-10-10T12:50:47Z</time>
      </trkpt>
      <trkpt lat="43.84673" lon="6.51702">
        <ele>906.1796875</ele>
        <time>2010-10-10T12:51:06Z</time>
      </trkpt>
      <trkpt lat="43.84673" lon="6.51702">
        <ele>906.6604004</ele>
        <time>2010-10-10T12:51:28Z</time>
      </trkpt>
      <trkpt lat="43.84673" lon="6.51702">
        <ele>906.6604004</ele>
        <time>2010-10-10T12:51:43Z</time>
      </trkpt>
      <trkpt lat="43.84673" lon="6.51702">
        <ele>906.1796875</ele>
        <time>2010-10-10T12:51:56Z</time>
      </trkpt>
      <trkpt lat="43.84673" lon="6.51702">
        <ele>907.1411133</ele>
        <time>2010-10-10T12:52:17Z</time>
      </trkpt>
      <trkpt lat="43.84673" lon="6.51703">
        <ele>906.6604004</ele>
        <time>2010-10-10T12:52:32Z</time>
      </trkpt>
      <trkpt lat="43.84673" lon="6.51703">
        <ele>907.1411133</ele>
        <time>2010-10-10T12:52:47Z</time>
      </trkpt>
      <trkpt lat="43.84673" lon="6.51703">
        <ele>906.6604004</ele>
        <time>2010-10-10T12:53:10Z</time>
      </trkpt>
      <trkpt lat="43.84673" lon="6.51703">
        <ele>906.1796875</ele>
        <time>2010-10-10T12:53:22Z</time>
      </trkpt>
      <trkpt lat="43.84673" lon="6.51703">
        <ele>906.6604004</ele>
        <time>2010-10-10T12:53:37Z</time>
      </trkpt>
      <trkpt lat="43.84672" lon="6.51704">
        <ele>906.6604004</ele>
        <time>2010-10-10T12:53:51Z</time>
      </trkpt>
      <trkpt lat="43.84673" lon="6.51704">
        <ele>907.6218262</ele>
        <time>2010-10-10T12:54:09Z</time>
      </trkpt>
      <trkpt lat="43.84674" lon="6.51704">
        <ele>908.583252</ele>
        <time>2010-10-10T12:54:23Z</time>
      </trkpt>
      <trkpt lat="43.84675" lon="6.51706">
        <ele>904.2573242</ele>
        <time>2010-10-10T12:55:23Z</time>
      </trkpt>
      <trkpt lat="43.84676" lon="6.51709">
        <ele>903.2958984</ele>
        <time>2010-10-10T12:55:29Z</time>
      </trkpt>
      <trkpt lat="43.84676" lon="6.51709">
        <ele>903.7766113</ele>
        <time>2010-10-10T12:55:30Z</time>
      </trkpt>
      <trkpt lat="43.84676" lon="6.51711">
        <ele>904.737793</ele>
        <time>2010-10-10T12:55:36Z</time>
      </trkpt>
      <trkpt lat="43.84674" lon="6.51711">
        <ele>902.8151855</ele>
        <time>2010-10-10T12:55:45Z</time>
      </trkpt>
      <trkpt lat="43.84674" lon="6.51709">
        <ele>902.3344727</ele>
        <time>2010-10-10T12:55:53Z</time>
      </trkpt>
      <trkpt lat="43.84681" lon="6.51712">
        <ele>902.3344727</ele>
        <time>2010-10-10T12:55:57Z</time>
      </trkpt>
      <trkpt lat="43.84688" lon="6.51717">
        <ele>900.4121094</ele>
        <time>2010-10-10T12:56:00Z</time>
      </trkpt>
      <trkpt lat="43.8469" lon="6.5172">
        <ele>899.9313965</ele>
        <time>2010-10-10T12:56:01Z</time>
      </trkpt>
      <trkpt lat="43.84692" lon="6.51726">
        <ele>898.4892578</ele>
        <time>2010-10-10T12:56:03Z</time>
      </trkpt>
      <trkpt lat="43.84693" lon="6.51737">
        <ele>894.1635742</ele>
        <time>2010-10-10T12:56:08Z</time>
      </trkpt>
      <trkpt lat="43.84697" lon="6.51734">
        <ele>892.7216797</ele>
        <time>2010-10-10T12:56:13Z</time>
      </trkpt>
      <trkpt lat="43.84697" lon="6.51735">
        <ele>894.644043</ele>
        <time>2010-10-10T12:56:49Z</time>
      </trkpt>
      <trkpt lat="43.84699" lon="6.5174">
        <ele>893.2021484</ele>
        <time>2010-10-10T12:56:54Z</time>
      </trkpt>
      <trkpt lat="43.84701" lon="6.51751">
        <ele>890.798584</ele>
        <time>2010-10-10T12:56:59Z</time>
      </trkpt>
      <trkpt lat="43.84693" lon="6.51761">
        <ele>887.434082</ele>
        <time>2010-10-10T12:57:04Z</time>
      </trkpt>
      <trkpt lat="43.84692" lon="6.51765">
        <ele>886.4729004</ele>
        <time>2010-10-10T12:57:06Z</time>
      </trkpt>
      <trkpt lat="43.84706" lon="6.51766">
        <ele>884.0695801</ele>
        <time>2010-10-10T12:57:11Z</time>
      </trkpt>
      <trkpt lat="43.84709" lon="6.51766">
        <ele>883.5888672</ele>
        <time>2010-10-10T12:57:12Z</time>
      </trkpt>
      <trkpt lat="43.84711" lon="6.51767">
        <ele>882.1469727</ele>
        <time>2010-10-10T12:57:14Z</time>
      </trkpt>
      <trkpt lat="43.84705" lon="6.51777">
        <ele>880.2243652</ele>
        <time>2010-10-10T12:57:19Z</time>
      </trkpt>
      <trkpt lat="43.84695" lon="6.51787">
        <ele>878.7824707</ele>
        <time>2010-10-10T12:57:23Z</time>
      </trkpt>
      <trkpt lat="43.84688" lon="6.51791">
        <ele>878.3017578</ele>
        <time>2010-10-10T12:57:25Z</time>
      </trkpt>
      <trkpt lat="43.8468" lon="6.51796">
        <ele>877.3405762</ele>
        <time>2010-10-10T12:57:27Z</time>
      </trkpt>
      <trkpt lat="43.8466" lon="6.51805">
        <ele>875.8981934</ele>
        <time>2010-10-10T12:57:33Z</time>
      </trkpt>
      <trkpt lat="43.84648" lon="6.51806">
        <ele>873.4951172</ele>
        <time>2010-10-10T12:57:38Z</time>
      </trkpt>
      <trkpt lat="43.84644" lon="6.51812">
        <ele>871.0917969</ele>
        <time>2010-10-10T12:57:42Z</time>
      </trkpt>
      <trkpt lat="43.84659" lon="6.51815">
        <ele>864.3625488</ele>
        <time>2010-10-10T12:57:48Z</time>
      </trkpt>
      <trkpt lat="43.84671" lon="6.51818">
        <ele>860.9980469</ele>
        <time>2010-10-10T12:57:52Z</time>
      </trkpt>
      <trkpt lat="43.84685" lon="6.51823">
        <ele>854.7492676</ele>
        <time>2010-10-10T12:57:57Z</time>
      </trkpt>
      <trkpt lat="43.847" lon="6.51825">
        <ele>851.3847656</ele>
        <time>2010-10-10T12:58:02Z</time>
      </trkpt>
      <trkpt lat="43.84721" lon="6.51812">
        <ele>849.9428711</ele>
        <time>2010-10-10T12:58:08Z</time>
      </trkpt>
      <trkpt lat="43.84731" lon="6.51802">
        <ele>851.8654785</ele>
        <time>2010-10-10T12:58:13Z</time>
      </trkpt>
      <trkpt lat="43.84745" lon="6.51782">
        <ele>853.7880859</ele>
        <time>2010-10-10T12:58:20Z</time>
      </trkpt>
      <trkpt lat="43.8475" lon="6.51768">
        <ele>854.2687988</ele>
        <time>2010-10-10T12:58:25Z</time>
      </trkpt>
      <trkpt lat="43.84755" lon="6.51755">
        <ele>853.7880859</ele>
        <time>2010-10-10T12:58:30Z</time>
      </trkpt>
      <trkpt lat="43.84767" lon="6.51746">
        <ele>851.8654785</ele>
        <time>2010-10-10T12:58:34Z</time>
      </trkpt>
      <trkpt lat="43.84772" lon="6.51744">
        <ele>851.3847656</ele>
        <time>2010-10-10T12:58:35Z</time>
      </trkpt>
      <trkpt lat="43.84792" lon="6.51725">
        <ele>849.4621582</ele>
        <time>2010-10-10T12:58:40Z</time>
      </trkpt>
      <trkpt lat="43.84804" lon="6.51721">
        <ele>848.9814453</ele>
        <time>2010-10-10T12:58:43Z</time>
      </trkpt>
      <trkpt lat="43.84813" lon="6.51729">
        <ele>848.0202637</ele>
        <time>2010-10-10T12:58:46Z</time>
      </trkpt>
      <trkpt lat="43.84819" lon="6.51734">
        <ele>847.0588379</ele>
        <time>2010-10-10T12:58:49Z</time>
      </trkpt>
      <trkpt lat="43.84821" lon="6.51732">
        <ele>844.1750488</ele>
        <time>2010-10-10T12:58:52Z</time>
      </trkpt>
      <trkpt lat="43.84809" lon="6.51714">
        <ele>843.2133789</ele>
        <time>2010-10-10T12:58:57Z</time>
      </trkpt>
      <trkpt lat="43.84782" lon="6.51702">
        <ele>833.1196289</ele>
        <time>2010-10-10T12:59:04Z</time>
      </trkpt>
      <trkpt lat="43.84767" lon="6.51702">
        <ele>831.6777344</ele>
        <time>2010-10-10T12:59:08Z</time>
      </trkpt>
      <trkpt lat="43.8476" lon="6.51706">
        <ele>826.8710938</ele>
        <time>2010-10-10T12:59:11Z</time>
      </trkpt>
      <trkpt lat="43.84759" lon="6.51698">
        <ele>823.5065918</ele>
        <time>2010-10-10T12:59:15Z</time>
      </trkpt>
      <trkpt lat="43.84765" lon="6.51693">
        <ele>825.4289551</ele>
        <time>2010-10-10T12:59:17Z</time>
      </trkpt>
      <trkpt lat="43.84775" lon="6.51682">
        <ele>829.755127</ele>
        <time>2010-10-10T12:59:20Z</time>
      </trkpt>
      <trkpt lat="43.8479" lon="6.51674">
        <ele>827.3518066</ele>
        <time>2010-10-10T12:59:23Z</time>
      </trkpt>
      <trkpt lat="43.84805" lon="6.51665">
        <ele>826.3903809</ele>
        <time>2010-10-10T12:59:26Z</time>
      </trkpt>
      <trkpt lat="43.84822" lon="6.5166">
        <ele>824.9484863</ele>
        <time>2010-10-10T12:59:29Z</time>
      </trkpt>
      <trkpt lat="43.84855" lon="6.51663">
        <ele>818.6999512</ele>
        <time>2010-10-10T12:59:36Z</time>
      </trkpt>
      <trkpt lat="43.84874" lon="6.51662">
        <ele>816.7773438</ele>
        <time>2010-10-10T12:59:41Z</time>
      </trkpt>
      <trkpt lat="43.84888" lon="6.51647">
        <ele>811.9707031</ele>
        <time>2010-10-10T12:59:46Z</time>
      </trkpt>
      <trkpt lat="43.84897" lon="6.51622">
        <ele>813.8933105</ele>
        <time>2010-10-10T12:59:51Z</time>
      </trkpt>
      <trkpt lat="43.84897" lon="6.51596">
        <ele>810.0478516</ele>
        <time>2010-10-10T12:59:57Z</time>
      </trkpt>
      <trkpt lat="43.84896" lon="6.51575">
        <ele>806.2026367</ele>
        <time>2010-10-10T13:00:03Z</time>
      </trkpt>
      <trkpt lat="43.84893" lon="6.51563">
        <ele>801.3962402</ele>
        <time>2010-10-10T13:00:08Z</time>
      </trkpt>
      <trkpt lat="43.84891" lon="6.51545">
        <ele>791.3022461</ele>
        <time>2010-10-10T13:00:16Z</time>
      </trkpt>
      <trkpt lat="43.84892" lon="6.51538">
        <ele>788.8991699</ele>
        <time>2010-10-10T13:00:22Z</time>
      </trkpt>
      <trkpt lat="43.84893" lon="6.51532">
        <ele>784.0925293</ele>
        <time>2010-10-10T13:00:34Z</time>
      </trkpt>
      <trkpt lat="43.84889" lon="6.51516">
        <ele>785.0539551</ele>
        <time>2010-10-10T13:00:39Z</time>
      </trkpt>
      <trkpt lat="43.84877" lon="6.51496">
        <ele>787.4570312</ele>
        <time>2010-10-10T13:00:45Z</time>
      </trkpt>
      <trkpt lat="43.84861" lon="6.51469">
        <ele>783.6118164</ele>
        <time>2010-10-10T13:00:51Z</time>
      </trkpt>
      <trkpt lat="43.84856" lon="6.51453">
        <ele>780.2473145</ele>
        <time>2010-10-10T13:00:54Z</time>
      </trkpt>
      <trkpt lat="43.84841" lon="6.51428">
        <ele>777.84375</ele>
        <time>2010-10-10T13:00:59Z</time>
      </trkpt>
      <trkpt lat="43.84837" lon="6.51423">
        <ele>776.8825684</ele>
        <time>2010-10-10T13:01:00Z</time>
      </trkpt>
      <trkpt lat="43.84828" lon="6.51403">
        <ele>775.4404297</ele>
        <time>2010-10-10T13:01:04Z</time>
      </trkpt>
      <trkpt lat="43.84813" lon="6.51378">
        <ele>770.6340332</ele>
        <time>2010-10-10T13:01:09Z</time>
      </trkpt>
      <trkpt lat="43.84808" lon="6.51352">
        <ele>766.3081055</ele>
        <time>2010-10-10T13:01:14Z</time>
      </trkpt>
      <trkpt lat="43.84814" lon="6.51333">
        <ele>760.0593262</ele>
        <time>2010-10-10T13:01:18Z</time>
      </trkpt>
      <trkpt lat="43.84814" lon="6.51314">
        <ele>758.1369629</ele>
        <time>2010-10-10T13:01:23Z</time>
      </trkpt>
      <trkpt lat="43.84812" lon="6.51311">
        <ele>758.1369629</ele>
        <time>2010-10-10T13:01:24Z</time>
      </trkpt>
      <trkpt lat="43.84821" lon="6.51299">
        <ele>751.8884277</ele>
        <time>2010-10-10T13:01:29Z</time>
      </trkpt>
      <trkpt lat="43.84833" lon="6.51288">
        <ele>748.0432129</ele>
        <time>2010-10-10T13:01:32Z</time>
      </trkpt>
      <trkpt lat="43.84846" lon="6.51234">
        <ele>743.717041</ele>
        <time>2010-10-10T13:01:38Z</time>
      </trkpt>
      <trkpt lat="43.84861" lon="6.51177">
        <ele>741.7944336</ele>
        <time>2010-10-10T13:01:44Z</time>
      </trkpt>
      <trkpt lat="43.84868" lon="6.5115">
        <ele>744.1977539</ele>
        <time>2010-10-10T13:01:47Z</time>
      </trkpt>
      <trkpt lat="43.84869" lon="6.51113">
        <ele>742.7558594</ele>
        <time>2010-10-10T13:01:53Z</time>
      </trkpt>
      <trkpt lat="43.84868" lon="6.51109">
        <ele>743.2363281</ele>
        <time>2010-10-10T13:01:54Z</time>
      </trkpt>
      <trkpt lat="43.84853" lon="6.51104">
        <ele>740.8330078</ele>
        <time>2010-10-10T13:01:59Z</time>
      </trkpt>
      <trkpt lat="43.84849" lon="6.51104">
        <ele>740.8330078</ele>
        <time>2010-10-10T13:02:00Z</time>
      </trkpt>
      <trkpt lat="43.8484" lon="6.51093">
        <ele>739.3911133</ele>
        <time>2010-10-10T13:02:04Z</time>
      </trkpt>
      <trkpt lat="43.84828" lon="6.51055">
        <ele>735.0654297</ele>
        <time>2010-10-10T13:02:11Z</time>
      </trkpt>
      <trkpt lat="43.8482" lon="6.51059">
        <ele>732.1813965</ele>
        <time>2010-10-10T13:02:16Z</time>
      </trkpt>
      <trkpt lat="43.84804" lon="6.5109">
        <ele>729.2971191</ele>
        <time>2010-10-10T13:02:23Z</time>
      </trkpt>
      <trkpt lat="43.84798" lon="6.511">
        <ele>728.3359375</ele>
        <time>2010-10-10T13:02:25Z</time>
      </trkpt>
      <trkpt lat="43.84792" lon="6.51124">
        <ele>728.3359375</ele>
        <time>2010-10-10T13:02:30Z</time>
      </trkpt>
      <trkpt lat="43.84786" lon="6.51139">
        <ele>731.2199707</ele>
        <time>2010-10-10T13:02:33Z</time>
      </trkpt>
      <trkpt lat="43.84779" lon="6.51171">
        <ele>737.4685059</ele>
        <time>2010-10-10T13:02:38Z</time>
      </trkpt>
      <trkpt lat="43.84774" lon="6.51197">
        <ele>741.7944336</ele>
        <time>2010-10-10T13:02:42Z</time>
      </trkpt>
      <trkpt lat="43.84753" lon="6.51204">
        <ele>745.1589355</ele>
        <time>2010-10-10T13:02:46Z</time>
      </trkpt>
      <trkpt lat="43.84744" lon="6.51205">
        <ele>746.6010742</ele>
        <time>2010-10-10T13:02:48Z</time>
      </trkpt>
      <trkpt lat="43.84714" lon="6.51205">
        <ele>754.291748</ele>
        <time>2010-10-10T13:02:52Z</time>
      </trkpt>
      <trkpt lat="43.84686" lon="6.51223">
        <ele>746.6010742</ele>
        <time>2010-10-10T13:02:56Z</time>
      </trkpt>
      <trkpt lat="43.84671" lon="6.51256">
        <ele>732.1813965</ele>
        <time>2010-10-10T13:03:01Z</time>
      </trkpt>
      <trkpt lat="43.84655" lon="6.51268">
        <ele>733.1425781</ele>
        <time>2010-10-10T13:03:05Z</time>
      </trkpt>
      <trkpt lat="43.8465" lon="6.51262">
        <ele>728.8166504</ele>
        <time>2010-10-10T13:03:09Z</time>
      </trkpt>
      <trkpt lat="43.8463" lon="6.51256">
        <ele>733.1425781</ele>
        <time>2010-10-10T13:03:16Z</time>
      </trkpt>
      <trkpt lat="43.84614" lon="6.51252">
        <ele>731.7004395</ele>
        <time>2010-10-10T13:03:21Z</time>
      </trkpt>
      <trkpt lat="43.84604" lon="6.51274">
        <ele>730.7392578</ele>
        <time>2010-10-10T13:03:25Z</time>
      </trkpt>
      <trkpt lat="43.84591" lon="6.51324">
        <ele>731.7004395</ele>
        <time>2010-10-10T13:03:33Z</time>
      </trkpt>
      <trkpt lat="43.84586" lon="6.51341">
        <ele>730.7392578</ele>
        <time>2010-10-10T13:03:36Z</time>
      </trkpt>
      <trkpt lat="43.8458" lon="6.51371">
        <ele>733.1425781</ele>
        <time>2010-10-10T13:03:42Z</time>
      </trkpt>
      <trkpt lat="43.84574" lon="6.51396">
        <ele>736.987793</ele>
        <time>2010-10-10T13:03:47Z</time>
      </trkpt>
      <trkpt lat="43.84575" lon="6.51416">
        <ele>736.987793</ele>
        <time>2010-10-10T13:03:51Z</time>
      </trkpt>
      <trkpt lat="43.8458" lon="6.51426">
        <ele>735.0654297</ele>
        <time>2010-10-10T13:03:53Z</time>
      </trkpt>
      <trkpt lat="43.846" lon="6.51449">
        <ele>728.3359375</ele>
        <time>2010-10-10T13:03:58Z</time>
      </trkpt>
      <trkpt lat="43.84606" lon="6.51464">
        <ele>726.894043</ele>
        <time>2010-10-10T13:04:02Z</time>
      </trkpt>
      <trkpt lat="43.84603" lon="6.5149">
        <ele>725.9326172</ele>
        <time>2010-10-10T13:04:08Z</time>
      </trkpt>
      <trkpt lat="43.84603" lon="6.5151">
        <ele>727.3747559</ele>
        <time>2010-10-10T13:04:13Z</time>
      </trkpt>
      <trkpt lat="43.84603" lon="6.51513">
        <ele>727.3747559</ele>
        <time>2010-10-10T13:04:14Z</time>
      </trkpt>
      <trkpt lat="43.84604" lon="6.51515">
        <ele>727.3747559</ele>
        <time>2010-10-10T13:04:20Z</time>
      </trkpt>
      <trkpt lat="43.84601" lon="6.51514">
        <ele>729.2971191</ele>
        <time>2010-10-10T13:04:40Z</time>
      </trkpt>
    </trkseg>
  </trk>
</gpx>